<?xml version="1.0" encoding="UTF-8" standalone="no" ?>
<gpx xmlns="http://www.topografix.com/GPX/1/1" xmlns:xsi="http://www.w3.org/2001/XMLSchema-instance" xsi:schemaLocation="http://www.topografix.com/GPX/1/1 http://www.topografix.com/GPX/1/1/gpx.xsd" version="1.1" creator="VisuGPX - https://www.visugpx.com">
  <metadata>
    <name>De Jouy-en-Josas à Meudon</name>
    <desc><![CDATA[www.pasapascourbevoie.com]]></desc>
  </metadata>
  <trk>
    <name><![CDATA[ON move]]></name>
    <trkseg>
      <trkpt lat="48.76479" lon="2.16494">
        <ele>90</ele>
        <time>2012-12-16T09:25:01Z</time>
      </trkpt>
      <trkpt lat="48.76478" lon="2.16478">
        <ele>90</ele>
        <time>2012-12-16T09:25:14Z</time>
      </trkpt>
      <trkpt lat="48.76479" lon="2.1647">
        <ele>90</ele>
        <time>2012-12-16T09:25:19Z</time>
      </trkpt>
      <trkpt lat="48.76478" lon="2.16462">
        <ele>90</ele>
        <time>2012-12-16T09:25:24Z</time>
      </trkpt>
      <trkpt lat="48.76479" lon="2.16454">
        <ele>90</ele>
        <time>2012-12-16T09:25:29Z</time>
      </trkpt>
      <trkpt lat="48.76479" lon="2.16446">
        <ele>90</ele>
        <time>2012-12-16T09:25:35Z</time>
      </trkpt>
      <trkpt lat="48.76479" lon="2.16438">
        <ele>91</ele>
        <time>2012-12-16T09:25:40Z</time>
      </trkpt>
      <trkpt lat="48.76478" lon="2.16429">
        <ele>91</ele>
        <time>2012-12-16T09:25:46Z</time>
      </trkpt>
      <trkpt lat="48.76479" lon="2.16422">
        <ele>90</ele>
        <time>2012-12-16T09:25:51Z</time>
      </trkpt>
      <trkpt lat="48.76479" lon="2.16414">
        <ele>91</ele>
        <time>2012-12-16T09:25:55Z</time>
      </trkpt>
      <trkpt lat="48.76479" lon="2.16407">
        <ele>91</ele>
        <time>2012-12-16T09:25:59Z</time>
      </trkpt>
      <trkpt lat="48.7648" lon="2.164">
        <ele>91</ele>
        <time>2012-12-16T09:26:05Z</time>
      </trkpt>
      <trkpt lat="48.76481" lon="2.16392">
        <ele>91</ele>
        <time>2012-12-16T09:26:10Z</time>
      </trkpt>
      <trkpt lat="48.76485" lon="2.16387">
        <ele>91</ele>
        <time>2012-12-16T09:26:16Z</time>
      </trkpt>
      <trkpt lat="48.76485" lon="2.16379">
        <ele>91</ele>
        <time>2012-12-16T09:26:21Z</time>
      </trkpt>
      <trkpt lat="48.76491" lon="2.16378">
        <ele>91</ele>
        <time>2012-12-16T09:26:27Z</time>
      </trkpt>
      <trkpt lat="48.76495" lon="2.16381">
        <ele>91</ele>
        <time>2012-12-16T09:26:31Z</time>
      </trkpt>
      <trkpt lat="48.76497" lon="2.16389">
        <ele>91</ele>
        <time>2012-12-16T09:26:36Z</time>
      </trkpt>
      <trkpt lat="48.76498" lon="2.16404">
        <ele>90</ele>
        <time>2012-12-16T09:26:49Z</time>
      </trkpt>
      <trkpt lat="48.76502" lon="2.16411">
        <ele>90</ele>
        <time>2012-12-16T09:26:54Z</time>
      </trkpt>
      <trkpt lat="48.76506" lon="2.1642">
        <ele>90</ele>
        <time>2012-12-16T09:26:59Z</time>
      </trkpt>
      <trkpt lat="48.76506" lon="2.16427">
        <ele>91</ele>
        <time>2012-12-16T09:27:04Z</time>
      </trkpt>
      <trkpt lat="48.76505" lon="2.16435">
        <ele>91</ele>
        <time>2012-12-16T09:27:09Z</time>
      </trkpt>
      <trkpt lat="48.765" lon="2.16443">
        <ele>91</ele>
        <time>2012-12-16T09:27:14Z</time>
      </trkpt>
      <trkpt lat="48.76497" lon="2.16453">
        <ele>90</ele>
        <time>2012-12-16T09:27:19Z</time>
      </trkpt>
      <trkpt lat="48.76496" lon="2.16461">
        <ele>90</ele>
        <time>2012-12-16T09:27:22Z</time>
      </trkpt>
      <trkpt lat="48.76495" lon="2.16468">
        <ele>90</ele>
        <time>2012-12-16T09:27:26Z</time>
      </trkpt>
      <trkpt lat="48.76495" lon="2.16476">
        <ele>90</ele>
        <time>2012-12-16T09:27:31Z</time>
      </trkpt>
      <trkpt lat="48.76495" lon="2.16482">
        <ele>90</ele>
        <time>2012-12-16T09:27:35Z</time>
      </trkpt>
      <trkpt lat="48.76494" lon="2.1649">
        <ele>90</ele>
        <time>2012-12-16T09:27:40Z</time>
      </trkpt>
      <trkpt lat="48.76495" lon="2.16498">
        <ele>89</ele>
        <time>2012-12-16T09:27:46Z</time>
      </trkpt>
      <trkpt lat="48.76494" lon="2.16507">
        <ele>89</ele>
        <time>2012-12-16T09:27:51Z</time>
      </trkpt>
      <trkpt lat="48.76494" lon="2.16514">
        <ele>90</ele>
        <time>2012-12-16T09:27:55Z</time>
      </trkpt>
      <trkpt lat="48.76494" lon="2.16522">
        <ele>90</ele>
        <time>2012-12-16T09:27:59Z</time>
      </trkpt>
      <trkpt lat="48.76495" lon="2.1653">
        <ele>90</ele>
        <time>2012-12-16T09:28:04Z</time>
      </trkpt>
      <trkpt lat="48.76495" lon="2.16539">
        <ele>90</ele>
        <time>2012-12-16T09:28:09Z</time>
      </trkpt>
      <trkpt lat="48.76495" lon="2.16547">
        <ele>90</ele>
        <time>2012-12-16T09:28:14Z</time>
      </trkpt>
      <trkpt lat="48.76495" lon="2.16557">
        <ele>90</ele>
        <time>2012-12-16T09:28:19Z</time>
      </trkpt>
      <trkpt lat="48.76495" lon="2.16565">
        <ele>90</ele>
        <time>2012-12-16T09:28:24Z</time>
      </trkpt>
      <trkpt lat="48.76497" lon="2.16574">
        <ele>90</ele>
        <time>2012-12-16T09:28:29Z</time>
      </trkpt>
      <trkpt lat="48.76497" lon="2.16582">
        <ele>90</ele>
        <time>2012-12-16T09:28:34Z</time>
      </trkpt>
      <trkpt lat="48.76496" lon="2.16591">
        <ele>90</ele>
        <time>2012-12-16T09:28:39Z</time>
      </trkpt>
      <trkpt lat="48.76495" lon="2.166">
        <ele>90</ele>
        <time>2012-12-16T09:28:44Z</time>
      </trkpt>
      <trkpt lat="48.76496" lon="2.16607">
        <ele>90</ele>
        <time>2012-12-16T09:28:47Z</time>
      </trkpt>
      <trkpt lat="48.76496" lon="2.16614">
        <ele>90</ele>
        <time>2012-12-16T09:28:51Z</time>
      </trkpt>
      <trkpt lat="48.76495" lon="2.16623">
        <ele>90</ele>
        <time>2012-12-16T09:28:54Z</time>
      </trkpt>
      <trkpt lat="48.76495" lon="2.1663">
        <ele>90</ele>
        <time>2012-12-16T09:28:59Z</time>
      </trkpt>
      <trkpt lat="48.76493" lon="2.16639">
        <ele>90</ele>
        <time>2012-12-16T09:29:04Z</time>
      </trkpt>
      <trkpt lat="48.76492" lon="2.16653">
        <ele>89</ele>
        <time>2012-12-16T09:29:12Z</time>
      </trkpt>
      <trkpt lat="48.76491" lon="2.16661">
        <ele>89</ele>
        <time>2012-12-16T09:29:17Z</time>
      </trkpt>
      <trkpt lat="48.76491" lon="2.16669">
        <ele>88</ele>
        <time>2012-12-16T09:29:21Z</time>
      </trkpt>
      <trkpt lat="48.76491" lon="2.16679">
        <ele>89</ele>
        <time>2012-12-16T09:29:25Z</time>
      </trkpt>
      <trkpt lat="48.7649" lon="2.16688">
        <ele>89</ele>
        <time>2012-12-16T09:29:30Z</time>
      </trkpt>
      <trkpt lat="48.76489" lon="2.16695">
        <ele>89</ele>
        <time>2012-12-16T09:29:34Z</time>
      </trkpt>
      <trkpt lat="48.76488" lon="2.16704">
        <ele>89</ele>
        <time>2012-12-16T09:29:39Z</time>
      </trkpt>
      <trkpt lat="48.76492" lon="2.16702">
        <ele>89</ele>
        <time>2012-12-16T09:29:59Z</time>
      </trkpt>
      <trkpt lat="48.76497" lon="2.16705">
        <ele>89</ele>
        <time>2012-12-16T09:30:04Z</time>
      </trkpt>
      <trkpt lat="48.76498" lon="2.16713">
        <ele>89</ele>
        <time>2012-12-16T09:30:09Z</time>
      </trkpt>
      <trkpt lat="48.76498" lon="2.16722">
        <ele>89</ele>
        <time>2012-12-16T09:30:14Z</time>
      </trkpt>
      <trkpt lat="48.76498" lon="2.1673">
        <ele>88</ele>
        <time>2012-12-16T09:30:19Z</time>
      </trkpt>
      <trkpt lat="48.76498" lon="2.16738">
        <ele>88</ele>
        <time>2012-12-16T09:30:24Z</time>
      </trkpt>
      <trkpt lat="48.76497" lon="2.16746">
        <ele>87</ele>
        <time>2012-12-16T09:30:29Z</time>
      </trkpt>
      <trkpt lat="48.76495" lon="2.16755">
        <ele>88</ele>
        <time>2012-12-16T09:30:34Z</time>
      </trkpt>
      <trkpt lat="48.76494" lon="2.16763">
        <ele>88</ele>
        <time>2012-12-16T09:30:39Z</time>
      </trkpt>
      <trkpt lat="48.76494" lon="2.16771">
        <ele>88</ele>
        <time>2012-12-16T09:30:45Z</time>
      </trkpt>
      <trkpt lat="48.76493" lon="2.16779">
        <ele>89</ele>
        <time>2012-12-16T09:30:50Z</time>
      </trkpt>
      <trkpt lat="48.76493" lon="2.16788">
        <ele>89</ele>
        <time>2012-12-16T09:30:54Z</time>
      </trkpt>
      <trkpt lat="48.76492" lon="2.16798">
        <ele>89</ele>
        <time>2012-12-16T09:30:59Z</time>
      </trkpt>
      <trkpt lat="48.76492" lon="2.16809">
        <ele>89</ele>
        <time>2012-12-16T09:31:04Z</time>
      </trkpt>
      <trkpt lat="48.76491" lon="2.16818">
        <ele>89</ele>
        <time>2012-12-16T09:31:09Z</time>
      </trkpt>
      <trkpt lat="48.76491" lon="2.16827">
        <ele>89</ele>
        <time>2012-12-16T09:31:14Z</time>
      </trkpt>
      <trkpt lat="48.76491" lon="2.16836">
        <ele>88</ele>
        <time>2012-12-16T09:31:19Z</time>
      </trkpt>
      <trkpt lat="48.7649" lon="2.16843">
        <ele>89</ele>
        <time>2012-12-16T09:31:22Z</time>
      </trkpt>
      <trkpt lat="48.76488" lon="2.16852">
        <ele>89</ele>
        <time>2012-12-16T09:31:29Z</time>
      </trkpt>
      <trkpt lat="48.76486" lon="2.16862">
        <ele>89</ele>
        <time>2012-12-16T09:31:34Z</time>
      </trkpt>
      <trkpt lat="48.76487" lon="2.16869">
        <ele>89</ele>
        <time>2012-12-16T09:31:37Z</time>
      </trkpt>
      <trkpt lat="48.76495" lon="2.1688">
        <ele>89</ele>
        <time>2012-12-16T09:31:44Z</time>
      </trkpt>
      <trkpt lat="48.76495" lon="2.16888">
        <ele>89</ele>
        <time>2012-12-16T09:31:49Z</time>
      </trkpt>
      <trkpt lat="48.76492" lon="2.16894">
        <ele>89</ele>
        <time>2012-12-16T09:31:54Z</time>
      </trkpt>
      <trkpt lat="48.7649" lon="2.16901">
        <ele>89</ele>
        <time>2012-12-16T09:31:59Z</time>
      </trkpt>
      <trkpt lat="48.7649" lon="2.16911">
        <ele>88</ele>
        <time>2012-12-16T09:32:04Z</time>
      </trkpt>
      <trkpt lat="48.76488" lon="2.16918">
        <ele>88</ele>
        <time>2012-12-16T09:32:09Z</time>
      </trkpt>
      <trkpt lat="48.76487" lon="2.16926">
        <ele>88</ele>
        <time>2012-12-16T09:32:14Z</time>
      </trkpt>
      <trkpt lat="48.76486" lon="2.16935">
        <ele>88</ele>
        <time>2012-12-16T09:32:20Z</time>
      </trkpt>
      <trkpt lat="48.76484" lon="2.16945">
        <ele>88</ele>
        <time>2012-12-16T09:32:24Z</time>
      </trkpt>
      <trkpt lat="48.76483" lon="2.16954">
        <ele>88</ele>
        <time>2012-12-16T09:32:29Z</time>
      </trkpt>
      <trkpt lat="48.76483" lon="2.16961">
        <ele>89</ele>
        <time>2012-12-16T09:32:32Z</time>
      </trkpt>
      <trkpt lat="48.76485" lon="2.16968">
        <ele>89</ele>
        <time>2012-12-16T09:32:36Z</time>
      </trkpt>
      <trkpt lat="48.76486" lon="2.16975">
        <ele>89</ele>
        <time>2012-12-16T09:32:40Z</time>
      </trkpt>
      <trkpt lat="48.76487" lon="2.16985">
        <ele>89</ele>
        <time>2012-12-16T09:32:44Z</time>
      </trkpt>
      <trkpt lat="48.7649" lon="2.16993">
        <ele>89</ele>
        <time>2012-12-16T09:32:49Z</time>
      </trkpt>
      <trkpt lat="48.76494" lon="2.17002">
        <ele>89</ele>
        <time>2012-12-16T09:32:54Z</time>
      </trkpt>
      <trkpt lat="48.76497" lon="2.17009">
        <ele>89</ele>
        <time>2012-12-16T09:32:59Z</time>
      </trkpt>
      <trkpt lat="48.76498" lon="2.17016">
        <ele>89</ele>
        <time>2012-12-16T09:33:02Z</time>
      </trkpt>
      <trkpt lat="48.76498" lon="2.17024">
        <ele>89</ele>
        <time>2012-12-16T09:33:07Z</time>
      </trkpt>
      <trkpt lat="48.76499" lon="2.17032">
        <ele>89</ele>
        <time>2012-12-16T09:33:10Z</time>
      </trkpt>
      <trkpt lat="48.765" lon="2.17046">
        <ele>89</ele>
        <time>2012-12-16T09:33:17Z</time>
      </trkpt>
      <trkpt lat="48.76498" lon="2.17054">
        <ele>89</ele>
        <time>2012-12-16T09:33:22Z</time>
      </trkpt>
      <trkpt lat="48.76497" lon="2.17061">
        <ele>90</ele>
        <time>2012-12-16T09:33:27Z</time>
      </trkpt>
      <trkpt lat="48.76497" lon="2.1707">
        <ele>90</ele>
        <time>2012-12-16T09:33:32Z</time>
      </trkpt>
      <trkpt lat="48.76497" lon="2.17078">
        <ele>90</ele>
        <time>2012-12-16T09:33:37Z</time>
      </trkpt>
      <trkpt lat="48.76498" lon="2.17086">
        <ele>90</ele>
        <time>2012-12-16T09:33:40Z</time>
      </trkpt>
      <trkpt lat="48.76499" lon="2.17095">
        <ele>90</ele>
        <time>2012-12-16T09:33:45Z</time>
      </trkpt>
      <trkpt lat="48.765" lon="2.17103">
        <ele>90</ele>
        <time>2012-12-16T09:33:49Z</time>
      </trkpt>
      <trkpt lat="48.765" lon="2.17111">
        <ele>90</ele>
        <time>2012-12-16T09:33:54Z</time>
      </trkpt>
      <trkpt lat="48.765" lon="2.17121">
        <ele>92</ele>
        <time>2012-12-16T09:33:59Z</time>
      </trkpt>
      <trkpt lat="48.76501" lon="2.17127">
        <ele>92</ele>
        <time>2012-12-16T09:34:04Z</time>
      </trkpt>
      <trkpt lat="48.76502" lon="2.17135">
        <ele>92</ele>
        <time>2012-12-16T09:34:09Z</time>
      </trkpt>
      <trkpt lat="48.76502" lon="2.17144">
        <ele>92</ele>
        <time>2012-12-16T09:34:14Z</time>
      </trkpt>
      <trkpt lat="48.76503" lon="2.17154">
        <ele>92</ele>
        <time>2012-12-16T09:34:19Z</time>
      </trkpt>
      <trkpt lat="48.76504" lon="2.17163">
        <ele>92</ele>
        <time>2012-12-16T09:34:24Z</time>
      </trkpt>
      <trkpt lat="48.76506" lon="2.17171">
        <ele>92</ele>
        <time>2012-12-16T09:34:29Z</time>
      </trkpt>
      <trkpt lat="48.7651" lon="2.17178">
        <ele>93</ele>
        <time>2012-12-16T09:34:34Z</time>
      </trkpt>
      <trkpt lat="48.76514" lon="2.17182">
        <ele>93</ele>
        <time>2012-12-16T09:34:37Z</time>
      </trkpt>
      <trkpt lat="48.76518" lon="2.17188">
        <ele>94</ele>
        <time>2012-12-16T09:34:41Z</time>
      </trkpt>
      <trkpt lat="48.76522" lon="2.17193">
        <ele>94</ele>
        <time>2012-12-16T09:34:45Z</time>
      </trkpt>
      <trkpt lat="48.76527" lon="2.17198">
        <ele>94</ele>
        <time>2012-12-16T09:34:49Z</time>
      </trkpt>
      <trkpt lat="48.76529" lon="2.17204">
        <ele>94</ele>
        <time>2012-12-16T09:34:57Z</time>
      </trkpt>
      <trkpt lat="48.76532" lon="2.1721">
        <ele>95</ele>
        <time>2012-12-16T09:35:00Z</time>
      </trkpt>
      <trkpt lat="48.76536" lon="2.17217">
        <ele>95</ele>
        <time>2012-12-16T09:35:04Z</time>
      </trkpt>
      <trkpt lat="48.76537" lon="2.17226">
        <ele>95</ele>
        <time>2012-12-16T09:35:09Z</time>
      </trkpt>
      <trkpt lat="48.76538" lon="2.17234">
        <ele>95</ele>
        <time>2012-12-16T09:35:14Z</time>
      </trkpt>
      <trkpt lat="48.76541" lon="2.17241">
        <ele>95</ele>
        <time>2012-12-16T09:35:19Z</time>
      </trkpt>
      <trkpt lat="48.76542" lon="2.17249">
        <ele>95</ele>
        <time>2012-12-16T09:35:22Z</time>
      </trkpt>
      <trkpt lat="48.76542" lon="2.17257">
        <ele>96</ele>
        <time>2012-12-16T09:35:26Z</time>
      </trkpt>
      <trkpt lat="48.76543" lon="2.17264">
        <ele>96</ele>
        <time>2012-12-16T09:35:29Z</time>
      </trkpt>
      <trkpt lat="48.76543" lon="2.17274">
        <ele>96</ele>
        <time>2012-12-16T09:35:34Z</time>
      </trkpt>
      <trkpt lat="48.76545" lon="2.17282">
        <ele>96</ele>
        <time>2012-12-16T09:35:39Z</time>
      </trkpt>
      <trkpt lat="48.76546" lon="2.17289">
        <ele>97</ele>
        <time>2012-12-16T09:35:42Z</time>
      </trkpt>
      <trkpt lat="48.76545" lon="2.17298">
        <ele>97</ele>
        <time>2012-12-16T09:35:46Z</time>
      </trkpt>
      <trkpt lat="48.76545" lon="2.17306">
        <ele>97</ele>
        <time>2012-12-16T09:35:51Z</time>
      </trkpt>
      <trkpt lat="48.76546" lon="2.17314">
        <ele>97</ele>
        <time>2012-12-16T09:35:55Z</time>
      </trkpt>
      <trkpt lat="48.76545" lon="2.17322">
        <ele>97</ele>
        <time>2012-12-16T09:35:59Z</time>
      </trkpt>
      <trkpt lat="48.76546" lon="2.17331">
        <ele>97</ele>
        <time>2012-12-16T09:36:04Z</time>
      </trkpt>
      <trkpt lat="48.76547" lon="2.17341">
        <ele>99</ele>
        <time>2012-12-16T09:36:09Z</time>
      </trkpt>
      <trkpt lat="48.76545" lon="2.17348">
        <ele>99</ele>
        <time>2012-12-16T09:36:12Z</time>
      </trkpt>
      <trkpt lat="48.76545" lon="2.17355">
        <ele>99</ele>
        <time>2012-12-16T09:36:15Z</time>
      </trkpt>
      <trkpt lat="48.76546" lon="2.17362">
        <ele>99</ele>
        <time>2012-12-16T09:36:19Z</time>
      </trkpt>
      <trkpt lat="48.76547" lon="2.1737">
        <ele>99</ele>
        <time>2012-12-16T09:36:24Z</time>
      </trkpt>
      <trkpt lat="48.76548" lon="2.17378">
        <ele>99</ele>
        <time>2012-12-16T09:36:27Z</time>
      </trkpt>
      <trkpt lat="48.76547" lon="2.17387">
        <ele>100</ele>
        <time>2012-12-16T09:36:32Z</time>
      </trkpt>
      <trkpt lat="48.76548" lon="2.17394">
        <ele>100</ele>
        <time>2012-12-16T09:36:36Z</time>
      </trkpt>
      <trkpt lat="48.76548" lon="2.17401">
        <ele>100</ele>
        <time>2012-12-16T09:36:39Z</time>
      </trkpt>
      <trkpt lat="48.76547" lon="2.17409">
        <ele>100</ele>
        <time>2012-12-16T09:36:44Z</time>
      </trkpt>
      <trkpt lat="48.76547" lon="2.17417">
        <ele>102</ele>
        <time>2012-12-16T09:36:49Z</time>
      </trkpt>
      <trkpt lat="48.76548" lon="2.17425">
        <ele>102</ele>
        <time>2012-12-16T09:36:54Z</time>
      </trkpt>
      <trkpt lat="48.76549" lon="2.17434">
        <ele>102</ele>
        <time>2012-12-16T09:36:57Z</time>
      </trkpt>
      <trkpt lat="48.76549" lon="2.17442">
        <ele>102</ele>
        <time>2012-12-16T09:37:01Z</time>
      </trkpt>
      <trkpt lat="48.7655" lon="2.17449">
        <ele>103</ele>
        <time>2012-12-16T09:37:04Z</time>
      </trkpt>
      <trkpt lat="48.76552" lon="2.17459">
        <ele>103</ele>
        <time>2012-12-16T09:37:09Z</time>
      </trkpt>
      <trkpt lat="48.76554" lon="2.17467">
        <ele>103</ele>
        <time>2012-12-16T09:37:14Z</time>
      </trkpt>
      <trkpt lat="48.76557" lon="2.17473">
        <ele>104</ele>
        <time>2012-12-16T09:37:17Z</time>
      </trkpt>
      <trkpt lat="48.76559" lon="2.17479">
        <ele>105</ele>
        <time>2012-12-16T09:37:21Z</time>
      </trkpt>
      <trkpt lat="48.76563" lon="2.17485">
        <ele>106</ele>
        <time>2012-12-16T09:37:24Z</time>
      </trkpt>
      <trkpt lat="48.76565" lon="2.17491">
        <ele>106</ele>
        <time>2012-12-16T09:37:27Z</time>
      </trkpt>
      <trkpt lat="48.76568" lon="2.17498">
        <ele>108</ele>
        <time>2012-12-16T09:37:30Z</time>
      </trkpt>
      <trkpt lat="48.76572" lon="2.17504">
        <ele>109</ele>
        <time>2012-12-16T09:37:34Z</time>
      </trkpt>
      <trkpt lat="48.76575" lon="2.1751">
        <ele>109</ele>
        <time>2012-12-16T09:37:37Z</time>
      </trkpt>
      <trkpt lat="48.76579" lon="2.17515">
        <ele>108</ele>
        <time>2012-12-16T09:37:41Z</time>
      </trkpt>
      <trkpt lat="48.76582" lon="2.1752">
        <ele>108</ele>
        <time>2012-12-16T09:37:46Z</time>
      </trkpt>
      <trkpt lat="48.76586" lon="2.17525">
        <ele>119</ele>
        <time>2012-12-16T09:37:49Z</time>
      </trkpt>
      <trkpt lat="48.76588" lon="2.17535">
        <ele>119</ele>
        <time>2012-12-16T09:37:54Z</time>
      </trkpt>
      <trkpt lat="48.76588" lon="2.17544">
        <ele>119</ele>
        <time>2012-12-16T09:37:59Z</time>
      </trkpt>
      <trkpt lat="48.7659" lon="2.17552">
        <ele>119</ele>
        <time>2012-12-16T09:38:04Z</time>
      </trkpt>
      <trkpt lat="48.76591" lon="2.17559">
        <ele>118</ele>
        <time>2012-12-16T09:38:09Z</time>
      </trkpt>
      <trkpt lat="48.76593" lon="2.17568">
        <ele>117</ele>
        <time>2012-12-16T09:38:14Z</time>
      </trkpt>
      <trkpt lat="48.76595" lon="2.17577">
        <ele>116</ele>
        <time>2012-12-16T09:38:19Z</time>
      </trkpt>
      <trkpt lat="48.76596" lon="2.17584">
        <ele>115</ele>
        <time>2012-12-16T09:38:22Z</time>
      </trkpt>
      <trkpt lat="48.76598" lon="2.17592">
        <ele>116</ele>
        <time>2012-12-16T09:38:26Z</time>
      </trkpt>
      <trkpt lat="48.76601" lon="2.17599">
        <ele>117</ele>
        <time>2012-12-16T09:38:29Z</time>
      </trkpt>
      <trkpt lat="48.76603" lon="2.17611">
        <ele>117</ele>
        <time>2012-12-16T09:38:34Z</time>
      </trkpt>
      <trkpt lat="48.76603" lon="2.17619">
        <ele>117</ele>
        <time>2012-12-16T09:38:39Z</time>
      </trkpt>
      <trkpt lat="48.76604" lon="2.17626">
        <ele>117</ele>
        <time>2012-12-16T09:38:42Z</time>
      </trkpt>
      <trkpt lat="48.76608" lon="2.17632">
        <ele>117</ele>
        <time>2012-12-16T09:38:46Z</time>
      </trkpt>
      <trkpt lat="48.76607" lon="2.1764">
        <ele>117</ele>
        <time>2012-12-16T09:38:49Z</time>
      </trkpt>
      <trkpt lat="48.76608" lon="2.17649">
        <ele>116</ele>
        <time>2012-12-16T09:38:54Z</time>
      </trkpt>
      <trkpt lat="48.76608" lon="2.17658">
        <ele>115</ele>
        <time>2012-12-16T09:38:59Z</time>
      </trkpt>
      <trkpt lat="48.76609" lon="2.17666">
        <ele>115</ele>
        <time>2012-12-16T09:39:02Z</time>
      </trkpt>
      <trkpt lat="48.7661" lon="2.17674">
        <ele>113</ele>
        <time>2012-12-16T09:39:07Z</time>
      </trkpt>
      <trkpt lat="48.76612" lon="2.17681">
        <ele>114</ele>
        <time>2012-12-16T09:39:10Z</time>
      </trkpt>
      <trkpt lat="48.76613" lon="2.17689">
        <ele>115</ele>
        <time>2012-12-16T09:39:15Z</time>
      </trkpt>
      <trkpt lat="48.76615" lon="2.17697">
        <ele>115</ele>
        <time>2012-12-16T09:39:19Z</time>
      </trkpt>
      <trkpt lat="48.76616" lon="2.17709">
        <ele>115</ele>
        <time>2012-12-16T09:39:24Z</time>
      </trkpt>
      <trkpt lat="48.76616" lon="2.17717">
        <ele>115</ele>
        <time>2012-12-16T09:39:29Z</time>
      </trkpt>
      <trkpt lat="48.76618" lon="2.17725">
        <ele>115</ele>
        <time>2012-12-16T09:39:32Z</time>
      </trkpt>
      <trkpt lat="48.76619" lon="2.17732">
        <ele>115</ele>
        <time>2012-12-16T09:39:37Z</time>
      </trkpt>
      <trkpt lat="48.76619" lon="2.17739">
        <ele>115</ele>
        <time>2012-12-16T09:39:41Z</time>
      </trkpt>
      <trkpt lat="48.76621" lon="2.17747">
        <ele>115</ele>
        <time>2012-12-16T09:39:46Z</time>
      </trkpt>
      <trkpt lat="48.76622" lon="2.17755">
        <ele>114</ele>
        <time>2012-12-16T09:39:50Z</time>
      </trkpt>
      <trkpt lat="48.76624" lon="2.17765">
        <ele>114</ele>
        <time>2012-12-16T09:39:54Z</time>
      </trkpt>
      <trkpt lat="48.76626" lon="2.17776">
        <ele>114</ele>
        <time>2012-12-16T09:39:59Z</time>
      </trkpt>
      <trkpt lat="48.76627" lon="2.17785">
        <ele>114</ele>
        <time>2012-12-16T09:40:04Z</time>
      </trkpt>
      <trkpt lat="48.76629" lon="2.17792">
        <ele>114</ele>
        <time>2012-12-16T09:40:07Z</time>
      </trkpt>
      <trkpt lat="48.76629" lon="2.17799">
        <ele>114</ele>
        <time>2012-12-16T09:40:11Z</time>
      </trkpt>
      <trkpt lat="48.76631" lon="2.17807">
        <ele>114</ele>
        <time>2012-12-16T09:40:14Z</time>
      </trkpt>
      <trkpt lat="48.76633" lon="2.17816">
        <ele>114</ele>
        <time>2012-12-16T09:40:19Z</time>
      </trkpt>
      <trkpt lat="48.76634" lon="2.17825">
        <ele>114</ele>
        <time>2012-12-16T09:40:24Z</time>
      </trkpt>
      <trkpt lat="48.76635" lon="2.17832">
        <ele>115</ele>
        <time>2012-12-16T09:40:27Z</time>
      </trkpt>
      <trkpt lat="48.76636" lon="2.17841">
        <ele>113</ele>
        <time>2012-12-16T09:40:31Z</time>
      </trkpt>
      <trkpt lat="48.76638" lon="2.17847">
        <ele>113</ele>
        <time>2012-12-16T09:40:35Z</time>
      </trkpt>
      <trkpt lat="48.7664" lon="2.17857">
        <ele>113</ele>
        <time>2012-12-16T09:40:39Z</time>
      </trkpt>
      <trkpt lat="48.76643" lon="2.17864">
        <ele>113</ele>
        <time>2012-12-16T09:40:44Z</time>
      </trkpt>
      <trkpt lat="48.76645" lon="2.17872">
        <ele>113</ele>
        <time>2012-12-16T09:40:49Z</time>
      </trkpt>
      <trkpt lat="48.76644" lon="2.17881">
        <ele>113</ele>
        <time>2012-12-16T09:40:54Z</time>
      </trkpt>
      <trkpt lat="48.76645" lon="2.17892">
        <ele>113</ele>
        <time>2012-12-16T09:40:59Z</time>
      </trkpt>
      <trkpt lat="48.76643" lon="2.17902">
        <ele>113</ele>
        <time>2012-12-16T09:41:04Z</time>
      </trkpt>
      <trkpt lat="48.76643" lon="2.17911">
        <ele>113</ele>
        <time>2012-12-16T09:41:09Z</time>
      </trkpt>
      <trkpt lat="48.76642" lon="2.17919">
        <ele>112</ele>
        <time>2012-12-16T09:41:12Z</time>
      </trkpt>
      <trkpt lat="48.76642" lon="2.17933">
        <ele>112</ele>
        <time>2012-12-16T09:41:19Z</time>
      </trkpt>
      <trkpt lat="48.76645" lon="2.17941">
        <ele>111</ele>
        <time>2012-12-16T09:41:24Z</time>
      </trkpt>
      <trkpt lat="48.76648" lon="2.17948">
        <ele>111</ele>
        <time>2012-12-16T09:41:27Z</time>
      </trkpt>
      <trkpt lat="48.76649" lon="2.17962">
        <ele>111</ele>
        <time>2012-12-16T09:41:34Z</time>
      </trkpt>
      <trkpt lat="48.76649" lon="2.17971">
        <ele>111</ele>
        <time>2012-12-16T09:41:39Z</time>
      </trkpt>
      <trkpt lat="48.7665" lon="2.17978">
        <ele>111</ele>
        <time>2012-12-16T09:41:42Z</time>
      </trkpt>
      <trkpt lat="48.7665" lon="2.17987">
        <ele>111</ele>
        <time>2012-12-16T09:41:47Z</time>
      </trkpt>
      <trkpt lat="48.76651" lon="2.17995">
        <ele>112</ele>
        <time>2012-12-16T09:41:50Z</time>
      </trkpt>
      <trkpt lat="48.76651" lon="2.18004">
        <ele>111</ele>
        <time>2012-12-16T09:41:55Z</time>
      </trkpt>
      <trkpt lat="48.76653" lon="2.18011">
        <ele>111</ele>
        <time>2012-12-16T09:41:59Z</time>
      </trkpt>
      <trkpt lat="48.76653" lon="2.18022">
        <ele>110</ele>
        <time>2012-12-16T09:42:04Z</time>
      </trkpt>
      <trkpt lat="48.76654" lon="2.1803">
        <ele>110</ele>
        <time>2012-12-16T09:42:09Z</time>
      </trkpt>
      <trkpt lat="48.76655" lon="2.18037">
        <ele>109</ele>
        <time>2012-12-16T09:42:12Z</time>
      </trkpt>
      <trkpt lat="48.76655" lon="2.18046">
        <ele>109</ele>
        <time>2012-12-16T09:42:17Z</time>
      </trkpt>
      <trkpt lat="48.76656" lon="2.18055">
        <ele>109</ele>
        <time>2012-12-16T09:42:22Z</time>
      </trkpt>
      <trkpt lat="48.76658" lon="2.18063">
        <ele>109</ele>
        <time>2012-12-16T09:42:25Z</time>
      </trkpt>
      <trkpt lat="48.76658" lon="2.18071">
        <ele>110</ele>
        <time>2012-12-16T09:42:30Z</time>
      </trkpt>
      <trkpt lat="48.76659" lon="2.18078">
        <ele>110</ele>
        <time>2012-12-16T09:42:34Z</time>
      </trkpt>
      <trkpt lat="48.7666" lon="2.18093">
        <ele>109</ele>
        <time>2012-12-16T09:42:40Z</time>
      </trkpt>
      <trkpt lat="48.76661" lon="2.18102">
        <ele>108</ele>
        <time>2012-12-16T09:42:45Z</time>
      </trkpt>
      <trkpt lat="48.76663" lon="2.18108">
        <ele>108</ele>
        <time>2012-12-16T09:42:49Z</time>
      </trkpt>
      <trkpt lat="48.76663" lon="2.18121">
        <ele>107</ele>
        <time>2012-12-16T09:42:54Z</time>
      </trkpt>
      <trkpt lat="48.76662" lon="2.18129">
        <ele>107</ele>
        <time>2012-12-16T09:42:59Z</time>
      </trkpt>
      <trkpt lat="48.76664" lon="2.18136">
        <ele>107</ele>
        <time>2012-12-16T09:43:02Z</time>
      </trkpt>
      <trkpt lat="48.76666" lon="2.1815">
        <ele>107</ele>
        <time>2012-12-16T09:43:09Z</time>
      </trkpt>
      <trkpt lat="48.76667" lon="2.18158">
        <ele>110</ele>
        <time>2012-12-16T09:43:14Z</time>
      </trkpt>
      <trkpt lat="48.76669" lon="2.18167">
        <ele>109</ele>
        <time>2012-12-16T09:43:20Z</time>
      </trkpt>
      <trkpt lat="48.76668" lon="2.18175">
        <ele>110</ele>
        <time>2012-12-16T09:43:25Z</time>
      </trkpt>
      <trkpt lat="48.76665" lon="2.18185">
        <ele>107</ele>
        <time>2012-12-16T09:43:29Z</time>
      </trkpt>
      <trkpt lat="48.76663" lon="2.18195">
        <ele>106</ele>
        <time>2012-12-16T09:43:34Z</time>
      </trkpt>
      <trkpt lat="48.76663" lon="2.18203">
        <ele>107</ele>
        <time>2012-12-16T09:43:39Z</time>
      </trkpt>
      <trkpt lat="48.76668" lon="2.18207">
        <ele>114</ele>
        <time>2012-12-16T09:43:44Z</time>
      </trkpt>
      <trkpt lat="48.76674" lon="2.18203">
        <ele>114</ele>
        <time>2012-12-16T09:43:49Z</time>
      </trkpt>
      <trkpt lat="48.76678" lon="2.182">
        <ele>114</ele>
        <time>2012-12-16T09:43:54Z</time>
      </trkpt>
      <trkpt lat="48.76683" lon="2.18196">
        <ele>114</ele>
        <time>2012-12-16T09:43:59Z</time>
      </trkpt>
      <trkpt lat="48.76689" lon="2.18194">
        <ele>114</ele>
        <time>2012-12-16T09:44:04Z</time>
      </trkpt>
      <trkpt lat="48.76694" lon="2.18193">
        <ele>115</ele>
        <time>2012-12-16T09:44:07Z</time>
      </trkpt>
      <trkpt lat="48.76699" lon="2.1819">
        <ele>115</ele>
        <time>2012-12-16T09:44:11Z</time>
      </trkpt>
      <trkpt lat="48.76702" lon="2.18185">
        <ele>115</ele>
        <time>2012-12-16T09:44:15Z</time>
      </trkpt>
      <trkpt lat="48.76709" lon="2.18181">
        <ele>115</ele>
        <time>2012-12-16T09:44:19Z</time>
      </trkpt>
      <trkpt lat="48.76715" lon="2.18179">
        <ele>116</ele>
        <time>2012-12-16T09:44:24Z</time>
      </trkpt>
      <trkpt lat="48.7672" lon="2.18177">
        <ele>116</ele>
        <time>2012-12-16T09:44:29Z</time>
      </trkpt>
      <trkpt lat="48.76727" lon="2.18176">
        <ele>116</ele>
        <time>2012-12-16T09:44:34Z</time>
      </trkpt>
      <trkpt lat="48.76732" lon="2.18176">
        <ele>117</ele>
        <time>2012-12-16T09:44:39Z</time>
      </trkpt>
      <trkpt lat="48.76738" lon="2.18173">
        <ele>117</ele>
        <time>2012-12-16T09:44:44Z</time>
      </trkpt>
      <trkpt lat="48.76743" lon="2.18173">
        <ele>117</ele>
        <time>2012-12-16T09:44:47Z</time>
      </trkpt>
      <trkpt lat="48.76748" lon="2.18172">
        <ele>117</ele>
        <time>2012-12-16T09:44:52Z</time>
      </trkpt>
      <trkpt lat="48.76755" lon="2.18172">
        <ele>120</ele>
        <time>2012-12-16T09:44:59Z</time>
      </trkpt>
      <trkpt lat="48.76762" lon="2.18174">
        <ele>122</ele>
        <time>2012-12-16T09:45:04Z</time>
      </trkpt>
      <trkpt lat="48.76766" lon="2.18177">
        <ele>124</ele>
        <time>2012-12-16T09:45:09Z</time>
      </trkpt>
      <trkpt lat="48.76771" lon="2.18177">
        <ele>124</ele>
        <time>2012-12-16T09:45:14Z</time>
      </trkpt>
      <trkpt lat="48.76777" lon="2.18176">
        <ele>125</ele>
        <time>2012-12-16T09:45:19Z</time>
      </trkpt>
      <trkpt lat="48.76781" lon="2.18174">
        <ele>126</ele>
        <time>2012-12-16T09:45:24Z</time>
      </trkpt>
      <trkpt lat="48.76786" lon="2.18174">
        <ele>127</ele>
        <time>2012-12-16T09:45:30Z</time>
      </trkpt>
      <trkpt lat="48.76791" lon="2.18174">
        <ele>127</ele>
        <time>2012-12-16T09:45:35Z</time>
      </trkpt>
      <trkpt lat="48.76796" lon="2.18171">
        <ele>127</ele>
        <time>2012-12-16T09:45:39Z</time>
      </trkpt>
      <trkpt lat="48.76801" lon="2.18169">
        <ele>128</ele>
        <time>2012-12-16T09:45:44Z</time>
      </trkpt>
      <trkpt lat="48.7681" lon="2.18169">
        <ele>128</ele>
        <time>2012-12-16T09:45:55Z</time>
      </trkpt>
      <trkpt lat="48.76815" lon="2.18167">
        <ele>128</ele>
        <time>2012-12-16T09:46:01Z</time>
      </trkpt>
      <trkpt lat="48.76821" lon="2.18166">
        <ele>126</ele>
        <time>2012-12-16T09:46:07Z</time>
      </trkpt>
      <trkpt lat="48.76826" lon="2.18162">
        <ele>126</ele>
        <time>2012-12-16T09:46:10Z</time>
      </trkpt>
      <trkpt lat="48.7683" lon="2.18157">
        <ele>126</ele>
        <time>2012-12-16T09:46:15Z</time>
      </trkpt>
      <trkpt lat="48.76834" lon="2.18154">
        <ele>129</ele>
        <time>2012-12-16T09:46:20Z</time>
      </trkpt>
      <trkpt lat="48.76844" lon="2.18157">
        <ele>129</ele>
        <time>2012-12-16T09:46:27Z</time>
      </trkpt>
      <trkpt lat="48.76853" lon="2.18163">
        <ele>129</ele>
        <time>2012-12-16T09:46:37Z</time>
      </trkpt>
      <trkpt lat="48.76857" lon="2.18167">
        <ele>134</ele>
        <time>2012-12-16T09:46:40Z</time>
      </trkpt>
      <trkpt lat="48.76863" lon="2.18172">
        <ele>135</ele>
        <time>2012-12-16T09:46:44Z</time>
      </trkpt>
      <trkpt lat="48.76869" lon="2.18174">
        <ele>136</ele>
        <time>2012-12-16T09:46:49Z</time>
      </trkpt>
      <trkpt lat="48.76873" lon="2.18177">
        <ele>136</ele>
        <time>2012-12-16T09:46:55Z</time>
      </trkpt>
      <trkpt lat="48.76878" lon="2.1818">
        <ele>136</ele>
        <time>2012-12-16T09:47:00Z</time>
      </trkpt>
      <trkpt lat="48.76882" lon="2.18184">
        <ele>137</ele>
        <time>2012-12-16T09:47:07Z</time>
      </trkpt>
      <trkpt lat="48.76887" lon="2.18184">
        <ele>137</ele>
        <time>2012-12-16T09:47:14Z</time>
      </trkpt>
      <trkpt lat="48.76892" lon="2.18185">
        <ele>137</ele>
        <time>2012-12-16T09:47:24Z</time>
      </trkpt>
      <trkpt lat="48.76897" lon="2.18189">
        <ele>137</ele>
        <time>2012-12-16T09:47:30Z</time>
      </trkpt>
      <trkpt lat="48.76902" lon="2.1819">
        <ele>137</ele>
        <time>2012-12-16T09:47:36Z</time>
      </trkpt>
      <trkpt lat="48.76906" lon="2.18196">
        <ele>138</ele>
        <time>2012-12-16T09:47:41Z</time>
      </trkpt>
      <trkpt lat="48.7691" lon="2.18201">
        <ele>139</ele>
        <time>2012-12-16T09:47:45Z</time>
      </trkpt>
      <trkpt lat="48.76914" lon="2.18206">
        <ele>140</ele>
        <time>2012-12-16T09:47:52Z</time>
      </trkpt>
      <trkpt lat="48.76919" lon="2.18209">
        <ele>144</ele>
        <time>2012-12-16T09:47:57Z</time>
      </trkpt>
      <trkpt lat="48.76923" lon="2.18213">
        <ele>145</ele>
        <time>2012-12-16T09:48:06Z</time>
      </trkpt>
      <trkpt lat="48.7693" lon="2.18222">
        <ele>147</ele>
        <time>2012-12-16T09:48:14Z</time>
      </trkpt>
      <trkpt lat="48.76935" lon="2.1823">
        <ele>147</ele>
        <time>2012-12-16T09:48:19Z</time>
      </trkpt>
      <trkpt lat="48.76939" lon="2.18232">
        <ele>147</ele>
        <time>2012-12-16T09:48:24Z</time>
      </trkpt>
      <trkpt lat="48.76944" lon="2.18235">
        <ele>148</ele>
        <time>2012-12-16T09:48:27Z</time>
      </trkpt>
      <trkpt lat="48.76948" lon="2.1824">
        <ele>148</ele>
        <time>2012-12-16T09:48:31Z</time>
      </trkpt>
      <trkpt lat="48.76952" lon="2.18245">
        <ele>148</ele>
        <time>2012-12-16T09:48:37Z</time>
      </trkpt>
      <trkpt lat="48.76956" lon="2.1825">
        <ele>149</ele>
        <time>2012-12-16T09:48:44Z</time>
      </trkpt>
      <trkpt lat="48.7696" lon="2.18254">
        <ele>157</ele>
        <time>2012-12-16T09:48:49Z</time>
      </trkpt>
      <trkpt lat="48.76963" lon="2.1826">
        <ele>157</ele>
        <time>2012-12-16T09:49:00Z</time>
      </trkpt>
      <trkpt lat="48.76967" lon="2.18265">
        <ele>157</ele>
        <time>2012-12-16T09:49:04Z</time>
      </trkpt>
      <trkpt lat="48.76972" lon="2.1827">
        <ele>158</ele>
        <time>2012-12-16T09:49:09Z</time>
      </trkpt>
      <trkpt lat="48.76976" lon="2.18276">
        <ele>158</ele>
        <time>2012-12-16T09:49:15Z</time>
      </trkpt>
      <trkpt lat="48.76981" lon="2.1828">
        <ele>158</ele>
        <time>2012-12-16T09:49:24Z</time>
      </trkpt>
      <trkpt lat="48.7699" lon="2.18288">
        <ele>159</ele>
        <time>2012-12-16T09:49:39Z</time>
      </trkpt>
      <trkpt lat="48.76995" lon="2.1829">
        <ele>159</ele>
        <time>2012-12-16T09:49:44Z</time>
      </trkpt>
      <trkpt lat="48.76999" lon="2.18295">
        <ele>160</ele>
        <time>2012-12-16T09:49:51Z</time>
      </trkpt>
      <trkpt lat="48.77005" lon="2.18295">
        <ele>161</ele>
        <time>2012-12-16T09:49:59Z</time>
      </trkpt>
      <trkpt lat="48.77008" lon="2.18301">
        <ele>162</ele>
        <time>2012-12-16T09:50:06Z</time>
      </trkpt>
      <trkpt lat="48.77013" lon="2.18303">
        <ele>162</ele>
        <time>2012-12-16T09:50:14Z</time>
      </trkpt>
      <trkpt lat="48.77019" lon="2.18307">
        <ele>162</ele>
        <time>2012-12-16T09:50:19Z</time>
      </trkpt>
      <trkpt lat="48.77022" lon="2.18313">
        <ele>162</ele>
        <time>2012-12-16T09:50:25Z</time>
      </trkpt>
      <trkpt lat="48.77026" lon="2.1832">
        <ele>163</ele>
        <time>2012-12-16T09:50:30Z</time>
      </trkpt>
      <trkpt lat="48.77031" lon="2.18326">
        <ele>163</ele>
        <time>2012-12-16T09:50:34Z</time>
      </trkpt>
      <trkpt lat="48.77036" lon="2.18334">
        <ele>167</ele>
        <time>2012-12-16T09:50:39Z</time>
      </trkpt>
      <trkpt lat="48.77039" lon="2.18339">
        <ele>167</ele>
        <time>2012-12-16T09:50:44Z</time>
      </trkpt>
      <trkpt lat="48.77042" lon="2.18345">
        <ele>168</ele>
        <time>2012-12-16T09:50:49Z</time>
      </trkpt>
      <trkpt lat="48.77044" lon="2.18353">
        <ele>168</ele>
        <time>2012-12-16T09:50:55Z</time>
      </trkpt>
      <trkpt lat="48.77044" lon="2.1836">
        <ele>168</ele>
        <time>2012-12-16T09:51:02Z</time>
      </trkpt>
      <trkpt lat="48.77048" lon="2.18364">
        <ele>168</ele>
        <time>2012-12-16T09:51:06Z</time>
      </trkpt>
      <trkpt lat="48.7705" lon="2.18371">
        <ele>168</ele>
        <time>2012-12-16T09:51:10Z</time>
      </trkpt>
      <trkpt lat="48.77052" lon="2.18378">
        <ele>168</ele>
        <time>2012-12-16T09:51:14Z</time>
      </trkpt>
      <trkpt lat="48.77057" lon="2.18383">
        <ele>169</ele>
        <time>2012-12-16T09:51:19Z</time>
      </trkpt>
      <trkpt lat="48.7706" lon="2.1839">
        <ele>169</ele>
        <time>2012-12-16T09:51:24Z</time>
      </trkpt>
      <trkpt lat="48.77063" lon="2.184">
        <ele>169</ele>
        <time>2012-12-16T09:51:29Z</time>
      </trkpt>
      <trkpt lat="48.77065" lon="2.18406">
        <ele>169</ele>
        <time>2012-12-16T09:51:32Z</time>
      </trkpt>
      <trkpt lat="48.77068" lon="2.18412">
        <ele>170</ele>
        <time>2012-12-16T09:51:37Z</time>
      </trkpt>
      <trkpt lat="48.77074" lon="2.1842">
        <ele>171</ele>
        <time>2012-12-16T09:51:44Z</time>
      </trkpt>
      <trkpt lat="48.77077" lon="2.18425">
        <ele>171</ele>
        <time>2012-12-16T09:51:49Z</time>
      </trkpt>
      <trkpt lat="48.77082" lon="2.18428">
        <ele>171</ele>
        <time>2012-12-16T09:51:59Z</time>
      </trkpt>
      <trkpt lat="48.77087" lon="2.18431">
        <ele>173</ele>
        <time>2012-12-16T09:52:04Z</time>
      </trkpt>
      <trkpt lat="48.77093" lon="2.18435">
        <ele>173</ele>
        <time>2012-12-16T09:52:09Z</time>
      </trkpt>
      <trkpt lat="48.77097" lon="2.1844">
        <ele>173</ele>
        <time>2012-12-16T09:52:14Z</time>
      </trkpt>
      <trkpt lat="48.77102" lon="2.18443">
        <ele>174</ele>
        <time>2012-12-16T09:52:19Z</time>
      </trkpt>
      <trkpt lat="48.77107" lon="2.18442">
        <ele>174</ele>
        <time>2012-12-16T09:52:45Z</time>
      </trkpt>
      <trkpt lat="48.77111" lon="2.1844">
        <ele>174</ele>
        <time>2012-12-16T09:52:49Z</time>
      </trkpt>
      <trkpt lat="48.77116" lon="2.18436">
        <ele>174</ele>
        <time>2012-12-16T09:52:54Z</time>
      </trkpt>
      <trkpt lat="48.7712" lon="2.18431">
        <ele>174</ele>
        <time>2012-12-16T09:52:57Z</time>
      </trkpt>
      <trkpt lat="48.77125" lon="2.18429">
        <ele>174</ele>
        <time>2012-12-16T09:53:00Z</time>
      </trkpt>
      <trkpt lat="48.77131" lon="2.18425">
        <ele>175</ele>
        <time>2012-12-16T09:53:04Z</time>
      </trkpt>
      <trkpt lat="48.7714" lon="2.18423">
        <ele>175</ele>
        <time>2012-12-16T09:53:41Z</time>
      </trkpt>
      <trkpt lat="48.77135" lon="2.18421">
        <ele>175</ele>
        <time>2012-12-16T09:53:54Z</time>
      </trkpt>
      <trkpt lat="48.77132" lon="2.18427">
        <ele>175</ele>
        <time>2012-12-16T09:54:01Z</time>
      </trkpt>
      <trkpt lat="48.77128" lon="2.18433">
        <ele>174</ele>
        <time>2012-12-16T09:54:05Z</time>
      </trkpt>
      <trkpt lat="48.77121" lon="2.18439">
        <ele>174</ele>
        <time>2012-12-16T09:54:09Z</time>
      </trkpt>
      <trkpt lat="48.77117" lon="2.18441">
        <ele>174</ele>
        <time>2012-12-16T09:54:11Z</time>
      </trkpt>
      <trkpt lat="48.77112" lon="2.18443">
        <ele>174</ele>
        <time>2012-12-16T09:54:14Z</time>
      </trkpt>
      <trkpt lat="48.77106" lon="2.18444">
        <ele>174</ele>
        <time>2012-12-16T09:54:19Z</time>
      </trkpt>
      <trkpt lat="48.77103" lon="2.18449">
        <ele>174</ele>
        <time>2012-12-16T09:54:45Z</time>
      </trkpt>
      <trkpt lat="48.77099" lon="2.18454">
        <ele>174</ele>
        <time>2012-12-16T09:55:22Z</time>
      </trkpt>
      <trkpt lat="48.771" lon="2.18449">
        <ele>174</ele>
        <time>2012-12-16T09:56:45Z</time>
      </trkpt>
      <trkpt lat="48.77356" lon="2.18147">
        <ele>173</ele>
        <time>2012-12-16T10:05:13Z</time>
      </trkpt>
      <trkpt lat="48.77205" lon="2.1779">
        <ele>177</ele>
        <time>2012-12-16T10:11:21Z</time>
      </trkpt>
      <trkpt lat="48.77457" lon="2.17584">
        <ele>171</ele>
        <time>2012-12-16T10:18:53Z</time>
      </trkpt>
      <trkpt lat="48.77642" lon="2.17452">
        <ele>177</ele>
        <time>2012-12-16T10:23:29Z</time>
      </trkpt>
      <trkpt lat="48.77782" lon="2.1728">
        <ele>178</ele>
        <time>2012-12-16T10:27:24Z</time>
      </trkpt>
      <trkpt lat="48.77909" lon="2.17206">
        <ele>178</ele>
        <time>2012-12-16T10:31:07Z</time>
      </trkpt>
      <trkpt lat="48.77921" lon="2.17135">
        <ele>175</ele>
        <time>2012-12-16T10:32:29Z</time>
      </trkpt>
      <trkpt lat="48.77988" lon="2.1707">
        <ele>172</ele>
        <time>2012-12-16T10:34:27Z</time>
      </trkpt>
      <trkpt lat="48.78045" lon="2.16876">
        <ele>176</ele>
        <time>2012-12-16T10:37:46Z</time>
      </trkpt>
      <trkpt lat="48.78098" lon="2.16414">
        <ele>184</ele>
        <time>2012-12-16T10:42:54Z</time>
      </trkpt>
      <trkpt lat="48.78219" lon="2.16457">
        <ele>182</ele>
        <time>2012-12-16T10:45:46Z</time>
      </trkpt>
      <trkpt lat="48.78224" lon="2.16459">
        <ele>182</ele>
        <time>2012-12-16T10:45:50Z</time>
      </trkpt>
      <trkpt lat="48.78229" lon="2.16459">
        <ele>183</ele>
        <time>2012-12-16T10:45:54Z</time>
      </trkpt>
      <trkpt lat="48.78235" lon="2.16458">
        <ele>183</ele>
        <time>2012-12-16T10:45:59Z</time>
      </trkpt>
      <trkpt lat="48.78237" lon="2.16449">
        <ele>183</ele>
        <time>2012-12-16T10:46:04Z</time>
      </trkpt>
      <trkpt lat="48.78239" lon="2.1644">
        <ele>183</ele>
        <time>2012-12-16T10:46:09Z</time>
      </trkpt>
      <trkpt lat="48.78241" lon="2.16433">
        <ele>183</ele>
        <time>2012-12-16T10:46:12Z</time>
      </trkpt>
      <trkpt lat="48.78245" lon="2.16428">
        <ele>184</ele>
        <time>2012-12-16T10:46:17Z</time>
      </trkpt>
      <trkpt lat="48.78244" lon="2.16421">
        <ele>184</ele>
        <time>2012-12-16T10:46:25Z</time>
      </trkpt>
      <trkpt lat="48.78247" lon="2.16414">
        <ele>185</ele>
        <time>2012-12-16T10:46:34Z</time>
      </trkpt>
      <trkpt lat="48.78249" lon="2.16407">
        <ele>184</ele>
        <time>2012-12-16T10:46:39Z</time>
      </trkpt>
      <trkpt lat="48.7825" lon="2.16399">
        <ele>185</ele>
        <time>2012-12-16T10:46:44Z</time>
      </trkpt>
      <trkpt lat="48.78253" lon="2.16392">
        <ele>185</ele>
        <time>2012-12-16T10:46:47Z</time>
      </trkpt>
      <trkpt lat="48.78253" lon="2.16385">
        <ele>185</ele>
        <time>2012-12-16T10:46:50Z</time>
      </trkpt>
      <trkpt lat="48.78252" lon="2.16376">
        <ele>185</ele>
        <time>2012-12-16T10:46:59Z</time>
      </trkpt>
      <trkpt lat="48.78254" lon="2.16367">
        <ele>185</ele>
        <time>2012-12-16T10:47:04Z</time>
      </trkpt>
      <trkpt lat="48.78257" lon="2.1636">
        <ele>185</ele>
        <time>2012-12-16T10:47:06Z</time>
      </trkpt>
      <trkpt lat="48.7826" lon="2.16342">
        <ele>185</ele>
        <time>2012-12-16T10:47:14Z</time>
      </trkpt>
      <trkpt lat="48.78262" lon="2.16335">
        <ele>185</ele>
        <time>2012-12-16T10:47:17Z</time>
      </trkpt>
      <trkpt lat="48.78264" lon="2.16326">
        <ele>185</ele>
        <time>2012-12-16T10:47:21Z</time>
      </trkpt>
      <trkpt lat="48.78265" lon="2.16319">
        <ele>185</ele>
        <time>2012-12-16T10:47:24Z</time>
      </trkpt>
      <trkpt lat="48.78267" lon="2.1631">
        <ele>185</ele>
        <time>2012-12-16T10:47:29Z</time>
      </trkpt>
      <trkpt lat="48.78268" lon="2.16303">
        <ele>185</ele>
        <time>2012-12-16T10:47:32Z</time>
      </trkpt>
      <trkpt lat="48.78269" lon="2.16296">
        <ele>185</ele>
        <time>2012-12-16T10:47:37Z</time>
      </trkpt>
      <trkpt lat="48.78271" lon="2.16288">
        <ele>185</ele>
        <time>2012-12-16T10:47:40Z</time>
      </trkpt>
      <trkpt lat="48.78273" lon="2.16281">
        <ele>185</ele>
        <time>2012-12-16T10:47:44Z</time>
      </trkpt>
      <trkpt lat="48.78275" lon="2.16274">
        <ele>185</ele>
        <time>2012-12-16T10:47:46Z</time>
      </trkpt>
      <trkpt lat="48.78278" lon="2.16268">
        <ele>185</ele>
        <time>2012-12-16T10:47:51Z</time>
      </trkpt>
      <trkpt lat="48.78283" lon="2.16267">
        <ele>185</ele>
        <time>2012-12-16T10:47:55Z</time>
      </trkpt>
      <trkpt lat="48.78287" lon="2.16265">
        <ele>185</ele>
        <time>2012-12-16T10:48:00Z</time>
      </trkpt>
      <trkpt lat="48.78293" lon="2.16264">
        <ele>185</ele>
        <time>2012-12-16T10:48:04Z</time>
      </trkpt>
      <trkpt lat="48.78298" lon="2.16265">
        <ele>185</ele>
        <time>2012-12-16T10:48:14Z</time>
      </trkpt>
      <trkpt lat="48.78304" lon="2.16266">
        <ele>185</ele>
        <time>2012-12-16T10:48:19Z</time>
      </trkpt>
      <trkpt lat="48.78309" lon="2.16271">
        <ele>185</ele>
        <time>2012-12-16T10:48:24Z</time>
      </trkpt>
      <trkpt lat="48.78315" lon="2.16277">
        <ele>185</ele>
        <time>2012-12-16T10:48:29Z</time>
      </trkpt>
      <trkpt lat="48.78318" lon="2.16282">
        <ele>185</ele>
        <time>2012-12-16T10:48:32Z</time>
      </trkpt>
      <trkpt lat="48.78323" lon="2.16285">
        <ele>185</ele>
        <time>2012-12-16T10:48:36Z</time>
      </trkpt>
      <trkpt lat="48.78328" lon="2.16288">
        <ele>185</ele>
        <time>2012-12-16T10:48:39Z</time>
      </trkpt>
      <trkpt lat="48.78333" lon="2.16293">
        <ele>185</ele>
        <time>2012-12-16T10:48:42Z</time>
      </trkpt>
      <trkpt lat="48.78339" lon="2.16294">
        <ele>185</ele>
        <time>2012-12-16T10:48:47Z</time>
      </trkpt>
      <trkpt lat="48.78344" lon="2.16293">
        <ele>184</ele>
        <time>2012-12-16T10:48:51Z</time>
      </trkpt>
      <trkpt lat="48.78346" lon="2.16286">
        <ele>184</ele>
        <time>2012-12-16T10:48:59Z</time>
      </trkpt>
      <trkpt lat="48.78342" lon="2.16282">
        <ele>184</ele>
        <time>2012-12-16T10:49:10Z</time>
      </trkpt>
      <trkpt lat="48.78347" lon="2.16279">
        <ele>184</ele>
        <time>2012-12-16T10:49:40Z</time>
      </trkpt>
      <trkpt lat="48.7835" lon="2.16273">
        <ele>184</ele>
        <time>2012-12-16T10:49:45Z</time>
      </trkpt>
      <trkpt lat="48.78354" lon="2.16268">
        <ele>184</ele>
        <time>2012-12-16T10:49:50Z</time>
      </trkpt>
      <trkpt lat="48.78352" lon="2.1626">
        <ele>184</ele>
        <time>2012-12-16T10:50:00Z</time>
      </trkpt>
      <trkpt lat="48.7835" lon="2.16254">
        <ele>185</ele>
        <time>2012-12-16T10:50:04Z</time>
      </trkpt>
      <trkpt lat="48.78352" lon="2.16248">
        <ele>185</ele>
        <time>2012-12-16T10:50:10Z</time>
      </trkpt>
      <trkpt lat="48.78353" lon="2.16234">
        <ele>185</ele>
        <time>2012-12-16T10:50:20Z</time>
      </trkpt>
      <trkpt lat="48.78357" lon="2.16229">
        <ele>185</ele>
        <time>2012-12-16T10:50:25Z</time>
      </trkpt>
      <trkpt lat="48.7836" lon="2.16223">
        <ele>185</ele>
        <time>2012-12-16T10:50:29Z</time>
      </trkpt>
      <trkpt lat="48.78363" lon="2.16218">
        <ele>185</ele>
        <time>2012-12-16T10:50:32Z</time>
      </trkpt>
      <trkpt lat="48.78367" lon="2.16213">
        <ele>185</ele>
        <time>2012-12-16T10:50:37Z</time>
      </trkpt>
      <trkpt lat="48.78371" lon="2.16208">
        <ele>185</ele>
        <time>2012-12-16T10:50:46Z</time>
      </trkpt>
      <trkpt lat="48.78372" lon="2.162">
        <ele>185</ele>
        <time>2012-12-16T10:50:52Z</time>
      </trkpt>
      <trkpt lat="48.7837" lon="2.16193">
        <ele>185</ele>
        <time>2012-12-16T10:50:56Z</time>
      </trkpt>
      <trkpt lat="48.7837" lon="2.16184">
        <ele>185</ele>
        <time>2012-12-16T10:51:01Z</time>
      </trkpt>
      <trkpt lat="48.78368" lon="2.16177">
        <ele>185</ele>
        <time>2012-12-16T10:51:06Z</time>
      </trkpt>
      <trkpt lat="48.78365" lon="2.16171">
        <ele>185</ele>
        <time>2012-12-16T10:51:10Z</time>
      </trkpt>
      <trkpt lat="48.78363" lon="2.16164">
        <ele>185</ele>
        <time>2012-12-16T10:51:14Z</time>
      </trkpt>
      <trkpt lat="48.78361" lon="2.16156">
        <ele>185</ele>
        <time>2012-12-16T10:51:16Z</time>
      </trkpt>
      <trkpt lat="48.7836" lon="2.16147">
        <ele>185</ele>
        <time>2012-12-16T10:51:19Z</time>
      </trkpt>
      <trkpt lat="48.78366" lon="2.16146">
        <ele>185</ele>
        <time>2012-12-16T10:51:22Z</time>
      </trkpt>
      <trkpt lat="48.78372" lon="2.16146">
        <ele>185</ele>
        <time>2012-12-16T10:51:25Z</time>
      </trkpt>
      <trkpt lat="48.7838" lon="2.16145">
        <ele>186</ele>
        <time>2012-12-16T10:51:29Z</time>
      </trkpt>
      <trkpt lat="48.78386" lon="2.16144">
        <ele>186</ele>
        <time>2012-12-16T10:51:34Z</time>
      </trkpt>
      <trkpt lat="48.78391" lon="2.16143">
        <ele>186</ele>
        <time>2012-12-16T10:51:39Z</time>
      </trkpt>
      <trkpt lat="48.78394" lon="2.16138">
        <ele>186</ele>
        <time>2012-12-16T10:51:46Z</time>
      </trkpt>
      <trkpt lat="48.78399" lon="2.16137">
        <ele>186</ele>
        <time>2012-12-16T10:51:49Z</time>
      </trkpt>
      <trkpt lat="48.78406" lon="2.16137">
        <ele>186</ele>
        <time>2012-12-16T10:51:54Z</time>
      </trkpt>
      <trkpt lat="48.78411" lon="2.16135">
        <ele>186</ele>
        <time>2012-12-16T10:51:59Z</time>
      </trkpt>
      <trkpt lat="48.78418" lon="2.16132">
        <ele>186</ele>
        <time>2012-12-16T10:52:02Z</time>
      </trkpt>
      <trkpt lat="48.78424" lon="2.16131">
        <ele>186</ele>
        <time>2012-12-16T10:52:05Z</time>
      </trkpt>
      <trkpt lat="48.78428" lon="2.16128">
        <ele>186</ele>
        <time>2012-12-16T10:52:10Z</time>
      </trkpt>
      <trkpt lat="48.78433" lon="2.16125">
        <ele>186</ele>
        <time>2012-12-16T10:52:16Z</time>
      </trkpt>
      <trkpt lat="48.78438" lon="2.16122">
        <ele>186</ele>
        <time>2012-12-16T10:52:20Z</time>
      </trkpt>
      <trkpt lat="48.78447" lon="2.16121">
        <ele>186</ele>
        <time>2012-12-16T10:52:27Z</time>
      </trkpt>
      <trkpt lat="48.78452" lon="2.16118">
        <ele>186</ele>
        <time>2012-12-16T10:52:32Z</time>
      </trkpt>
      <trkpt lat="48.78457" lon="2.16119">
        <ele>186</ele>
        <time>2012-12-16T10:52:36Z</time>
      </trkpt>
      <trkpt lat="48.78462" lon="2.16119">
        <ele>186</ele>
        <time>2012-12-16T10:52:39Z</time>
      </trkpt>
      <trkpt lat="48.78469" lon="2.16116">
        <ele>186</ele>
        <time>2012-12-16T10:52:44Z</time>
      </trkpt>
      <trkpt lat="48.78474" lon="2.16116">
        <ele>186</ele>
        <time>2012-12-16T10:52:47Z</time>
      </trkpt>
      <trkpt lat="48.78479" lon="2.16113">
        <ele>186</ele>
        <time>2012-12-16T10:52:51Z</time>
      </trkpt>
      <trkpt lat="48.78484" lon="2.1611">
        <ele>186</ele>
        <time>2012-12-16T10:52:55Z</time>
      </trkpt>
      <trkpt lat="48.78489" lon="2.16107">
        <ele>186</ele>
        <time>2012-12-16T10:53:00Z</time>
      </trkpt>
      <trkpt lat="48.78495" lon="2.16105">
        <ele>186</ele>
        <time>2012-12-16T10:53:05Z</time>
      </trkpt>
      <trkpt lat="48.78499" lon="2.16104">
        <ele>187</ele>
        <time>2012-12-16T10:53:09Z</time>
      </trkpt>
      <trkpt lat="48.78505" lon="2.16103">
        <ele>186</ele>
        <time>2012-12-16T10:53:12Z</time>
      </trkpt>
      <trkpt lat="48.78511" lon="2.16101">
        <ele>186</ele>
        <time>2012-12-16T10:53:16Z</time>
      </trkpt>
      <trkpt lat="48.78517" lon="2.16098">
        <ele>185</ele>
        <time>2012-12-16T10:53:19Z</time>
      </trkpt>
      <trkpt lat="48.78528" lon="2.16095">
        <ele>185</ele>
        <time>2012-12-16T10:53:25Z</time>
      </trkpt>
      <trkpt lat="48.78534" lon="2.16093">
        <ele>185</ele>
        <time>2012-12-16T10:53:29Z</time>
      </trkpt>
      <trkpt lat="48.7854" lon="2.16092">
        <ele>185</ele>
        <time>2012-12-16T10:53:32Z</time>
      </trkpt>
      <trkpt lat="48.78544" lon="2.16091">
        <ele>184</ele>
        <time>2012-12-16T10:53:35Z</time>
      </trkpt>
      <trkpt lat="48.78548" lon="2.16088">
        <ele>184</ele>
        <time>2012-12-16T10:53:39Z</time>
      </trkpt>
      <trkpt lat="48.78553" lon="2.16085">
        <ele>184</ele>
        <time>2012-12-16T10:53:42Z</time>
      </trkpt>
      <trkpt lat="48.7856" lon="2.16081">
        <ele>182</ele>
        <time>2012-12-16T10:53:49Z</time>
      </trkpt>
      <trkpt lat="48.78565" lon="2.1608">
        <ele>182</ele>
        <time>2012-12-16T10:53:54Z</time>
      </trkpt>
      <trkpt lat="48.7857" lon="2.16078">
        <ele>182</ele>
        <time>2012-12-16T10:54:01Z</time>
      </trkpt>
      <trkpt lat="48.78579" lon="2.16077">
        <ele>182</ele>
        <time>2012-12-16T10:54:09Z</time>
      </trkpt>
      <trkpt lat="48.78587" lon="2.16074">
        <ele>179</ele>
        <time>2012-12-16T10:54:14Z</time>
      </trkpt>
      <trkpt lat="48.78593" lon="2.16073">
        <ele>177</ele>
        <time>2012-12-16T10:54:19Z</time>
      </trkpt>
      <trkpt lat="48.786" lon="2.16071">
        <ele>176</ele>
        <time>2012-12-16T10:54:24Z</time>
      </trkpt>
      <trkpt lat="48.78607" lon="2.16069">
        <ele>175</ele>
        <time>2012-12-16T10:54:29Z</time>
      </trkpt>
      <trkpt lat="48.78612" lon="2.16065">
        <ele>174</ele>
        <time>2012-12-16T10:54:34Z</time>
      </trkpt>
      <trkpt lat="48.78616" lon="2.16065">
        <ele>173</ele>
        <time>2012-12-16T10:54:37Z</time>
      </trkpt>
      <trkpt lat="48.78621" lon="2.16067">
        <ele>173</ele>
        <time>2012-12-16T10:54:41Z</time>
      </trkpt>
      <trkpt lat="48.78626" lon="2.1607">
        <ele>172</ele>
        <time>2012-12-16T10:54:45Z</time>
      </trkpt>
      <trkpt lat="48.78633" lon="2.16074">
        <ele>172</ele>
        <time>2012-12-16T10:54:49Z</time>
      </trkpt>
      <trkpt lat="48.78638" lon="2.16081">
        <ele>171</ele>
        <time>2012-12-16T10:54:52Z</time>
      </trkpt>
      <trkpt lat="48.7864" lon="2.16088">
        <ele>174</ele>
        <time>2012-12-16T10:54:56Z</time>
      </trkpt>
      <trkpt lat="48.78642" lon="2.16096">
        <ele>174</ele>
        <time>2012-12-16T10:54:59Z</time>
      </trkpt>
      <trkpt lat="48.78643" lon="2.16105">
        <ele>174</ele>
        <time>2012-12-16T10:55:04Z</time>
      </trkpt>
      <trkpt lat="48.78644" lon="2.16112">
        <ele>175</ele>
        <time>2012-12-16T10:55:07Z</time>
      </trkpt>
      <trkpt lat="48.78643" lon="2.16121">
        <ele>175</ele>
        <time>2012-12-16T10:55:11Z</time>
      </trkpt>
      <trkpt lat="48.78643" lon="2.16128">
        <ele>175</ele>
        <time>2012-12-16T10:55:14Z</time>
      </trkpt>
      <trkpt lat="48.78643" lon="2.16136">
        <ele>175</ele>
        <time>2012-12-16T10:55:19Z</time>
      </trkpt>
      <trkpt lat="48.7864" lon="2.16144">
        <ele>176</ele>
        <time>2012-12-16T10:55:24Z</time>
      </trkpt>
      <trkpt lat="48.7864" lon="2.16151">
        <ele>176</ele>
        <time>2012-12-16T10:55:30Z</time>
      </trkpt>
      <trkpt lat="48.78642" lon="2.16158">
        <ele>176</ele>
        <time>2012-12-16T10:55:36Z</time>
      </trkpt>
      <trkpt lat="48.7864" lon="2.16166">
        <ele>176</ele>
        <time>2012-12-16T10:55:40Z</time>
      </trkpt>
      <trkpt lat="48.7864" lon="2.16176">
        <ele>177</ele>
        <time>2012-12-16T10:55:44Z</time>
      </trkpt>
      <trkpt lat="48.78642" lon="2.16187">
        <ele>177</ele>
        <time>2012-12-16T10:55:49Z</time>
      </trkpt>
      <trkpt lat="48.78643" lon="2.16194">
        <ele>177</ele>
        <time>2012-12-16T10:55:52Z</time>
      </trkpt>
      <trkpt lat="48.78648" lon="2.16198">
        <ele>177</ele>
        <time>2012-12-16T10:55:56Z</time>
      </trkpt>
      <trkpt lat="48.7865" lon="2.16205">
        <ele>177</ele>
        <time>2012-12-16T10:55:59Z</time>
      </trkpt>
      <trkpt lat="48.78654" lon="2.16217">
        <ele>176</ele>
        <time>2012-12-16T10:56:10Z</time>
      </trkpt>
      <trkpt lat="48.78653" lon="2.16226">
        <ele>176</ele>
        <time>2012-12-16T10:56:14Z</time>
      </trkpt>
      <trkpt lat="48.78656" lon="2.16235">
        <ele>175</ele>
        <time>2012-12-16T10:56:19Z</time>
      </trkpt>
      <trkpt lat="48.78654" lon="2.16244">
        <ele>175</ele>
        <time>2012-12-16T10:56:24Z</time>
      </trkpt>
      <trkpt lat="48.78653" lon="2.16254">
        <ele>174</ele>
        <time>2012-12-16T10:56:29Z</time>
      </trkpt>
      <trkpt lat="48.78654" lon="2.16263">
        <ele>174</ele>
        <time>2012-12-16T10:56:34Z</time>
      </trkpt>
      <trkpt lat="48.78655" lon="2.16274">
        <ele>175</ele>
        <time>2012-12-16T10:56:39Z</time>
      </trkpt>
      <trkpt lat="48.78656" lon="2.16285">
        <ele>175</ele>
        <time>2012-12-16T10:56:44Z</time>
      </trkpt>
      <trkpt lat="48.78656" lon="2.16296">
        <ele>175</ele>
        <time>2012-12-16T10:56:49Z</time>
      </trkpt>
      <trkpt lat="48.78657" lon="2.16305">
        <ele>175</ele>
        <time>2012-12-16T10:56:54Z</time>
      </trkpt>
      <trkpt lat="48.78659" lon="2.16314">
        <ele>174</ele>
        <time>2012-12-16T10:56:59Z</time>
      </trkpt>
      <trkpt lat="48.78661" lon="2.16324">
        <ele>173</ele>
        <time>2012-12-16T10:57:04Z</time>
      </trkpt>
      <trkpt lat="48.78661" lon="2.16334">
        <ele>172</ele>
        <time>2012-12-16T10:57:09Z</time>
      </trkpt>
      <trkpt lat="48.78658" lon="2.16346">
        <ele>173</ele>
        <time>2012-12-16T10:57:16Z</time>
      </trkpt>
      <trkpt lat="48.78655" lon="2.16341">
        <ele>173</ele>
        <time>2012-12-16T10:58:29Z</time>
      </trkpt>
      <trkpt lat="48.78655" lon="2.16345">
        <ele>173</ele>
        <time>2012-12-16T11:03:15Z</time>
      </trkpt>
      <trkpt lat="48.78654" lon="2.16335">
        <ele>173</ele>
        <time>2012-12-16T11:04:59Z</time>
      </trkpt>
      <trkpt lat="48.78657" lon="2.16329">
        <ele>173</ele>
        <time>2012-12-16T11:05:14Z</time>
      </trkpt>
      <trkpt lat="48.78656" lon="2.16316">
        <ele>174</ele>
        <time>2012-12-16T11:05:26Z</time>
      </trkpt>
      <trkpt lat="48.78656" lon="2.16308">
        <ele>175</ele>
        <time>2012-12-16T11:05:32Z</time>
      </trkpt>
      <trkpt lat="48.78655" lon="2.16301">
        <ele>175</ele>
        <time>2012-12-16T11:05:37Z</time>
      </trkpt>
      <trkpt lat="48.78656" lon="2.16293">
        <ele>175</ele>
        <time>2012-12-16T11:05:42Z</time>
      </trkpt>
      <trkpt lat="48.78654" lon="2.16286">
        <ele>175</ele>
        <time>2012-12-16T11:05:47Z</time>
      </trkpt>
      <trkpt lat="48.78653" lon="2.16279">
        <ele>175</ele>
        <time>2012-12-16T11:05:52Z</time>
      </trkpt>
      <trkpt lat="48.78653" lon="2.16271">
        <ele>175</ele>
        <time>2012-12-16T11:05:56Z</time>
      </trkpt>
      <trkpt lat="48.78651" lon="2.16264">
        <ele>175</ele>
        <time>2012-12-16T11:06:01Z</time>
      </trkpt>
      <trkpt lat="48.78652" lon="2.16257">
        <ele>174</ele>
        <time>2012-12-16T11:06:05Z</time>
      </trkpt>
      <trkpt lat="48.78652" lon="2.16248">
        <ele>175</ele>
        <time>2012-12-16T11:06:10Z</time>
      </trkpt>
      <trkpt lat="48.78652" lon="2.16241">
        <ele>175</ele>
        <time>2012-12-16T11:06:14Z</time>
      </trkpt>
      <trkpt lat="48.78649" lon="2.16232">
        <ele>176</ele>
        <time>2012-12-16T11:06:19Z</time>
      </trkpt>
      <trkpt lat="48.78649" lon="2.16223">
        <ele>176</ele>
        <time>2012-12-16T11:06:24Z</time>
      </trkpt>
      <trkpt lat="48.78646" lon="2.16216">
        <ele>177</ele>
        <time>2012-12-16T11:06:27Z</time>
      </trkpt>
      <trkpt lat="48.78646" lon="2.16209">
        <ele>177</ele>
        <time>2012-12-16T11:06:31Z</time>
      </trkpt>
      <trkpt lat="48.78652" lon="2.16197">
        <ele>176</ele>
        <time>2012-12-16T11:06:42Z</time>
      </trkpt>
      <trkpt lat="48.78657" lon="2.16198">
        <ele>176</ele>
        <time>2012-12-16T11:06:46Z</time>
      </trkpt>
      <trkpt lat="48.78662" lon="2.16198">
        <ele>176</ele>
        <time>2012-12-16T11:06:49Z</time>
      </trkpt>
      <trkpt lat="48.78668" lon="2.16197">
        <ele>168</ele>
        <time>2012-12-16T11:06:54Z</time>
      </trkpt>
      <trkpt lat="48.78672" lon="2.16194">
        <ele>168</ele>
        <time>2012-12-16T11:06:59Z</time>
      </trkpt>
      <trkpt lat="48.78679" lon="2.16192">
        <ele>168</ele>
        <time>2012-12-16T11:07:04Z</time>
      </trkpt>
      <trkpt lat="48.78684" lon="2.16188">
        <ele>167</ele>
        <time>2012-12-16T11:07:09Z</time>
      </trkpt>
      <trkpt lat="48.7869" lon="2.16185">
        <ele>167</ele>
        <time>2012-12-16T11:07:15Z</time>
      </trkpt>
      <trkpt lat="48.78694" lon="2.16183">
        <ele>166</ele>
        <time>2012-12-16T11:07:19Z</time>
      </trkpt>
      <trkpt lat="48.78701" lon="2.16181">
        <ele>165</ele>
        <time>2012-12-16T11:07:24Z</time>
      </trkpt>
      <trkpt lat="48.78709" lon="2.16177">
        <ele>164</ele>
        <time>2012-12-16T11:07:32Z</time>
      </trkpt>
      <trkpt lat="48.78716" lon="2.16175">
        <ele>163</ele>
        <time>2012-12-16T11:07:39Z</time>
      </trkpt>
      <trkpt lat="48.78721" lon="2.16172">
        <ele>163</ele>
        <time>2012-12-16T11:07:45Z</time>
      </trkpt>
      <trkpt lat="48.78727" lon="2.16171">
        <ele>162</ele>
        <time>2012-12-16T11:07:49Z</time>
      </trkpt>
      <trkpt lat="48.78731" lon="2.1617">
        <ele>161</ele>
        <time>2012-12-16T11:07:56Z</time>
      </trkpt>
      <trkpt lat="48.78737" lon="2.16171">
        <ele>160</ele>
        <time>2012-12-16T11:08:00Z</time>
      </trkpt>
      <trkpt lat="48.78743" lon="2.16172">
        <ele>159</ele>
        <time>2012-12-16T11:08:04Z</time>
      </trkpt>
      <trkpt lat="48.78748" lon="2.16174">
        <ele>159</ele>
        <time>2012-12-16T11:08:09Z</time>
      </trkpt>
      <trkpt lat="48.78752" lon="2.16178">
        <ele>155</ele>
        <time>2012-12-16T11:08:15Z</time>
      </trkpt>
      <trkpt lat="48.78756" lon="2.16181">
        <ele>154</ele>
        <time>2012-12-16T11:08:19Z</time>
      </trkpt>
      <trkpt lat="48.78761" lon="2.16185">
        <ele>153</ele>
        <time>2012-12-16T11:08:24Z</time>
      </trkpt>
      <trkpt lat="48.78767" lon="2.16184">
        <ele>153</ele>
        <time>2012-12-16T11:08:29Z</time>
      </trkpt>
      <trkpt lat="48.78772" lon="2.16188">
        <ele>152</ele>
        <time>2012-12-16T11:08:32Z</time>
      </trkpt>
      <trkpt lat="48.78777" lon="2.16193">
        <ele>152</ele>
        <time>2012-12-16T11:08:37Z</time>
      </trkpt>
      <trkpt lat="48.78783" lon="2.16196">
        <ele>151</ele>
        <time>2012-12-16T11:08:39Z</time>
      </trkpt>
      <trkpt lat="48.78788" lon="2.16195">
        <ele>151</ele>
        <time>2012-12-16T11:08:44Z</time>
      </trkpt>
      <trkpt lat="48.78793" lon="2.16193">
        <ele>150</ele>
        <time>2012-12-16T11:08:47Z</time>
      </trkpt>
      <trkpt lat="48.78797" lon="2.16189">
        <ele>150</ele>
        <time>2012-12-16T11:08:54Z</time>
      </trkpt>
      <trkpt lat="48.78802" lon="2.16183">
        <ele>150</ele>
        <time>2012-12-16T11:08:59Z</time>
      </trkpt>
      <trkpt lat="48.78809" lon="2.16188">
        <ele>149</ele>
        <time>2012-12-16T11:09:04Z</time>
      </trkpt>
      <trkpt lat="48.78815" lon="2.16191">
        <ele>149</ele>
        <time>2012-12-16T11:09:09Z</time>
      </trkpt>
      <trkpt lat="48.78819" lon="2.16191">
        <ele>149</ele>
        <time>2012-12-16T11:09:14Z</time>
      </trkpt>
      <trkpt lat="48.78824" lon="2.16194">
        <ele>148</ele>
        <time>2012-12-16T11:09:17Z</time>
      </trkpt>
      <trkpt lat="48.78824" lon="2.16201">
        <ele>149</ele>
        <time>2012-12-16T11:09:21Z</time>
      </trkpt>
      <trkpt lat="48.78825" lon="2.16208">
        <ele>149</ele>
        <time>2012-12-16T11:09:24Z</time>
      </trkpt>
      <trkpt lat="48.78826" lon="2.16215">
        <ele>149</ele>
        <time>2012-12-16T11:09:29Z</time>
      </trkpt>
      <trkpt lat="48.78825" lon="2.16222">
        <ele>148</ele>
        <time>2012-12-16T11:09:49Z</time>
      </trkpt>
      <trkpt lat="48.78825" lon="2.1623">
        <ele>148</ele>
        <time>2012-12-16T11:10:05Z</time>
      </trkpt>
      <trkpt lat="48.78828" lon="2.16237">
        <ele>147</ele>
        <time>2012-12-16T11:10:29Z</time>
      </trkpt>
      <trkpt lat="48.78823" lon="2.16243">
        <ele>147</ele>
        <time>2012-12-16T11:10:40Z</time>
      </trkpt>
      <trkpt lat="48.78819" lon="2.16242">
        <ele>148</ele>
        <time>2012-12-16T11:10:51Z</time>
      </trkpt>
      <trkpt lat="48.78813" lon="2.16242">
        <ele>148</ele>
        <time>2012-12-16T11:10:59Z</time>
      </trkpt>
      <trkpt lat="48.78816" lon="2.16249">
        <ele>148</ele>
        <time>2012-12-16T11:11:09Z</time>
      </trkpt>
      <trkpt lat="48.78818" lon="2.16256">
        <ele>146</ele>
        <time>2012-12-16T11:11:16Z</time>
      </trkpt>
      <trkpt lat="48.78821" lon="2.16262">
        <ele>146</ele>
        <time>2012-12-16T11:11:20Z</time>
      </trkpt>
      <trkpt lat="48.78823" lon="2.16269">
        <ele>146</ele>
        <time>2012-12-16T11:11:24Z</time>
      </trkpt>
      <trkpt lat="48.78823" lon="2.16283">
        <ele>145</ele>
        <time>2012-12-16T11:11:30Z</time>
      </trkpt>
      <trkpt lat="48.78823" lon="2.16291">
        <ele>145</ele>
        <time>2012-12-16T11:11:35Z</time>
      </trkpt>
      <trkpt lat="48.78824" lon="2.16298">
        <ele>144</ele>
        <time>2012-12-16T11:11:39Z</time>
      </trkpt>
      <trkpt lat="48.78822" lon="2.16308">
        <ele>144</ele>
        <time>2012-12-16T11:11:44Z</time>
      </trkpt>
      <trkpt lat="48.78822" lon="2.16318">
        <ele>143</ele>
        <time>2012-12-16T11:11:49Z</time>
      </trkpt>
      <trkpt lat="48.78821" lon="2.16326">
        <ele>142</ele>
        <time>2012-12-16T11:11:54Z</time>
      </trkpt>
      <trkpt lat="48.7882" lon="2.16333">
        <ele>142</ele>
        <time>2012-12-16T11:11:57Z</time>
      </trkpt>
      <trkpt lat="48.78822" lon="2.1634">
        <ele>142</ele>
        <time>2012-12-16T11:12:01Z</time>
      </trkpt>
      <trkpt lat="48.78826" lon="2.16337">
        <ele>141</ele>
        <time>2012-12-16T11:12:36Z</time>
      </trkpt>
      <trkpt lat="48.78835" lon="2.1633">
        <ele>139</ele>
        <time>2012-12-16T11:12:51Z</time>
      </trkpt>
      <trkpt lat="48.7884" lon="2.16327">
        <ele>139</ele>
        <time>2012-12-16T11:12:57Z</time>
      </trkpt>
      <trkpt lat="48.78844" lon="2.16325">
        <ele>139</ele>
        <time>2012-12-16T11:13:01Z</time>
      </trkpt>
      <trkpt lat="48.7885" lon="2.16325">
        <ele>140</ele>
        <time>2012-12-16T11:13:05Z</time>
      </trkpt>
      <trkpt lat="48.78854" lon="2.16323">
        <ele>140</ele>
        <time>2012-12-16T11:13:10Z</time>
      </trkpt>
      <trkpt lat="48.78859" lon="2.16321">
        <ele>140</ele>
        <time>2012-12-16T11:13:14Z</time>
      </trkpt>
      <trkpt lat="48.78864" lon="2.16315">
        <ele>140</ele>
        <time>2012-12-16T11:13:19Z</time>
      </trkpt>
      <trkpt lat="48.78868" lon="2.16311">
        <ele>140</ele>
        <time>2012-12-16T11:13:25Z</time>
      </trkpt>
      <trkpt lat="48.78873" lon="2.16308">
        <ele>140</ele>
        <time>2012-12-16T11:13:30Z</time>
      </trkpt>
      <trkpt lat="48.78878" lon="2.16307">
        <ele>140</ele>
        <time>2012-12-16T11:13:34Z</time>
      </trkpt>
      <trkpt lat="48.78883" lon="2.16306">
        <ele>139</ele>
        <time>2012-12-16T11:13:37Z</time>
      </trkpt>
      <trkpt lat="48.78889" lon="2.16304">
        <ele>139</ele>
        <time>2012-12-16T11:13:41Z</time>
      </trkpt>
      <trkpt lat="48.78892" lon="2.16299">
        <ele>139</ele>
        <time>2012-12-16T11:13:52Z</time>
      </trkpt>
      <trkpt lat="48.78897" lon="2.163">
        <ele>139</ele>
        <time>2012-12-16T11:13:54Z</time>
      </trkpt>
      <trkpt lat="48.78903" lon="2.16301">
        <ele>139</ele>
        <time>2012-12-16T11:13:56Z</time>
      </trkpt>
      <trkpt lat="48.7891" lon="2.16302">
        <ele>139</ele>
        <time>2012-12-16T11:13:59Z</time>
      </trkpt>
      <trkpt lat="48.78915" lon="2.16301">
        <ele>139</ele>
        <time>2012-12-16T11:14:01Z</time>
      </trkpt>
      <trkpt lat="48.7892" lon="2.16299">
        <ele>136</ele>
        <time>2012-12-16T11:14:04Z</time>
      </trkpt>
      <trkpt lat="48.78925" lon="2.16298">
        <ele>136</ele>
        <time>2012-12-16T11:14:09Z</time>
      </trkpt>
      <trkpt lat="48.78932" lon="2.16297">
        <ele>136</ele>
        <time>2012-12-16T11:14:14Z</time>
      </trkpt>
      <trkpt lat="48.7894" lon="2.16301">
        <ele>135</ele>
        <time>2012-12-16T11:14:19Z</time>
      </trkpt>
      <trkpt lat="48.78944" lon="2.16304">
        <ele>135</ele>
        <time>2012-12-16T11:14:22Z</time>
      </trkpt>
      <trkpt lat="48.78947" lon="2.16311">
        <ele>135</ele>
        <time>2012-12-16T11:14:26Z</time>
      </trkpt>
      <trkpt lat="48.78949" lon="2.16318">
        <ele>136</ele>
        <time>2012-12-16T11:14:30Z</time>
      </trkpt>
      <trkpt lat="48.78952" lon="2.16323">
        <ele>136</ele>
        <time>2012-12-16T11:14:35Z</time>
      </trkpt>
      <trkpt lat="48.78957" lon="2.1633">
        <ele>135</ele>
        <time>2012-12-16T11:14:39Z</time>
      </trkpt>
      <trkpt lat="48.78959" lon="2.16336">
        <ele>138</ele>
        <time>2012-12-16T11:14:44Z</time>
      </trkpt>
      <trkpt lat="48.78962" lon="2.16342">
        <ele>138</ele>
        <time>2012-12-16T11:14:50Z</time>
      </trkpt>
      <trkpt lat="48.78968" lon="2.16346">
        <ele>138</ele>
        <time>2012-12-16T11:14:54Z</time>
      </trkpt>
      <trkpt lat="48.78972" lon="2.1635">
        <ele>137</ele>
        <time>2012-12-16T11:14:57Z</time>
      </trkpt>
      <trkpt lat="48.78981" lon="2.16358">
        <ele>137</ele>
        <time>2012-12-16T11:15:06Z</time>
      </trkpt>
      <trkpt lat="48.78984" lon="2.16365">
        <ele>138</ele>
        <time>2012-12-16T11:15:11Z</time>
      </trkpt>
      <trkpt lat="48.78987" lon="2.16372">
        <ele>138</ele>
        <time>2012-12-16T11:15:16Z</time>
      </trkpt>
      <trkpt lat="48.7899" lon="2.16377">
        <ele>138</ele>
        <time>2012-12-16T11:15:21Z</time>
      </trkpt>
      <trkpt lat="48.78988" lon="2.16385">
        <ele>138</ele>
        <time>2012-12-16T11:15:25Z</time>
      </trkpt>
      <trkpt lat="48.78989" lon="2.16392">
        <ele>138</ele>
        <time>2012-12-16T11:15:29Z</time>
      </trkpt>
      <trkpt lat="48.78992" lon="2.16399">
        <ele>138</ele>
        <time>2012-12-16T11:15:34Z</time>
      </trkpt>
      <trkpt lat="48.78997" lon="2.16405">
        <ele>138</ele>
        <time>2012-12-16T11:15:39Z</time>
      </trkpt>
      <trkpt lat="48.79" lon="2.1641">
        <ele>138</ele>
        <time>2012-12-16T11:15:44Z</time>
      </trkpt>
      <trkpt lat="48.79005" lon="2.16416">
        <ele>138</ele>
        <time>2012-12-16T11:15:49Z</time>
      </trkpt>
      <trkpt lat="48.79007" lon="2.16423">
        <ele>140</ele>
        <time>2012-12-16T11:15:56Z</time>
      </trkpt>
      <trkpt lat="48.79007" lon="2.16431">
        <ele>140</ele>
        <time>2012-12-16T11:16:01Z</time>
      </trkpt>
      <trkpt lat="48.79009" lon="2.16439">
        <ele>141</ele>
        <time>2012-12-16T11:16:09Z</time>
      </trkpt>
      <trkpt lat="48.79013" lon="2.16444">
        <ele>142</ele>
        <time>2012-12-16T11:16:16Z</time>
      </trkpt>
      <trkpt lat="48.79017" lon="2.16448">
        <ele>142</ele>
        <time>2012-12-16T11:16:20Z</time>
      </trkpt>
      <trkpt lat="48.79021" lon="2.16452">
        <ele>142</ele>
        <time>2012-12-16T11:16:25Z</time>
      </trkpt>
      <trkpt lat="48.79022" lon="2.16459">
        <ele>143</ele>
        <time>2012-12-16T11:16:30Z</time>
      </trkpt>
      <trkpt lat="48.79022" lon="2.16467">
        <ele>143</ele>
        <time>2012-12-16T11:16:35Z</time>
      </trkpt>
      <trkpt lat="48.79023" lon="2.16474">
        <ele>143</ele>
        <time>2012-12-16T11:16:41Z</time>
      </trkpt>
      <trkpt lat="48.79026" lon="2.1648">
        <ele>144</ele>
        <time>2012-12-16T11:16:45Z</time>
      </trkpt>
      <trkpt lat="48.79029" lon="2.16487">
        <ele>144</ele>
        <time>2012-12-16T11:16:51Z</time>
      </trkpt>
      <trkpt lat="48.79034" lon="2.16492">
        <ele>144</ele>
        <time>2012-12-16T11:16:59Z</time>
      </trkpt>
      <trkpt lat="48.79038" lon="2.16495">
        <ele>144</ele>
        <time>2012-12-16T11:17:05Z</time>
      </trkpt>
      <trkpt lat="48.79043" lon="2.16495">
        <ele>144</ele>
        <time>2012-12-16T11:17:32Z</time>
      </trkpt>
      <trkpt lat="48.79045" lon="2.16489">
        <ele>144</ele>
        <time>2012-12-16T11:17:39Z</time>
      </trkpt>
      <trkpt lat="48.7905" lon="2.16484">
        <ele>144</ele>
        <time>2012-12-16T11:17:44Z</time>
      </trkpt>
      <trkpt lat="48.79055" lon="2.16482">
        <ele>144</ele>
        <time>2012-12-16T11:17:54Z</time>
      </trkpt>
      <trkpt lat="48.7906" lon="2.16482">
        <ele>144</ele>
        <time>2012-12-16T11:18:01Z</time>
      </trkpt>
      <trkpt lat="48.79068" lon="2.16477">
        <ele>144</ele>
        <time>2012-12-16T11:18:17Z</time>
      </trkpt>
      <trkpt lat="48.79074" lon="2.16471">
        <ele>144</ele>
        <time>2012-12-16T11:18:24Z</time>
      </trkpt>
      <trkpt lat="48.79079" lon="2.16466">
        <ele>144</ele>
        <time>2012-12-16T11:18:29Z</time>
      </trkpt>
      <trkpt lat="48.79089" lon="2.16468">
        <ele>146</ele>
        <time>2012-12-16T11:18:35Z</time>
      </trkpt>
      <trkpt lat="48.79097" lon="2.16471">
        <ele>146</ele>
        <time>2012-12-16T11:18:39Z</time>
      </trkpt>
      <trkpt lat="48.79107" lon="2.16471">
        <ele>146</ele>
        <time>2012-12-16T11:18:44Z</time>
      </trkpt>
      <trkpt lat="48.79112" lon="2.16473">
        <ele>147</ele>
        <time>2012-12-16T11:18:47Z</time>
      </trkpt>
      <trkpt lat="48.79117" lon="2.16475">
        <ele>147</ele>
        <time>2012-12-16T11:18:51Z</time>
      </trkpt>
      <trkpt lat="48.79122" lon="2.16476">
        <ele>147</ele>
        <time>2012-12-16T11:18:55Z</time>
      </trkpt>
      <trkpt lat="48.79128" lon="2.16479">
        <ele>147</ele>
        <time>2012-12-16T11:18:59Z</time>
      </trkpt>
      <trkpt lat="48.79132" lon="2.16482">
        <ele>147</ele>
        <time>2012-12-16T11:19:02Z</time>
      </trkpt>
      <trkpt lat="48.79137" lon="2.16484">
        <ele>147</ele>
        <time>2012-12-16T11:19:05Z</time>
      </trkpt>
      <trkpt lat="48.79142" lon="2.16486">
        <ele>148</ele>
        <time>2012-12-16T11:19:09Z</time>
      </trkpt>
      <trkpt lat="48.79147" lon="2.16489">
        <ele>148</ele>
        <time>2012-12-16T11:19:12Z</time>
      </trkpt>
      <trkpt lat="48.79152" lon="2.16493">
        <ele>148</ele>
        <time>2012-12-16T11:19:16Z</time>
      </trkpt>
      <trkpt lat="48.79157" lon="2.16497">
        <ele>149</ele>
        <time>2012-12-16T11:19:20Z</time>
      </trkpt>
      <trkpt lat="48.79163" lon="2.16498">
        <ele>149</ele>
        <time>2012-12-16T11:19:24Z</time>
      </trkpt>
      <trkpt lat="48.79168" lon="2.16502">
        <ele>151</ele>
        <time>2012-12-16T11:19:29Z</time>
      </trkpt>
      <trkpt lat="48.79174" lon="2.1651">
        <ele>152</ele>
        <time>2012-12-16T11:19:34Z</time>
      </trkpt>
      <trkpt lat="48.79178" lon="2.16514">
        <ele>153</ele>
        <time>2012-12-16T11:19:37Z</time>
      </trkpt>
      <trkpt lat="48.79182" lon="2.16518">
        <ele>154</ele>
        <time>2012-12-16T11:19:40Z</time>
      </trkpt>
      <trkpt lat="48.79186" lon="2.16523">
        <ele>154</ele>
        <time>2012-12-16T11:19:44Z</time>
      </trkpt>
      <trkpt lat="48.79189" lon="2.16529">
        <ele>155</ele>
        <time>2012-12-16T11:19:49Z</time>
      </trkpt>
      <trkpt lat="48.79194" lon="2.16533">
        <ele>155</ele>
        <time>2012-12-16T11:19:54Z</time>
      </trkpt>
      <trkpt lat="48.79199" lon="2.16538">
        <ele>155</ele>
        <time>2012-12-16T11:19:59Z</time>
      </trkpt>
      <trkpt lat="48.79204" lon="2.16536">
        <ele>155</ele>
        <time>2012-12-16T11:20:07Z</time>
      </trkpt>
      <trkpt lat="48.79209" lon="2.16531">
        <ele>155</ele>
        <time>2012-12-16T11:20:12Z</time>
      </trkpt>
      <trkpt lat="48.79213" lon="2.16528">
        <ele>155</ele>
        <time>2012-12-16T11:20:16Z</time>
      </trkpt>
      <trkpt lat="48.79218" lon="2.16523">
        <ele>155</ele>
        <time>2012-12-16T11:20:22Z</time>
      </trkpt>
      <trkpt lat="48.79222" lon="2.16518">
        <ele>155</ele>
        <time>2012-12-16T11:20:26Z</time>
      </trkpt>
      <trkpt lat="48.79224" lon="2.16511">
        <ele>155</ele>
        <time>2012-12-16T11:20:29Z</time>
      </trkpt>
      <trkpt lat="48.79225" lon="2.16501">
        <ele>155</ele>
        <time>2012-12-16T11:20:34Z</time>
      </trkpt>
      <trkpt lat="48.79222" lon="2.16491">
        <ele>152</ele>
        <time>2012-12-16T11:20:39Z</time>
      </trkpt>
      <trkpt lat="48.79223" lon="2.1648">
        <ele>152</ele>
        <time>2012-12-16T11:20:44Z</time>
      </trkpt>
      <trkpt lat="48.79224" lon="2.16471">
        <ele>152</ele>
        <time>2012-12-16T11:20:49Z</time>
      </trkpt>
      <trkpt lat="48.79225" lon="2.16461">
        <ele>152</ele>
        <time>2012-12-16T11:20:54Z</time>
      </trkpt>
      <trkpt lat="48.79231" lon="2.16456">
        <ele>152</ele>
        <time>2012-12-16T11:20:59Z</time>
      </trkpt>
      <trkpt lat="48.79235" lon="2.16452">
        <ele>152</ele>
        <time>2012-12-16T11:21:02Z</time>
      </trkpt>
      <trkpt lat="48.79239" lon="2.16448">
        <ele>152</ele>
        <time>2012-12-16T11:21:05Z</time>
      </trkpt>
      <trkpt lat="48.79244" lon="2.16443">
        <ele>152</ele>
        <time>2012-12-16T11:21:10Z</time>
      </trkpt>
      <trkpt lat="48.79251" lon="2.16444">
        <ele>152</ele>
        <time>2012-12-16T11:21:14Z</time>
      </trkpt>
      <trkpt lat="48.79256" lon="2.16444">
        <ele>152</ele>
        <time>2012-12-16T11:21:20Z</time>
      </trkpt>
      <trkpt lat="48.79268" lon="2.16445">
        <ele>152</ele>
        <time>2012-12-16T11:21:29Z</time>
      </trkpt>
      <trkpt lat="48.79274" lon="2.16448">
        <ele>152</ele>
        <time>2012-12-16T11:21:34Z</time>
      </trkpt>
      <trkpt lat="48.79284" lon="2.16454">
        <ele>152</ele>
        <time>2012-12-16T11:21:40Z</time>
      </trkpt>
      <trkpt lat="48.7929" lon="2.1646">
        <ele>152</ele>
        <time>2012-12-16T11:21:44Z</time>
      </trkpt>
      <trkpt lat="48.79294" lon="2.16464">
        <ele>152</ele>
        <time>2012-12-16T11:21:47Z</time>
      </trkpt>
      <trkpt lat="48.793" lon="2.16471">
        <ele>152</ele>
        <time>2012-12-16T11:21:54Z</time>
      </trkpt>
      <trkpt lat="48.79308" lon="2.16473">
        <ele>152</ele>
        <time>2012-12-16T11:21:59Z</time>
      </trkpt>
      <trkpt lat="48.79313" lon="2.16475">
        <ele>152</ele>
        <time>2012-12-16T11:22:04Z</time>
      </trkpt>
      <trkpt lat="48.79318" lon="2.16472">
        <ele>152</ele>
        <time>2012-12-16T11:22:09Z</time>
      </trkpt>
      <trkpt lat="48.79324" lon="2.16467">
        <ele>151</ele>
        <time>2012-12-16T11:22:14Z</time>
      </trkpt>
      <trkpt lat="48.79329" lon="2.16465">
        <ele>151</ele>
        <time>2012-12-16T11:22:21Z</time>
      </trkpt>
      <trkpt lat="48.79333" lon="2.16466">
        <ele>148</ele>
        <time>2012-12-16T11:22:26Z</time>
      </trkpt>
      <trkpt lat="48.79339" lon="2.16468">
        <ele>148</ele>
        <time>2012-12-16T11:22:31Z</time>
      </trkpt>
      <trkpt lat="48.79344" lon="2.16471">
        <ele>148</ele>
        <time>2012-12-16T11:22:35Z</time>
      </trkpt>
      <trkpt lat="48.79355" lon="2.16474">
        <ele>148</ele>
        <time>2012-12-16T11:22:41Z</time>
      </trkpt>
      <trkpt lat="48.79361" lon="2.16474">
        <ele>147</ele>
        <time>2012-12-16T11:22:44Z</time>
      </trkpt>
      <trkpt lat="48.79369" lon="2.16474">
        <ele>147</ele>
        <time>2012-12-16T11:22:49Z</time>
      </trkpt>
      <trkpt lat="48.79375" lon="2.16472">
        <ele>146</ele>
        <time>2012-12-16T11:22:54Z</time>
      </trkpt>
      <trkpt lat="48.7938" lon="2.1647">
        <ele>146</ele>
        <time>2012-12-16T11:22:59Z</time>
      </trkpt>
      <trkpt lat="48.79387" lon="2.16468">
        <ele>146</ele>
        <time>2012-12-16T11:23:04Z</time>
      </trkpt>
      <trkpt lat="48.79394" lon="2.1647">
        <ele>145</ele>
        <time>2012-12-16T11:23:09Z</time>
      </trkpt>
      <trkpt lat="48.794" lon="2.16474">
        <ele>145</ele>
        <time>2012-12-16T11:23:14Z</time>
      </trkpt>
      <trkpt lat="48.79405" lon="2.16479">
        <ele>145</ele>
        <time>2012-12-16T11:23:19Z</time>
      </trkpt>
      <trkpt lat="48.79408" lon="2.16488">
        <ele>144</ele>
        <time>2012-12-16T11:23:24Z</time>
      </trkpt>
      <trkpt lat="48.79409" lon="2.16495">
        <ele>144</ele>
        <time>2012-12-16T11:23:27Z</time>
      </trkpt>
      <trkpt lat="48.79411" lon="2.16503">
        <ele>145</ele>
        <time>2012-12-16T11:23:30Z</time>
      </trkpt>
      <trkpt lat="48.79413" lon="2.16511">
        <ele>146</ele>
        <time>2012-12-16T11:23:35Z</time>
      </trkpt>
      <trkpt lat="48.79413" lon="2.16518">
        <ele>148</ele>
        <time>2012-12-16T11:23:40Z</time>
      </trkpt>
      <trkpt lat="48.7941" lon="2.16527">
        <ele>149</ele>
        <time>2012-12-16T11:23:44Z</time>
      </trkpt>
      <trkpt lat="48.79409" lon="2.16533">
        <ele>150</ele>
        <time>2012-12-16T11:23:47Z</time>
      </trkpt>
      <trkpt lat="48.79405" lon="2.1654">
        <ele>150</ele>
        <time>2012-12-16T11:23:49Z</time>
      </trkpt>
      <trkpt lat="48.79403" lon="2.16547">
        <ele>151</ele>
        <time>2012-12-16T11:23:52Z</time>
      </trkpt>
      <trkpt lat="48.79399" lon="2.16553">
        <ele>151</ele>
        <time>2012-12-16T11:23:55Z</time>
      </trkpt>
      <trkpt lat="48.79397" lon="2.1656">
        <ele>152</ele>
        <time>2012-12-16T11:24:00Z</time>
      </trkpt>
      <trkpt lat="48.79392" lon="2.16565">
        <ele>152</ele>
        <time>2012-12-16T11:24:04Z</time>
      </trkpt>
      <trkpt lat="48.79387" lon="2.16577">
        <ele>152</ele>
        <time>2012-12-16T11:24:09Z</time>
      </trkpt>
      <trkpt lat="48.79385" lon="2.16585">
        <ele>158</ele>
        <time>2012-12-16T11:24:15Z</time>
      </trkpt>
      <trkpt lat="48.79386" lon="2.16601">
        <ele>158</ele>
        <time>2012-12-16T11:24:22Z</time>
      </trkpt>
      <trkpt lat="48.79389" lon="2.16607">
        <ele>159</ele>
        <time>2012-12-16T11:24:25Z</time>
      </trkpt>
      <trkpt lat="48.79393" lon="2.16615">
        <ele>159</ele>
        <time>2012-12-16T11:24:29Z</time>
      </trkpt>
      <trkpt lat="48.79398" lon="2.16618">
        <ele>159</ele>
        <time>2012-12-16T11:24:34Z</time>
      </trkpt>
      <trkpt lat="48.79403" lon="2.16623">
        <ele>159</ele>
        <time>2012-12-16T11:24:39Z</time>
      </trkpt>
      <trkpt lat="48.79409" lon="2.16627">
        <ele>159</ele>
        <time>2012-12-16T11:24:45Z</time>
      </trkpt>
      <trkpt lat="48.79414" lon="2.16629">
        <ele>159</ele>
        <time>2012-12-16T11:24:49Z</time>
      </trkpt>
      <trkpt lat="48.79421" lon="2.16628">
        <ele>156</ele>
        <time>2012-12-16T11:24:54Z</time>
      </trkpt>
      <trkpt lat="48.79427" lon="2.16628">
        <ele>156</ele>
        <time>2012-12-16T11:24:59Z</time>
      </trkpt>
      <trkpt lat="48.79433" lon="2.16628">
        <ele>156</ele>
        <time>2012-12-16T11:25:04Z</time>
      </trkpt>
      <trkpt lat="48.79443" lon="2.16625">
        <ele>156</ele>
        <time>2012-12-16T11:25:10Z</time>
      </trkpt>
      <trkpt lat="48.79448" lon="2.16621">
        <ele>156</ele>
        <time>2012-12-16T11:25:15Z</time>
      </trkpt>
      <trkpt lat="48.79454" lon="2.16618">
        <ele>155</ele>
        <time>2012-12-16T11:25:19Z</time>
      </trkpt>
      <trkpt lat="48.79459" lon="2.16611">
        <ele>155</ele>
        <time>2012-12-16T11:25:24Z</time>
      </trkpt>
      <trkpt lat="48.79462" lon="2.16603">
        <ele>154</ele>
        <time>2012-12-16T11:25:29Z</time>
      </trkpt>
      <trkpt lat="48.79464" lon="2.16596">
        <ele>154</ele>
        <time>2012-12-16T11:25:34Z</time>
      </trkpt>
      <trkpt lat="48.79468" lon="2.16591">
        <ele>154</ele>
        <time>2012-12-16T11:25:40Z</time>
      </trkpt>
      <trkpt lat="48.79471" lon="2.16585">
        <ele>153</ele>
        <time>2012-12-16T11:25:44Z</time>
      </trkpt>
      <trkpt lat="48.79475" lon="2.16577">
        <ele>146</ele>
        <time>2012-12-16T11:25:49Z</time>
      </trkpt>
      <trkpt lat="48.79478" lon="2.16567">
        <ele>146</ele>
        <time>2012-12-16T11:25:54Z</time>
      </trkpt>
      <trkpt lat="48.79482" lon="2.16563">
        <ele>146</ele>
        <time>2012-12-16T11:25:57Z</time>
      </trkpt>
      <trkpt lat="48.79486" lon="2.16559">
        <ele>145</ele>
        <time>2012-12-16T11:26:01Z</time>
      </trkpt>
      <trkpt lat="48.79492" lon="2.16557">
        <ele>145</ele>
        <time>2012-12-16T11:26:04Z</time>
      </trkpt>
      <trkpt lat="48.79498" lon="2.16554">
        <ele>145</ele>
        <time>2012-12-16T11:26:07Z</time>
      </trkpt>
      <trkpt lat="48.79503" lon="2.16551">
        <ele>143</ele>
        <time>2012-12-16T11:26:11Z</time>
      </trkpt>
      <trkpt lat="48.79508" lon="2.16548">
        <ele>143</ele>
        <time>2012-12-16T11:26:15Z</time>
      </trkpt>
      <trkpt lat="48.79513" lon="2.16546">
        <ele>142</ele>
        <time>2012-12-16T11:26:21Z</time>
      </trkpt>
      <trkpt lat="48.79518" lon="2.16546">
        <ele>142</ele>
        <time>2012-12-16T11:26:24Z</time>
      </trkpt>
      <trkpt lat="48.79524" lon="2.16545">
        <ele>142</ele>
        <time>2012-12-16T11:26:29Z</time>
      </trkpt>
      <trkpt lat="48.79531" lon="2.16545">
        <ele>142</ele>
        <time>2012-12-16T11:26:34Z</time>
      </trkpt>
      <trkpt lat="48.79538" lon="2.16544">
        <ele>142</ele>
        <time>2012-12-16T11:26:39Z</time>
      </trkpt>
      <trkpt lat="48.79543" lon="2.16546">
        <ele>142</ele>
        <time>2012-12-16T11:26:42Z</time>
      </trkpt>
      <trkpt lat="48.79547" lon="2.16548">
        <ele>142</ele>
        <time>2012-12-16T11:26:45Z</time>
      </trkpt>
      <trkpt lat="48.79554" lon="2.16552">
        <ele>142</ele>
        <time>2012-12-16T11:26:49Z</time>
      </trkpt>
      <trkpt lat="48.79559" lon="2.1656">
        <ele>143</ele>
        <time>2012-12-16T11:26:54Z</time>
      </trkpt>
      <trkpt lat="48.79564" lon="2.16564">
        <ele>143</ele>
        <time>2012-12-16T11:26:57Z</time>
      </trkpt>
      <trkpt lat="48.79572" lon="2.1657">
        <ele>144</ele>
        <time>2012-12-16T11:27:05Z</time>
      </trkpt>
      <trkpt lat="48.79581" lon="2.16573">
        <ele>145</ele>
        <time>2012-12-16T11:27:16Z</time>
      </trkpt>
      <trkpt lat="48.79586" lon="2.16571">
        <ele>144</ele>
        <time>2012-12-16T11:27:21Z</time>
      </trkpt>
      <trkpt lat="48.79591" lon="2.16571">
        <ele>143</ele>
        <time>2012-12-16T11:27:25Z</time>
      </trkpt>
      <trkpt lat="48.79596" lon="2.1657">
        <ele>143</ele>
        <time>2012-12-16T11:27:29Z</time>
      </trkpt>
      <trkpt lat="48.79601" lon="2.16568">
        <ele>142</ele>
        <time>2012-12-16T11:27:32Z</time>
      </trkpt>
      <trkpt lat="48.79606" lon="2.16567">
        <ele>142</ele>
        <time>2012-12-16T11:27:35Z</time>
      </trkpt>
      <trkpt lat="48.79612" lon="2.16564">
        <ele>141</ele>
        <time>2012-12-16T11:27:39Z</time>
      </trkpt>
      <trkpt lat="48.79618" lon="2.16561">
        <ele>140</ele>
        <time>2012-12-16T11:27:44Z</time>
      </trkpt>
      <trkpt lat="48.79627" lon="2.16556">
        <ele>140</ele>
        <time>2012-12-16T11:27:51Z</time>
      </trkpt>
      <trkpt lat="48.79633" lon="2.16553">
        <ele>139</ele>
        <time>2012-12-16T11:27:56Z</time>
      </trkpt>
      <trkpt lat="48.79637" lon="2.1655">
        <ele>139</ele>
        <time>2012-12-16T11:27:59Z</time>
      </trkpt>
      <trkpt lat="48.79643" lon="2.16548">
        <ele>139</ele>
        <time>2012-12-16T11:28:04Z</time>
      </trkpt>
      <trkpt lat="48.79652" lon="2.16549">
        <ele>139</ele>
        <time>2012-12-16T11:28:10Z</time>
      </trkpt>
      <trkpt lat="48.79658" lon="2.16552">
        <ele>139</ele>
        <time>2012-12-16T11:28:14Z</time>
      </trkpt>
      <trkpt lat="48.79664" lon="2.16553">
        <ele>139</ele>
        <time>2012-12-16T11:28:19Z</time>
      </trkpt>
      <trkpt lat="48.79675" lon="2.16556">
        <ele>138</ele>
        <time>2012-12-16T11:28:29Z</time>
      </trkpt>
      <trkpt lat="48.7968" lon="2.16556">
        <ele>137</ele>
        <time>2012-12-16T11:28:34Z</time>
      </trkpt>
      <trkpt lat="48.79687" lon="2.16554">
        <ele>137</ele>
        <time>2012-12-16T11:28:39Z</time>
      </trkpt>
      <trkpt lat="48.79693" lon="2.16554">
        <ele>137</ele>
        <time>2012-12-16T11:28:44Z</time>
      </trkpt>
      <trkpt lat="48.79698" lon="2.16554">
        <ele>137</ele>
        <time>2012-12-16T11:28:47Z</time>
      </trkpt>
      <trkpt lat="48.79703" lon="2.16553">
        <ele>137</ele>
        <time>2012-12-16T11:28:50Z</time>
      </trkpt>
      <trkpt lat="48.79708" lon="2.1655">
        <ele>136</ele>
        <time>2012-12-16T11:28:54Z</time>
      </trkpt>
      <trkpt lat="48.79712" lon="2.16546">
        <ele>136</ele>
        <time>2012-12-16T11:28:59Z</time>
      </trkpt>
      <trkpt lat="48.79715" lon="2.1654">
        <ele>136</ele>
        <time>2012-12-16T11:29:04Z</time>
      </trkpt>
      <trkpt lat="48.79716" lon="2.16534">
        <ele>135</ele>
        <time>2012-12-16T11:29:07Z</time>
      </trkpt>
      <trkpt lat="48.79717" lon="2.16526">
        <ele>135</ele>
        <time>2012-12-16T11:29:12Z</time>
      </trkpt>
      <trkpt lat="48.79721" lon="2.16521">
        <ele>134</ele>
        <time>2012-12-16T11:29:16Z</time>
      </trkpt>
      <trkpt lat="48.79724" lon="2.16515">
        <ele>134</ele>
        <time>2012-12-16T11:29:20Z</time>
      </trkpt>
      <trkpt lat="48.79728" lon="2.16511">
        <ele>134</ele>
        <time>2012-12-16T11:29:24Z</time>
      </trkpt>
      <trkpt lat="48.79731" lon="2.16502">
        <ele>133</ele>
        <time>2012-12-16T11:29:29Z</time>
      </trkpt>
      <trkpt lat="48.79737" lon="2.16498">
        <ele>130</ele>
        <time>2012-12-16T11:29:32Z</time>
      </trkpt>
      <trkpt lat="48.79741" lon="2.16493">
        <ele>130</ele>
        <time>2012-12-16T11:29:35Z</time>
      </trkpt>
      <trkpt lat="48.79745" lon="2.16488">
        <ele>130</ele>
        <time>2012-12-16T11:29:40Z</time>
      </trkpt>
      <trkpt lat="48.79747" lon="2.16481">
        <ele>129</ele>
        <time>2012-12-16T11:29:45Z</time>
      </trkpt>
      <trkpt lat="48.79751" lon="2.16475">
        <ele>127</ele>
        <time>2012-12-16T11:29:50Z</time>
      </trkpt>
      <trkpt lat="48.79756" lon="2.16475">
        <ele>127</ele>
        <time>2012-12-16T11:29:54Z</time>
      </trkpt>
      <trkpt lat="48.79763" lon="2.16476">
        <ele>127</ele>
        <time>2012-12-16T11:29:59Z</time>
      </trkpt>
      <trkpt lat="48.79769" lon="2.16476">
        <ele>127</ele>
        <time>2012-12-16T11:30:02Z</time>
      </trkpt>
      <trkpt lat="48.79774" lon="2.16475">
        <ele>127</ele>
        <time>2012-12-16T11:30:06Z</time>
      </trkpt>
      <trkpt lat="48.79779" lon="2.16476">
        <ele>126</ele>
        <time>2012-12-16T11:30:09Z</time>
      </trkpt>
      <trkpt lat="48.79784" lon="2.16477">
        <ele>126</ele>
        <time>2012-12-16T11:30:12Z</time>
      </trkpt>
      <trkpt lat="48.79789" lon="2.16478">
        <ele>126</ele>
        <time>2012-12-16T11:30:16Z</time>
      </trkpt>
      <trkpt lat="48.79793" lon="2.1648">
        <ele>126</ele>
        <time>2012-12-16T11:30:20Z</time>
      </trkpt>
      <trkpt lat="48.79798" lon="2.16483">
        <ele>126</ele>
        <time>2012-12-16T11:30:26Z</time>
      </trkpt>
      <trkpt lat="48.79803" lon="2.16487">
        <ele>126</ele>
        <time>2012-12-16T11:30:29Z</time>
      </trkpt>
      <trkpt lat="48.79808" lon="2.16492">
        <ele>126</ele>
        <time>2012-12-16T11:30:34Z</time>
      </trkpt>
      <trkpt lat="48.79813" lon="2.16496">
        <ele>125</ele>
        <time>2012-12-16T11:30:39Z</time>
      </trkpt>
      <trkpt lat="48.79817" lon="2.16501">
        <ele>128</ele>
        <time>2012-12-16T11:30:42Z</time>
      </trkpt>
      <trkpt lat="48.79821" lon="2.16508">
        <ele>128</ele>
        <time>2012-12-16T11:30:46Z</time>
      </trkpt>
      <trkpt lat="48.79824" lon="2.16515">
        <ele>128</ele>
        <time>2012-12-16T11:30:49Z</time>
      </trkpt>
      <trkpt lat="48.79826" lon="2.16523">
        <ele>129</ele>
        <time>2012-12-16T11:30:54Z</time>
      </trkpt>
      <trkpt lat="48.79828" lon="2.16531">
        <ele>129</ele>
        <time>2012-12-16T11:30:59Z</time>
      </trkpt>
      <trkpt lat="48.7983" lon="2.16539">
        <ele>130</ele>
        <time>2012-12-16T11:31:02Z</time>
      </trkpt>
      <trkpt lat="48.79831" lon="2.16546">
        <ele>130</ele>
        <time>2012-12-16T11:31:05Z</time>
      </trkpt>
      <trkpt lat="48.79831" lon="2.16553">
        <ele>130</ele>
        <time>2012-12-16T11:31:09Z</time>
      </trkpt>
      <trkpt lat="48.7983" lon="2.16562">
        <ele>130</ele>
        <time>2012-12-16T11:31:14Z</time>
      </trkpt>
      <trkpt lat="48.79829" lon="2.16572">
        <ele>130</ele>
        <time>2012-12-16T11:31:19Z</time>
      </trkpt>
      <trkpt lat="48.79829" lon="2.16579">
        <ele>130</ele>
        <time>2012-12-16T11:31:22Z</time>
      </trkpt>
      <trkpt lat="48.7983" lon="2.16587">
        <ele>131</ele>
        <time>2012-12-16T11:31:27Z</time>
      </trkpt>
      <trkpt lat="48.7983" lon="2.16594">
        <ele>132</ele>
        <time>2012-12-16T11:31:31Z</time>
      </trkpt>
      <trkpt lat="48.7983" lon="2.16601">
        <ele>132</ele>
        <time>2012-12-16T11:31:34Z</time>
      </trkpt>
      <trkpt lat="48.79827" lon="2.16608">
        <ele>133</ele>
        <time>2012-12-16T11:31:39Z</time>
      </trkpt>
      <trkpt lat="48.79821" lon="2.16613">
        <ele>133</ele>
        <time>2012-12-16T11:31:44Z</time>
      </trkpt>
      <trkpt lat="48.79816" lon="2.16614">
        <ele>133</ele>
        <time>2012-12-16T11:31:49Z</time>
      </trkpt>
      <trkpt lat="48.79811" lon="2.16613">
        <ele>134</ele>
        <time>2012-12-16T11:31:54Z</time>
      </trkpt>
      <trkpt lat="48.79805" lon="2.16614">
        <ele>134</ele>
        <time>2012-12-16T11:31:59Z</time>
      </trkpt>
      <trkpt lat="48.79799" lon="2.16614">
        <ele>134</ele>
        <time>2012-12-16T11:32:04Z</time>
      </trkpt>
      <trkpt lat="48.79793" lon="2.16611">
        <ele>134</ele>
        <time>2012-12-16T11:32:09Z</time>
      </trkpt>
      <trkpt lat="48.79786" lon="2.16606">
        <ele>135</ele>
        <time>2012-12-16T11:32:14Z</time>
      </trkpt>
      <trkpt lat="48.79782" lon="2.16604">
        <ele>135</ele>
        <time>2012-12-16T11:32:17Z</time>
      </trkpt>
      <trkpt lat="48.79773" lon="2.166">
        <ele>136</ele>
        <time>2012-12-16T11:32:26Z</time>
      </trkpt>
      <trkpt lat="48.79767" lon="2.16596">
        <ele>136</ele>
        <time>2012-12-16T11:32:31Z</time>
      </trkpt>
      <trkpt lat="48.79763" lon="2.16594">
        <ele>137</ele>
        <time>2012-12-16T11:32:35Z</time>
      </trkpt>
      <trkpt lat="48.79757" lon="2.16596">
        <ele>137</ele>
        <time>2012-12-16T11:32:39Z</time>
      </trkpt>
      <trkpt lat="48.79752" lon="2.16596">
        <ele>137</ele>
        <time>2012-12-16T11:32:44Z</time>
      </trkpt>
      <trkpt lat="48.79747" lon="2.16596">
        <ele>141</ele>
        <time>2012-12-16T11:32:49Z</time>
      </trkpt>
      <trkpt lat="48.79742" lon="2.16598">
        <ele>141</ele>
        <time>2012-12-16T11:32:52Z</time>
      </trkpt>
      <trkpt lat="48.79737" lon="2.16599">
        <ele>141</ele>
        <time>2012-12-16T11:32:56Z</time>
      </trkpt>
      <trkpt lat="48.79731" lon="2.166">
        <ele>141</ele>
        <time>2012-12-16T11:32:59Z</time>
      </trkpt>
      <trkpt lat="48.79726" lon="2.16601">
        <ele>142</ele>
        <time>2012-12-16T11:33:04Z</time>
      </trkpt>
      <trkpt lat="48.7972" lon="2.16602">
        <ele>142</ele>
        <time>2012-12-16T11:33:07Z</time>
      </trkpt>
      <trkpt lat="48.79715" lon="2.16604">
        <ele>142</ele>
        <time>2012-12-16T11:33:12Z</time>
      </trkpt>
      <trkpt lat="48.7971" lon="2.16604">
        <ele>143</ele>
        <time>2012-12-16T11:33:14Z</time>
      </trkpt>
      <trkpt lat="48.797" lon="2.16604">
        <ele>143</ele>
        <time>2012-12-16T11:33:21Z</time>
      </trkpt>
      <trkpt lat="48.79696" lon="2.16605">
        <ele>143</ele>
        <time>2012-12-16T11:33:24Z</time>
      </trkpt>
      <trkpt lat="48.79691" lon="2.16607">
        <ele>143</ele>
        <time>2012-12-16T11:33:27Z</time>
      </trkpt>
      <trkpt lat="48.79686" lon="2.16606">
        <ele>144</ele>
        <time>2012-12-16T11:33:31Z</time>
      </trkpt>
      <trkpt lat="48.79681" lon="2.16607">
        <ele>144</ele>
        <time>2012-12-16T11:33:34Z</time>
      </trkpt>
      <trkpt lat="48.79675" lon="2.16609">
        <ele>144</ele>
        <time>2012-12-16T11:33:56Z</time>
      </trkpt>
      <trkpt lat="48.7967" lon="2.16612">
        <ele>144</ele>
        <time>2012-12-16T11:34:00Z</time>
      </trkpt>
      <trkpt lat="48.79665" lon="2.16613">
        <ele>149</ele>
        <time>2012-12-16T11:34:04Z</time>
      </trkpt>
      <trkpt lat="48.7966" lon="2.16615">
        <ele>149</ele>
        <time>2012-12-16T11:34:09Z</time>
      </trkpt>
      <trkpt lat="48.79653" lon="2.16616">
        <ele>149</ele>
        <time>2012-12-16T11:34:14Z</time>
      </trkpt>
      <trkpt lat="48.79647" lon="2.16617">
        <ele>150</ele>
        <time>2012-12-16T11:34:19Z</time>
      </trkpt>
      <trkpt lat="48.7964" lon="2.16617">
        <ele>150</ele>
        <time>2012-12-16T11:34:24Z</time>
      </trkpt>
      <trkpt lat="48.79633" lon="2.16617">
        <ele>150</ele>
        <time>2012-12-16T11:34:27Z</time>
      </trkpt>
      <trkpt lat="48.79628" lon="2.1662">
        <ele>151</ele>
        <time>2012-12-16T11:34:31Z</time>
      </trkpt>
      <trkpt lat="48.79623" lon="2.16624">
        <ele>151</ele>
        <time>2012-12-16T11:34:34Z</time>
      </trkpt>
      <trkpt lat="48.79617" lon="2.16629">
        <ele>152</ele>
        <time>2012-12-16T11:34:39Z</time>
      </trkpt>
      <trkpt lat="48.79612" lon="2.16632">
        <ele>152</ele>
        <time>2012-12-16T11:34:44Z</time>
      </trkpt>
      <trkpt lat="48.79607" lon="2.16635">
        <ele>153</ele>
        <time>2012-12-16T11:34:49Z</time>
      </trkpt>
      <trkpt lat="48.79601" lon="2.16638">
        <ele>154</ele>
        <time>2012-12-16T11:34:54Z</time>
      </trkpt>
      <trkpt lat="48.79597" lon="2.16645">
        <ele>155</ele>
        <time>2012-12-16T11:34:59Z</time>
      </trkpt>
      <trkpt lat="48.79591" lon="2.16649">
        <ele>156</ele>
        <time>2012-12-16T11:35:04Z</time>
      </trkpt>
      <trkpt lat="48.79586" lon="2.16651">
        <ele>157</ele>
        <time>2012-12-16T11:35:09Z</time>
      </trkpt>
      <trkpt lat="48.7958" lon="2.16654">
        <ele>159</ele>
        <time>2012-12-16T11:35:14Z</time>
      </trkpt>
      <trkpt lat="48.79574" lon="2.16656">
        <ele>159</ele>
        <time>2012-12-16T11:35:17Z</time>
      </trkpt>
      <trkpt lat="48.79569" lon="2.16658">
        <ele>159</ele>
        <time>2012-12-16T11:35:20Z</time>
      </trkpt>
      <trkpt lat="48.79564" lon="2.16662">
        <ele>159</ele>
        <time>2012-12-16T11:35:25Z</time>
      </trkpt>
      <trkpt lat="48.79557" lon="2.16665">
        <ele>158</ele>
        <time>2012-12-16T11:35:29Z</time>
      </trkpt>
      <trkpt lat="48.79552" lon="2.16666">
        <ele>158</ele>
        <time>2012-12-16T11:35:34Z</time>
      </trkpt>
      <trkpt lat="48.79547" lon="2.16668">
        <ele>167</ele>
        <time>2012-12-16T11:35:37Z</time>
      </trkpt>
      <trkpt lat="48.79542" lon="2.16671">
        <ele>167</ele>
        <time>2012-12-16T11:35:41Z</time>
      </trkpt>
      <trkpt lat="48.79538" lon="2.16675">
        <ele>167</ele>
        <time>2012-12-16T11:35:45Z</time>
      </trkpt>
      <trkpt lat="48.79533" lon="2.16679">
        <ele>167</ele>
        <time>2012-12-16T11:35:49Z</time>
      </trkpt>
      <trkpt lat="48.79527" lon="2.16684">
        <ele>167</ele>
        <time>2012-12-16T11:35:54Z</time>
      </trkpt>
      <trkpt lat="48.79524" lon="2.1669">
        <ele>168</ele>
        <time>2012-12-16T11:35:57Z</time>
      </trkpt>
      <trkpt lat="48.7952" lon="2.16696">
        <ele>168</ele>
        <time>2012-12-16T11:36:01Z</time>
      </trkpt>
      <trkpt lat="48.79516" lon="2.167">
        <ele>169</ele>
        <time>2012-12-16T11:36:05Z</time>
      </trkpt>
      <trkpt lat="48.79512" lon="2.16705">
        <ele>169</ele>
        <time>2012-12-16T11:36:09Z</time>
      </trkpt>
      <trkpt lat="48.79508" lon="2.16711">
        <ele>170</ele>
        <time>2012-12-16T11:36:12Z</time>
      </trkpt>
      <trkpt lat="48.79505" lon="2.16718">
        <ele>170</ele>
        <time>2012-12-16T11:36:16Z</time>
      </trkpt>
      <trkpt lat="48.79501" lon="2.16725">
        <ele>171</ele>
        <time>2012-12-16T11:36:20Z</time>
      </trkpt>
      <trkpt lat="48.79499" lon="2.16733">
        <ele>172</ele>
        <time>2012-12-16T11:36:24Z</time>
      </trkpt>
      <trkpt lat="48.79494" lon="2.16738">
        <ele>173</ele>
        <time>2012-12-16T11:36:27Z</time>
      </trkpt>
      <trkpt lat="48.79491" lon="2.16743">
        <ele>173</ele>
        <time>2012-12-16T11:36:30Z</time>
      </trkpt>
      <trkpt lat="48.79487" lon="2.16747">
        <ele>173</ele>
        <time>2012-12-16T11:36:34Z</time>
      </trkpt>
      <trkpt lat="48.7948" lon="2.16748">
        <ele>172</ele>
        <time>2012-12-16T11:36:39Z</time>
      </trkpt>
      <trkpt lat="48.79471" lon="2.16755">
        <ele>177</ele>
        <time>2012-12-16T11:36:47Z</time>
      </trkpt>
      <trkpt lat="48.79465" lon="2.16757">
        <ele>177</ele>
        <time>2012-12-16T11:36:51Z</time>
      </trkpt>
      <trkpt lat="48.7946" lon="2.16759">
        <ele>177</ele>
        <time>2012-12-16T11:36:55Z</time>
      </trkpt>
      <trkpt lat="48.79456" lon="2.16763">
        <ele>177</ele>
        <time>2012-12-16T11:36:59Z</time>
      </trkpt>
      <trkpt lat="48.79452" lon="2.16768">
        <ele>177</ele>
        <time>2012-12-16T11:37:02Z</time>
      </trkpt>
      <trkpt lat="48.79447" lon="2.16771">
        <ele>177</ele>
        <time>2012-12-16T11:37:07Z</time>
      </trkpt>
      <trkpt lat="48.79442" lon="2.16773">
        <ele>177</ele>
        <time>2012-12-16T11:37:11Z</time>
      </trkpt>
      <trkpt lat="48.79438" lon="2.16776">
        <ele>177</ele>
        <time>2012-12-16T11:37:14Z</time>
      </trkpt>
      <trkpt lat="48.79432" lon="2.16784">
        <ele>177</ele>
        <time>2012-12-16T11:37:19Z</time>
      </trkpt>
      <trkpt lat="48.79424" lon="2.16779">
        <ele>177</ele>
        <time>2012-12-16T11:37:50Z</time>
      </trkpt>
      <trkpt lat="48.79424" lon="2.16781">
        <ele>177</ele>
        <time>2012-12-16T11:41:51Z</time>
      </trkpt>
      <trkpt lat="48.79419" lon="2.16783">
        <ele>177</ele>
        <time>2012-12-16T11:44:01Z</time>
      </trkpt>
      <trkpt lat="48.79414" lon="2.16783">
        <ele>177</ele>
        <time>2012-12-16T11:44:06Z</time>
      </trkpt>
      <trkpt lat="48.79411" lon="2.16789">
        <ele>178</ele>
        <time>2012-12-16T11:44:21Z</time>
      </trkpt>
      <trkpt lat="48.79406" lon="2.1679">
        <ele>178</ele>
        <time>2012-12-16T11:44:26Z</time>
      </trkpt>
      <trkpt lat="48.79402" lon="2.16792">
        <ele>178</ele>
        <time>2012-12-16T11:44:30Z</time>
      </trkpt>
      <trkpt lat="48.79395" lon="2.16795">
        <ele>178</ele>
        <time>2012-12-16T11:44:34Z</time>
      </trkpt>
      <trkpt lat="48.7939" lon="2.16797">
        <ele>178</ele>
        <time>2012-12-16T11:44:37Z</time>
      </trkpt>
      <trkpt lat="48.79386" lon="2.168">
        <ele>179</ele>
        <time>2012-12-16T11:44:41Z</time>
      </trkpt>
      <trkpt lat="48.79381" lon="2.16802">
        <ele>179</ele>
        <time>2012-12-16T11:44:44Z</time>
      </trkpt>
      <trkpt lat="48.79375" lon="2.16802">
        <ele>179</ele>
        <time>2012-12-16T11:44:49Z</time>
      </trkpt>
      <trkpt lat="48.79368" lon="2.16803">
        <ele>179</ele>
        <time>2012-12-16T11:44:54Z</time>
      </trkpt>
      <trkpt lat="48.79362" lon="2.16804">
        <ele>179</ele>
        <time>2012-12-16T11:44:59Z</time>
      </trkpt>
      <trkpt lat="48.79356" lon="2.1681">
        <ele>179</ele>
        <time>2012-12-16T11:45:04Z</time>
      </trkpt>
      <trkpt lat="48.7935" lon="2.16809">
        <ele>179</ele>
        <time>2012-12-16T11:45:09Z</time>
      </trkpt>
      <trkpt lat="48.79345" lon="2.16809">
        <ele>179</ele>
        <time>2012-12-16T11:45:14Z</time>
      </trkpt>
      <trkpt lat="48.79338" lon="2.16807">
        <ele>179</ele>
        <time>2012-12-16T11:45:19Z</time>
      </trkpt>
      <trkpt lat="48.79331" lon="2.16812">
        <ele>179</ele>
        <time>2012-12-16T11:45:26Z</time>
      </trkpt>
      <trkpt lat="48.79326" lon="2.16814">
        <ele>179</ele>
        <time>2012-12-16T11:45:31Z</time>
      </trkpt>
      <trkpt lat="48.79321" lon="2.16817">
        <ele>179</ele>
        <time>2012-12-16T11:45:35Z</time>
      </trkpt>
      <trkpt lat="48.79316" lon="2.16822">
        <ele>179</ele>
        <time>2012-12-16T11:45:39Z</time>
      </trkpt>
      <trkpt lat="48.79311" lon="2.16825">
        <ele>179</ele>
        <time>2012-12-16T11:45:44Z</time>
      </trkpt>
      <trkpt lat="48.79305" lon="2.16829">
        <ele>179</ele>
        <time>2012-12-16T11:45:49Z</time>
      </trkpt>
      <trkpt lat="48.79296" lon="2.16837">
        <ele>178</ele>
        <time>2012-12-16T11:45:56Z</time>
      </trkpt>
      <trkpt lat="48.79292" lon="2.16839">
        <ele>178</ele>
        <time>2012-12-16T11:46:00Z</time>
      </trkpt>
      <trkpt lat="48.79287" lon="2.16841">
        <ele>178</ele>
        <time>2012-12-16T11:46:04Z</time>
      </trkpt>
      <trkpt lat="48.79282" lon="2.16845">
        <ele>177</ele>
        <time>2012-12-16T11:46:09Z</time>
      </trkpt>
      <trkpt lat="48.79276" lon="2.16848">
        <ele>177</ele>
        <time>2012-12-16T11:46:14Z</time>
      </trkpt>
      <trkpt lat="48.79271" lon="2.16849">
        <ele>177</ele>
        <time>2012-12-16T11:46:19Z</time>
      </trkpt>
      <trkpt lat="48.79266" lon="2.1685">
        <ele>177</ele>
        <time>2012-12-16T11:46:24Z</time>
      </trkpt>
      <trkpt lat="48.79259" lon="2.16852">
        <ele>177</ele>
        <time>2012-12-16T11:46:29Z</time>
      </trkpt>
      <trkpt lat="48.79253" lon="2.16856">
        <ele>176</ele>
        <time>2012-12-16T11:46:34Z</time>
      </trkpt>
      <trkpt lat="48.79248" lon="2.1686">
        <ele>174</ele>
        <time>2012-12-16T11:46:39Z</time>
      </trkpt>
      <trkpt lat="48.79242" lon="2.1686">
        <ele>174</ele>
        <time>2012-12-16T11:46:44Z</time>
      </trkpt>
      <trkpt lat="48.79236" lon="2.16862">
        <ele>174</ele>
        <time>2012-12-16T11:46:49Z</time>
      </trkpt>
      <trkpt lat="48.7923" lon="2.16863">
        <ele>174</ele>
        <time>2012-12-16T11:46:54Z</time>
      </trkpt>
      <trkpt lat="48.79225" lon="2.16862">
        <ele>174</ele>
        <time>2012-12-16T11:46:59Z</time>
      </trkpt>
      <trkpt lat="48.7922" lon="2.16862">
        <ele>174</ele>
        <time>2012-12-16T11:47:02Z</time>
      </trkpt>
      <trkpt lat="48.79215" lon="2.16861">
        <ele>174</ele>
        <time>2012-12-16T11:47:07Z</time>
      </trkpt>
      <trkpt lat="48.7921" lon="2.1686">
        <ele>174</ele>
        <time>2012-12-16T11:47:11Z</time>
      </trkpt>
      <trkpt lat="48.79204" lon="2.1686">
        <ele>174</ele>
        <time>2012-12-16T11:47:15Z</time>
      </trkpt>
      <trkpt lat="48.79197" lon="2.16858">
        <ele>174</ele>
        <time>2012-12-16T11:47:19Z</time>
      </trkpt>
      <trkpt lat="48.79192" lon="2.16857">
        <ele>174</ele>
        <time>2012-12-16T11:47:22Z</time>
      </trkpt>
      <trkpt lat="48.79188" lon="2.16861">
        <ele>174</ele>
        <time>2012-12-16T11:47:25Z</time>
      </trkpt>
      <trkpt lat="48.79183" lon="2.1686">
        <ele>174</ele>
        <time>2012-12-16T11:47:29Z</time>
      </trkpt>
      <trkpt lat="48.79178" lon="2.1686">
        <ele>174</ele>
        <time>2012-12-16T11:47:32Z</time>
      </trkpt>
      <trkpt lat="48.79173" lon="2.16858">
        <ele>174</ele>
        <time>2012-12-16T11:47:37Z</time>
      </trkpt>
      <trkpt lat="48.79168" lon="2.16857">
        <ele>174</ele>
        <time>2012-12-16T11:47:40Z</time>
      </trkpt>
      <trkpt lat="48.79163" lon="2.16855">
        <ele>174</ele>
        <time>2012-12-16T11:47:44Z</time>
      </trkpt>
      <trkpt lat="48.79158" lon="2.16855">
        <ele>174</ele>
        <time>2012-12-16T11:47:47Z</time>
      </trkpt>
      <trkpt lat="48.79152" lon="2.16855">
        <ele>174</ele>
        <time>2012-12-16T11:47:52Z</time>
      </trkpt>
      <trkpt lat="48.79146" lon="2.16854">
        <ele>174</ele>
        <time>2012-12-16T11:47:55Z</time>
      </trkpt>
      <trkpt lat="48.79141" lon="2.16857">
        <ele>174</ele>
        <time>2012-12-16T11:48:00Z</time>
      </trkpt>
      <trkpt lat="48.79136" lon="2.16859">
        <ele>174</ele>
        <time>2012-12-16T11:48:04Z</time>
      </trkpt>
      <trkpt lat="48.79131" lon="2.1686">
        <ele>174</ele>
        <time>2012-12-16T11:48:07Z</time>
      </trkpt>
      <trkpt lat="48.79126" lon="2.16861">
        <ele>174</ele>
        <time>2012-12-16T11:48:10Z</time>
      </trkpt>
      <trkpt lat="48.79121" lon="2.16861">
        <ele>174</ele>
        <time>2012-12-16T11:48:14Z</time>
      </trkpt>
      <trkpt lat="48.79116" lon="2.16864">
        <ele>174</ele>
        <time>2012-12-16T11:48:19Z</time>
      </trkpt>
      <trkpt lat="48.79111" lon="2.16872">
        <ele>174</ele>
        <time>2012-12-16T11:48:24Z</time>
      </trkpt>
      <trkpt lat="48.79113" lon="2.16879">
        <ele>174</ele>
        <time>2012-12-16T11:48:29Z</time>
      </trkpt>
      <trkpt lat="48.79116" lon="2.16888">
        <ele>174</ele>
        <time>2012-12-16T11:48:34Z</time>
      </trkpt>
      <trkpt lat="48.79118" lon="2.16897">
        <ele>174</ele>
        <time>2012-12-16T11:48:39Z</time>
      </trkpt>
      <trkpt lat="48.79121" lon="2.16905">
        <ele>174</ele>
        <time>2012-12-16T11:48:44Z</time>
      </trkpt>
      <trkpt lat="48.79123" lon="2.16915">
        <ele>174</ele>
        <time>2012-12-16T11:48:49Z</time>
      </trkpt>
      <trkpt lat="48.79124" lon="2.16922">
        <ele>175</ele>
        <time>2012-12-16T11:48:55Z</time>
      </trkpt>
      <trkpt lat="48.79127" lon="2.16929">
        <ele>175</ele>
        <time>2012-12-16T11:48:59Z</time>
      </trkpt>
      <trkpt lat="48.7913" lon="2.16935">
        <ele>175</ele>
        <time>2012-12-16T11:49:02Z</time>
      </trkpt>
      <trkpt lat="48.79131" lon="2.16943">
        <ele>175</ele>
        <time>2012-12-16T11:49:06Z</time>
      </trkpt>
      <trkpt lat="48.79134" lon="2.16949">
        <ele>175</ele>
        <time>2012-12-16T11:49:11Z</time>
      </trkpt>
      <trkpt lat="48.79136" lon="2.16956">
        <ele>175</ele>
        <time>2012-12-16T11:49:14Z</time>
      </trkpt>
      <trkpt lat="48.79139" lon="2.16964">
        <ele>175</ele>
        <time>2012-12-16T11:49:19Z</time>
      </trkpt>
      <trkpt lat="48.79141" lon="2.16971">
        <ele>175</ele>
        <time>2012-12-16T11:49:22Z</time>
      </trkpt>
      <trkpt lat="48.79143" lon="2.16979">
        <ele>175</ele>
        <time>2012-12-16T11:49:26Z</time>
      </trkpt>
      <trkpt lat="48.79145" lon="2.16986">
        <ele>175</ele>
        <time>2012-12-16T11:49:31Z</time>
      </trkpt>
      <trkpt lat="48.79146" lon="2.16992">
        <ele>175</ele>
        <time>2012-12-16T11:49:34Z</time>
      </trkpt>
      <trkpt lat="48.79148" lon="2.17003">
        <ele>176</ele>
        <time>2012-12-16T11:49:39Z</time>
      </trkpt>
      <trkpt lat="48.79151" lon="2.1701">
        <ele>176</ele>
        <time>2012-12-16T11:49:44Z</time>
      </trkpt>
      <trkpt lat="48.79154" lon="2.1702">
        <ele>176</ele>
        <time>2012-12-16T11:49:49Z</time>
      </trkpt>
      <trkpt lat="48.79155" lon="2.17028">
        <ele>176</ele>
        <time>2012-12-16T11:49:54Z</time>
      </trkpt>
      <trkpt lat="48.79156" lon="2.17038">
        <ele>176</ele>
        <time>2012-12-16T11:49:59Z</time>
      </trkpt>
      <trkpt lat="48.79157" lon="2.17045">
        <ele>176</ele>
        <time>2012-12-16T11:50:02Z</time>
      </trkpt>
      <trkpt lat="48.79159" lon="2.17052">
        <ele>176</ele>
        <time>2012-12-16T11:50:06Z</time>
      </trkpt>
      <trkpt lat="48.79162" lon="2.1706">
        <ele>176</ele>
        <time>2012-12-16T11:50:10Z</time>
      </trkpt>
      <trkpt lat="48.79164" lon="2.17068">
        <ele>176</ele>
        <time>2012-12-16T11:50:14Z</time>
      </trkpt>
      <trkpt lat="48.79167" lon="2.17076">
        <ele>175</ele>
        <time>2012-12-16T11:50:19Z</time>
      </trkpt>
      <trkpt lat="48.79168" lon="2.17086">
        <ele>175</ele>
        <time>2012-12-16T11:50:24Z</time>
      </trkpt>
      <trkpt lat="48.79171" lon="2.17097">
        <ele>175</ele>
        <time>2012-12-16T11:50:29Z</time>
      </trkpt>
      <trkpt lat="48.79174" lon="2.17103">
        <ele>175</ele>
        <time>2012-12-16T11:50:32Z</time>
      </trkpt>
      <trkpt lat="48.79175" lon="2.17111">
        <ele>175</ele>
        <time>2012-12-16T11:50:37Z</time>
      </trkpt>
      <trkpt lat="48.79176" lon="2.1712">
        <ele>175</ele>
        <time>2012-12-16T11:50:42Z</time>
      </trkpt>
      <trkpt lat="48.79178" lon="2.17128">
        <ele>175</ele>
        <time>2012-12-16T11:50:46Z</time>
      </trkpt>
      <trkpt lat="48.7918" lon="2.17136">
        <ele>175</ele>
        <time>2012-12-16T11:50:50Z</time>
      </trkpt>
      <trkpt lat="48.79182" lon="2.17145">
        <ele>175</ele>
        <time>2012-12-16T11:50:54Z</time>
      </trkpt>
      <trkpt lat="48.79184" lon="2.17152">
        <ele>175</ele>
        <time>2012-12-16T11:50:57Z</time>
      </trkpt>
      <trkpt lat="48.79185" lon="2.17161">
        <ele>175</ele>
        <time>2012-12-16T11:51:04Z</time>
      </trkpt>
      <trkpt lat="48.79187" lon="2.17171">
        <ele>175</ele>
        <time>2012-12-16T11:51:09Z</time>
      </trkpt>
      <trkpt lat="48.79189" lon="2.17179">
        <ele>175</ele>
        <time>2012-12-16T11:51:12Z</time>
      </trkpt>
      <trkpt lat="48.79191" lon="2.17185">
        <ele>175</ele>
        <time>2012-12-16T11:51:14Z</time>
      </trkpt>
      <trkpt lat="48.79196" lon="2.172">
        <ele>175</ele>
        <time>2012-12-16T11:51:24Z</time>
      </trkpt>
      <trkpt lat="48.79198" lon="2.17208">
        <ele>175</ele>
        <time>2012-12-16T11:51:27Z</time>
      </trkpt>
      <trkpt lat="48.79202" lon="2.17213">
        <ele>175</ele>
        <time>2012-12-16T11:51:31Z</time>
      </trkpt>
      <trkpt lat="48.79206" lon="2.17219">
        <ele>175</ele>
        <time>2012-12-16T11:51:36Z</time>
      </trkpt>
      <trkpt lat="48.7921" lon="2.17226">
        <ele>175</ele>
        <time>2012-12-16T11:51:40Z</time>
      </trkpt>
      <trkpt lat="48.79213" lon="2.17232">
        <ele>175</ele>
        <time>2012-12-16T11:51:44Z</time>
      </trkpt>
      <trkpt lat="48.79217" lon="2.17241">
        <ele>175</ele>
        <time>2012-12-16T11:51:49Z</time>
      </trkpt>
      <trkpt lat="48.79219" lon="2.17247">
        <ele>175</ele>
        <time>2012-12-16T11:51:52Z</time>
      </trkpt>
      <trkpt lat="48.79221" lon="2.17254">
        <ele>175</ele>
        <time>2012-12-16T11:51:56Z</time>
      </trkpt>
      <trkpt lat="48.79225" lon="2.17261">
        <ele>175</ele>
        <time>2012-12-16T11:52:00Z</time>
      </trkpt>
      <trkpt lat="48.79227" lon="2.1727">
        <ele>175</ele>
        <time>2012-12-16T11:52:04Z</time>
      </trkpt>
      <trkpt lat="48.79222" lon="2.17279">
        <ele>175</ele>
        <time>2012-12-16T11:52:09Z</time>
      </trkpt>
      <trkpt lat="48.79218" lon="2.17284">
        <ele>175</ele>
        <time>2012-12-16T11:52:12Z</time>
      </trkpt>
      <trkpt lat="48.79214" lon="2.17291">
        <ele>175</ele>
        <time>2012-12-16T11:52:16Z</time>
      </trkpt>
      <trkpt lat="48.7921" lon="2.17295">
        <ele>174</ele>
        <time>2012-12-16T11:52:19Z</time>
      </trkpt>
      <trkpt lat="48.79205" lon="2.173">
        <ele>174</ele>
        <time>2012-12-16T11:52:22Z</time>
      </trkpt>
      <trkpt lat="48.79201" lon="2.17304">
        <ele>174</ele>
        <time>2012-12-16T11:52:25Z</time>
      </trkpt>
      <trkpt lat="48.79194" lon="2.1731">
        <ele>174</ele>
        <time>2012-12-16T11:52:29Z</time>
      </trkpt>
      <trkpt lat="48.7919" lon="2.17315">
        <ele>174</ele>
        <time>2012-12-16T11:52:32Z</time>
      </trkpt>
      <trkpt lat="48.79186" lon="2.1732">
        <ele>174</ele>
        <time>2012-12-16T11:52:35Z</time>
      </trkpt>
      <trkpt lat="48.79181" lon="2.17321">
        <ele>174</ele>
        <time>2012-12-16T11:52:39Z</time>
      </trkpt>
      <trkpt lat="48.79175" lon="2.17323">
        <ele>174</ele>
        <time>2012-12-16T11:52:44Z</time>
      </trkpt>
      <trkpt lat="48.79171" lon="2.17327">
        <ele>173</ele>
        <time>2012-12-16T11:52:47Z</time>
      </trkpt>
      <trkpt lat="48.79166" lon="2.17331">
        <ele>173</ele>
        <time>2012-12-16T11:52:52Z</time>
      </trkpt>
      <trkpt lat="48.79161" lon="2.17336">
        <ele>174</ele>
        <time>2012-12-16T11:52:55Z</time>
      </trkpt>
      <trkpt lat="48.79157" lon="2.17341">
        <ele>174</ele>
        <time>2012-12-16T11:52:59Z</time>
      </trkpt>
      <trkpt lat="48.79153" lon="2.17346">
        <ele>175</ele>
        <time>2012-12-16T11:53:02Z</time>
      </trkpt>
      <trkpt lat="48.79148" lon="2.17351">
        <ele>175</ele>
        <time>2012-12-16T11:53:06Z</time>
      </trkpt>
      <trkpt lat="48.79144" lon="2.17356">
        <ele>175</ele>
        <time>2012-12-16T11:53:09Z</time>
      </trkpt>
      <trkpt lat="48.7914" lon="2.17361">
        <ele>176</ele>
        <time>2012-12-16T11:53:12Z</time>
      </trkpt>
      <trkpt lat="48.79136" lon="2.17366">
        <ele>176</ele>
        <time>2012-12-16T11:53:15Z</time>
      </trkpt>
      <trkpt lat="48.79132" lon="2.17371">
        <ele>176</ele>
        <time>2012-12-16T11:53:19Z</time>
      </trkpt>
      <trkpt lat="48.79128" lon="2.17375">
        <ele>176</ele>
        <time>2012-12-16T11:53:22Z</time>
      </trkpt>
      <trkpt lat="48.79122" lon="2.17379">
        <ele>176</ele>
        <time>2012-12-16T11:53:27Z</time>
      </trkpt>
      <trkpt lat="48.79118" lon="2.17382">
        <ele>177</ele>
        <time>2012-12-16T11:53:32Z</time>
      </trkpt>
      <trkpt lat="48.79114" lon="2.17387">
        <ele>177</ele>
        <time>2012-12-16T11:53:35Z</time>
      </trkpt>
      <trkpt lat="48.79109" lon="2.17388">
        <ele>177</ele>
        <time>2012-12-16T11:53:40Z</time>
      </trkpt>
      <trkpt lat="48.79109" lon="2.17395">
        <ele>177</ele>
        <time>2012-12-16T11:53:59Z</time>
      </trkpt>
      <trkpt lat="48.79114" lon="2.17395">
        <ele>177</ele>
        <time>2012-12-16T11:54:44Z</time>
      </trkpt>
      <trkpt lat="48.79118" lon="2.17401">
        <ele>177</ele>
        <time>2012-12-16T11:54:50Z</time>
      </trkpt>
      <trkpt lat="48.79122" lon="2.17406">
        <ele>176</ele>
        <time>2012-12-16T11:54:57Z</time>
      </trkpt>
      <trkpt lat="48.79126" lon="2.17411">
        <ele>176</ele>
        <time>2012-12-16T11:55:01Z</time>
      </trkpt>
      <trkpt lat="48.7913" lon="2.17417">
        <ele>176</ele>
        <time>2012-12-16T11:55:06Z</time>
      </trkpt>
      <trkpt lat="48.79133" lon="2.17421">
        <ele>176</ele>
        <time>2012-12-16T11:55:09Z</time>
      </trkpt>
      <trkpt lat="48.79137" lon="2.17429">
        <ele>175</ele>
        <time>2012-12-16T11:55:14Z</time>
      </trkpt>
      <trkpt lat="48.79142" lon="2.17435">
        <ele>175</ele>
        <time>2012-12-16T11:55:19Z</time>
      </trkpt>
      <trkpt lat="48.79145" lon="2.17441">
        <ele>175</ele>
        <time>2012-12-16T11:55:27Z</time>
      </trkpt>
      <trkpt lat="48.79147" lon="2.17449">
        <ele>175</ele>
        <time>2012-12-16T11:55:34Z</time>
      </trkpt>
      <trkpt lat="48.79151" lon="2.17453">
        <ele>175</ele>
        <time>2012-12-16T11:55:39Z</time>
      </trkpt>
      <trkpt lat="48.79155" lon="2.1746">
        <ele>175</ele>
        <time>2012-12-16T11:55:44Z</time>
      </trkpt>
      <trkpt lat="48.79157" lon="2.17468">
        <ele>175</ele>
        <time>2012-12-16T11:55:49Z</time>
      </trkpt>
      <trkpt lat="48.79159" lon="2.17476">
        <ele>175</ele>
        <time>2012-12-16T11:55:54Z</time>
      </trkpt>
      <trkpt lat="48.79163" lon="2.17483">
        <ele>175</ele>
        <time>2012-12-16T11:55:59Z</time>
      </trkpt>
      <trkpt lat="48.79167" lon="2.17488">
        <ele>172</ele>
        <time>2012-12-16T11:56:04Z</time>
      </trkpt>
      <trkpt lat="48.79169" lon="2.17495">
        <ele>172</ele>
        <time>2012-12-16T11:56:09Z</time>
      </trkpt>
      <trkpt lat="48.79166" lon="2.17504">
        <ele>173</ele>
        <time>2012-12-16T11:56:14Z</time>
      </trkpt>
      <trkpt lat="48.79165" lon="2.17513">
        <ele>174</ele>
        <time>2012-12-16T11:56:19Z</time>
      </trkpt>
      <trkpt lat="48.79162" lon="2.17521">
        <ele>174</ele>
        <time>2012-12-16T11:56:24Z</time>
      </trkpt>
      <trkpt lat="48.7916" lon="2.17528">
        <ele>175</ele>
        <time>2012-12-16T11:56:29Z</time>
      </trkpt>
      <trkpt lat="48.79158" lon="2.17534">
        <ele>175</ele>
        <time>2012-12-16T11:56:34Z</time>
      </trkpt>
      <trkpt lat="48.79156" lon="2.17543">
        <ele>175</ele>
        <time>2012-12-16T11:56:39Z</time>
      </trkpt>
      <trkpt lat="48.79156" lon="2.1755">
        <ele>174</ele>
        <time>2012-12-16T11:56:44Z</time>
      </trkpt>
      <trkpt lat="48.79153" lon="2.17559">
        <ele>174</ele>
        <time>2012-12-16T11:56:49Z</time>
      </trkpt>
      <trkpt lat="48.79152" lon="2.17567">
        <ele>174</ele>
        <time>2012-12-16T11:56:55Z</time>
      </trkpt>
      <trkpt lat="48.79151" lon="2.17576">
        <ele>173</ele>
        <time>2012-12-16T11:56:59Z</time>
      </trkpt>
      <trkpt lat="48.7915" lon="2.17585">
        <ele>172</ele>
        <time>2012-12-16T11:57:04Z</time>
      </trkpt>
      <trkpt lat="48.79147" lon="2.17594">
        <ele>172</ele>
        <time>2012-12-16T11:57:09Z</time>
      </trkpt>
      <trkpt lat="48.79145" lon="2.17602">
        <ele>173</ele>
        <time>2012-12-16T11:57:12Z</time>
      </trkpt>
      <trkpt lat="48.79144" lon="2.17609">
        <ele>173</ele>
        <time>2012-12-16T11:57:16Z</time>
      </trkpt>
      <trkpt lat="48.79143" lon="2.17617">
        <ele>173</ele>
        <time>2012-12-16T11:57:21Z</time>
      </trkpt>
      <trkpt lat="48.79141" lon="2.17623">
        <ele>173</ele>
        <time>2012-12-16T11:57:24Z</time>
      </trkpt>
      <trkpt lat="48.79141" lon="2.17631">
        <ele>173</ele>
        <time>2012-12-16T11:57:27Z</time>
      </trkpt>
      <trkpt lat="48.79139" lon="2.17638">
        <ele>173</ele>
        <time>2012-12-16T11:57:31Z</time>
      </trkpt>
      <trkpt lat="48.79134" lon="2.1765">
        <ele>173</ele>
        <time>2012-12-16T11:57:39Z</time>
      </trkpt>
      <trkpt lat="48.79133" lon="2.17657">
        <ele>173</ele>
        <time>2012-12-16T11:57:44Z</time>
      </trkpt>
      <trkpt lat="48.79131" lon="2.17665">
        <ele>173</ele>
        <time>2012-12-16T11:57:49Z</time>
      </trkpt>
      <trkpt lat="48.79127" lon="2.17672">
        <ele>172</ele>
        <time>2012-12-16T11:57:54Z</time>
      </trkpt>
      <trkpt lat="48.79121" lon="2.17686">
        <ele>172</ele>
        <time>2012-12-16T11:58:04Z</time>
      </trkpt>
      <trkpt lat="48.79118" lon="2.17692">
        <ele>172</ele>
        <time>2012-12-16T11:58:09Z</time>
      </trkpt>
      <trkpt lat="48.79115" lon="2.17696">
        <ele>172</ele>
        <time>2012-12-16T11:58:16Z</time>
      </trkpt>
      <trkpt lat="48.79107" lon="2.17705">
        <ele>172</ele>
        <time>2012-12-16T11:58:25Z</time>
      </trkpt>
      <trkpt lat="48.791" lon="2.17715">
        <ele>173</ele>
        <time>2012-12-16T11:58:35Z</time>
      </trkpt>
      <trkpt lat="48.79094" lon="2.17719">
        <ele>173</ele>
        <time>2012-12-16T11:58:39Z</time>
      </trkpt>
      <trkpt lat="48.79088" lon="2.17722">
        <ele>173</ele>
        <time>2012-12-16T11:58:44Z</time>
      </trkpt>
      <trkpt lat="48.79082" lon="2.17727">
        <ele>177</ele>
        <time>2012-12-16T11:58:49Z</time>
      </trkpt>
      <trkpt lat="48.79078" lon="2.17732">
        <ele>177</ele>
        <time>2012-12-16T11:58:54Z</time>
      </trkpt>
      <trkpt lat="48.79073" lon="2.17735">
        <ele>177</ele>
        <time>2012-12-16T11:58:59Z</time>
      </trkpt>
      <trkpt lat="48.79067" lon="2.17739">
        <ele>177</ele>
        <time>2012-12-16T11:59:04Z</time>
      </trkpt>
      <trkpt lat="48.79062" lon="2.17742">
        <ele>177</ele>
        <time>2012-12-16T11:59:09Z</time>
      </trkpt>
      <trkpt lat="48.79055" lon="2.17747">
        <ele>177</ele>
        <time>2012-12-16T11:59:14Z</time>
      </trkpt>
      <trkpt lat="48.7905" lon="2.17751">
        <ele>176</ele>
        <time>2012-12-16T11:59:17Z</time>
      </trkpt>
      <trkpt lat="48.79045" lon="2.17757">
        <ele>176</ele>
        <time>2012-12-16T11:59:20Z</time>
      </trkpt>
      <trkpt lat="48.79041" lon="2.1776">
        <ele>176</ele>
        <time>2012-12-16T11:59:24Z</time>
      </trkpt>
      <trkpt lat="48.79034" lon="2.17767">
        <ele>176</ele>
        <time>2012-12-16T11:59:29Z</time>
      </trkpt>
      <trkpt lat="48.79029" lon="2.17772">
        <ele>176</ele>
        <time>2012-12-16T11:59:34Z</time>
      </trkpt>
      <trkpt lat="48.79019" lon="2.1778">
        <ele>176</ele>
        <time>2012-12-16T11:59:44Z</time>
      </trkpt>
      <trkpt lat="48.79014" lon="2.17783">
        <ele>176</ele>
        <time>2012-12-16T11:59:49Z</time>
      </trkpt>
      <trkpt lat="48.79008" lon="2.17787">
        <ele>176</ele>
        <time>2012-12-16T11:59:54Z</time>
      </trkpt>
      <trkpt lat="48.79004" lon="2.17792">
        <ele>176</ele>
        <time>2012-12-16T11:59:59Z</time>
      </trkpt>
      <trkpt lat="48.78998" lon="2.17797">
        <ele>177</ele>
        <time>2012-12-16T12:00:04Z</time>
      </trkpt>
      <trkpt lat="48.78993" lon="2.17802">
        <ele>177</ele>
        <time>2012-12-16T12:00:09Z</time>
      </trkpt>
      <trkpt lat="48.78986" lon="2.17806">
        <ele>177</ele>
        <time>2012-12-16T12:00:14Z</time>
      </trkpt>
      <trkpt lat="48.7898" lon="2.17807">
        <ele>177</ele>
        <time>2012-12-16T12:00:19Z</time>
      </trkpt>
      <trkpt lat="48.78976" lon="2.17812">
        <ele>177</ele>
        <time>2012-12-16T12:00:22Z</time>
      </trkpt>
      <trkpt lat="48.78971" lon="2.17818">
        <ele>177</ele>
        <time>2012-12-16T12:00:26Z</time>
      </trkpt>
      <trkpt lat="48.78968" lon="2.17822">
        <ele>177</ele>
        <time>2012-12-16T12:00:30Z</time>
      </trkpt>
      <trkpt lat="48.78963" lon="2.17826">
        <ele>177</ele>
        <time>2012-12-16T12:00:34Z</time>
      </trkpt>
      <trkpt lat="48.78959" lon="2.1783">
        <ele>177</ele>
        <time>2012-12-16T12:00:37Z</time>
      </trkpt>
      <trkpt lat="48.78954" lon="2.17832">
        <ele>177</ele>
        <time>2012-12-16T12:00:41Z</time>
      </trkpt>
      <trkpt lat="48.78949" lon="2.17836">
        <ele>176</ele>
        <time>2012-12-16T12:00:45Z</time>
      </trkpt>
      <trkpt lat="48.78945" lon="2.1784">
        <ele>176</ele>
        <time>2012-12-16T12:00:50Z</time>
      </trkpt>
      <trkpt lat="48.78939" lon="2.17844">
        <ele>176</ele>
        <time>2012-12-16T12:00:54Z</time>
      </trkpt>
      <trkpt lat="48.78935" lon="2.1785">
        <ele>176</ele>
        <time>2012-12-16T12:00:57Z</time>
      </trkpt>
      <trkpt lat="48.7893" lon="2.17855">
        <ele>176</ele>
        <time>2012-12-16T12:01:01Z</time>
      </trkpt>
      <trkpt lat="48.78925" lon="2.17858">
        <ele>176</ele>
        <time>2012-12-16T12:01:05Z</time>
      </trkpt>
      <trkpt lat="48.78921" lon="2.17862">
        <ele>176</ele>
        <time>2012-12-16T12:01:09Z</time>
      </trkpt>
      <trkpt lat="48.78915" lon="2.17865">
        <ele>176</ele>
        <time>2012-12-16T12:01:14Z</time>
      </trkpt>
      <trkpt lat="48.78908" lon="2.17867">
        <ele>175</ele>
        <time>2012-12-16T12:01:19Z</time>
      </trkpt>
      <trkpt lat="48.78903" lon="2.17872">
        <ele>175</ele>
        <time>2012-12-16T12:01:24Z</time>
      </trkpt>
      <trkpt lat="48.78897" lon="2.17875">
        <ele>175</ele>
        <time>2012-12-16T12:01:30Z</time>
      </trkpt>
      <trkpt lat="48.78894" lon="2.1788">
        <ele>175</ele>
        <time>2012-12-16T12:01:34Z</time>
      </trkpt>
      <trkpt lat="48.78889" lon="2.17884">
        <ele>175</ele>
        <time>2012-12-16T12:01:39Z</time>
      </trkpt>
      <trkpt lat="48.78884" lon="2.17887">
        <ele>175</ele>
        <time>2012-12-16T12:01:44Z</time>
      </trkpt>
      <trkpt lat="48.78877" lon="2.17893">
        <ele>175</ele>
        <time>2012-12-16T12:01:49Z</time>
      </trkpt>
      <trkpt lat="48.78871" lon="2.17896">
        <ele>174</ele>
        <time>2012-12-16T12:01:54Z</time>
      </trkpt>
      <trkpt lat="48.78867" lon="2.17902">
        <ele>174</ele>
        <time>2012-12-16T12:02:01Z</time>
      </trkpt>
      <trkpt lat="48.78863" lon="2.17907">
        <ele>174</ele>
        <time>2012-12-16T12:02:05Z</time>
      </trkpt>
      <trkpt lat="48.78858" lon="2.17911">
        <ele>174</ele>
        <time>2012-12-16T12:02:09Z</time>
      </trkpt>
      <trkpt lat="48.78849" lon="2.17912">
        <ele>174</ele>
        <time>2012-12-16T12:02:20Z</time>
      </trkpt>
      <trkpt lat="48.78847" lon="2.17905">
        <ele>174</ele>
        <time>2012-12-16T12:03:09Z</time>
      </trkpt>
      <trkpt lat="48.78844" lon="2.17912">
        <ele>174</ele>
        <time>2012-12-16T12:03:14Z</time>
      </trkpt>
      <trkpt lat="48.78843" lon="2.1792">
        <ele>173</ele>
        <time>2012-12-16T12:03:20Z</time>
      </trkpt>
      <trkpt lat="48.78842" lon="2.17928">
        <ele>174</ele>
        <time>2012-12-16T12:03:25Z</time>
      </trkpt>
      <trkpt lat="48.78841" lon="2.17936">
        <ele>174</ele>
        <time>2012-12-16T12:03:30Z</time>
      </trkpt>
      <trkpt lat="48.78839" lon="2.17944">
        <ele>174</ele>
        <time>2012-12-16T12:03:35Z</time>
      </trkpt>
      <trkpt lat="48.78838" lon="2.17951">
        <ele>174</ele>
        <time>2012-12-16T12:03:40Z</time>
      </trkpt>
      <trkpt lat="48.78838" lon="2.17958">
        <ele>174</ele>
        <time>2012-12-16T12:03:44Z</time>
      </trkpt>
      <trkpt lat="48.78838" lon="2.17968">
        <ele>174</ele>
        <time>2012-12-16T12:03:49Z</time>
      </trkpt>
      <trkpt lat="48.78836" lon="2.17976">
        <ele>174</ele>
        <time>2012-12-16T12:03:54Z</time>
      </trkpt>
      <trkpt lat="48.78834" lon="2.17983">
        <ele>175</ele>
        <time>2012-12-16T12:03:59Z</time>
      </trkpt>
      <trkpt lat="48.78831" lon="2.17991">
        <ele>175</ele>
        <time>2012-12-16T12:04:04Z</time>
      </trkpt>
      <trkpt lat="48.78826" lon="2.17995">
        <ele>175</ele>
        <time>2012-12-16T12:04:11Z</time>
      </trkpt>
      <trkpt lat="48.78822" lon="2.18001">
        <ele>175</ele>
        <time>2012-12-16T12:04:14Z</time>
      </trkpt>
      <trkpt lat="48.78819" lon="2.18009">
        <ele>176</ele>
        <time>2012-12-16T12:04:19Z</time>
      </trkpt>
      <trkpt lat="48.78819" lon="2.18018">
        <ele>176</ele>
        <time>2012-12-16T12:04:24Z</time>
      </trkpt>
      <trkpt lat="48.78824" lon="2.18023">
        <ele>176</ele>
        <time>2012-12-16T12:04:29Z</time>
      </trkpt>
      <trkpt lat="48.78831" lon="2.18021">
        <ele>176</ele>
        <time>2012-12-16T12:04:34Z</time>
      </trkpt>
      <trkpt lat="48.78836" lon="2.18018">
        <ele>176</ele>
        <time>2012-12-16T12:04:39Z</time>
      </trkpt>
      <trkpt lat="48.78841" lon="2.18015">
        <ele>176</ele>
        <time>2012-12-16T12:04:44Z</time>
      </trkpt>
      <trkpt lat="48.78848" lon="2.18018">
        <ele>176</ele>
        <time>2012-12-16T12:04:49Z</time>
      </trkpt>
      <trkpt lat="48.78852" lon="2.1802">
        <ele>176</ele>
        <time>2012-12-16T12:04:54Z</time>
      </trkpt>
      <trkpt lat="48.78858" lon="2.18022">
        <ele>176</ele>
        <time>2012-12-16T12:04:57Z</time>
      </trkpt>
      <trkpt lat="48.78868" lon="2.18027">
        <ele>176</ele>
        <time>2012-12-16T12:05:05Z</time>
      </trkpt>
      <trkpt lat="48.78874" lon="2.1803">
        <ele>177</ele>
        <time>2012-12-16T12:05:09Z</time>
      </trkpt>
      <trkpt lat="48.7888" lon="2.18033">
        <ele>177</ele>
        <time>2012-12-16T12:05:14Z</time>
      </trkpt>
      <trkpt lat="48.78886" lon="2.18038">
        <ele>177</ele>
        <time>2012-12-16T12:05:19Z</time>
      </trkpt>
      <trkpt lat="48.78892" lon="2.18043">
        <ele>177</ele>
        <time>2012-12-16T12:05:24Z</time>
      </trkpt>
      <trkpt lat="48.78897" lon="2.18047">
        <ele>177</ele>
        <time>2012-12-16T12:05:27Z</time>
      </trkpt>
      <trkpt lat="48.78902" lon="2.1805">
        <ele>177</ele>
        <time>2012-12-16T12:05:31Z</time>
      </trkpt>
      <trkpt lat="48.78912" lon="2.18057">
        <ele>177</ele>
        <time>2012-12-16T12:05:39Z</time>
      </trkpt>
      <trkpt lat="48.78918" lon="2.18061">
        <ele>176</ele>
        <time>2012-12-16T12:05:44Z</time>
      </trkpt>
      <trkpt lat="48.78923" lon="2.18064">
        <ele>176</ele>
        <time>2012-12-16T12:05:49Z</time>
      </trkpt>
      <trkpt lat="48.78927" lon="2.18068">
        <ele>176</ele>
        <time>2012-12-16T12:05:54Z</time>
      </trkpt>
      <trkpt lat="48.78934" lon="2.18073">
        <ele>176</ele>
        <time>2012-12-16T12:05:59Z</time>
      </trkpt>
      <trkpt lat="48.78939" lon="2.18075">
        <ele>175</ele>
        <time>2012-12-16T12:06:04Z</time>
      </trkpt>
      <trkpt lat="48.78944" lon="2.18075">
        <ele>175</ele>
        <time>2012-12-16T12:06:09Z</time>
      </trkpt>
      <trkpt lat="48.78949" lon="2.18079">
        <ele>175</ele>
        <time>2012-12-16T12:06:12Z</time>
      </trkpt>
      <trkpt lat="48.78954" lon="2.18082">
        <ele>175</ele>
        <time>2012-12-16T12:06:15Z</time>
      </trkpt>
      <trkpt lat="48.7896" lon="2.18086">
        <ele>177</ele>
        <time>2012-12-16T12:06:19Z</time>
      </trkpt>
      <trkpt lat="48.78964" lon="2.18091">
        <ele>177</ele>
        <time>2012-12-16T12:06:22Z</time>
      </trkpt>
      <trkpt lat="48.78968" lon="2.18095">
        <ele>176</ele>
        <time>2012-12-16T12:06:25Z</time>
      </trkpt>
      <trkpt lat="48.78972" lon="2.18101">
        <ele>176</ele>
        <time>2012-12-16T12:06:30Z</time>
      </trkpt>
      <trkpt lat="48.78977" lon="2.18104">
        <ele>176</ele>
        <time>2012-12-16T12:06:34Z</time>
      </trkpt>
      <trkpt lat="48.78983" lon="2.18105">
        <ele>176</ele>
        <time>2012-12-16T12:06:39Z</time>
      </trkpt>
      <trkpt lat="48.78987" lon="2.18109">
        <ele>176</ele>
        <time>2012-12-16T12:06:42Z</time>
      </trkpt>
      <trkpt lat="48.78991" lon="2.18112">
        <ele>176</ele>
        <time>2012-12-16T12:06:46Z</time>
      </trkpt>
      <trkpt lat="48.78995" lon="2.18116">
        <ele>176</ele>
        <time>2012-12-16T12:06:49Z</time>
      </trkpt>
      <trkpt lat="48.79001" lon="2.18122">
        <ele>174</ele>
        <time>2012-12-16T12:06:54Z</time>
      </trkpt>
      <trkpt lat="48.79005" lon="2.18127">
        <ele>174</ele>
        <time>2012-12-16T12:06:57Z</time>
      </trkpt>
      <trkpt lat="48.7901" lon="2.18133">
        <ele>175</ele>
        <time>2012-12-16T12:07:00Z</time>
      </trkpt>
      <trkpt lat="48.79015" lon="2.18138">
        <ele>175</ele>
        <time>2012-12-16T12:07:04Z</time>
      </trkpt>
      <trkpt lat="48.79021" lon="2.18144">
        <ele>175</ele>
        <time>2012-12-16T12:07:09Z</time>
      </trkpt>
      <trkpt lat="48.79025" lon="2.18152">
        <ele>175</ele>
        <time>2012-12-16T12:07:14Z</time>
      </trkpt>
      <trkpt lat="48.79028" lon="2.18159">
        <ele>175</ele>
        <time>2012-12-16T12:07:19Z</time>
      </trkpt>
      <trkpt lat="48.79031" lon="2.18166">
        <ele>175</ele>
        <time>2012-12-16T12:07:24Z</time>
      </trkpt>
      <trkpt lat="48.79035" lon="2.18176">
        <ele>178</ele>
        <time>2012-12-16T12:07:29Z</time>
      </trkpt>
      <trkpt lat="48.79041" lon="2.18181">
        <ele>178</ele>
        <time>2012-12-16T12:07:34Z</time>
      </trkpt>
      <trkpt lat="48.79045" lon="2.18185">
        <ele>178</ele>
        <time>2012-12-16T12:07:37Z</time>
      </trkpt>
      <trkpt lat="48.79049" lon="2.1819">
        <ele>178</ele>
        <time>2012-12-16T12:07:41Z</time>
      </trkpt>
      <trkpt lat="48.79052" lon="2.18196">
        <ele>178</ele>
        <time>2012-12-16T12:07:45Z</time>
      </trkpt>
      <trkpt lat="48.79055" lon="2.18201">
        <ele>178</ele>
        <time>2012-12-16T12:07:50Z</time>
      </trkpt>
      <trkpt lat="48.79058" lon="2.18207">
        <ele>178</ele>
        <time>2012-12-16T12:07:54Z</time>
      </trkpt>
      <trkpt lat="48.79065" lon="2.18214">
        <ele>179</ele>
        <time>2012-12-16T12:07:59Z</time>
      </trkpt>
      <trkpt lat="48.79069" lon="2.18219">
        <ele>179</ele>
        <time>2012-12-16T12:08:02Z</time>
      </trkpt>
      <trkpt lat="48.79072" lon="2.18224">
        <ele>179</ele>
        <time>2012-12-16T12:08:06Z</time>
      </trkpt>
      <trkpt lat="48.7908" lon="2.18234">
        <ele>179</ele>
        <time>2012-12-16T12:08:14Z</time>
      </trkpt>
      <trkpt lat="48.79084" lon="2.1824">
        <ele>179</ele>
        <time>2012-12-16T12:08:17Z</time>
      </trkpt>
      <trkpt lat="48.79088" lon="2.18245">
        <ele>179</ele>
        <time>2012-12-16T12:08:21Z</time>
      </trkpt>
      <trkpt lat="48.79092" lon="2.18251">
        <ele>179</ele>
        <time>2012-12-16T12:08:24Z</time>
      </trkpt>
      <trkpt lat="48.79097" lon="2.18255">
        <ele>179</ele>
        <time>2012-12-16T12:08:29Z</time>
      </trkpt>
      <trkpt lat="48.79103" lon="2.1826">
        <ele>179</ele>
        <time>2012-12-16T12:08:34Z</time>
      </trkpt>
      <trkpt lat="48.79107" lon="2.18265">
        <ele>179</ele>
        <time>2012-12-16T12:08:37Z</time>
      </trkpt>
      <trkpt lat="48.79107" lon="2.18274">
        <ele>179</ele>
        <time>2012-12-16T12:08:40Z</time>
      </trkpt>
      <trkpt lat="48.7911" lon="2.18279">
        <ele>179</ele>
        <time>2012-12-16T12:08:44Z</time>
      </trkpt>
      <trkpt lat="48.79114" lon="2.18287">
        <ele>179</ele>
        <time>2012-12-16T12:08:49Z</time>
      </trkpt>
      <trkpt lat="48.79115" lon="2.18294">
        <ele>179</ele>
        <time>2012-12-16T12:09:00Z</time>
      </trkpt>
      <trkpt lat="48.79112" lon="2.18301">
        <ele>179</ele>
        <time>2012-12-16T12:09:22Z</time>
      </trkpt>
      <trkpt lat="48.7911" lon="2.18308">
        <ele>179</ele>
        <time>2012-12-16T12:09:26Z</time>
      </trkpt>
      <trkpt lat="48.79105" lon="2.18309">
        <ele>179</ele>
        <time>2012-12-16T12:09:34Z</time>
      </trkpt>
      <trkpt lat="48.79102" lon="2.18317">
        <ele>180</ele>
        <time>2012-12-16T12:09:39Z</time>
      </trkpt>
      <trkpt lat="48.79096" lon="2.18324">
        <ele>180</ele>
        <time>2012-12-16T12:09:44Z</time>
      </trkpt>
      <trkpt lat="48.79095" lon="2.18333">
        <ele>180</ele>
        <time>2012-12-16T12:09:49Z</time>
      </trkpt>
      <trkpt lat="48.79094" lon="2.18344">
        <ele>179</ele>
        <time>2012-12-16T12:09:54Z</time>
      </trkpt>
      <trkpt lat="48.79093" lon="2.18352">
        <ele>179</ele>
        <time>2012-12-16T12:09:59Z</time>
      </trkpt>
      <trkpt lat="48.79093" lon="2.1836">
        <ele>179</ele>
        <time>2012-12-16T12:10:05Z</time>
      </trkpt>
      <trkpt lat="48.79089" lon="2.18366">
        <ele>179</ele>
        <time>2012-12-16T12:10:09Z</time>
      </trkpt>
      <trkpt lat="48.79084" lon="2.18374">
        <ele>179</ele>
        <time>2012-12-16T12:10:14Z</time>
      </trkpt>
      <trkpt lat="48.7908" lon="2.18381">
        <ele>181</ele>
        <time>2012-12-16T12:10:17Z</time>
      </trkpt>
      <trkpt lat="48.7908" lon="2.1839">
        <ele>181</ele>
        <time>2012-12-16T12:10:22Z</time>
      </trkpt>
      <trkpt lat="48.79081" lon="2.18397">
        <ele>180</ele>
        <time>2012-12-16T12:10:25Z</time>
      </trkpt>
      <trkpt lat="48.79083" lon="2.18406">
        <ele>180</ele>
        <time>2012-12-16T12:10:29Z</time>
      </trkpt>
      <trkpt lat="48.79085" lon="2.18413">
        <ele>180</ele>
        <time>2012-12-16T12:10:32Z</time>
      </trkpt>
      <trkpt lat="48.79089" lon="2.18422">
        <ele>178</ele>
        <time>2012-12-16T12:10:39Z</time>
      </trkpt>
      <trkpt lat="48.79092" lon="2.18429">
        <ele>177</ele>
        <time>2012-12-16T12:10:44Z</time>
      </trkpt>
      <trkpt lat="48.79094" lon="2.18437">
        <ele>176</ele>
        <time>2012-12-16T12:10:49Z</time>
      </trkpt>
      <trkpt lat="48.79094" lon="2.18444">
        <ele>176</ele>
        <time>2012-12-16T12:10:52Z</time>
      </trkpt>
      <trkpt lat="48.79094" lon="2.18451">
        <ele>175</ele>
        <time>2012-12-16T12:10:55Z</time>
      </trkpt>
      <trkpt lat="48.79093" lon="2.18461">
        <ele>175</ele>
        <time>2012-12-16T12:10:59Z</time>
      </trkpt>
      <trkpt lat="48.79092" lon="2.18469">
        <ele>175</ele>
        <time>2012-12-16T12:11:02Z</time>
      </trkpt>
      <trkpt lat="48.79091" lon="2.18476">
        <ele>175</ele>
        <time>2012-12-16T12:11:05Z</time>
      </trkpt>
      <trkpt lat="48.79089" lon="2.18483">
        <ele>176</ele>
        <time>2012-12-16T12:11:09Z</time>
      </trkpt>
      <trkpt lat="48.7909" lon="2.18492">
        <ele>176</ele>
        <time>2012-12-16T12:11:14Z</time>
      </trkpt>
      <trkpt lat="48.79093" lon="2.185">
        <ele>176</ele>
        <time>2012-12-16T12:11:19Z</time>
      </trkpt>
      <trkpt lat="48.79092" lon="2.1851">
        <ele>175</ele>
        <time>2012-12-16T12:11:24Z</time>
      </trkpt>
      <trkpt lat="48.79093" lon="2.18518">
        <ele>174</ele>
        <time>2012-12-16T12:11:29Z</time>
      </trkpt>
      <trkpt lat="48.79097" lon="2.18527">
        <ele>173</ele>
        <time>2012-12-16T12:11:34Z</time>
      </trkpt>
      <trkpt lat="48.79101" lon="2.18535">
        <ele>172</ele>
        <time>2012-12-16T12:11:39Z</time>
      </trkpt>
      <trkpt lat="48.79103" lon="2.18541">
        <ele>172</ele>
        <time>2012-12-16T12:11:42Z</time>
      </trkpt>
      <trkpt lat="48.79104" lon="2.18548">
        <ele>172</ele>
        <time>2012-12-16T12:11:46Z</time>
      </trkpt>
      <trkpt lat="48.79105" lon="2.18555">
        <ele>172</ele>
        <time>2012-12-16T12:11:49Z</time>
      </trkpt>
      <trkpt lat="48.79106" lon="2.18563">
        <ele>172</ele>
        <time>2012-12-16T12:11:54Z</time>
      </trkpt>
      <trkpt lat="48.79107" lon="2.18571">
        <ele>172</ele>
        <time>2012-12-16T12:11:59Z</time>
      </trkpt>
      <trkpt lat="48.79109" lon="2.18579">
        <ele>172</ele>
        <time>2012-12-16T12:12:02Z</time>
      </trkpt>
      <trkpt lat="48.7911" lon="2.18587">
        <ele>170</ele>
        <time>2012-12-16T12:12:05Z</time>
      </trkpt>
      <trkpt lat="48.79111" lon="2.18595">
        <ele>169</ele>
        <time>2012-12-16T12:12:09Z</time>
      </trkpt>
      <trkpt lat="48.79111" lon="2.18602">
        <ele>169</ele>
        <time>2012-12-16T12:12:12Z</time>
      </trkpt>
      <trkpt lat="48.79108" lon="2.18617">
        <ele>168</ele>
        <time>2012-12-16T12:12:20Z</time>
      </trkpt>
      <trkpt lat="48.79106" lon="2.18623">
        <ele>168</ele>
        <time>2012-12-16T12:12:24Z</time>
      </trkpt>
      <trkpt lat="48.79103" lon="2.18633">
        <ele>168</ele>
        <time>2012-12-16T12:12:29Z</time>
      </trkpt>
      <trkpt lat="48.79101" lon="2.18645">
        <ele>169</ele>
        <time>2012-12-16T12:12:34Z</time>
      </trkpt>
      <trkpt lat="48.791" lon="2.18652">
        <ele>169</ele>
        <time>2012-12-16T12:12:37Z</time>
      </trkpt>
      <trkpt lat="48.79096" lon="2.18657">
        <ele>170</ele>
        <time>2012-12-16T12:12:40Z</time>
      </trkpt>
      <trkpt lat="48.7909" lon="2.18664">
        <ele>171</ele>
        <time>2012-12-16T12:12:44Z</time>
      </trkpt>
      <trkpt lat="48.79086" lon="2.18668">
        <ele>172</ele>
        <time>2012-12-16T12:12:47Z</time>
      </trkpt>
      <trkpt lat="48.79081" lon="2.18673">
        <ele>173</ele>
        <time>2012-12-16T12:12:50Z</time>
      </trkpt>
      <trkpt lat="48.79075" lon="2.18677">
        <ele>173</ele>
        <time>2012-12-16T12:12:54Z</time>
      </trkpt>
      <trkpt lat="48.7907" lon="2.1868">
        <ele>172</ele>
        <time>2012-12-16T12:12:57Z</time>
      </trkpt>
      <trkpt lat="48.79065" lon="2.18682">
        <ele>172</ele>
        <time>2012-12-16T12:13:01Z</time>
      </trkpt>
      <trkpt lat="48.79061" lon="2.18685">
        <ele>172</ele>
        <time>2012-12-16T12:13:04Z</time>
      </trkpt>
      <trkpt lat="48.79055" lon="2.18686">
        <ele>172</ele>
        <time>2012-12-16T12:13:09Z</time>
      </trkpt>
      <trkpt lat="48.79049" lon="2.18691">
        <ele>172</ele>
        <time>2012-12-16T12:13:14Z</time>
      </trkpt>
      <trkpt lat="48.79041" lon="2.18694">
        <ele>173</ele>
        <time>2012-12-16T12:13:19Z</time>
      </trkpt>
      <trkpt lat="48.79035" lon="2.18695">
        <ele>173</ele>
        <time>2012-12-16T12:13:24Z</time>
      </trkpt>
      <trkpt lat="48.7903" lon="2.18698">
        <ele>173</ele>
        <time>2012-12-16T12:13:27Z</time>
      </trkpt>
      <trkpt lat="48.79025" lon="2.18699">
        <ele>173</ele>
        <time>2012-12-16T12:13:31Z</time>
      </trkpt>
      <trkpt lat="48.7902" lon="2.18701">
        <ele>173</ele>
        <time>2012-12-16T12:13:34Z</time>
      </trkpt>
      <trkpt lat="48.79015" lon="2.18706">
        <ele>173</ele>
        <time>2012-12-16T12:13:39Z</time>
      </trkpt>
      <trkpt lat="48.79011" lon="2.18711">
        <ele>173</ele>
        <time>2012-12-16T12:13:44Z</time>
      </trkpt>
      <trkpt lat="48.79002" lon="2.18726">
        <ele>173</ele>
        <time>2012-12-16T12:13:54Z</time>
      </trkpt>
      <trkpt lat="48.78996" lon="2.1873">
        <ele>175</ele>
        <time>2012-12-16T12:13:59Z</time>
      </trkpt>
      <trkpt lat="48.78992" lon="2.18734">
        <ele>175</ele>
        <time>2012-12-16T12:14:02Z</time>
      </trkpt>
      <trkpt lat="48.78984" lon="2.18743">
        <ele>175</ele>
        <time>2012-12-16T12:14:09Z</time>
      </trkpt>
      <trkpt lat="48.78979" lon="2.18748">
        <ele>175</ele>
        <time>2012-12-16T12:14:12Z</time>
      </trkpt>
      <trkpt lat="48.78976" lon="2.18752">
        <ele>174</ele>
        <time>2012-12-16T12:14:16Z</time>
      </trkpt>
      <trkpt lat="48.7897" lon="2.18756">
        <ele>174</ele>
        <time>2012-12-16T12:14:20Z</time>
      </trkpt>
      <trkpt lat="48.78967" lon="2.18761">
        <ele>174</ele>
        <time>2012-12-16T12:14:24Z</time>
      </trkpt>
      <trkpt lat="48.78961" lon="2.18764">
        <ele>174</ele>
        <time>2012-12-16T12:14:27Z</time>
      </trkpt>
      <trkpt lat="48.78957" lon="2.18768">
        <ele>174</ele>
        <time>2012-12-16T12:14:29Z</time>
      </trkpt>
      <trkpt lat="48.78953" lon="2.18775">
        <ele>174</ele>
        <time>2012-12-16T12:14:34Z</time>
      </trkpt>
      <trkpt lat="48.78951" lon="2.18781">
        <ele>174</ele>
        <time>2012-12-16T12:14:37Z</time>
      </trkpt>
      <trkpt lat="48.78949" lon="2.18791">
        <ele>174</ele>
        <time>2012-12-16T12:14:44Z</time>
      </trkpt>
      <trkpt lat="48.78947" lon="2.188">
        <ele>174</ele>
        <time>2012-12-16T12:14:49Z</time>
      </trkpt>
      <trkpt lat="48.78944" lon="2.18807">
        <ele>174</ele>
        <time>2012-12-16T12:14:52Z</time>
      </trkpt>
      <trkpt lat="48.78943" lon="2.18815">
        <ele>174</ele>
        <time>2012-12-16T12:14:55Z</time>
      </trkpt>
      <trkpt lat="48.78941" lon="2.18822">
        <ele>174</ele>
        <time>2012-12-16T12:15:00Z</time>
      </trkpt>
      <trkpt lat="48.78938" lon="2.18829">
        <ele>174</ele>
        <time>2012-12-16T12:15:04Z</time>
      </trkpt>
      <trkpt lat="48.78936" lon="2.18837">
        <ele>173</ele>
        <time>2012-12-16T12:15:09Z</time>
      </trkpt>
      <trkpt lat="48.78933" lon="2.18846">
        <ele>173</ele>
        <time>2012-12-16T12:15:14Z</time>
      </trkpt>
      <trkpt lat="48.7893" lon="2.18853">
        <ele>173</ele>
        <time>2012-12-16T12:15:17Z</time>
      </trkpt>
      <trkpt lat="48.78928" lon="2.1886">
        <ele>173</ele>
        <time>2012-12-16T12:15:21Z</time>
      </trkpt>
      <trkpt lat="48.78927" lon="2.18867">
        <ele>173</ele>
        <time>2012-12-16T12:15:25Z</time>
      </trkpt>
      <trkpt lat="48.78927" lon="2.18875">
        <ele>173</ele>
        <time>2012-12-16T12:15:30Z</time>
      </trkpt>
      <trkpt lat="48.78924" lon="2.18883">
        <ele>174</ele>
        <time>2012-12-16T12:15:34Z</time>
      </trkpt>
      <trkpt lat="48.78922" lon="2.18893">
        <ele>174</ele>
        <time>2012-12-16T12:15:39Z</time>
      </trkpt>
      <trkpt lat="48.78918" lon="2.18902">
        <ele>176</ele>
        <time>2012-12-16T12:15:44Z</time>
      </trkpt>
      <trkpt lat="48.78915" lon="2.18909">
        <ele>179</ele>
        <time>2012-12-16T12:15:47Z</time>
      </trkpt>
      <trkpt lat="48.78914" lon="2.18916">
        <ele>179</ele>
        <time>2012-12-16T12:15:51Z</time>
      </trkpt>
      <trkpt lat="48.78912" lon="2.18923">
        <ele>180</ele>
        <time>2012-12-16T12:15:54Z</time>
      </trkpt>
      <trkpt lat="48.78907" lon="2.1893">
        <ele>180</ele>
        <time>2012-12-16T12:15:59Z</time>
      </trkpt>
      <trkpt lat="48.78902" lon="2.18936">
        <ele>180</ele>
        <time>2012-12-16T12:16:02Z</time>
      </trkpt>
      <trkpt lat="48.789" lon="2.18942">
        <ele>181</ele>
        <time>2012-12-16T12:16:06Z</time>
      </trkpt>
      <trkpt lat="48.78897" lon="2.1895">
        <ele>181</ele>
        <time>2012-12-16T12:16:12Z</time>
      </trkpt>
      <trkpt lat="48.78896" lon="2.18956">
        <ele>181</ele>
        <time>2012-12-16T12:16:17Z</time>
      </trkpt>
      <trkpt lat="48.78896" lon="2.18964">
        <ele>181</ele>
        <time>2012-12-16T12:16:22Z</time>
      </trkpt>
      <trkpt lat="48.78894" lon="2.1897">
        <ele>181</ele>
        <time>2012-12-16T12:16:26Z</time>
      </trkpt>
      <trkpt lat="48.7889" lon="2.18975">
        <ele>181</ele>
        <time>2012-12-16T12:16:30Z</time>
      </trkpt>
      <trkpt lat="48.78888" lon="2.18982">
        <ele>181</ele>
        <time>2012-12-16T12:16:35Z</time>
      </trkpt>
      <trkpt lat="48.78883" lon="2.1899">
        <ele>181</ele>
        <time>2012-12-16T12:16:39Z</time>
      </trkpt>
      <trkpt lat="48.7888" lon="2.18994">
        <ele>181</ele>
        <time>2012-12-16T12:16:42Z</time>
      </trkpt>
      <trkpt lat="48.78875" lon="2.18999">
        <ele>182</ele>
        <time>2012-12-16T12:16:46Z</time>
      </trkpt>
      <trkpt lat="48.78871" lon="2.19005">
        <ele>181</ele>
        <time>2012-12-16T12:16:49Z</time>
      </trkpt>
      <trkpt lat="48.78868" lon="2.1901">
        <ele>181</ele>
        <time>2012-12-16T12:16:54Z</time>
      </trkpt>
      <trkpt lat="48.78865" lon="2.19017">
        <ele>181</ele>
        <time>2012-12-16T12:16:59Z</time>
      </trkpt>
      <trkpt lat="48.7886" lon="2.19023">
        <ele>181</ele>
        <time>2012-12-16T12:17:04Z</time>
      </trkpt>
      <trkpt lat="48.78856" lon="2.19027">
        <ele>181</ele>
        <time>2012-12-16T12:17:07Z</time>
      </trkpt>
      <trkpt lat="48.78852" lon="2.19034">
        <ele>181</ele>
        <time>2012-12-16T12:17:10Z</time>
      </trkpt>
      <trkpt lat="48.7885" lon="2.19042">
        <ele>181</ele>
        <time>2012-12-16T12:17:14Z</time>
      </trkpt>
      <trkpt lat="48.78846" lon="2.1905">
        <ele>181</ele>
        <time>2012-12-16T12:17:19Z</time>
      </trkpt>
      <trkpt lat="48.78846" lon="2.19064">
        <ele>181</ele>
        <time>2012-12-16T12:17:31Z</time>
      </trkpt>
      <trkpt lat="48.78844" lon="2.1907">
        <ele>181</ele>
        <time>2012-12-16T12:17:34Z</time>
      </trkpt>
      <trkpt lat="48.78841" lon="2.19079">
        <ele>181</ele>
        <time>2012-12-16T12:17:39Z</time>
      </trkpt>
      <trkpt lat="48.7884" lon="2.19087">
        <ele>181</ele>
        <time>2012-12-16T12:17:44Z</time>
      </trkpt>
      <trkpt lat="48.78837" lon="2.19094">
        <ele>180</ele>
        <time>2012-12-16T12:17:47Z</time>
      </trkpt>
      <trkpt lat="48.78835" lon="2.191">
        <ele>179</ele>
        <time>2012-12-16T12:17:50Z</time>
      </trkpt>
      <trkpt lat="48.78839" lon="2.19108">
        <ele>179</ele>
        <time>2012-12-16T12:17:54Z</time>
      </trkpt>
      <trkpt lat="48.78843" lon="2.19114">
        <ele>178</ele>
        <time>2012-12-16T12:17:57Z</time>
      </trkpt>
      <trkpt lat="48.78845" lon="2.19121">
        <ele>178</ele>
        <time>2012-12-16T12:18:01Z</time>
      </trkpt>
      <trkpt lat="48.78843" lon="2.19129">
        <ele>178</ele>
        <time>2012-12-16T12:18:05Z</time>
      </trkpt>
      <trkpt lat="48.78843" lon="2.19136">
        <ele>178</ele>
        <time>2012-12-16T12:18:10Z</time>
      </trkpt>
      <trkpt lat="48.78841" lon="2.19147">
        <ele>178</ele>
        <time>2012-12-16T12:18:14Z</time>
      </trkpt>
      <trkpt lat="48.78839" lon="2.19155">
        <ele>178</ele>
        <time>2012-12-16T12:18:19Z</time>
      </trkpt>
      <trkpt lat="48.78841" lon="2.19163">
        <ele>179</ele>
        <time>2012-12-16T12:18:24Z</time>
      </trkpt>
      <trkpt lat="48.78844" lon="2.19168">
        <ele>178</ele>
        <time>2012-12-16T12:18:29Z</time>
      </trkpt>
      <trkpt lat="48.78848" lon="2.19179">
        <ele>177</ele>
        <time>2012-12-16T12:18:34Z</time>
      </trkpt>
      <trkpt lat="48.78849" lon="2.19185">
        <ele>176</ele>
        <time>2012-12-16T12:18:39Z</time>
      </trkpt>
      <trkpt lat="48.78849" lon="2.19193">
        <ele>176</ele>
        <time>2012-12-16T12:18:42Z</time>
      </trkpt>
      <trkpt lat="48.78851" lon="2.19201">
        <ele>176</ele>
        <time>2012-12-16T12:18:47Z</time>
      </trkpt>
      <trkpt lat="48.78849" lon="2.19209">
        <ele>176</ele>
        <time>2012-12-16T12:18:51Z</time>
      </trkpt>
      <trkpt lat="48.78848" lon="2.19216">
        <ele>176</ele>
        <time>2012-12-16T12:18:54Z</time>
      </trkpt>
      <trkpt lat="48.7885" lon="2.19222">
        <ele>176</ele>
        <time>2012-12-16T12:18:57Z</time>
      </trkpt>
      <trkpt lat="48.78852" lon="2.19231">
        <ele>176</ele>
        <time>2012-12-16T12:19:02Z</time>
      </trkpt>
      <trkpt lat="48.78854" lon="2.19237">
        <ele>176</ele>
        <time>2012-12-16T12:19:06Z</time>
      </trkpt>
      <trkpt lat="48.78857" lon="2.19244">
        <ele>176</ele>
        <time>2012-12-16T12:19:09Z</time>
      </trkpt>
      <trkpt lat="48.7886" lon="2.19253">
        <ele>175</ele>
        <time>2012-12-16T12:19:14Z</time>
      </trkpt>
      <trkpt lat="48.78862" lon="2.19262">
        <ele>175</ele>
        <time>2012-12-16T12:19:19Z</time>
      </trkpt>
      <trkpt lat="48.78865" lon="2.19268">
        <ele>174</ele>
        <time>2012-12-16T12:19:24Z</time>
      </trkpt>
      <trkpt lat="48.78868" lon="2.19276">
        <ele>174</ele>
        <time>2012-12-16T12:19:29Z</time>
      </trkpt>
      <trkpt lat="48.78871" lon="2.19282">
        <ele>174</ele>
        <time>2012-12-16T12:19:31Z</time>
      </trkpt>
      <trkpt lat="48.78873" lon="2.19289">
        <ele>174</ele>
        <time>2012-12-16T12:19:34Z</time>
      </trkpt>
      <trkpt lat="48.78874" lon="2.193">
        <ele>174</ele>
        <time>2012-12-16T12:19:39Z</time>
      </trkpt>
      <trkpt lat="48.78875" lon="2.19308">
        <ele>173</ele>
        <time>2012-12-16T12:19:42Z</time>
      </trkpt>
      <trkpt lat="48.78875" lon="2.19315">
        <ele>173</ele>
        <time>2012-12-16T12:19:45Z</time>
      </trkpt>
      <trkpt lat="48.78874" lon="2.19325">
        <ele>173</ele>
        <time>2012-12-16T12:19:49Z</time>
      </trkpt>
      <trkpt lat="48.78872" lon="2.19332">
        <ele>173</ele>
        <time>2012-12-16T12:19:52Z</time>
      </trkpt>
      <trkpt lat="48.78869" lon="2.19346">
        <ele>173</ele>
        <time>2012-12-16T12:20:00Z</time>
      </trkpt>
      <trkpt lat="48.78865" lon="2.19351">
        <ele>173</ele>
        <time>2012-12-16T12:20:04Z</time>
      </trkpt>
      <trkpt lat="48.78863" lon="2.1936">
        <ele>173</ele>
        <time>2012-12-16T12:20:07Z</time>
      </trkpt>
      <trkpt lat="48.7886" lon="2.19367">
        <ele>173</ele>
        <time>2012-12-16T12:20:12Z</time>
      </trkpt>
      <trkpt lat="48.78857" lon="2.19374">
        <ele>174</ele>
        <time>2012-12-16T12:20:15Z</time>
      </trkpt>
      <trkpt lat="48.78855" lon="2.19382">
        <ele>174</ele>
        <time>2012-12-16T12:20:20Z</time>
      </trkpt>
      <trkpt lat="48.78853" lon="2.1939">
        <ele>174</ele>
        <time>2012-12-16T12:20:24Z</time>
      </trkpt>
      <trkpt lat="48.78849" lon="2.194">
        <ele>174</ele>
        <time>2012-12-16T12:20:29Z</time>
      </trkpt>
      <trkpt lat="48.78846" lon="2.19408">
        <ele>174</ele>
        <time>2012-12-16T12:20:32Z</time>
      </trkpt>
      <trkpt lat="48.78844" lon="2.19414">
        <ele>174</ele>
        <time>2012-12-16T12:20:36Z</time>
      </trkpt>
      <trkpt lat="48.78842" lon="2.19421">
        <ele>174</ele>
        <time>2012-12-16T12:20:39Z</time>
      </trkpt>
      <trkpt lat="48.78839" lon="2.19429">
        <ele>174</ele>
        <time>2012-12-16T12:20:44Z</time>
      </trkpt>
      <trkpt lat="48.78838" lon="2.19436">
        <ele>173</ele>
        <time>2012-12-16T12:20:47Z</time>
      </trkpt>
      <trkpt lat="48.78836" lon="2.19444">
        <ele>173</ele>
        <time>2012-12-16T12:20:52Z</time>
      </trkpt>
      <trkpt lat="48.78834" lon="2.19451">
        <ele>173</ele>
        <time>2012-12-16T12:20:55Z</time>
      </trkpt>
      <trkpt lat="48.78831" lon="2.19458">
        <ele>174</ele>
        <time>2012-12-16T12:20:59Z</time>
      </trkpt>
      <trkpt lat="48.78827" lon="2.19466">
        <ele>174</ele>
        <time>2012-12-16T12:21:02Z</time>
      </trkpt>
      <trkpt lat="48.78824" lon="2.19472">
        <ele>174</ele>
        <time>2012-12-16T12:21:07Z</time>
      </trkpt>
      <trkpt lat="48.78822" lon="2.19478">
        <ele>174</ele>
        <time>2012-12-16T12:21:10Z</time>
      </trkpt>
      <trkpt lat="48.7882" lon="2.19485">
        <ele>174</ele>
        <time>2012-12-16T12:21:14Z</time>
      </trkpt>
      <trkpt lat="48.7882" lon="2.19494">
        <ele>174</ele>
        <time>2012-12-16T12:21:19Z</time>
      </trkpt>
      <trkpt lat="48.78818" lon="2.195">
        <ele>173</ele>
        <time>2012-12-16T12:21:25Z</time>
      </trkpt>
      <trkpt lat="48.7882" lon="2.19507">
        <ele>173</ele>
        <time>2012-12-16T12:21:29Z</time>
      </trkpt>
      <trkpt lat="48.78815" lon="2.19515">
        <ele>172</ele>
        <time>2012-12-16T12:21:34Z</time>
      </trkpt>
      <trkpt lat="48.78812" lon="2.1952">
        <ele>172</ele>
        <time>2012-12-16T12:21:39Z</time>
      </trkpt>
      <trkpt lat="48.78809" lon="2.19527">
        <ele>172</ele>
        <time>2012-12-16T12:21:44Z</time>
      </trkpt>
      <trkpt lat="48.78809" lon="2.19536">
        <ele>172</ele>
        <time>2012-12-16T12:21:49Z</time>
      </trkpt>
      <trkpt lat="48.78805" lon="2.19546">
        <ele>171</ele>
        <time>2012-12-16T12:21:54Z</time>
      </trkpt>
      <trkpt lat="48.78804" lon="2.19555">
        <ele>171</ele>
        <time>2012-12-16T12:21:59Z</time>
      </trkpt>
      <trkpt lat="48.788" lon="2.19564">
        <ele>171</ele>
        <time>2012-12-16T12:22:04Z</time>
      </trkpt>
      <trkpt lat="48.78799" lon="2.19572">
        <ele>171</ele>
        <time>2012-12-16T12:22:09Z</time>
      </trkpt>
      <trkpt lat="48.78796" lon="2.1958">
        <ele>171</ele>
        <time>2012-12-16T12:22:12Z</time>
      </trkpt>
      <trkpt lat="48.78793" lon="2.19587">
        <ele>169</ele>
        <time>2012-12-16T12:22:17Z</time>
      </trkpt>
      <trkpt lat="48.7879" lon="2.19594">
        <ele>169</ele>
        <time>2012-12-16T12:22:20Z</time>
      </trkpt>
      <trkpt lat="48.78789" lon="2.19602">
        <ele>169</ele>
        <time>2012-12-16T12:22:25Z</time>
      </trkpt>
      <trkpt lat="48.78788" lon="2.1961">
        <ele>169</ele>
        <time>2012-12-16T12:22:29Z</time>
      </trkpt>
      <trkpt lat="48.78784" lon="2.19619">
        <ele>169</ele>
        <time>2012-12-16T12:22:34Z</time>
      </trkpt>
      <trkpt lat="48.78781" lon="2.19625">
        <ele>169</ele>
        <time>2012-12-16T12:22:36Z</time>
      </trkpt>
      <trkpt lat="48.78778" lon="2.19632">
        <ele>169</ele>
        <time>2012-12-16T12:22:41Z</time>
      </trkpt>
      <trkpt lat="48.78775" lon="2.1964">
        <ele>169</ele>
        <time>2012-12-16T12:22:45Z</time>
      </trkpt>
      <trkpt lat="48.78772" lon="2.19649">
        <ele>169</ele>
        <time>2012-12-16T12:22:49Z</time>
      </trkpt>
      <trkpt lat="48.78769" lon="2.19658">
        <ele>169</ele>
        <time>2012-12-16T12:22:54Z</time>
      </trkpt>
      <trkpt lat="48.78767" lon="2.19665">
        <ele>169</ele>
        <time>2012-12-16T12:22:59Z</time>
      </trkpt>
      <trkpt lat="48.78764" lon="2.19673">
        <ele>168</ele>
        <time>2012-12-16T12:23:02Z</time>
      </trkpt>
      <trkpt lat="48.78761" lon="2.19681">
        <ele>167</ele>
        <time>2012-12-16T12:23:05Z</time>
      </trkpt>
      <trkpt lat="48.78758" lon="2.19688">
        <ele>167</ele>
        <time>2012-12-16T12:23:09Z</time>
      </trkpt>
      <trkpt lat="48.78756" lon="2.19696">
        <ele>166</ele>
        <time>2012-12-16T12:23:12Z</time>
      </trkpt>
      <trkpt lat="48.78754" lon="2.19704">
        <ele>166</ele>
        <time>2012-12-16T12:23:15Z</time>
      </trkpt>
      <trkpt lat="48.7875" lon="2.1971">
        <ele>166</ele>
        <time>2012-12-16T12:23:21Z</time>
      </trkpt>
      <trkpt lat="48.78746" lon="2.19715">
        <ele>165</ele>
        <time>2012-12-16T12:23:26Z</time>
      </trkpt>
      <trkpt lat="48.78745" lon="2.19723">
        <ele>165</ele>
        <time>2012-12-16T12:23:31Z</time>
      </trkpt>
      <trkpt lat="48.78744" lon="2.19732">
        <ele>165</ele>
        <time>2012-12-16T12:23:36Z</time>
      </trkpt>
      <trkpt lat="48.78741" lon="2.19739">
        <ele>164</ele>
        <time>2012-12-16T12:23:39Z</time>
      </trkpt>
      <trkpt lat="48.78736" lon="2.19747">
        <ele>164</ele>
        <time>2012-12-16T12:23:44Z</time>
      </trkpt>
      <trkpt lat="48.78733" lon="2.19752">
        <ele>162</ele>
        <time>2012-12-16T12:23:47Z</time>
      </trkpt>
      <trkpt lat="48.78729" lon="2.19757">
        <ele>161</ele>
        <time>2012-12-16T12:23:50Z</time>
      </trkpt>
      <trkpt lat="48.78723" lon="2.19767">
        <ele>160</ele>
        <time>2012-12-16T12:23:59Z</time>
      </trkpt>
      <trkpt lat="48.78724" lon="2.19778">
        <ele>160</ele>
        <time>2012-12-16T12:24:09Z</time>
      </trkpt>
      <trkpt lat="48.78725" lon="2.19786">
        <ele>160</ele>
        <time>2012-12-16T12:24:14Z</time>
      </trkpt>
      <trkpt lat="48.78727" lon="2.19796">
        <ele>159</ele>
        <time>2012-12-16T12:24:19Z</time>
      </trkpt>
      <trkpt lat="48.78724" lon="2.19791">
        <ele>160</ele>
        <time>2012-12-16T12:24:51Z</time>
      </trkpt>
      <trkpt lat="48.78724" lon="2.19798">
        <ele>159</ele>
        <time>2012-12-16T12:25:42Z</time>
      </trkpt>
      <trkpt lat="48.78724" lon="2.19808">
        <ele>159</ele>
        <time>2012-12-16T12:26:54Z</time>
      </trkpt>
      <trkpt lat="48.78719" lon="2.19814">
        <ele>159</ele>
        <time>2012-12-16T12:26:59Z</time>
      </trkpt>
      <trkpt lat="48.78715" lon="2.19818">
        <ele>159</ele>
        <time>2012-12-16T12:27:02Z</time>
      </trkpt>
      <trkpt lat="48.7871" lon="2.19822">
        <ele>158</ele>
        <time>2012-12-16T12:27:06Z</time>
      </trkpt>
      <trkpt lat="48.78701" lon="2.19829">
        <ele>158</ele>
        <time>2012-12-16T12:27:12Z</time>
      </trkpt>
      <trkpt lat="48.78698" lon="2.19833">
        <ele>156</ele>
        <time>2012-12-16T12:27:15Z</time>
      </trkpt>
      <trkpt lat="48.78693" lon="2.19839">
        <ele>156</ele>
        <time>2012-12-16T12:27:19Z</time>
      </trkpt>
      <trkpt lat="48.78689" lon="2.19848">
        <ele>156</ele>
        <time>2012-12-16T12:27:24Z</time>
      </trkpt>
      <trkpt lat="48.78684" lon="2.19852">
        <ele>156</ele>
        <time>2012-12-16T12:27:27Z</time>
      </trkpt>
      <trkpt lat="48.78679" lon="2.19856">
        <ele>156</ele>
        <time>2012-12-16T12:27:34Z</time>
      </trkpt>
      <trkpt lat="48.78674" lon="2.19861">
        <ele>156</ele>
        <time>2012-12-16T12:27:41Z</time>
      </trkpt>
      <trkpt lat="48.78669" lon="2.19862">
        <ele>156</ele>
        <time>2012-12-16T12:27:44Z</time>
      </trkpt>
      <trkpt lat="48.78666" lon="2.19866">
        <ele>157</ele>
        <time>2012-12-16T12:27:49Z</time>
      </trkpt>
      <trkpt lat="48.78661" lon="2.19871">
        <ele>157</ele>
        <time>2012-12-16T12:27:52Z</time>
      </trkpt>
      <trkpt lat="48.78656" lon="2.19877">
        <ele>157</ele>
        <time>2012-12-16T12:27:56Z</time>
      </trkpt>
      <trkpt lat="48.78652" lon="2.19882">
        <ele>157</ele>
        <time>2012-12-16T12:28:00Z</time>
      </trkpt>
      <trkpt lat="48.78648" lon="2.19886">
        <ele>158</ele>
        <time>2012-12-16T12:28:05Z</time>
      </trkpt>
      <trkpt lat="48.78644" lon="2.19891">
        <ele>158</ele>
        <time>2012-12-16T12:28:09Z</time>
      </trkpt>
      <trkpt lat="48.78638" lon="2.19896">
        <ele>158</ele>
        <time>2012-12-16T12:28:14Z</time>
      </trkpt>
      <trkpt lat="48.78633" lon="2.19903">
        <ele>158</ele>
        <time>2012-12-16T12:28:19Z</time>
      </trkpt>
      <trkpt lat="48.78629" lon="2.19906">
        <ele>158</ele>
        <time>2012-12-16T12:28:22Z</time>
      </trkpt>
      <trkpt lat="48.78624" lon="2.19911">
        <ele>159</ele>
        <time>2012-12-16T12:28:26Z</time>
      </trkpt>
      <trkpt lat="48.78621" lon="2.19918">
        <ele>163</ele>
        <time>2012-12-16T12:28:29Z</time>
      </trkpt>
      <trkpt lat="48.78618" lon="2.19924">
        <ele>163</ele>
        <time>2012-12-16T12:28:32Z</time>
      </trkpt>
      <trkpt lat="48.78616" lon="2.19932">
        <ele>163</ele>
        <time>2012-12-16T12:28:35Z</time>
      </trkpt>
      <trkpt lat="48.78615" lon="2.19939">
        <ele>163</ele>
        <time>2012-12-16T12:28:39Z</time>
      </trkpt>
      <trkpt lat="48.7862" lon="2.19941">
        <ele>163</ele>
        <time>2012-12-16T12:28:44Z</time>
      </trkpt>
      <trkpt lat="48.78625" lon="2.19944">
        <ele>163</ele>
        <time>2012-12-16T12:28:49Z</time>
      </trkpt>
      <trkpt lat="48.7863" lon="2.19948">
        <ele>163</ele>
        <time>2012-12-16T12:28:54Z</time>
      </trkpt>
      <trkpt lat="48.78633" lon="2.19953">
        <ele>163</ele>
        <time>2012-12-16T12:28:57Z</time>
      </trkpt>
      <trkpt lat="48.78636" lon="2.19958">
        <ele>163</ele>
        <time>2012-12-16T12:29:00Z</time>
      </trkpt>
      <trkpt lat="48.78641" lon="2.19963">
        <ele>163</ele>
        <time>2012-12-16T12:29:04Z</time>
      </trkpt>
      <trkpt lat="48.78645" lon="2.19973">
        <ele>162</ele>
        <time>2012-12-16T12:29:09Z</time>
      </trkpt>
      <trkpt lat="48.78648" lon="2.19981">
        <ele>162</ele>
        <time>2012-12-16T12:29:14Z</time>
      </trkpt>
      <trkpt lat="48.78651" lon="2.19987">
        <ele>162</ele>
        <time>2012-12-16T12:29:17Z</time>
      </trkpt>
      <trkpt lat="48.78654" lon="2.19994">
        <ele>161</ele>
        <time>2012-12-16T12:29:21Z</time>
      </trkpt>
      <trkpt lat="48.78657" lon="2.20002">
        <ele>162</ele>
        <time>2012-12-16T12:29:24Z</time>
      </trkpt>
      <trkpt lat="48.7866" lon="2.2001">
        <ele>162</ele>
        <time>2012-12-16T12:29:29Z</time>
      </trkpt>
      <trkpt lat="48.78662" lon="2.20019">
        <ele>163</ele>
        <time>2012-12-16T12:29:34Z</time>
      </trkpt>
      <trkpt lat="48.78663" lon="2.20026">
        <ele>163</ele>
        <time>2012-12-16T12:29:37Z</time>
      </trkpt>
      <trkpt lat="48.78667" lon="2.20033">
        <ele>156</ele>
        <time>2012-12-16T12:29:41Z</time>
      </trkpt>
      <trkpt lat="48.7867" lon="2.20039">
        <ele>155</ele>
        <time>2012-12-16T12:29:44Z</time>
      </trkpt>
      <trkpt lat="48.78672" lon="2.20046">
        <ele>155</ele>
        <time>2012-12-16T12:29:50Z</time>
      </trkpt>
      <trkpt lat="48.78674" lon="2.20053">
        <ele>155</ele>
        <time>2012-12-16T12:29:52Z</time>
      </trkpt>
      <trkpt lat="48.78676" lon="2.2006">
        <ele>155</ele>
        <time>2012-12-16T12:29:54Z</time>
      </trkpt>
      <trkpt lat="48.78677" lon="2.20067">
        <ele>156</ele>
        <time>2012-12-16T12:29:57Z</time>
      </trkpt>
      <trkpt lat="48.7868" lon="2.20075">
        <ele>156</ele>
        <time>2012-12-16T12:30:05Z</time>
      </trkpt>
      <trkpt lat="48.78683" lon="2.20083">
        <ele>155</ele>
        <time>2012-12-16T12:30:09Z</time>
      </trkpt>
      <trkpt lat="48.78684" lon="2.20092">
        <ele>154</ele>
        <time>2012-12-16T12:30:14Z</time>
      </trkpt>
      <trkpt lat="48.78687" lon="2.201">
        <ele>153</ele>
        <time>2012-12-16T12:30:19Z</time>
      </trkpt>
      <trkpt lat="48.78688" lon="2.20108">
        <ele>153</ele>
        <time>2012-12-16T12:30:25Z</time>
      </trkpt>
      <trkpt lat="48.78688" lon="2.20118">
        <ele>153</ele>
        <time>2012-12-16T12:30:29Z</time>
      </trkpt>
      <trkpt lat="48.78691" lon="2.20126">
        <ele>153</ele>
        <time>2012-12-16T12:30:35Z</time>
      </trkpt>
      <trkpt lat="48.78693" lon="2.20133">
        <ele>152</ele>
        <time>2012-12-16T12:30:39Z</time>
      </trkpt>
      <trkpt lat="48.78695" lon="2.20141">
        <ele>152</ele>
        <time>2012-12-16T12:30:44Z</time>
      </trkpt>
      <trkpt lat="48.78697" lon="2.20148">
        <ele>152</ele>
        <time>2012-12-16T12:30:49Z</time>
      </trkpt>
      <trkpt lat="48.787" lon="2.20155">
        <ele>152</ele>
        <time>2012-12-16T12:30:52Z</time>
      </trkpt>
      <trkpt lat="48.78703" lon="2.20162">
        <ele>152</ele>
        <time>2012-12-16T12:30:55Z</time>
      </trkpt>
      <trkpt lat="48.78705" lon="2.20168">
        <ele>151</ele>
        <time>2012-12-16T12:31:00Z</time>
      </trkpt>
      <trkpt lat="48.78709" lon="2.20175">
        <ele>150</ele>
        <time>2012-12-16T12:31:06Z</time>
      </trkpt>
      <trkpt lat="48.78711" lon="2.20181">
        <ele>150</ele>
        <time>2012-12-16T12:31:10Z</time>
      </trkpt>
      <trkpt lat="48.78715" lon="2.20185">
        <ele>149</ele>
        <time>2012-12-16T12:31:14Z</time>
      </trkpt>
      <trkpt lat="48.78718" lon="2.20191">
        <ele>149</ele>
        <time>2012-12-16T12:31:17Z</time>
      </trkpt>
      <trkpt lat="48.78722" lon="2.20196">
        <ele>149</ele>
        <time>2012-12-16T12:31:21Z</time>
      </trkpt>
      <trkpt lat="48.78725" lon="2.20203">
        <ele>148</ele>
        <time>2012-12-16T12:31:24Z</time>
      </trkpt>
      <trkpt lat="48.78727" lon="2.2021">
        <ele>148</ele>
        <time>2012-12-16T12:31:29Z</time>
      </trkpt>
      <trkpt lat="48.7873" lon="2.20216">
        <ele>148</ele>
        <time>2012-12-16T12:31:34Z</time>
      </trkpt>
      <trkpt lat="48.78731" lon="2.20223">
        <ele>148</ele>
        <time>2012-12-16T12:31:40Z</time>
      </trkpt>
      <trkpt lat="48.78733" lon="2.20231">
        <ele>147</ele>
        <time>2012-12-16T12:31:46Z</time>
      </trkpt>
      <trkpt lat="48.78738" lon="2.20235">
        <ele>146</ele>
        <time>2012-12-16T12:31:51Z</time>
      </trkpt>
      <trkpt lat="48.78744" lon="2.20248">
        <ele>144</ele>
        <time>2012-12-16T12:31:59Z</time>
      </trkpt>
      <trkpt lat="48.78746" lon="2.20257">
        <ele>145</ele>
        <time>2012-12-16T12:32:04Z</time>
      </trkpt>
      <trkpt lat="48.78749" lon="2.20263">
        <ele>146</ele>
        <time>2012-12-16T12:32:09Z</time>
      </trkpt>
      <trkpt lat="48.78751" lon="2.2027">
        <ele>144</ele>
        <time>2012-12-16T12:32:12Z</time>
      </trkpt>
      <trkpt lat="48.78755" lon="2.20275">
        <ele>144</ele>
        <time>2012-12-16T12:32:16Z</time>
      </trkpt>
      <trkpt lat="48.78759" lon="2.20281">
        <ele>145</ele>
        <time>2012-12-16T12:32:19Z</time>
      </trkpt>
      <trkpt lat="48.78765" lon="2.20285">
        <ele>145</ele>
        <time>2012-12-16T12:32:24Z</time>
      </trkpt>
      <trkpt lat="48.78768" lon="2.2029">
        <ele>145</ele>
        <time>2012-12-16T12:32:29Z</time>
      </trkpt>
      <trkpt lat="48.78771" lon="2.20297">
        <ele>145</ele>
        <time>2012-12-16T12:32:34Z</time>
      </trkpt>
      <trkpt lat="48.78775" lon="2.20302">
        <ele>145</ele>
        <time>2012-12-16T12:32:39Z</time>
      </trkpt>
      <trkpt lat="48.7878" lon="2.20308">
        <ele>146</ele>
        <time>2012-12-16T12:32:44Z</time>
      </trkpt>
      <trkpt lat="48.78784" lon="2.20312">
        <ele>146</ele>
        <time>2012-12-16T12:32:47Z</time>
      </trkpt>
      <trkpt lat="48.78789" lon="2.20316">
        <ele>145</ele>
        <time>2012-12-16T12:32:52Z</time>
      </trkpt>
      <trkpt lat="48.78793" lon="2.20319">
        <ele>145</ele>
        <time>2012-12-16T12:32:55Z</time>
      </trkpt>
      <trkpt lat="48.78799" lon="2.20324">
        <ele>145</ele>
        <time>2012-12-16T12:32:59Z</time>
      </trkpt>
      <trkpt lat="48.78804" lon="2.20327">
        <ele>145</ele>
        <time>2012-12-16T12:33:02Z</time>
      </trkpt>
      <trkpt lat="48.78809" lon="2.2033">
        <ele>145</ele>
        <time>2012-12-16T12:33:06Z</time>
      </trkpt>
      <trkpt lat="48.78813" lon="2.20334">
        <ele>147</ele>
        <time>2012-12-16T12:33:10Z</time>
      </trkpt>
      <trkpt lat="48.78817" lon="2.2034">
        <ele>146</ele>
        <time>2012-12-16T12:33:15Z</time>
      </trkpt>
      <trkpt lat="48.78822" lon="2.20345">
        <ele>146</ele>
        <time>2012-12-16T12:33:19Z</time>
      </trkpt>
      <trkpt lat="48.7883" lon="2.20351">
        <ele>146</ele>
        <time>2012-12-16T12:33:24Z</time>
      </trkpt>
      <trkpt lat="48.78834" lon="2.20356">
        <ele>145</ele>
        <time>2012-12-16T12:33:29Z</time>
      </trkpt>
      <trkpt lat="48.78839" lon="2.20361">
        <ele>145</ele>
        <time>2012-12-16T12:33:34Z</time>
      </trkpt>
      <trkpt lat="48.78844" lon="2.2037">
        <ele>145</ele>
        <time>2012-12-16T12:33:39Z</time>
      </trkpt>
      <trkpt lat="48.78849" lon="2.20376">
        <ele>145</ele>
        <time>2012-12-16T12:33:44Z</time>
      </trkpt>
      <trkpt lat="48.78853" lon="2.2038">
        <ele>145</ele>
        <time>2012-12-16T12:33:47Z</time>
      </trkpt>
      <trkpt lat="48.78859" lon="2.20382">
        <ele>145</ele>
        <time>2012-12-16T12:33:51Z</time>
      </trkpt>
      <trkpt lat="48.78864" lon="2.20385">
        <ele>145</ele>
        <time>2012-12-16T12:33:56Z</time>
      </trkpt>
      <trkpt lat="48.78868" lon="2.20389">
        <ele>145</ele>
        <time>2012-12-16T12:33:59Z</time>
      </trkpt>
      <trkpt lat="48.78872" lon="2.20392">
        <ele>145</ele>
        <time>2012-12-16T12:34:01Z</time>
      </trkpt>
      <trkpt lat="48.78876" lon="2.20394">
        <ele>146</ele>
        <time>2012-12-16T12:34:04Z</time>
      </trkpt>
      <trkpt lat="48.78883" lon="2.20396">
        <ele>146</ele>
        <time>2012-12-16T12:34:09Z</time>
      </trkpt>
      <trkpt lat="48.78891" lon="2.204">
        <ele>146</ele>
        <time>2012-12-16T12:34:14Z</time>
      </trkpt>
      <trkpt lat="48.78896" lon="2.20401">
        <ele>146</ele>
        <time>2012-12-16T12:34:19Z</time>
      </trkpt>
      <trkpt lat="48.78904" lon="2.20401">
        <ele>146</ele>
        <time>2012-12-16T12:34:24Z</time>
      </trkpt>
      <trkpt lat="48.7891" lon="2.20401">
        <ele>146</ele>
        <time>2012-12-16T12:34:27Z</time>
      </trkpt>
      <trkpt lat="48.78915" lon="2.20397">
        <ele>146</ele>
        <time>2012-12-16T12:34:31Z</time>
      </trkpt>
      <trkpt lat="48.78919" lon="2.20392">
        <ele>146</ele>
        <time>2012-12-16T12:34:35Z</time>
      </trkpt>
      <trkpt lat="48.78924" lon="2.20393">
        <ele>146</ele>
        <time>2012-12-16T12:34:39Z</time>
      </trkpt>
      <trkpt lat="48.78929" lon="2.20395">
        <ele>146</ele>
        <time>2012-12-16T12:34:44Z</time>
      </trkpt>
      <trkpt lat="48.78934" lon="2.20396">
        <ele>146</ele>
        <time>2012-12-16T12:34:47Z</time>
      </trkpt>
      <trkpt lat="48.78947" lon="2.20397">
        <ele>146</ele>
        <time>2012-12-16T12:34:54Z</time>
      </trkpt>
      <trkpt lat="48.78952" lon="2.20397">
        <ele>146</ele>
        <time>2012-12-16T12:34:57Z</time>
      </trkpt>
      <trkpt lat="48.78959" lon="2.20397">
        <ele>146</ele>
        <time>2012-12-16T12:35:04Z</time>
      </trkpt>
      <trkpt lat="48.78965" lon="2.20398">
        <ele>146</ele>
        <time>2012-12-16T12:35:09Z</time>
      </trkpt>
      <trkpt lat="48.78971" lon="2.20397">
        <ele>146</ele>
        <time>2012-12-16T12:35:14Z</time>
      </trkpt>
      <trkpt lat="48.78978" lon="2.20395">
        <ele>146</ele>
        <time>2012-12-16T12:35:19Z</time>
      </trkpt>
      <trkpt lat="48.78982" lon="2.20398">
        <ele>146</ele>
        <time>2012-12-16T12:35:22Z</time>
      </trkpt>
      <trkpt lat="48.78988" lon="2.20401">
        <ele>146</ele>
        <time>2012-12-16T12:35:27Z</time>
      </trkpt>
      <trkpt lat="48.78992" lon="2.20399">
        <ele>146</ele>
        <time>2012-12-16T12:35:31Z</time>
      </trkpt>
      <trkpt lat="48.78997" lon="2.20399">
        <ele>147</ele>
        <time>2012-12-16T12:35:35Z</time>
      </trkpt>
      <trkpt lat="48.79004" lon="2.20401">
        <ele>146</ele>
        <time>2012-12-16T12:35:39Z</time>
      </trkpt>
      <trkpt lat="48.79009" lon="2.20401">
        <ele>146</ele>
        <time>2012-12-16T12:35:44Z</time>
      </trkpt>
      <trkpt lat="48.79015" lon="2.20398">
        <ele>146</ele>
        <time>2012-12-16T12:35:49Z</time>
      </trkpt>
      <trkpt lat="48.79022" lon="2.20401">
        <ele>146</ele>
        <time>2012-12-16T12:35:54Z</time>
      </trkpt>
      <trkpt lat="48.79026" lon="2.20404">
        <ele>146</ele>
        <time>2012-12-16T12:35:57Z</time>
      </trkpt>
      <trkpt lat="48.79031" lon="2.20407">
        <ele>146</ele>
        <time>2012-12-16T12:36:01Z</time>
      </trkpt>
      <trkpt lat="48.79037" lon="2.20407">
        <ele>146</ele>
        <time>2012-12-16T12:36:04Z</time>
      </trkpt>
      <trkpt lat="48.79042" lon="2.20407">
        <ele>146</ele>
        <time>2012-12-16T12:36:07Z</time>
      </trkpt>
      <trkpt lat="48.79046" lon="2.20408">
        <ele>145</ele>
        <time>2012-12-16T12:36:10Z</time>
      </trkpt>
      <trkpt lat="48.79051" lon="2.20409">
        <ele>145</ele>
        <time>2012-12-16T12:36:15Z</time>
      </trkpt>
      <trkpt lat="48.79056" lon="2.20408">
        <ele>145</ele>
        <time>2012-12-16T12:36:19Z</time>
      </trkpt>
      <trkpt lat="48.79063" lon="2.20409">
        <ele>145</ele>
        <time>2012-12-16T12:36:24Z</time>
      </trkpt>
      <trkpt lat="48.79069" lon="2.20409">
        <ele>144</ele>
        <time>2012-12-16T12:36:29Z</time>
      </trkpt>
      <trkpt lat="48.79074" lon="2.2041">
        <ele>144</ele>
        <time>2012-12-16T12:36:32Z</time>
      </trkpt>
      <trkpt lat="48.79079" lon="2.20413">
        <ele>144</ele>
        <time>2012-12-16T12:36:35Z</time>
      </trkpt>
      <trkpt lat="48.79084" lon="2.20418">
        <ele>143</ele>
        <time>2012-12-16T12:36:39Z</time>
      </trkpt>
      <trkpt lat="48.79088" lon="2.20422">
        <ele>143</ele>
        <time>2012-12-16T12:36:44Z</time>
      </trkpt>
      <trkpt lat="48.79093" lon="2.20427">
        <ele>143</ele>
        <time>2012-12-16T12:36:47Z</time>
      </trkpt>
      <trkpt lat="48.79098" lon="2.20428">
        <ele>143</ele>
        <time>2012-12-16T12:36:51Z</time>
      </trkpt>
      <trkpt lat="48.79102" lon="2.20432">
        <ele>143</ele>
        <time>2012-12-16T12:36:56Z</time>
      </trkpt>
      <trkpt lat="48.79107" lon="2.20434">
        <ele>143</ele>
        <time>2012-12-16T12:37:00Z</time>
      </trkpt>
      <trkpt lat="48.79111" lon="2.20439">
        <ele>143</ele>
        <time>2012-12-16T12:37:04Z</time>
      </trkpt>
      <trkpt lat="48.79117" lon="2.20442">
        <ele>143</ele>
        <time>2012-12-16T12:37:09Z</time>
      </trkpt>
      <trkpt lat="48.79123" lon="2.20443">
        <ele>142</ele>
        <time>2012-12-16T12:37:14Z</time>
      </trkpt>
      <trkpt lat="48.79128" lon="2.20444">
        <ele>142</ele>
        <time>2012-12-16T12:37:17Z</time>
      </trkpt>
      <trkpt lat="48.79132" lon="2.20447">
        <ele>142</ele>
        <time>2012-12-16T12:37:20Z</time>
      </trkpt>
      <trkpt lat="48.79132" lon="2.20456">
        <ele>142</ele>
        <time>2012-12-16T12:37:25Z</time>
      </trkpt>
      <trkpt lat="48.79133" lon="2.20465">
        <ele>143</ele>
        <time>2012-12-16T12:37:29Z</time>
      </trkpt>
      <trkpt lat="48.79132" lon="2.20472">
        <ele>143</ele>
        <time>2012-12-16T12:37:32Z</time>
      </trkpt>
      <trkpt lat="48.79132" lon="2.20481">
        <ele>143</ele>
        <time>2012-12-16T12:37:36Z</time>
      </trkpt>
      <trkpt lat="48.7913" lon="2.20488">
        <ele>143</ele>
        <time>2012-12-16T12:37:39Z</time>
      </trkpt>
      <trkpt lat="48.79128" lon="2.20497">
        <ele>144</ele>
        <time>2012-12-16T12:37:44Z</time>
      </trkpt>
      <trkpt lat="48.79126" lon="2.20505">
        <ele>151</ele>
        <time>2012-12-16T12:37:47Z</time>
      </trkpt>
      <trkpt lat="48.79124" lon="2.20512">
        <ele>151</ele>
        <time>2012-12-16T12:37:51Z</time>
      </trkpt>
      <trkpt lat="48.79124" lon="2.20519">
        <ele>152</ele>
        <time>2012-12-16T12:37:57Z</time>
      </trkpt>
      <trkpt lat="48.79121" lon="2.20526">
        <ele>152</ele>
        <time>2012-12-16T12:38:04Z</time>
      </trkpt>
      <trkpt lat="48.79121" lon="2.20533">
        <ele>153</ele>
        <time>2012-12-16T12:38:09Z</time>
      </trkpt>
      <trkpt lat="48.79119" lon="2.2054">
        <ele>154</ele>
        <time>2012-12-16T12:38:16Z</time>
      </trkpt>
      <trkpt lat="48.79118" lon="2.20548">
        <ele>154</ele>
        <time>2012-12-16T12:38:21Z</time>
      </trkpt>
      <trkpt lat="48.79117" lon="2.20564">
        <ele>156</ele>
        <time>2012-12-16T12:38:29Z</time>
      </trkpt>
      <trkpt lat="48.79116" lon="2.20571">
        <ele>157</ele>
        <time>2012-12-16T12:38:34Z</time>
      </trkpt>
      <trkpt lat="48.79113" lon="2.20577">
        <ele>157</ele>
        <time>2012-12-16T12:38:39Z</time>
      </trkpt>
      <trkpt lat="48.79113" lon="2.20585">
        <ele>165</ele>
        <time>2012-12-16T12:38:46Z</time>
      </trkpt>
      <trkpt lat="48.79113" lon="2.20599">
        <ele>165</ele>
        <time>2012-12-16T12:38:59Z</time>
      </trkpt>
      <trkpt lat="48.79111" lon="2.20606">
        <ele>165</ele>
        <time>2012-12-16T12:39:07Z</time>
      </trkpt>
      <trkpt lat="48.79111" lon="2.20614">
        <ele>166</ele>
        <time>2012-12-16T12:39:12Z</time>
      </trkpt>
      <trkpt lat="48.79109" lon="2.20628">
        <ele>166</ele>
        <time>2012-12-16T12:39:21Z</time>
      </trkpt>
      <trkpt lat="48.79109" lon="2.20636">
        <ele>167</ele>
        <time>2012-12-16T12:39:29Z</time>
      </trkpt>
      <trkpt lat="48.79105" lon="2.2064">
        <ele>167</ele>
        <time>2012-12-16T12:41:22Z</time>
      </trkpt>
      <trkpt lat="48.79096" lon="2.20638">
        <ele>168</ele>
        <time>2012-12-16T12:41:41Z</time>
      </trkpt>
      <trkpt lat="48.79093" lon="2.20633">
        <ele>167</ele>
        <time>2012-12-16T12:41:44Z</time>
      </trkpt>
      <trkpt lat="48.79092" lon="2.20623">
        <ele>167</ele>
        <time>2012-12-16T12:41:49Z</time>
      </trkpt>
      <trkpt lat="48.79089" lon="2.20612">
        <ele>166</ele>
        <time>2012-12-16T12:41:54Z</time>
      </trkpt>
      <trkpt lat="48.79089" lon="2.20605">
        <ele>166</ele>
        <time>2012-12-16T12:41:57Z</time>
      </trkpt>
      <trkpt lat="48.79092" lon="2.20611">
        <ele>166</ele>
        <time>2012-12-16T12:42:50Z</time>
      </trkpt>
      <trkpt lat="48.79094" lon="2.20619">
        <ele>166</ele>
        <time>2012-12-16T12:42:55Z</time>
      </trkpt>
      <trkpt lat="48.79097" lon="2.20625">
        <ele>167</ele>
        <time>2012-12-16T12:43:00Z</time>
      </trkpt>
      <trkpt lat="48.791" lon="2.20631">
        <ele>167</ele>
        <time>2012-12-16T12:43:05Z</time>
      </trkpt>
      <trkpt lat="48.79106" lon="2.20634">
        <ele>167</ele>
        <time>2012-12-16T12:43:19Z</time>
      </trkpt>
      <trkpt lat="48.79099" lon="2.20631">
        <ele>167</ele>
        <time>2012-12-16T12:44:11Z</time>
      </trkpt>
      <trkpt lat="48.79099" lon="2.20638">
        <ele>167</ele>
        <time>2012-12-16T12:45:06Z</time>
      </trkpt>
      <trkpt lat="48.79102" lon="2.20644">
        <ele>168</ele>
        <time>2012-12-16T12:45:21Z</time>
      </trkpt>
      <trkpt lat="48.79098" lon="2.20649">
        <ele>168</ele>
        <time>2012-12-16T12:46:00Z</time>
      </trkpt>
      <trkpt lat="48.79103" lon="2.20651">
        <ele>168</ele>
        <time>2012-12-16T12:48:32Z</time>
      </trkpt>
      <trkpt lat="48.79108" lon="2.2065">
        <ele>168</ele>
        <time>2012-12-16T12:48:36Z</time>
      </trkpt>
      <trkpt lat="48.79113" lon="2.20649">
        <ele>167</ele>
        <time>2012-12-16T12:48:39Z</time>
      </trkpt>
      <trkpt lat="48.79119" lon="2.2065">
        <ele>167</ele>
        <time>2012-12-16T12:48:44Z</time>
      </trkpt>
      <trkpt lat="48.79126" lon="2.2065">
        <ele>167</ele>
        <time>2012-12-16T12:48:49Z</time>
      </trkpt>
      <trkpt lat="48.79131" lon="2.2065">
        <ele>166</ele>
        <time>2012-12-16T12:48:54Z</time>
      </trkpt>
      <trkpt lat="48.79137" lon="2.20655">
        <ele>166</ele>
        <time>2012-12-16T12:48:59Z</time>
      </trkpt>
      <trkpt lat="48.79142" lon="2.20656">
        <ele>166</ele>
        <time>2012-12-16T12:49:04Z</time>
      </trkpt>
      <trkpt lat="48.7915" lon="2.2065">
        <ele>166</ele>
        <time>2012-12-16T12:49:16Z</time>
      </trkpt>
      <trkpt lat="48.79156" lon="2.20649">
        <ele>166</ele>
        <time>2012-12-16T12:49:21Z</time>
      </trkpt>
      <trkpt lat="48.79161" lon="2.2065">
        <ele>166</ele>
        <time>2012-12-16T12:49:24Z</time>
      </trkpt>
      <trkpt lat="48.79166" lon="2.20651">
        <ele>166</ele>
        <time>2012-12-16T12:49:27Z</time>
      </trkpt>
      <trkpt lat="48.79172" lon="2.20651">
        <ele>165</ele>
        <time>2012-12-16T12:49:31Z</time>
      </trkpt>
      <trkpt lat="48.79175" lon="2.20656">
        <ele>165</ele>
        <time>2012-12-16T12:49:35Z</time>
      </trkpt>
      <trkpt lat="48.79174" lon="2.20664">
        <ele>165</ele>
        <time>2012-12-16T12:49:40Z</time>
      </trkpt>
      <trkpt lat="48.79174" lon="2.20671">
        <ele>167</ele>
        <time>2012-12-16T12:49:44Z</time>
      </trkpt>
      <trkpt lat="48.79184" lon="2.20665">
        <ele>165</ele>
        <time>2012-12-16T12:50:04Z</time>
      </trkpt>
      <trkpt lat="48.79189" lon="2.20665">
        <ele>165</ele>
        <time>2012-12-16T12:50:09Z</time>
      </trkpt>
      <trkpt lat="48.79194" lon="2.20667">
        <ele>168</ele>
        <time>2012-12-16T12:50:14Z</time>
      </trkpt>
      <trkpt lat="48.79196" lon="2.20674">
        <ele>168</ele>
        <time>2012-12-16T12:50:27Z</time>
      </trkpt>
      <trkpt lat="48.79192" lon="2.20667">
        <ele>168</ele>
        <time>2012-12-16T12:50:59Z</time>
      </trkpt>
      <trkpt lat="48.7919" lon="2.2066">
        <ele>165</ele>
        <time>2012-12-16T12:51:05Z</time>
      </trkpt>
      <trkpt lat="48.79192" lon="2.20666">
        <ele>165</ele>
        <time>2012-12-16T12:52:31Z</time>
      </trkpt>
      <trkpt lat="48.79188" lon="2.20675">
        <ele>168</ele>
        <time>2012-12-16T12:55:25Z</time>
      </trkpt>
      <trkpt lat="48.7919" lon="2.20675">
        <ele>168</ele>
        <time>2012-12-16T13:03:41Z</time>
      </trkpt>
      <trkpt lat="48.79188" lon="2.20668">
        <ele>168</ele>
        <time>2012-12-16T13:10:25Z</time>
      </trkpt>
      <trkpt lat="48.79187" lon="2.20679">
        <ele>168</ele>
        <time>2012-12-16T13:15:59Z</time>
      </trkpt>
      <trkpt lat="48.79192" lon="2.20676">
        <ele>168</ele>
        <time>2012-12-16T13:16:45Z</time>
      </trkpt>
      <trkpt lat="48.79189" lon="2.20669">
        <ele>168</ele>
        <time>2012-12-16T13:18:49Z</time>
      </trkpt>
      <trkpt lat="48.79193" lon="2.20667">
        <ele>168</ele>
        <time>2012-12-16T13:21:07Z</time>
      </trkpt>
      <trkpt lat="48.79192" lon="2.20676">
        <ele>168</ele>
        <time>2012-12-16T13:21:21Z</time>
      </trkpt>
      <trkpt lat="48.79188" lon="2.20671">
        <ele>168</ele>
        <time>2012-12-16T13:22:02Z</time>
      </trkpt>
      <trkpt lat="48.79184" lon="2.20677">
        <ele>168</ele>
        <time>2012-12-16T13:23:02Z</time>
      </trkpt>
      <trkpt lat="48.79179" lon="2.20674">
        <ele>167</ele>
        <time>2012-12-16T13:23:09Z</time>
      </trkpt>
      <trkpt lat="48.79175" lon="2.20673">
        <ele>167</ele>
        <time>2012-12-16T13:23:15Z</time>
      </trkpt>
      <trkpt lat="48.79171" lon="2.20677">
        <ele>167</ele>
        <time>2012-12-16T13:23:30Z</time>
      </trkpt>
      <trkpt lat="48.79167" lon="2.20673">
        <ele>167</ele>
        <time>2012-12-16T13:23:37Z</time>
      </trkpt>
      <trkpt lat="48.79171" lon="2.20668">
        <ele>166</ele>
        <time>2012-12-16T13:23:44Z</time>
      </trkpt>
      <trkpt lat="48.79172" lon="2.2066">
        <ele>165</ele>
        <time>2012-12-16T13:23:54Z</time>
      </trkpt>
      <trkpt lat="48.79176" lon="2.20648">
        <ele>164</ele>
        <time>2012-12-16T13:24:45Z</time>
      </trkpt>
      <trkpt lat="48.7918" lon="2.20645">
        <ele>164</ele>
        <time>2012-12-16T13:24:52Z</time>
      </trkpt>
      <trkpt lat="48.79185" lon="2.20645">
        <ele>164</ele>
        <time>2012-12-16T13:24:56Z</time>
      </trkpt>
      <trkpt lat="48.79195" lon="2.20642">
        <ele>164</ele>
        <time>2012-12-16T13:25:05Z</time>
      </trkpt>
      <trkpt lat="48.792" lon="2.2064">
        <ele>164</ele>
        <time>2012-12-16T13:25:10Z</time>
      </trkpt>
      <trkpt lat="48.79205" lon="2.20642">
        <ele>164</ele>
        <time>2012-12-16T13:25:21Z</time>
      </trkpt>
      <trkpt lat="48.79214" lon="2.2064">
        <ele>164</ele>
        <time>2012-12-16T13:25:29Z</time>
      </trkpt>
      <trkpt lat="48.79219" lon="2.20639">
        <ele>164</ele>
        <time>2012-12-16T13:25:34Z</time>
      </trkpt>
      <trkpt lat="48.79227" lon="2.20639">
        <ele>164</ele>
        <time>2012-12-16T13:25:39Z</time>
      </trkpt>
      <trkpt lat="48.79232" lon="2.20637">
        <ele>164</ele>
        <time>2012-12-16T13:25:44Z</time>
      </trkpt>
      <trkpt lat="48.7924" lon="2.20635">
        <ele>164</ele>
        <time>2012-12-16T13:25:49Z</time>
      </trkpt>
      <trkpt lat="48.79247" lon="2.20637">
        <ele>165</ele>
        <time>2012-12-16T13:25:54Z</time>
      </trkpt>
      <trkpt lat="48.79251" lon="2.20638">
        <ele>163</ele>
        <time>2012-12-16T13:25:59Z</time>
      </trkpt>
      <trkpt lat="48.79253" lon="2.20647">
        <ele>164</ele>
        <time>2012-12-16T13:26:04Z</time>
      </trkpt>
      <trkpt lat="48.79256" lon="2.20657">
        <ele>166</ele>
        <time>2012-12-16T13:26:09Z</time>
      </trkpt>
      <trkpt lat="48.79259" lon="2.20664">
        <ele>166</ele>
        <time>2012-12-16T13:26:14Z</time>
      </trkpt>
      <trkpt lat="48.79264" lon="2.20669">
        <ele>168</ele>
        <time>2012-12-16T13:26:19Z</time>
      </trkpt>
      <trkpt lat="48.79265" lon="2.20679">
        <ele>168</ele>
        <time>2012-12-16T13:26:24Z</time>
      </trkpt>
      <trkpt lat="48.79266" lon="2.20688">
        <ele>167</ele>
        <time>2012-12-16T13:26:29Z</time>
      </trkpt>
      <trkpt lat="48.79269" lon="2.20696">
        <ele>167</ele>
        <time>2012-12-16T13:26:34Z</time>
      </trkpt>
      <trkpt lat="48.79269" lon="2.20706">
        <ele>167</ele>
        <time>2012-12-16T13:26:39Z</time>
      </trkpt>
      <trkpt lat="48.79266" lon="2.20713">
        <ele>167</ele>
        <time>2012-12-16T13:26:42Z</time>
      </trkpt>
      <trkpt lat="48.79263" lon="2.20722">
        <ele>168</ele>
        <time>2012-12-16T13:26:49Z</time>
      </trkpt>
      <trkpt lat="48.7926" lon="2.20731">
        <ele>168</ele>
        <time>2012-12-16T13:26:54Z</time>
      </trkpt>
      <trkpt lat="48.79257" lon="2.2074">
        <ele>169</ele>
        <time>2012-12-16T13:26:59Z</time>
      </trkpt>
      <trkpt lat="48.79254" lon="2.20749">
        <ele>170</ele>
        <time>2012-12-16T13:27:04Z</time>
      </trkpt>
      <trkpt lat="48.7925" lon="2.20757">
        <ele>171</ele>
        <time>2012-12-16T13:27:09Z</time>
      </trkpt>
      <trkpt lat="48.79248" lon="2.20764">
        <ele>170</ele>
        <time>2012-12-16T13:27:14Z</time>
      </trkpt>
      <trkpt lat="48.79244" lon="2.20772">
        <ele>170</ele>
        <time>2012-12-16T13:27:19Z</time>
      </trkpt>
      <trkpt lat="48.79242" lon="2.2078">
        <ele>170</ele>
        <time>2012-12-16T13:27:24Z</time>
      </trkpt>
      <trkpt lat="48.79237" lon="2.20792">
        <ele>170</ele>
        <time>2012-12-16T13:27:31Z</time>
      </trkpt>
      <trkpt lat="48.79233" lon="2.20806">
        <ele>170</ele>
        <time>2012-12-16T13:27:40Z</time>
      </trkpt>
      <trkpt lat="48.7923" lon="2.20813">
        <ele>170</ele>
        <time>2012-12-16T13:27:44Z</time>
      </trkpt>
      <trkpt lat="48.79228" lon="2.2082">
        <ele>170</ele>
        <time>2012-12-16T13:27:47Z</time>
      </trkpt>
      <trkpt lat="48.79228" lon="2.20828">
        <ele>170</ele>
        <time>2012-12-16T13:27:52Z</time>
      </trkpt>
      <trkpt lat="48.79234" lon="2.20841">
        <ele>169</ele>
        <time>2012-12-16T13:27:59Z</time>
      </trkpt>
      <trkpt lat="48.79239" lon="2.20847">
        <ele>169</ele>
        <time>2012-12-16T13:28:02Z</time>
      </trkpt>
      <trkpt lat="48.79242" lon="2.20851">
        <ele>169</ele>
        <time>2012-12-16T13:28:05Z</time>
      </trkpt>
      <trkpt lat="48.79245" lon="2.2086">
        <ele>169</ele>
        <time>2012-12-16T13:28:09Z</time>
      </trkpt>
      <trkpt lat="48.7925" lon="2.20864">
        <ele>169</ele>
        <time>2012-12-16T13:28:14Z</time>
      </trkpt>
      <trkpt lat="48.79256" lon="2.20868">
        <ele>170</ele>
        <time>2012-12-16T13:28:19Z</time>
      </trkpt>
      <trkpt lat="48.79262" lon="2.20873">
        <ele>170</ele>
        <time>2012-12-16T13:28:24Z</time>
      </trkpt>
      <trkpt lat="48.79268" lon="2.20879">
        <ele>170</ele>
        <time>2012-12-16T13:28:29Z</time>
      </trkpt>
      <trkpt lat="48.79272" lon="2.20884">
        <ele>170</ele>
        <time>2012-12-16T13:28:34Z</time>
      </trkpt>
      <trkpt lat="48.79277" lon="2.20886">
        <ele>170</ele>
        <time>2012-12-16T13:28:39Z</time>
      </trkpt>
      <trkpt lat="48.79281" lon="2.2089">
        <ele>171</ele>
        <time>2012-12-16T13:28:44Z</time>
      </trkpt>
      <trkpt lat="48.79286" lon="2.20893">
        <ele>171</ele>
        <time>2012-12-16T13:28:47Z</time>
      </trkpt>
      <trkpt lat="48.7929" lon="2.20898">
        <ele>171</ele>
        <time>2012-12-16T13:28:50Z</time>
      </trkpt>
      <trkpt lat="48.79295" lon="2.20901">
        <ele>171</ele>
        <time>2012-12-16T13:28:55Z</time>
      </trkpt>
      <trkpt lat="48.793" lon="2.20904">
        <ele>171</ele>
        <time>2012-12-16T13:28:59Z</time>
      </trkpt>
      <trkpt lat="48.79305" lon="2.20912">
        <ele>171</ele>
        <time>2012-12-16T13:29:04Z</time>
      </trkpt>
      <trkpt lat="48.79308" lon="2.20916">
        <ele>171</ele>
        <time>2012-12-16T13:29:09Z</time>
      </trkpt>
      <trkpt lat="48.79313" lon="2.2092">
        <ele>172</ele>
        <time>2012-12-16T13:29:14Z</time>
      </trkpt>
      <trkpt lat="48.79318" lon="2.20921">
        <ele>172</ele>
        <time>2012-12-16T13:29:22Z</time>
      </trkpt>
      <trkpt lat="48.79323" lon="2.20925">
        <ele>172</ele>
        <time>2012-12-16T13:29:26Z</time>
      </trkpt>
      <trkpt lat="48.79332" lon="2.2093">
        <ele>172</ele>
        <time>2012-12-16T13:29:34Z</time>
      </trkpt>
      <trkpt lat="48.79338" lon="2.20934">
        <ele>173</ele>
        <time>2012-12-16T13:29:39Z</time>
      </trkpt>
      <trkpt lat="48.79341" lon="2.2094">
        <ele>173</ele>
        <time>2012-12-16T13:29:44Z</time>
      </trkpt>
      <trkpt lat="48.79344" lon="2.20947">
        <ele>174</ele>
        <time>2012-12-16T13:29:47Z</time>
      </trkpt>
      <trkpt lat="48.79348" lon="2.20955">
        <ele>174</ele>
        <time>2012-12-16T13:29:52Z</time>
      </trkpt>
      <trkpt lat="48.79351" lon="2.20959">
        <ele>174</ele>
        <time>2012-12-16T13:29:57Z</time>
      </trkpt>
      <trkpt lat="48.79357" lon="2.20964">
        <ele>174</ele>
        <time>2012-12-16T13:30:01Z</time>
      </trkpt>
      <trkpt lat="48.79362" lon="2.20969">
        <ele>174</ele>
        <time>2012-12-16T13:30:04Z</time>
      </trkpt>
      <trkpt lat="48.79367" lon="2.20973">
        <ele>174</ele>
        <time>2012-12-16T13:30:06Z</time>
      </trkpt>
      <trkpt lat="48.79372" lon="2.20977">
        <ele>174</ele>
        <time>2012-12-16T13:30:09Z</time>
      </trkpt>
      <trkpt lat="48.79374" lon="2.20983">
        <ele>174</ele>
        <time>2012-12-16T13:30:12Z</time>
      </trkpt>
      <trkpt lat="48.79379" lon="2.20988">
        <ele>175</ele>
        <time>2012-12-16T13:30:16Z</time>
      </trkpt>
      <trkpt lat="48.79381" lon="2.20996">
        <ele>175</ele>
        <time>2012-12-16T13:30:20Z</time>
      </trkpt>
      <trkpt lat="48.79383" lon="2.21003">
        <ele>176</ele>
        <time>2012-12-16T13:30:26Z</time>
      </trkpt>
      <trkpt lat="48.79386" lon="2.21009">
        <ele>176</ele>
        <time>2012-12-16T13:30:30Z</time>
      </trkpt>
      <trkpt lat="48.79387" lon="2.21017">
        <ele>176</ele>
        <time>2012-12-16T13:30:36Z</time>
      </trkpt>
      <trkpt lat="48.79383" lon="2.21023">
        <ele>176</ele>
        <time>2012-12-16T13:30:41Z</time>
      </trkpt>
      <trkpt lat="48.79384" lon="2.21031">
        <ele>176</ele>
        <time>2012-12-16T13:30:46Z</time>
      </trkpt>
      <trkpt lat="48.79383" lon="2.21038">
        <ele>176</ele>
        <time>2012-12-16T13:30:49Z</time>
      </trkpt>
      <trkpt lat="48.79383" lon="2.21047">
        <ele>176</ele>
        <time>2012-12-16T13:30:54Z</time>
      </trkpt>
      <trkpt lat="48.79383" lon="2.21055">
        <ele>177</ele>
        <time>2012-12-16T13:30:57Z</time>
      </trkpt>
      <trkpt lat="48.79383" lon="2.21063">
        <ele>177</ele>
        <time>2012-12-16T13:31:01Z</time>
      </trkpt>
      <trkpt lat="48.79385" lon="2.21072">
        <ele>177</ele>
        <time>2012-12-16T13:31:04Z</time>
      </trkpt>
      <trkpt lat="48.79385" lon="2.21079">
        <ele>177</ele>
        <time>2012-12-16T13:31:07Z</time>
      </trkpt>
      <trkpt lat="48.79386" lon="2.21088">
        <ele>178</ele>
        <time>2012-12-16T13:31:11Z</time>
      </trkpt>
      <trkpt lat="48.79385" lon="2.21095">
        <ele>178</ele>
        <time>2012-12-16T13:31:15Z</time>
      </trkpt>
      <trkpt lat="48.79385" lon="2.21102">
        <ele>178</ele>
        <time>2012-12-16T13:31:19Z</time>
      </trkpt>
      <trkpt lat="48.79386" lon="2.2111">
        <ele>178</ele>
        <time>2012-12-16T13:31:24Z</time>
      </trkpt>
      <trkpt lat="48.79385" lon="2.21117">
        <ele>178</ele>
        <time>2012-12-16T13:31:30Z</time>
      </trkpt>
      <trkpt lat="48.79385" lon="2.21125">
        <ele>178</ele>
        <time>2012-12-16T13:31:34Z</time>
      </trkpt>
      <trkpt lat="48.79384" lon="2.21134">
        <ele>178</ele>
        <time>2012-12-16T13:31:39Z</time>
      </trkpt>
      <trkpt lat="48.79384" lon="2.21144">
        <ele>178</ele>
        <time>2012-12-16T13:31:44Z</time>
      </trkpt>
      <trkpt lat="48.79384" lon="2.21151">
        <ele>178</ele>
        <time>2012-12-16T13:31:47Z</time>
      </trkpt>
      <trkpt lat="48.79385" lon="2.2116">
        <ele>178</ele>
        <time>2012-12-16T13:31:50Z</time>
      </trkpt>
      <trkpt lat="48.79385" lon="2.2117">
        <ele>178</ele>
        <time>2012-12-16T13:31:54Z</time>
      </trkpt>
      <trkpt lat="48.79384" lon="2.21178">
        <ele>178</ele>
        <time>2012-12-16T13:31:59Z</time>
      </trkpt>
      <trkpt lat="48.79382" lon="2.21194">
        <ele>179</ele>
        <time>2012-12-16T13:32:09Z</time>
      </trkpt>
      <trkpt lat="48.79379" lon="2.21199">
        <ele>179</ele>
        <time>2012-12-16T13:32:14Z</time>
      </trkpt>
      <trkpt lat="48.79382" lon="2.21207">
        <ele>179</ele>
        <time>2012-12-16T13:32:17Z</time>
      </trkpt>
      <trkpt lat="48.79383" lon="2.21215">
        <ele>179</ele>
        <time>2012-12-16T13:32:21Z</time>
      </trkpt>
      <trkpt lat="48.79385" lon="2.21223">
        <ele>179</ele>
        <time>2012-12-16T13:32:26Z</time>
      </trkpt>
      <trkpt lat="48.79387" lon="2.21229">
        <ele>179</ele>
        <time>2012-12-16T13:32:30Z</time>
      </trkpt>
      <trkpt lat="48.7939" lon="2.21246">
        <ele>179</ele>
        <time>2012-12-16T13:32:39Z</time>
      </trkpt>
      <trkpt lat="48.79391" lon="2.2126">
        <ele>180</ele>
        <time>2012-12-16T13:32:44Z</time>
      </trkpt>
      <trkpt lat="48.79391" lon="2.21269">
        <ele>180</ele>
        <time>2012-12-16T13:32:49Z</time>
      </trkpt>
      <trkpt lat="48.79387" lon="2.21275">
        <ele>180</ele>
        <time>2012-12-16T13:32:55Z</time>
      </trkpt>
      <trkpt lat="48.79384" lon="2.21282">
        <ele>181</ele>
        <time>2012-12-16T13:32:59Z</time>
      </trkpt>
      <trkpt lat="48.79382" lon="2.21291">
        <ele>181</ele>
        <time>2012-12-16T13:33:04Z</time>
      </trkpt>
      <trkpt lat="48.79386" lon="2.21301">
        <ele>181</ele>
        <time>2012-12-16T13:33:09Z</time>
      </trkpt>
      <trkpt lat="48.79387" lon="2.21311">
        <ele>181</ele>
        <time>2012-12-16T13:33:14Z</time>
      </trkpt>
      <trkpt lat="48.79385" lon="2.21321">
        <ele>181</ele>
        <time>2012-12-16T13:33:19Z</time>
      </trkpt>
      <trkpt lat="48.79383" lon="2.21331">
        <ele>181</ele>
        <time>2012-12-16T13:33:24Z</time>
      </trkpt>
      <trkpt lat="48.7938" lon="2.21341">
        <ele>183</ele>
        <time>2012-12-16T13:33:29Z</time>
      </trkpt>
      <trkpt lat="48.7938" lon="2.21348">
        <ele>183</ele>
        <time>2012-12-16T13:33:32Z</time>
      </trkpt>
      <trkpt lat="48.79382" lon="2.21361">
        <ele>184</ele>
        <time>2012-12-16T13:33:42Z</time>
      </trkpt>
      <trkpt lat="48.79381" lon="2.21369">
        <ele>184</ele>
        <time>2012-12-16T13:33:46Z</time>
      </trkpt>
      <trkpt lat="48.79382" lon="2.21376">
        <ele>184</ele>
        <time>2012-12-16T13:33:51Z</time>
      </trkpt>
      <trkpt lat="48.79383" lon="2.21384">
        <ele>184</ele>
        <time>2012-12-16T13:33:55Z</time>
      </trkpt>
      <trkpt lat="48.79384" lon="2.21394">
        <ele>184</ele>
        <time>2012-12-16T13:33:59Z</time>
      </trkpt>
      <trkpt lat="48.79384" lon="2.21403">
        <ele>184</ele>
        <time>2012-12-16T13:34:04Z</time>
      </trkpt>
      <trkpt lat="48.79385" lon="2.21413">
        <ele>185</ele>
        <time>2012-12-16T13:34:09Z</time>
      </trkpt>
      <trkpt lat="48.79386" lon="2.21423">
        <ele>186</ele>
        <time>2012-12-16T13:34:14Z</time>
      </trkpt>
      <trkpt lat="48.79388" lon="2.21439">
        <ele>186</ele>
        <time>2012-12-16T13:34:24Z</time>
      </trkpt>
      <trkpt lat="48.79388" lon="2.2145">
        <ele>187</ele>
        <time>2012-12-16T13:34:29Z</time>
      </trkpt>
      <trkpt lat="48.7939" lon="2.21459">
        <ele>187</ele>
        <time>2012-12-16T13:34:34Z</time>
      </trkpt>
      <trkpt lat="48.79391" lon="2.21468">
        <ele>187</ele>
        <time>2012-12-16T13:34:39Z</time>
      </trkpt>
      <trkpt lat="48.7939" lon="2.21478">
        <ele>187</ele>
        <time>2012-12-16T13:34:44Z</time>
      </trkpt>
      <trkpt lat="48.79388" lon="2.21486">
        <ele>187</ele>
        <time>2012-12-16T13:34:47Z</time>
      </trkpt>
      <trkpt lat="48.79385" lon="2.21494">
        <ele>187</ele>
        <time>2012-12-16T13:34:51Z</time>
      </trkpt>
      <trkpt lat="48.79383" lon="2.21502">
        <ele>187</ele>
        <time>2012-12-16T13:34:55Z</time>
      </trkpt>
      <trkpt lat="48.79384" lon="2.2151">
        <ele>187</ele>
        <time>2012-12-16T13:34:59Z</time>
      </trkpt>
      <trkpt lat="48.79385" lon="2.21517">
        <ele>187</ele>
        <time>2012-12-16T13:35:02Z</time>
      </trkpt>
      <trkpt lat="48.79386" lon="2.21524">
        <ele>187</ele>
        <time>2012-12-16T13:35:06Z</time>
      </trkpt>
      <trkpt lat="48.79385" lon="2.21533">
        <ele>187</ele>
        <time>2012-12-16T13:35:10Z</time>
      </trkpt>
      <trkpt lat="48.79385" lon="2.21543">
        <ele>187</ele>
        <time>2012-12-16T13:35:14Z</time>
      </trkpt>
      <trkpt lat="48.79385" lon="2.21553">
        <ele>187</ele>
        <time>2012-12-16T13:35:19Z</time>
      </trkpt>
      <trkpt lat="48.79384" lon="2.21563">
        <ele>187</ele>
        <time>2012-12-16T13:35:24Z</time>
      </trkpt>
      <trkpt lat="48.79384" lon="2.21571">
        <ele>187</ele>
        <time>2012-12-16T13:35:29Z</time>
      </trkpt>
      <trkpt lat="48.79383" lon="2.21581">
        <ele>187</ele>
        <time>2012-12-16T13:35:34Z</time>
      </trkpt>
      <trkpt lat="48.79385" lon="2.2159">
        <ele>184</ele>
        <time>2012-12-16T13:35:39Z</time>
      </trkpt>
      <trkpt lat="48.79387" lon="2.21597">
        <ele>184</ele>
        <time>2012-12-16T13:35:44Z</time>
      </trkpt>
      <trkpt lat="48.79387" lon="2.21606">
        <ele>184</ele>
        <time>2012-12-16T13:35:49Z</time>
      </trkpt>
      <trkpt lat="48.7939" lon="2.2162">
        <ele>183</ele>
        <time>2012-12-16T13:35:56Z</time>
      </trkpt>
      <trkpt lat="48.7939" lon="2.21628">
        <ele>183</ele>
        <time>2012-12-16T13:36:10Z</time>
      </trkpt>
      <trkpt lat="48.79389" lon="2.21635">
        <ele>182</ele>
        <time>2012-12-16T13:36:14Z</time>
      </trkpt>
      <trkpt lat="48.79387" lon="2.21644">
        <ele>182</ele>
        <time>2012-12-16T13:36:19Z</time>
      </trkpt>
      <trkpt lat="48.79387" lon="2.21654">
        <ele>182</ele>
        <time>2012-12-16T13:36:24Z</time>
      </trkpt>
      <trkpt lat="48.79386" lon="2.21665">
        <ele>181</ele>
        <time>2012-12-16T13:36:29Z</time>
      </trkpt>
      <trkpt lat="48.79386" lon="2.21673">
        <ele>179</ele>
        <time>2012-12-16T13:36:34Z</time>
      </trkpt>
      <trkpt lat="48.79386" lon="2.21682">
        <ele>178</ele>
        <time>2012-12-16T13:36:37Z</time>
      </trkpt>
      <trkpt lat="48.79387" lon="2.2169">
        <ele>178</ele>
        <time>2012-12-16T13:36:41Z</time>
      </trkpt>
      <trkpt lat="48.79387" lon="2.21704">
        <ele>178</ele>
        <time>2012-12-16T13:36:49Z</time>
      </trkpt>
      <trkpt lat="48.79386" lon="2.21713">
        <ele>178</ele>
        <time>2012-12-16T13:36:54Z</time>
      </trkpt>
      <trkpt lat="48.79387" lon="2.21721">
        <ele>178</ele>
        <time>2012-12-16T13:36:59Z</time>
      </trkpt>
      <trkpt lat="48.79386" lon="2.21731">
        <ele>177</ele>
        <time>2012-12-16T13:37:04Z</time>
      </trkpt>
      <trkpt lat="48.79387" lon="2.21741">
        <ele>177</ele>
        <time>2012-12-16T13:37:09Z</time>
      </trkpt>
      <trkpt lat="48.79387" lon="2.21749">
        <ele>177</ele>
        <time>2012-12-16T13:37:14Z</time>
      </trkpt>
      <trkpt lat="48.79388" lon="2.21764">
        <ele>174</ele>
        <time>2012-12-16T13:37:22Z</time>
      </trkpt>
      <trkpt lat="48.79389" lon="2.21771">
        <ele>174</ele>
        <time>2012-12-16T13:37:25Z</time>
      </trkpt>
      <trkpt lat="48.79388" lon="2.21779">
        <ele>174</ele>
        <time>2012-12-16T13:37:29Z</time>
      </trkpt>
      <trkpt lat="48.79387" lon="2.21786">
        <ele>174</ele>
        <time>2012-12-16T13:37:34Z</time>
      </trkpt>
      <trkpt lat="48.79384" lon="2.21795">
        <ele>174</ele>
        <time>2012-12-16T13:37:39Z</time>
      </trkpt>
      <trkpt lat="48.79383" lon="2.21802">
        <ele>174</ele>
        <time>2012-12-16T13:37:42Z</time>
      </trkpt>
      <trkpt lat="48.79382" lon="2.2181">
        <ele>174</ele>
        <time>2012-12-16T13:37:46Z</time>
      </trkpt>
      <trkpt lat="48.7938" lon="2.21817">
        <ele>174</ele>
        <time>2012-12-16T13:37:50Z</time>
      </trkpt>
      <trkpt lat="48.7938" lon="2.21826">
        <ele>174</ele>
        <time>2012-12-16T13:37:55Z</time>
      </trkpt>
      <trkpt lat="48.79378" lon="2.21832">
        <ele>174</ele>
        <time>2012-12-16T13:37:59Z</time>
      </trkpt>
      <trkpt lat="48.79373" lon="2.21841">
        <ele>172</ele>
        <time>2012-12-16T13:38:04Z</time>
      </trkpt>
      <trkpt lat="48.79371" lon="2.21849">
        <ele>172</ele>
        <time>2012-12-16T13:38:09Z</time>
      </trkpt>
      <trkpt lat="48.79366" lon="2.21853">
        <ele>172</ele>
        <time>2012-12-16T13:38:14Z</time>
      </trkpt>
      <trkpt lat="48.79369" lon="2.2186">
        <ele>172</ele>
        <time>2012-12-16T13:38:26Z</time>
      </trkpt>
      <trkpt lat="48.79369" lon="2.21867">
        <ele>172</ele>
        <time>2012-12-16T13:38:30Z</time>
      </trkpt>
      <trkpt lat="48.7937" lon="2.21876">
        <ele>172</ele>
        <time>2012-12-16T13:38:35Z</time>
      </trkpt>
      <trkpt lat="48.79372" lon="2.21884">
        <ele>172</ele>
        <time>2012-12-16T13:38:40Z</time>
      </trkpt>
      <trkpt lat="48.79374" lon="2.21892">
        <ele>172</ele>
        <time>2012-12-16T13:38:45Z</time>
      </trkpt>
      <trkpt lat="48.79375" lon="2.219">
        <ele>172</ele>
        <time>2012-12-16T13:38:50Z</time>
      </trkpt>
      <trkpt lat="48.79377" lon="2.21907">
        <ele>171</ele>
        <time>2012-12-16T13:38:55Z</time>
      </trkpt>
      <trkpt lat="48.79379" lon="2.21913">
        <ele>171</ele>
        <time>2012-12-16T13:38:59Z</time>
      </trkpt>
      <trkpt lat="48.7938" lon="2.2192">
        <ele>171</ele>
        <time>2012-12-16T13:39:04Z</time>
      </trkpt>
      <trkpt lat="48.79375" lon="2.21921">
        <ele>171</ele>
        <time>2012-12-16T13:39:24Z</time>
      </trkpt>
      <trkpt lat="48.79378" lon="2.2193">
        <ele>171</ele>
        <time>2012-12-16T13:39:29Z</time>
      </trkpt>
      <trkpt lat="48.7938" lon="2.21936">
        <ele>171</ele>
        <time>2012-12-16T13:39:32Z</time>
      </trkpt>
      <trkpt lat="48.79385" lon="2.21941">
        <ele>170</ele>
        <time>2012-12-16T13:39:39Z</time>
      </trkpt>
      <trkpt lat="48.79386" lon="2.2195">
        <ele>170</ele>
        <time>2012-12-16T13:40:15Z</time>
      </trkpt>
      <trkpt lat="48.79384" lon="2.21959">
        <ele>170</ele>
        <time>2012-12-16T13:40:19Z</time>
      </trkpt>
      <trkpt lat="48.79386" lon="2.2197">
        <ele>170</ele>
        <time>2012-12-16T13:40:24Z</time>
      </trkpt>
      <trkpt lat="48.79389" lon="2.21983">
        <ele>170</ele>
        <time>2012-12-16T13:40:30Z</time>
      </trkpt>
      <trkpt lat="48.79391" lon="2.21998">
        <ele>170</ele>
        <time>2012-12-16T13:40:37Z</time>
      </trkpt>
      <trkpt lat="48.79392" lon="2.22006">
        <ele>170</ele>
        <time>2012-12-16T13:40:41Z</time>
      </trkpt>
      <trkpt lat="48.79393" lon="2.22014">
        <ele>170</ele>
        <time>2012-12-16T13:40:45Z</time>
      </trkpt>
      <trkpt lat="48.79399" lon="2.22021">
        <ele>170</ele>
        <time>2012-12-16T13:40:49Z</time>
      </trkpt>
      <trkpt lat="48.79402" lon="2.22028">
        <ele>170</ele>
        <time>2012-12-16T13:40:51Z</time>
      </trkpt>
      <trkpt lat="48.79404" lon="2.22035">
        <ele>170</ele>
        <time>2012-12-16T13:40:54Z</time>
      </trkpt>
      <trkpt lat="48.79407" lon="2.22042">
        <ele>170</ele>
        <time>2012-12-16T13:40:57Z</time>
      </trkpt>
      <trkpt lat="48.79412" lon="2.22045">
        <ele>170</ele>
        <time>2012-12-16T13:41:01Z</time>
      </trkpt>
      <trkpt lat="48.79417" lon="2.22049">
        <ele>170</ele>
        <time>2012-12-16T13:41:09Z</time>
      </trkpt>
      <trkpt lat="48.79421" lon="2.22058">
        <ele>170</ele>
        <time>2012-12-16T13:41:14Z</time>
      </trkpt>
      <trkpt lat="48.79425" lon="2.22064">
        <ele>170</ele>
        <time>2012-12-16T13:41:19Z</time>
      </trkpt>
      <trkpt lat="48.79429" lon="2.22073">
        <ele>170</ele>
        <time>2012-12-16T13:41:24Z</time>
      </trkpt>
      <trkpt lat="48.79431" lon="2.22082">
        <ele>170</ele>
        <time>2012-12-16T13:41:29Z</time>
      </trkpt>
      <trkpt lat="48.79434" lon="2.2209">
        <ele>170</ele>
        <time>2012-12-16T13:41:32Z</time>
      </trkpt>
      <trkpt lat="48.79437" lon="2.22096">
        <ele>170</ele>
        <time>2012-12-16T13:41:37Z</time>
      </trkpt>
      <trkpt lat="48.79439" lon="2.22105">
        <ele>170</ele>
        <time>2012-12-16T13:41:40Z</time>
      </trkpt>
      <trkpt lat="48.79444" lon="2.2211">
        <ele>170</ele>
        <time>2012-12-16T13:41:44Z</time>
      </trkpt>
      <trkpt lat="48.79447" lon="2.22119">
        <ele>171</ele>
        <time>2012-12-16T13:41:49Z</time>
      </trkpt>
      <trkpt lat="48.79451" lon="2.22126">
        <ele>171</ele>
        <time>2012-12-16T13:41:54Z</time>
      </trkpt>
      <trkpt lat="48.79454" lon="2.22134">
        <ele>171</ele>
        <time>2012-12-16T13:41:59Z</time>
      </trkpt>
      <trkpt lat="48.79457" lon="2.22143">
        <ele>171</ele>
        <time>2012-12-16T13:42:04Z</time>
      </trkpt>
      <trkpt lat="48.79461" lon="2.2215">
        <ele>171</ele>
        <time>2012-12-16T13:42:09Z</time>
      </trkpt>
      <trkpt lat="48.79465" lon="2.22163">
        <ele>171</ele>
        <time>2012-12-16T13:42:14Z</time>
      </trkpt>
      <trkpt lat="48.79467" lon="2.22171">
        <ele>171</ele>
        <time>2012-12-16T13:42:19Z</time>
      </trkpt>
      <trkpt lat="48.79469" lon="2.22182">
        <ele>171</ele>
        <time>2012-12-16T13:42:22Z</time>
      </trkpt>
      <trkpt lat="48.79471" lon="2.22188">
        <ele>171</ele>
        <time>2012-12-16T13:42:27Z</time>
      </trkpt>
      <trkpt lat="48.79472" lon="2.22196">
        <ele>171</ele>
        <time>2012-12-16T13:42:30Z</time>
      </trkpt>
      <trkpt lat="48.79475" lon="2.22205">
        <ele>171</ele>
        <time>2012-12-16T13:42:34Z</time>
      </trkpt>
      <trkpt lat="48.79477" lon="2.22214">
        <ele>171</ele>
        <time>2012-12-16T13:42:39Z</time>
      </trkpt>
      <trkpt lat="48.79479" lon="2.22222">
        <ele>171</ele>
        <time>2012-12-16T13:42:42Z</time>
      </trkpt>
      <trkpt lat="48.79482" lon="2.22228">
        <ele>171</ele>
        <time>2012-12-16T13:42:47Z</time>
      </trkpt>
      <trkpt lat="48.79485" lon="2.22235">
        <ele>171</ele>
        <time>2012-12-16T13:42:50Z</time>
      </trkpt>
      <trkpt lat="48.7949" lon="2.22238">
        <ele>171</ele>
        <time>2012-12-16T13:42:55Z</time>
      </trkpt>
      <trkpt lat="48.79494" lon="2.22247">
        <ele>170</ele>
        <time>2012-12-16T13:42:59Z</time>
      </trkpt>
      <trkpt lat="48.79498" lon="2.22252">
        <ele>170</ele>
        <time>2012-12-16T13:43:02Z</time>
      </trkpt>
      <trkpt lat="48.79504" lon="2.22256">
        <ele>170</ele>
        <time>2012-12-16T13:43:07Z</time>
      </trkpt>
      <trkpt lat="48.79508" lon="2.22262">
        <ele>169</ele>
        <time>2012-12-16T13:43:10Z</time>
      </trkpt>
      <trkpt lat="48.79512" lon="2.22266">
        <ele>169</ele>
        <time>2012-12-16T13:43:15Z</time>
      </trkpt>
      <trkpt lat="48.79519" lon="2.22272">
        <ele>169</ele>
        <time>2012-12-16T13:43:19Z</time>
      </trkpt>
      <trkpt lat="48.79522" lon="2.22276">
        <ele>169</ele>
        <time>2012-12-16T13:43:22Z</time>
      </trkpt>
      <trkpt lat="48.79527" lon="2.22281">
        <ele>169</ele>
        <time>2012-12-16T13:43:27Z</time>
      </trkpt>
      <trkpt lat="48.7953" lon="2.22285">
        <ele>169</ele>
        <time>2012-12-16T13:43:29Z</time>
      </trkpt>
      <trkpt lat="48.79535" lon="2.22288">
        <ele>169</ele>
        <time>2012-12-16T13:43:32Z</time>
      </trkpt>
      <trkpt lat="48.79543" lon="2.22294">
        <ele>168</ele>
        <time>2012-12-16T13:43:39Z</time>
      </trkpt>
      <trkpt lat="48.79547" lon="2.22296">
        <ele>168</ele>
        <time>2012-12-16T13:43:42Z</time>
      </trkpt>
      <trkpt lat="48.7955" lon="2.22303">
        <ele>168</ele>
        <time>2012-12-16T13:43:45Z</time>
      </trkpt>
      <trkpt lat="48.79552" lon="2.2231">
        <ele>168</ele>
        <time>2012-12-16T13:43:49Z</time>
      </trkpt>
      <trkpt lat="48.79552" lon="2.22317">
        <ele>168</ele>
        <time>2012-12-16T13:43:54Z</time>
      </trkpt>
      <trkpt lat="48.79556" lon="2.22323">
        <ele>168</ele>
        <time>2012-12-16T13:44:00Z</time>
      </trkpt>
      <trkpt lat="48.7956" lon="2.2232">
        <ele>168</ele>
        <time>2012-12-16T13:44:05Z</time>
      </trkpt>
      <trkpt lat="48.79564" lon="2.22316">
        <ele>167</ele>
        <time>2012-12-16T13:44:09Z</time>
      </trkpt>
      <trkpt lat="48.79567" lon="2.22308">
        <ele>167</ele>
        <time>2012-12-16T13:44:14Z</time>
      </trkpt>
      <trkpt lat="48.79572" lon="2.22305">
        <ele>167</ele>
        <time>2012-12-16T13:44:19Z</time>
      </trkpt>
      <trkpt lat="48.79577" lon="2.22303">
        <ele>167</ele>
        <time>2012-12-16T13:44:24Z</time>
      </trkpt>
      <trkpt lat="48.79581" lon="2.22298">
        <ele>167</ele>
        <time>2012-12-16T13:44:30Z</time>
      </trkpt>
      <trkpt lat="48.79583" lon="2.22291">
        <ele>165</ele>
        <time>2012-12-16T13:44:35Z</time>
      </trkpt>
      <trkpt lat="48.79588" lon="2.22286">
        <ele>165</ele>
        <time>2012-12-16T13:44:39Z</time>
      </trkpt>
      <trkpt lat="48.79592" lon="2.22281">
        <ele>165</ele>
        <time>2012-12-16T13:44:44Z</time>
      </trkpt>
      <trkpt lat="48.79594" lon="2.22272">
        <ele>165</ele>
        <time>2012-12-16T13:44:49Z</time>
      </trkpt>
      <trkpt lat="48.79597" lon="2.22266">
        <ele>165</ele>
        <time>2012-12-16T13:44:54Z</time>
      </trkpt>
      <trkpt lat="48.79603" lon="2.2226">
        <ele>165</ele>
        <time>2012-12-16T13:44:57Z</time>
      </trkpt>
      <trkpt lat="48.79607" lon="2.22255">
        <ele>165</ele>
        <time>2012-12-16T13:45:01Z</time>
      </trkpt>
      <trkpt lat="48.79613" lon="2.22251">
        <ele>165</ele>
        <time>2012-12-16T13:45:04Z</time>
      </trkpt>
      <trkpt lat="48.79617" lon="2.22245">
        <ele>166</ele>
        <time>2012-12-16T13:45:09Z</time>
      </trkpt>
      <trkpt lat="48.79619" lon="2.22238">
        <ele>166</ele>
        <time>2012-12-16T13:45:15Z</time>
      </trkpt>
      <trkpt lat="48.79623" lon="2.22235">
        <ele>166</ele>
        <time>2012-12-16T13:45:19Z</time>
      </trkpt>
      <trkpt lat="48.79627" lon="2.22231">
        <ele>166</ele>
        <time>2012-12-16T13:45:22Z</time>
      </trkpt>
      <trkpt lat="48.79631" lon="2.22226">
        <ele>166</ele>
        <time>2012-12-16T13:45:26Z</time>
      </trkpt>
      <trkpt lat="48.79635" lon="2.22222">
        <ele>166</ele>
        <time>2012-12-16T13:45:29Z</time>
      </trkpt>
      <trkpt lat="48.79639" lon="2.22216">
        <ele>166</ele>
        <time>2012-12-16T13:45:34Z</time>
      </trkpt>
      <trkpt lat="48.79643" lon="2.22212">
        <ele>166</ele>
        <time>2012-12-16T13:45:37Z</time>
      </trkpt>
      <trkpt lat="48.79647" lon="2.22205">
        <ele>166</ele>
        <time>2012-12-16T13:45:41Z</time>
      </trkpt>
      <trkpt lat="48.79651" lon="2.222">
        <ele>166</ele>
        <time>2012-12-16T13:45:44Z</time>
      </trkpt>
      <trkpt lat="48.79655" lon="2.22189">
        <ele>166</ele>
        <time>2012-12-16T13:45:49Z</time>
      </trkpt>
      <trkpt lat="48.79659" lon="2.22185">
        <ele>166</ele>
        <time>2012-12-16T13:45:54Z</time>
      </trkpt>
      <trkpt lat="48.79665" lon="2.22185">
        <ele>166</ele>
        <time>2012-12-16T13:45:59Z</time>
      </trkpt>
      <trkpt lat="48.79671" lon="2.22183">
        <ele>165</ele>
        <time>2012-12-16T13:46:04Z</time>
      </trkpt>
      <trkpt lat="48.79676" lon="2.22184">
        <ele>165</ele>
        <time>2012-12-16T13:46:09Z</time>
      </trkpt>
      <trkpt lat="48.79683" lon="2.22183">
        <ele>164</ele>
        <time>2012-12-16T13:46:14Z</time>
      </trkpt>
      <trkpt lat="48.79689" lon="2.22183">
        <ele>164</ele>
        <time>2012-12-16T13:46:19Z</time>
      </trkpt>
      <trkpt lat="48.79695" lon="2.22182">
        <ele>164</ele>
        <time>2012-12-16T13:46:22Z</time>
      </trkpt>
      <trkpt lat="48.797" lon="2.22183">
        <ele>164</ele>
        <time>2012-12-16T13:46:25Z</time>
      </trkpt>
      <trkpt lat="48.79708" lon="2.22183">
        <ele>164</ele>
        <time>2012-12-16T13:46:29Z</time>
      </trkpt>
      <trkpt lat="48.79714" lon="2.2219">
        <ele>163</ele>
        <time>2012-12-16T13:46:34Z</time>
      </trkpt>
      <trkpt lat="48.79716" lon="2.22197">
        <ele>163</ele>
        <time>2012-12-16T13:46:37Z</time>
      </trkpt>
      <trkpt lat="48.7972" lon="2.22203">
        <ele>163</ele>
        <time>2012-12-16T13:46:42Z</time>
      </trkpt>
      <trkpt lat="48.79726" lon="2.22205">
        <ele>163</ele>
        <time>2012-12-16T13:46:50Z</time>
      </trkpt>
      <trkpt lat="48.7973" lon="2.22211">
        <ele>163</ele>
        <time>2012-12-16T13:46:54Z</time>
      </trkpt>
      <trkpt lat="48.79735" lon="2.22217">
        <ele>163</ele>
        <time>2012-12-16T13:46:59Z</time>
      </trkpt>
      <trkpt lat="48.79738" lon="2.22222">
        <ele>163</ele>
        <time>2012-12-16T13:47:02Z</time>
      </trkpt>
      <trkpt lat="48.7974" lon="2.2223">
        <ele>163</ele>
        <time>2012-12-16T13:47:06Z</time>
      </trkpt>
      <trkpt lat="48.79743" lon="2.22237">
        <ele>163</ele>
        <time>2012-12-16T13:47:10Z</time>
      </trkpt>
      <trkpt lat="48.79744" lon="2.22248">
        <ele>162</ele>
        <time>2012-12-16T13:47:14Z</time>
      </trkpt>
      <trkpt lat="48.79746" lon="2.22256">
        <ele>162</ele>
        <time>2012-12-16T13:47:19Z</time>
      </trkpt>
      <trkpt lat="48.79744" lon="2.22265">
        <ele>161</ele>
        <time>2012-12-16T13:47:24Z</time>
      </trkpt>
      <trkpt lat="48.79744" lon="2.2228">
        <ele>160</ele>
        <time>2012-12-16T13:47:30Z</time>
      </trkpt>
      <trkpt lat="48.7974" lon="2.22288">
        <ele>160</ele>
        <time>2012-12-16T13:47:34Z</time>
      </trkpt>
      <trkpt lat="48.79743" lon="2.22296">
        <ele>160</ele>
        <time>2012-12-16T13:47:39Z</time>
      </trkpt>
      <trkpt lat="48.79747" lon="2.22302">
        <ele>159</ele>
        <time>2012-12-16T13:47:44Z</time>
      </trkpt>
      <trkpt lat="48.79751" lon="2.2231">
        <ele>158</ele>
        <time>2012-12-16T13:47:49Z</time>
      </trkpt>
      <trkpt lat="48.79752" lon="2.22318">
        <ele>158</ele>
        <time>2012-12-16T13:47:54Z</time>
      </trkpt>
      <trkpt lat="48.79752" lon="2.22327">
        <ele>156</ele>
        <time>2012-12-16T13:47:59Z</time>
      </trkpt>
      <trkpt lat="48.79755" lon="2.22337">
        <ele>155</ele>
        <time>2012-12-16T13:48:04Z</time>
      </trkpt>
      <trkpt lat="48.79758" lon="2.22343">
        <ele>155</ele>
        <time>2012-12-16T13:48:10Z</time>
      </trkpt>
      <trkpt lat="48.79763" lon="2.22351">
        <ele>154</ele>
        <time>2012-12-16T13:48:14Z</time>
      </trkpt>
      <trkpt lat="48.79766" lon="2.22357">
        <ele>154</ele>
        <time>2012-12-16T13:48:19Z</time>
      </trkpt>
      <trkpt lat="48.79766" lon="2.22365">
        <ele>154</ele>
        <time>2012-12-16T13:48:25Z</time>
      </trkpt>
      <trkpt lat="48.79766" lon="2.22373">
        <ele>153</ele>
        <time>2012-12-16T13:48:29Z</time>
      </trkpt>
      <trkpt lat="48.79767" lon="2.22381">
        <ele>153</ele>
        <time>2012-12-16T13:48:32Z</time>
      </trkpt>
      <trkpt lat="48.79766" lon="2.22389">
        <ele>152</ele>
        <time>2012-12-16T13:48:35Z</time>
      </trkpt>
      <trkpt lat="48.79766" lon="2.22397">
        <ele>152</ele>
        <time>2012-12-16T13:48:40Z</time>
      </trkpt>
      <trkpt lat="48.79766" lon="2.22405">
        <ele>151</ele>
        <time>2012-12-16T13:48:45Z</time>
      </trkpt>
      <trkpt lat="48.79764" lon="2.22413">
        <ele>150</ele>
        <time>2012-12-16T13:48:49Z</time>
      </trkpt>
      <trkpt lat="48.79762" lon="2.2242">
        <ele>148</ele>
        <time>2012-12-16T13:48:54Z</time>
      </trkpt>
      <trkpt lat="48.79764" lon="2.22427">
        <ele>148</ele>
        <time>2012-12-16T13:48:57Z</time>
      </trkpt>
      <trkpt lat="48.79765" lon="2.22436">
        <ele>148</ele>
        <time>2012-12-16T13:49:04Z</time>
      </trkpt>
      <trkpt lat="48.79762" lon="2.22451">
        <ele>147</ele>
        <time>2012-12-16T13:49:11Z</time>
      </trkpt>
      <trkpt lat="48.7976" lon="2.22464">
        <ele>147</ele>
        <time>2012-12-16T13:49:19Z</time>
      </trkpt>
      <trkpt lat="48.79753" lon="2.22471">
        <ele>146</ele>
        <time>2012-12-16T13:49:24Z</time>
      </trkpt>
      <trkpt lat="48.79748" lon="2.22475">
        <ele>143</ele>
        <time>2012-12-16T13:49:26Z</time>
      </trkpt>
      <trkpt lat="48.79742" lon="2.22477">
        <ele>143</ele>
        <time>2012-12-16T13:49:30Z</time>
      </trkpt>
      <trkpt lat="48.79735" lon="2.22482">
        <ele>143</ele>
        <time>2012-12-16T13:49:34Z</time>
      </trkpt>
      <trkpt lat="48.79731" lon="2.22485">
        <ele>143</ele>
        <time>2012-12-16T13:49:39Z</time>
      </trkpt>
      <trkpt lat="48.79726" lon="2.22487">
        <ele>143</ele>
        <time>2012-12-16T13:49:44Z</time>
      </trkpt>
      <trkpt lat="48.79722" lon="2.22492">
        <ele>143</ele>
        <time>2012-12-16T13:49:47Z</time>
      </trkpt>
      <trkpt lat="48.79717" lon="2.22492">
        <ele>143</ele>
        <time>2012-12-16T13:49:52Z</time>
      </trkpt>
      <trkpt lat="48.79711" lon="2.22496">
        <ele>143</ele>
        <time>2012-12-16T13:49:56Z</time>
      </trkpt>
      <trkpt lat="48.79707" lon="2.22499">
        <ele>143</ele>
        <time>2012-12-16T13:50:00Z</time>
      </trkpt>
      <trkpt lat="48.79701" lon="2.22503">
        <ele>140</ele>
        <time>2012-12-16T13:50:04Z</time>
      </trkpt>
      <trkpt lat="48.79696" lon="2.22508">
        <ele>140</ele>
        <time>2012-12-16T13:50:09Z</time>
      </trkpt>
      <trkpt lat="48.79691" lon="2.22512">
        <ele>140</ele>
        <time>2012-12-16T13:50:11Z</time>
      </trkpt>
      <trkpt lat="48.79689" lon="2.22519">
        <ele>140</ele>
        <time>2012-12-16T13:50:15Z</time>
      </trkpt>
      <trkpt lat="48.79687" lon="2.22526">
        <ele>140</ele>
        <time>2012-12-16T13:50:19Z</time>
      </trkpt>
      <trkpt lat="48.79686" lon="2.22533">
        <ele>140</ele>
        <time>2012-12-16T13:50:24Z</time>
      </trkpt>
      <trkpt lat="48.79683" lon="2.22549">
        <ele>139</ele>
        <time>2012-12-16T13:50:39Z</time>
      </trkpt>
      <trkpt lat="48.79681" lon="2.2256">
        <ele>139</ele>
        <time>2012-12-16T13:50:44Z</time>
      </trkpt>
      <trkpt lat="48.79678" lon="2.22569">
        <ele>139</ele>
        <time>2012-12-16T13:50:49Z</time>
      </trkpt>
      <trkpt lat="48.79677" lon="2.22578">
        <ele>138</ele>
        <time>2012-12-16T13:50:54Z</time>
      </trkpt>
      <trkpt lat="48.79674" lon="2.22587">
        <ele>137</ele>
        <time>2012-12-16T13:50:59Z</time>
      </trkpt>
      <trkpt lat="48.79671" lon="2.22596">
        <ele>137</ele>
        <time>2012-12-16T13:51:04Z</time>
      </trkpt>
      <trkpt lat="48.7967" lon="2.22603">
        <ele>136</ele>
        <time>2012-12-16T13:51:07Z</time>
      </trkpt>
      <trkpt lat="48.79667" lon="2.22617">
        <ele>136</ele>
        <time>2012-12-16T13:51:14Z</time>
      </trkpt>
      <trkpt lat="48.79665" lon="2.22627">
        <ele>137</ele>
        <time>2012-12-16T13:51:19Z</time>
      </trkpt>
      <trkpt lat="48.79662" lon="2.22636">
        <ele>136</ele>
        <time>2012-12-16T13:51:22Z</time>
      </trkpt>
      <trkpt lat="48.79662" lon="2.22644">
        <ele>135</ele>
        <time>2012-12-16T13:51:26Z</time>
      </trkpt>
      <trkpt lat="48.7966" lon="2.22652">
        <ele>135</ele>
        <time>2012-12-16T13:51:30Z</time>
      </trkpt>
      <trkpt lat="48.79659" lon="2.22659">
        <ele>134</ele>
        <time>2012-12-16T13:51:34Z</time>
      </trkpt>
      <trkpt lat="48.79659" lon="2.22669">
        <ele>133</ele>
        <time>2012-12-16T13:51:39Z</time>
      </trkpt>
      <trkpt lat="48.79657" lon="2.22677">
        <ele>133</ele>
        <time>2012-12-16T13:51:44Z</time>
      </trkpt>
      <trkpt lat="48.79656" lon="2.22685">
        <ele>133</ele>
        <time>2012-12-16T13:51:49Z</time>
      </trkpt>
      <trkpt lat="48.79654" lon="2.22697">
        <ele>134</ele>
        <time>2012-12-16T13:51:59Z</time>
      </trkpt>
      <trkpt lat="48.79655" lon="2.22706">
        <ele>134</ele>
        <time>2012-12-16T13:52:02Z</time>
      </trkpt>
      <trkpt lat="48.79655" lon="2.22713">
        <ele>134</ele>
        <time>2012-12-16T13:52:07Z</time>
      </trkpt>
      <trkpt lat="48.79654" lon="2.2272">
        <ele>133</ele>
        <time>2012-12-16T13:52:10Z</time>
      </trkpt>
      <trkpt lat="48.79655" lon="2.22728">
        <ele>133</ele>
        <time>2012-12-16T13:52:15Z</time>
      </trkpt>
      <trkpt lat="48.79655" lon="2.22737">
        <ele>133</ele>
        <time>2012-12-16T13:52:20Z</time>
      </trkpt>
      <trkpt lat="48.79654" lon="2.22744">
        <ele>133</ele>
        <time>2012-12-16T13:52:24Z</time>
      </trkpt>
      <trkpt lat="48.79653" lon="2.22755">
        <ele>132</ele>
        <time>2012-12-16T13:52:29Z</time>
      </trkpt>
      <trkpt lat="48.79648" lon="2.2276">
        <ele>133</ele>
        <time>2012-12-16T13:52:34Z</time>
      </trkpt>
      <trkpt lat="48.79644" lon="2.22765">
        <ele>133</ele>
        <time>2012-12-16T13:52:39Z</time>
      </trkpt>
      <trkpt lat="48.79643" lon="2.22773">
        <ele>134</ele>
        <time>2012-12-16T13:52:44Z</time>
      </trkpt>
      <trkpt lat="48.79642" lon="2.2278">
        <ele>134</ele>
        <time>2012-12-16T13:52:47Z</time>
      </trkpt>
      <trkpt lat="48.79639" lon="2.22788">
        <ele>134</ele>
        <time>2012-12-16T13:52:54Z</time>
      </trkpt>
      <trkpt lat="48.79638" lon="2.22795">
        <ele>134</ele>
        <time>2012-12-16T13:52:59Z</time>
      </trkpt>
      <trkpt lat="48.79637" lon="2.22804">
        <ele>134</ele>
        <time>2012-12-16T13:53:04Z</time>
      </trkpt>
      <trkpt lat="48.79636" lon="2.22813">
        <ele>134</ele>
        <time>2012-12-16T13:53:07Z</time>
      </trkpt>
      <trkpt lat="48.79635" lon="2.22821">
        <ele>134</ele>
        <time>2012-12-16T13:53:14Z</time>
      </trkpt>
      <trkpt lat="48.79635" lon="2.22828">
        <ele>134</ele>
        <time>2012-12-16T13:53:19Z</time>
      </trkpt>
      <trkpt lat="48.79634" lon="2.22838">
        <ele>134</ele>
        <time>2012-12-16T13:53:24Z</time>
      </trkpt>
      <trkpt lat="48.79634" lon="2.22849">
        <ele>134</ele>
        <time>2012-12-16T13:53:29Z</time>
      </trkpt>
      <trkpt lat="48.79634" lon="2.22859">
        <ele>134</ele>
        <time>2012-12-16T13:53:34Z</time>
      </trkpt>
      <trkpt lat="48.79633" lon="2.22868">
        <ele>134</ele>
        <time>2012-12-16T13:53:39Z</time>
      </trkpt>
      <trkpt lat="48.79629" lon="2.22873">
        <ele>134</ele>
        <time>2012-12-16T13:53:42Z</time>
      </trkpt>
      <trkpt lat="48.79625" lon="2.22878">
        <ele>135</ele>
        <time>2012-12-16T13:53:45Z</time>
      </trkpt>
      <trkpt lat="48.79627" lon="2.22886">
        <ele>135</ele>
        <time>2012-12-16T13:53:49Z</time>
      </trkpt>
      <trkpt lat="48.79626" lon="2.22893">
        <ele>135</ele>
        <time>2012-12-16T13:53:52Z</time>
      </trkpt>
      <trkpt lat="48.79625" lon="2.229">
        <ele>135</ele>
        <time>2012-12-16T13:53:56Z</time>
      </trkpt>
      <trkpt lat="48.79624" lon="2.22908">
        <ele>135</ele>
        <time>2012-12-16T13:54:01Z</time>
      </trkpt>
      <trkpt lat="48.79621" lon="2.22914">
        <ele>135</ele>
        <time>2012-12-16T13:54:05Z</time>
      </trkpt>
      <trkpt lat="48.7962" lon="2.22921">
        <ele>134</ele>
        <time>2012-12-16T13:54:09Z</time>
      </trkpt>
      <trkpt lat="48.79615" lon="2.22926">
        <ele>135</ele>
        <time>2012-12-16T13:54:14Z</time>
      </trkpt>
      <trkpt lat="48.79613" lon="2.22935">
        <ele>135</ele>
        <time>2012-12-16T13:54:19Z</time>
      </trkpt>
      <trkpt lat="48.7961" lon="2.2294">
        <ele>135</ele>
        <time>2012-12-16T13:54:24Z</time>
      </trkpt>
      <trkpt lat="48.79605" lon="2.22946">
        <ele>135</ele>
        <time>2012-12-16T13:54:30Z</time>
      </trkpt>
      <trkpt lat="48.79602" lon="2.22957">
        <ele>135</ele>
        <time>2012-12-16T13:54:34Z</time>
      </trkpt>
      <trkpt lat="48.79601" lon="2.22966">
        <ele>135</ele>
        <time>2012-12-16T13:54:39Z</time>
      </trkpt>
      <trkpt lat="48.79598" lon="2.22971">
        <ele>135</ele>
        <time>2012-12-16T13:54:42Z</time>
      </trkpt>
      <trkpt lat="48.79595" lon="2.22977">
        <ele>135</ele>
        <time>2012-12-16T13:54:45Z</time>
      </trkpt>
      <trkpt lat="48.79593" lon="2.22984">
        <ele>136</ele>
        <time>2012-12-16T13:54:50Z</time>
      </trkpt>
      <trkpt lat="48.79592" lon="2.22998">
        <ele>137</ele>
        <time>2012-12-16T13:54:59Z</time>
      </trkpt>
      <trkpt lat="48.79589" lon="2.23009">
        <ele>136</ele>
        <time>2012-12-16T13:55:04Z</time>
      </trkpt>
      <trkpt lat="48.7959" lon="2.23019">
        <ele>135</ele>
        <time>2012-12-16T13:55:09Z</time>
      </trkpt>
      <trkpt lat="48.79587" lon="2.23025">
        <ele>134</ele>
        <time>2012-12-16T13:55:16Z</time>
      </trkpt>
      <trkpt lat="48.79585" lon="2.23032">
        <ele>134</ele>
        <time>2012-12-16T13:55:19Z</time>
      </trkpt>
      <trkpt lat="48.79586" lon="2.2304">
        <ele>134</ele>
        <time>2012-12-16T13:55:22Z</time>
      </trkpt>
      <trkpt lat="48.7959" lon="2.23045">
        <ele>133</ele>
        <time>2012-12-16T13:55:30Z</time>
      </trkpt>
      <trkpt lat="48.79589" lon="2.23054">
        <ele>133</ele>
        <time>2012-12-16T13:55:34Z</time>
      </trkpt>
      <trkpt lat="48.79589" lon="2.23062">
        <ele>133</ele>
        <time>2012-12-16T13:55:37Z</time>
      </trkpt>
      <trkpt lat="48.79588" lon="2.23069">
        <ele>134</ele>
        <time>2012-12-16T13:55:40Z</time>
      </trkpt>
      <trkpt lat="48.79586" lon="2.23076">
        <ele>134</ele>
        <time>2012-12-16T13:55:44Z</time>
      </trkpt>
      <trkpt lat="48.79584" lon="2.23082">
        <ele>135</ele>
        <time>2012-12-16T13:55:47Z</time>
      </trkpt>
      <trkpt lat="48.79579" lon="2.23085">
        <ele>134</ele>
        <time>2012-12-16T13:55:49Z</time>
      </trkpt>
      <trkpt lat="48.79575" lon="2.23092">
        <ele>133</ele>
        <time>2012-12-16T13:55:54Z</time>
      </trkpt>
      <trkpt lat="48.79572" lon="2.23098">
        <ele>132</ele>
        <time>2012-12-16T13:55:57Z</time>
      </trkpt>
      <trkpt lat="48.7957" lon="2.23106">
        <ele>131</ele>
        <time>2012-12-16T13:56:01Z</time>
      </trkpt>
      <trkpt lat="48.7957" lon="2.23113">
        <ele>131</ele>
        <time>2012-12-16T13:56:04Z</time>
      </trkpt>
      <trkpt lat="48.79568" lon="2.23123">
        <ele>130</ele>
        <time>2012-12-16T13:56:09Z</time>
      </trkpt>
      <trkpt lat="48.79564" lon="2.23131">
        <ele>129</ele>
        <time>2012-12-16T13:56:14Z</time>
      </trkpt>
      <trkpt lat="48.79561" lon="2.23138">
        <ele>129</ele>
        <time>2012-12-16T13:56:19Z</time>
      </trkpt>
      <trkpt lat="48.79562" lon="2.23147">
        <ele>128</ele>
        <time>2012-12-16T13:56:22Z</time>
      </trkpt>
      <trkpt lat="48.79562" lon="2.23155">
        <ele>128</ele>
        <time>2012-12-16T13:56:25Z</time>
      </trkpt>
      <trkpt lat="48.79565" lon="2.23165">
        <ele>128</ele>
        <time>2012-12-16T13:56:29Z</time>
      </trkpt>
      <trkpt lat="48.79562" lon="2.23171">
        <ele>125</ele>
        <time>2012-12-16T13:56:32Z</time>
      </trkpt>
      <trkpt lat="48.79556" lon="2.23172">
        <ele>124</ele>
        <time>2012-12-16T13:56:35Z</time>
      </trkpt>
      <trkpt lat="48.79549" lon="2.23176">
        <ele>124</ele>
        <time>2012-12-16T13:56:39Z</time>
      </trkpt>
      <trkpt lat="48.79545" lon="2.23182">
        <ele>124</ele>
        <time>2012-12-16T13:56:44Z</time>
      </trkpt>
      <trkpt lat="48.79543" lon="2.2319">
        <ele>123</ele>
        <time>2012-12-16T13:56:50Z</time>
      </trkpt>
      <trkpt lat="48.7954" lon="2.23199">
        <ele>123</ele>
        <time>2012-12-16T13:56:54Z</time>
      </trkpt>
      <trkpt lat="48.79541" lon="2.23208">
        <ele>123</ele>
        <time>2012-12-16T13:56:59Z</time>
      </trkpt>
      <trkpt lat="48.79538" lon="2.23216">
        <ele>123</ele>
        <time>2012-12-16T13:57:02Z</time>
      </trkpt>
      <trkpt lat="48.79536" lon="2.23222">
        <ele>123</ele>
        <time>2012-12-16T13:57:06Z</time>
      </trkpt>
      <trkpt lat="48.79534" lon="2.23234">
        <ele>122</ele>
        <time>2012-12-16T13:57:09Z</time>
      </trkpt>
      <trkpt lat="48.79533" lon="2.23241">
        <ele>122</ele>
        <time>2012-12-16T13:57:11Z</time>
      </trkpt>
      <trkpt lat="48.79533" lon="2.23253">
        <ele>121</ele>
        <time>2012-12-16T13:57:14Z</time>
      </trkpt>
      <trkpt lat="48.79535" lon="2.23258">
        <ele>121</ele>
        <time>2012-12-16T13:57:16Z</time>
      </trkpt>
      <trkpt lat="48.79533" lon="2.2325">
        <ele>121</ele>
        <time>2012-12-16T13:57:21Z</time>
      </trkpt>
      <trkpt lat="48.79536" lon="2.23241">
        <ele>122</ele>
        <time>2012-12-16T13:57:26Z</time>
      </trkpt>
      <trkpt lat="48.79542" lon="2.2324">
        <ele>123</ele>
        <time>2012-12-16T13:57:35Z</time>
      </trkpt>
      <trkpt lat="48.79539" lon="2.23246">
        <ele>122</ele>
        <time>2012-12-16T13:57:42Z</time>
      </trkpt>
      <trkpt lat="48.79535" lon="2.23242">
        <ele>122</ele>
        <time>2012-12-16T13:58:00Z</time>
      </trkpt>
      <trkpt lat="48.79537" lon="2.23236">
        <ele>122</ele>
        <time>2012-12-16T13:58:10Z</time>
      </trkpt>
      <trkpt lat="48.79538" lon="2.23238">
        <ele>122</ele>
        <time>2012-12-16T13:58:47Z</time>
      </trkpt>
      <trkpt lat="48.79535" lon="2.23248">
        <ele>122</ele>
        <time>2012-12-16T13:59:17Z</time>
      </trkpt>
      <trkpt lat="48.79533" lon="2.23255">
        <ele>121</ele>
        <time>2012-12-16T13:59:21Z</time>
      </trkpt>
      <trkpt lat="48.79537" lon="2.2325">
        <ele>122</ele>
        <time>2012-12-16T14:00:09Z</time>
      </trkpt>
      <trkpt lat="48.79533" lon="2.23256">
        <ele>121</ele>
        <time>2012-12-16T14:00:27Z</time>
      </trkpt>
      <trkpt lat="48.79525" lon="2.23264">
        <ele>121</ele>
        <time>2012-12-16T14:00:37Z</time>
      </trkpt>
      <trkpt lat="48.7952" lon="2.2326">
        <ele>121</ele>
        <time>2012-12-16T14:00:45Z</time>
      </trkpt>
      <trkpt lat="48.79511" lon="2.23259">
        <ele>121</ele>
        <time>2012-12-16T14:00:49Z</time>
      </trkpt>
      <trkpt lat="48.79506" lon="2.23258">
        <ele>121</ele>
        <time>2012-12-16T14:00:51Z</time>
      </trkpt>
      <trkpt lat="48.79501" lon="2.2326">
        <ele>121</ele>
        <time>2012-12-16T14:00:56Z</time>
      </trkpt>
      <trkpt lat="48.79497" lon="2.23265">
        <ele>122</ele>
        <time>2012-12-16T14:01:02Z</time>
      </trkpt>
      <trkpt lat="48.79491" lon="2.2327">
        <ele>122</ele>
        <time>2012-12-16T14:01:09Z</time>
      </trkpt>
      <trkpt lat="48.79486" lon="2.23273">
        <ele>122</ele>
        <time>2012-12-16T14:01:16Z</time>
      </trkpt>
      <trkpt lat="48.7948" lon="2.23277">
        <ele>123</ele>
        <time>2012-12-16T14:01:20Z</time>
      </trkpt>
      <trkpt lat="48.79475" lon="2.23281">
        <ele>123</ele>
        <time>2012-12-16T14:01:24Z</time>
      </trkpt>
      <trkpt lat="48.7947" lon="2.23286">
        <ele>123</ele>
        <time>2012-12-16T14:01:27Z</time>
      </trkpt>
      <trkpt lat="48.79465" lon="2.23288">
        <ele>123</ele>
        <time>2012-12-16T14:01:30Z</time>
      </trkpt>
      <trkpt lat="48.79461" lon="2.23295">
        <ele>123</ele>
        <time>2012-12-16T14:01:34Z</time>
      </trkpt>
      <trkpt lat="48.79456" lon="2.23298">
        <ele>124</ele>
        <time>2012-12-16T14:01:39Z</time>
      </trkpt>
      <trkpt lat="48.79452" lon="2.23305">
        <ele>124</ele>
        <time>2012-12-16T14:01:44Z</time>
      </trkpt>
      <trkpt lat="48.79447" lon="2.2331">
        <ele>124</ele>
        <time>2012-12-16T14:01:49Z</time>
      </trkpt>
      <trkpt lat="48.79441" lon="2.23309">
        <ele>124</ele>
        <time>2012-12-16T14:01:54Z</time>
      </trkpt>
      <trkpt lat="48.7944" lon="2.23319">
        <ele>124</ele>
        <time>2012-12-16T14:01:59Z</time>
      </trkpt>
      <trkpt lat="48.79437" lon="2.23327">
        <ele>125</ele>
        <time>2012-12-16T14:02:04Z</time>
      </trkpt>
      <trkpt lat="48.79435" lon="2.23339">
        <ele>124</ele>
        <time>2012-12-16T14:02:09Z</time>
      </trkpt>
      <trkpt lat="48.79433" lon="2.23345">
        <ele>124</ele>
        <time>2012-12-16T14:02:15Z</time>
      </trkpt>
      <trkpt lat="48.79426" lon="2.23356">
        <ele>124</ele>
        <time>2012-12-16T14:02:24Z</time>
      </trkpt>
      <trkpt lat="48.79422" lon="2.23362">
        <ele>124</ele>
        <time>2012-12-16T14:02:27Z</time>
      </trkpt>
      <trkpt lat="48.7942" lon="2.2337">
        <ele>123</ele>
        <time>2012-12-16T14:02:30Z</time>
      </trkpt>
      <trkpt lat="48.7942" lon="2.23377">
        <ele>123</ele>
        <time>2012-12-16T14:02:37Z</time>
      </trkpt>
      <trkpt lat="48.79418" lon="2.23386">
        <ele>123</ele>
        <time>2012-12-16T14:02:42Z</time>
      </trkpt>
      <trkpt lat="48.79413" lon="2.23397">
        <ele>125</ele>
        <time>2012-12-16T14:02:49Z</time>
      </trkpt>
      <trkpt lat="48.79416" lon="2.23403">
        <ele>125</ele>
        <time>2012-12-16T14:02:55Z</time>
      </trkpt>
      <trkpt lat="48.79419" lon="2.23409">
        <ele>123</ele>
        <time>2012-12-16T14:03:00Z</time>
      </trkpt>
      <trkpt lat="48.79424" lon="2.2341">
        <ele>123</ele>
        <time>2012-12-16T14:03:06Z</time>
      </trkpt>
      <trkpt lat="48.79428" lon="2.23406">
        <ele>123</ele>
        <time>2012-12-16T14:03:11Z</time>
      </trkpt>
      <trkpt lat="48.79433" lon="2.23404">
        <ele>122</ele>
        <time>2012-12-16T14:03:16Z</time>
      </trkpt>
      <trkpt lat="48.79439" lon="2.23406">
        <ele>122</ele>
        <time>2012-12-16T14:03:20Z</time>
      </trkpt>
      <trkpt lat="48.79444" lon="2.23404">
        <ele>122</ele>
        <time>2012-12-16T14:03:24Z</time>
      </trkpt>
      <trkpt lat="48.79449" lon="2.23405">
        <ele>122</ele>
        <time>2012-12-16T14:03:27Z</time>
      </trkpt>
      <trkpt lat="48.79454" lon="2.23406">
        <ele>122</ele>
        <time>2012-12-16T14:03:31Z</time>
      </trkpt>
      <trkpt lat="48.79459" lon="2.23407">
        <ele>122</ele>
        <time>2012-12-16T14:03:34Z</time>
      </trkpt>
      <trkpt lat="48.79464" lon="2.23406">
        <ele>121</ele>
        <time>2012-12-16T14:03:37Z</time>
      </trkpt>
      <trkpt lat="48.79468" lon="2.23407">
        <ele>121</ele>
        <time>2012-12-16T14:03:41Z</time>
      </trkpt>
      <trkpt lat="48.79473" lon="2.23408">
        <ele>121</ele>
        <time>2012-12-16T14:03:44Z</time>
      </trkpt>
      <trkpt lat="48.79478" lon="2.2341">
        <ele>121</ele>
        <time>2012-12-16T14:03:49Z</time>
      </trkpt>
      <trkpt lat="48.79483" lon="2.23412">
        <ele>120</ele>
        <time>2012-12-16T14:03:52Z</time>
      </trkpt>
      <trkpt lat="48.79489" lon="2.23414">
        <ele>120</ele>
        <time>2012-12-16T14:03:56Z</time>
      </trkpt>
      <trkpt lat="48.79493" lon="2.23419">
        <ele>120</ele>
        <time>2012-12-16T14:03:59Z</time>
      </trkpt>
      <trkpt lat="48.79497" lon="2.23425">
        <ele>120</ele>
        <time>2012-12-16T14:04:02Z</time>
      </trkpt>
      <trkpt lat="48.79501" lon="2.23428">
        <ele>119</ele>
        <time>2012-12-16T14:04:06Z</time>
      </trkpt>
      <trkpt lat="48.7951" lon="2.2343">
        <ele>118</ele>
        <time>2012-12-16T14:04:09Z</time>
      </trkpt>
      <trkpt lat="48.79515" lon="2.23432">
        <ele>118</ele>
        <time>2012-12-16T14:04:11Z</time>
      </trkpt>
      <trkpt lat="48.79519" lon="2.23435">
        <ele>118</ele>
        <time>2012-12-16T14:04:15Z</time>
      </trkpt>
      <trkpt lat="48.79527" lon="2.23444">
        <ele>118</ele>
        <time>2012-12-16T14:04:21Z</time>
      </trkpt>
      <trkpt lat="48.79533" lon="2.2345">
        <ele>118</ele>
        <time>2012-12-16T14:04:24Z</time>
      </trkpt>
      <trkpt lat="48.79538" lon="2.23454">
        <ele>117</ele>
        <time>2012-12-16T14:04:29Z</time>
      </trkpt>
      <trkpt lat="48.79543" lon="2.23455">
        <ele>117</ele>
        <time>2012-12-16T14:04:32Z</time>
      </trkpt>
      <trkpt lat="48.79549" lon="2.23456">
        <ele>117</ele>
        <time>2012-12-16T14:04:35Z</time>
      </trkpt>
      <trkpt lat="48.79556" lon="2.2345">
        <ele>116</ele>
        <time>2012-12-16T14:04:39Z</time>
      </trkpt>
      <trkpt lat="48.79561" lon="2.23448">
        <ele>116</ele>
        <time>2012-12-16T14:04:44Z</time>
      </trkpt>
      <trkpt lat="48.79567" lon="2.23443">
        <ele>116</ele>
        <time>2012-12-16T14:04:49Z</time>
      </trkpt>
      <trkpt lat="48.79572" lon="2.23441">
        <ele>116</ele>
        <time>2012-12-16T14:04:54Z</time>
      </trkpt>
      <trkpt lat="48.79577" lon="2.23437">
        <ele>115</ele>
        <time>2012-12-16T14:04:59Z</time>
      </trkpt>
      <trkpt lat="48.79581" lon="2.23431">
        <ele>115</ele>
        <time>2012-12-16T14:05:05Z</time>
      </trkpt>
      <trkpt lat="48.79587" lon="2.23426">
        <ele>112</ele>
        <time>2012-12-16T14:05:09Z</time>
      </trkpt>
      <trkpt lat="48.79592" lon="2.23423">
        <ele>112</ele>
        <time>2012-12-16T14:05:11Z</time>
      </trkpt>
      <trkpt lat="48.79597" lon="2.23417">
        <ele>113</ele>
        <time>2012-12-16T14:05:14Z</time>
      </trkpt>
      <trkpt lat="48.79602" lon="2.23409">
        <ele>113</ele>
        <time>2012-12-16T14:05:19Z</time>
      </trkpt>
      <trkpt lat="48.79605" lon="2.23402">
        <ele>114</ele>
        <time>2012-12-16T14:05:21Z</time>
      </trkpt>
      <trkpt lat="48.7961" lon="2.23397">
        <ele>114</ele>
        <time>2012-12-16T14:05:24Z</time>
      </trkpt>
      <trkpt lat="48.79614" lon="2.23392">
        <ele>114</ele>
        <time>2012-12-16T14:05:29Z</time>
      </trkpt>
      <trkpt lat="48.79618" lon="2.23383">
        <ele>114</ele>
        <time>2012-12-16T14:05:34Z</time>
      </trkpt>
      <trkpt lat="48.79623" lon="2.23379">
        <ele>114</ele>
        <time>2012-12-16T14:05:39Z</time>
      </trkpt>
      <trkpt lat="48.79627" lon="2.23376">
        <ele>114</ele>
        <time>2012-12-16T14:05:41Z</time>
      </trkpt>
      <trkpt lat="48.79633" lon="2.2337">
        <ele>114</ele>
        <time>2012-12-16T14:05:44Z</time>
      </trkpt>
      <trkpt lat="48.79637" lon="2.23365">
        <ele>114</ele>
        <time>2012-12-16T14:05:47Z</time>
      </trkpt>
      <trkpt lat="48.79641" lon="2.23361">
        <ele>114</ele>
        <time>2012-12-16T14:05:51Z</time>
      </trkpt>
      <trkpt lat="48.79645" lon="2.23357">
        <ele>114</ele>
        <time>2012-12-16T14:05:54Z</time>
      </trkpt>
      <trkpt lat="48.79649" lon="2.23353">
        <ele>114</ele>
        <time>2012-12-16T14:05:56Z</time>
      </trkpt>
      <trkpt lat="48.79654" lon="2.23347">
        <ele>114</ele>
        <time>2012-12-16T14:05:59Z</time>
      </trkpt>
      <trkpt lat="48.79658" lon="2.23343">
        <ele>115</ele>
        <time>2012-12-16T14:06:04Z</time>
      </trkpt>
      <trkpt lat="48.7966" lon="2.23336">
        <ele>115</ele>
        <time>2012-12-16T14:06:07Z</time>
      </trkpt>
      <trkpt lat="48.79668" lon="2.23325">
        <ele>115</ele>
        <time>2012-12-16T14:06:16Z</time>
      </trkpt>
      <trkpt lat="48.79672" lon="2.23318">
        <ele>116</ele>
        <time>2012-12-16T14:06:19Z</time>
      </trkpt>
      <trkpt lat="48.79677" lon="2.23312">
        <ele>116</ele>
        <time>2012-12-16T14:06:22Z</time>
      </trkpt>
      <trkpt lat="48.79688" lon="2.23306">
        <ele>116</ele>
        <time>2012-12-16T14:06:29Z</time>
      </trkpt>
      <trkpt lat="48.79692" lon="2.23297">
        <ele>116</ele>
        <time>2012-12-16T14:06:34Z</time>
      </trkpt>
      <trkpt lat="48.79697" lon="2.23291">
        <ele>116</ele>
        <time>2012-12-16T14:06:39Z</time>
      </trkpt>
      <trkpt lat="48.79701" lon="2.23286">
        <ele>117</ele>
        <time>2012-12-16T14:06:42Z</time>
      </trkpt>
      <trkpt lat="48.79706" lon="2.2328">
        <ele>117</ele>
        <time>2012-12-16T14:06:44Z</time>
      </trkpt>
      <trkpt lat="48.79711" lon="2.23275">
        <ele>117</ele>
        <time>2012-12-16T14:06:47Z</time>
      </trkpt>
      <trkpt lat="48.79716" lon="2.23272">
        <ele>117</ele>
        <time>2012-12-16T14:06:52Z</time>
      </trkpt>
      <trkpt lat="48.7972" lon="2.23266">
        <ele>117</ele>
        <time>2012-12-16T14:06:55Z</time>
      </trkpt>
      <trkpt lat="48.79726" lon="2.23261">
        <ele>117</ele>
        <time>2012-12-16T14:06:59Z</time>
      </trkpt>
      <trkpt lat="48.79733" lon="2.23258">
        <ele>117</ele>
        <time>2012-12-16T14:07:04Z</time>
      </trkpt>
      <trkpt lat="48.79738" lon="2.23252">
        <ele>117</ele>
        <time>2012-12-16T14:07:07Z</time>
      </trkpt>
      <trkpt lat="48.79744" lon="2.2324">
        <ele>119</ele>
        <time>2012-12-16T14:07:14Z</time>
      </trkpt>
      <trkpt lat="48.79748" lon="2.23236">
        <ele>119</ele>
        <time>2012-12-16T14:07:17Z</time>
      </trkpt>
      <trkpt lat="48.79753" lon="2.23232">
        <ele>118</ele>
        <time>2012-12-16T14:07:39Z</time>
      </trkpt>
      <trkpt lat="48.79758" lon="2.2323">
        <ele>118</ele>
        <time>2012-12-16T14:07:45Z</time>
      </trkpt>
      <trkpt lat="48.79763" lon="2.23236">
        <ele>118</ele>
        <time>2012-12-16T14:07:52Z</time>
      </trkpt>
      <trkpt lat="48.79768" lon="2.23238">
        <ele>118</ele>
        <time>2012-12-16T14:08:00Z</time>
      </trkpt>
      <trkpt lat="48.79768" lon="2.2323">
        <ele>119</ele>
        <time>2012-12-16T14:08:17Z</time>
      </trkpt>
      <trkpt lat="48.79763" lon="2.23235">
        <ele>118</ele>
        <time>2012-12-16T14:08:20Z</time>
      </trkpt>
      <trkpt lat="48.79758" lon="2.23237">
        <ele>118</ele>
        <time>2012-12-16T14:08:39Z</time>
      </trkpt>
      <trkpt lat="48.79754" lon="2.2323">
        <ele>118</ele>
        <time>2012-12-16T14:08:45Z</time>
      </trkpt>
      <trkpt lat="48.79754" lon="2.2322">
        <ele>119</ele>
        <time>2012-12-16T14:08:49Z</time>
      </trkpt>
      <trkpt lat="48.79753" lon="2.23213">
        <ele>119</ele>
        <time>2012-12-16T14:08:52Z</time>
      </trkpt>
      <trkpt lat="48.7975" lon="2.23207">
        <ele>121</ele>
        <time>2012-12-16T14:08:55Z</time>
      </trkpt>
      <trkpt lat="48.79746" lon="2.23198">
        <ele>121</ele>
        <time>2012-12-16T14:08:59Z</time>
      </trkpt>
      <trkpt lat="48.79746" lon="2.23187">
        <ele>122</ele>
        <time>2012-12-16T14:09:27Z</time>
      </trkpt>
      <trkpt lat="48.79749" lon="2.23181">
        <ele>123</ele>
        <time>2012-12-16T14:09:30Z</time>
      </trkpt>
      <trkpt lat="48.79752" lon="2.23171">
        <ele>123</ele>
        <time>2012-12-16T14:09:34Z</time>
      </trkpt>
      <trkpt lat="48.79754" lon="2.23164">
        <ele>124</ele>
        <time>2012-12-16T14:09:37Z</time>
      </trkpt>
      <trkpt lat="48.79755" lon="2.23155">
        <ele>124</ele>
        <time>2012-12-16T14:09:41Z</time>
      </trkpt>
      <trkpt lat="48.79757" lon="2.23148">
        <ele>124</ele>
        <time>2012-12-16T14:09:46Z</time>
      </trkpt>
      <trkpt lat="48.79758" lon="2.23141">
        <ele>125</ele>
        <time>2012-12-16T14:09:50Z</time>
      </trkpt>
      <trkpt lat="48.79762" lon="2.23133">
        <ele>125</ele>
        <time>2012-12-16T14:09:54Z</time>
      </trkpt>
      <trkpt lat="48.79765" lon="2.23126">
        <ele>125</ele>
        <time>2012-12-16T14:09:57Z</time>
      </trkpt>
      <trkpt lat="48.7977" lon="2.23122">
        <ele>125</ele>
        <time>2012-12-16T14:10:00Z</time>
      </trkpt>
      <trkpt lat="48.79772" lon="2.23113">
        <ele>125</ele>
        <time>2012-12-16T14:10:04Z</time>
      </trkpt>
      <trkpt lat="48.79774" lon="2.23107">
        <ele>126</ele>
        <time>2012-12-16T14:10:07Z</time>
      </trkpt>
      <trkpt lat="48.79777" lon="2.23101">
        <ele>126</ele>
        <time>2012-12-16T14:10:10Z</time>
      </trkpt>
      <trkpt lat="48.79779" lon="2.23092">
        <ele>126</ele>
        <time>2012-12-16T14:10:14Z</time>
      </trkpt>
      <trkpt lat="48.79781" lon="2.23081">
        <ele>130</ele>
        <time>2012-12-16T14:10:19Z</time>
      </trkpt>
      <trkpt lat="48.79779" lon="2.23074">
        <ele>130</ele>
        <time>2012-12-16T14:10:22Z</time>
      </trkpt>
      <trkpt lat="48.79777" lon="2.23065">
        <ele>131</ele>
        <time>2012-12-16T14:10:27Z</time>
      </trkpt>
      <trkpt lat="48.79776" lon="2.23058">
        <ele>131</ele>
        <time>2012-12-16T14:10:31Z</time>
      </trkpt>
      <trkpt lat="48.79778" lon="2.23049">
        <ele>131</ele>
        <time>2012-12-16T14:10:36Z</time>
      </trkpt>
      <trkpt lat="48.79777" lon="2.23042">
        <ele>131</ele>
        <time>2012-12-16T14:10:41Z</time>
      </trkpt>
      <trkpt lat="48.79777" lon="2.23034">
        <ele>132</ele>
        <time>2012-12-16T14:10:45Z</time>
      </trkpt>
      <trkpt lat="48.79774" lon="2.23025">
        <ele>132</ele>
        <time>2012-12-16T14:10:49Z</time>
      </trkpt>
      <trkpt lat="48.79772" lon="2.23017">
        <ele>132</ele>
        <time>2012-12-16T14:10:54Z</time>
      </trkpt>
      <trkpt lat="48.7977" lon="2.23008">
        <ele>132</ele>
        <time>2012-12-16T14:10:59Z</time>
      </trkpt>
      <trkpt lat="48.79768" lon="2.23001">
        <ele>132</ele>
        <time>2012-12-16T14:11:02Z</time>
      </trkpt>
      <trkpt lat="48.79764" lon="2.22995">
        <ele>135</ele>
        <time>2012-12-16T14:11:05Z</time>
      </trkpt>
      <trkpt lat="48.79763" lon="2.22988">
        <ele>135</ele>
        <time>2012-12-16T14:11:09Z</time>
      </trkpt>
      <trkpt lat="48.79761" lon="2.22978">
        <ele>135</ele>
        <time>2012-12-16T14:11:12Z</time>
      </trkpt>
      <trkpt lat="48.7976" lon="2.22971">
        <ele>136</ele>
        <time>2012-12-16T14:11:16Z</time>
      </trkpt>
      <trkpt lat="48.79761" lon="2.22963">
        <ele>136</ele>
        <time>2012-12-16T14:11:19Z</time>
      </trkpt>
      <trkpt lat="48.79759" lon="2.22954">
        <ele>136</ele>
        <time>2012-12-16T14:11:24Z</time>
      </trkpt>
      <trkpt lat="48.79755" lon="2.22942">
        <ele>136</ele>
        <time>2012-12-16T14:11:29Z</time>
      </trkpt>
      <trkpt lat="48.79752" lon="2.22928">
        <ele>134</ele>
        <time>2012-12-16T14:11:35Z</time>
      </trkpt>
      <trkpt lat="48.79751" lon="2.2292">
        <ele>133</ele>
        <time>2012-12-16T14:11:39Z</time>
      </trkpt>
      <trkpt lat="48.7975" lon="2.2291">
        <ele>134</ele>
        <time>2012-12-16T14:11:42Z</time>
      </trkpt>
      <trkpt lat="48.79749" lon="2.22903">
        <ele>132</ele>
        <time>2012-12-16T14:11:46Z</time>
      </trkpt>
      <trkpt lat="48.79748" lon="2.22896">
        <ele>131</ele>
        <time>2012-12-16T14:11:49Z</time>
      </trkpt>
      <trkpt lat="48.79747" lon="2.22889">
        <ele>131</ele>
        <time>2012-12-16T14:11:54Z</time>
      </trkpt>
      <trkpt lat="48.79746" lon="2.22874">
        <ele>131</ele>
        <time>2012-12-16T14:12:01Z</time>
      </trkpt>
      <trkpt lat="48.79744" lon="2.22868">
        <ele>131</ele>
        <time>2012-12-16T14:12:04Z</time>
      </trkpt>
      <trkpt lat="48.79742" lon="2.2286">
        <ele>132</ele>
        <time>2012-12-16T14:12:09Z</time>
      </trkpt>
      <trkpt lat="48.79741" lon="2.2285">
        <ele>132</ele>
        <time>2012-12-16T14:12:12Z</time>
      </trkpt>
      <trkpt lat="48.79739" lon="2.22844">
        <ele>132</ele>
        <time>2012-12-16T14:12:15Z</time>
      </trkpt>
      <trkpt lat="48.79738" lon="2.22835">
        <ele>132</ele>
        <time>2012-12-16T14:12:19Z</time>
      </trkpt>
      <trkpt lat="48.79738" lon="2.22828">
        <ele>133</ele>
        <time>2012-12-16T14:12:22Z</time>
      </trkpt>
      <trkpt lat="48.79739" lon="2.22821">
        <ele>133</ele>
        <time>2012-12-16T14:12:26Z</time>
      </trkpt>
      <trkpt lat="48.79739" lon="2.22813">
        <ele>133</ele>
        <time>2012-12-16T14:12:29Z</time>
      </trkpt>
      <trkpt lat="48.79741" lon="2.22804">
        <ele>133</ele>
        <time>2012-12-16T14:12:35Z</time>
      </trkpt>
      <trkpt lat="48.79742" lon="2.22796">
        <ele>133</ele>
        <time>2012-12-16T14:12:39Z</time>
      </trkpt>
      <trkpt lat="48.79744" lon="2.22789">
        <ele>133</ele>
        <time>2012-12-16T14:12:42Z</time>
      </trkpt>
      <trkpt lat="48.79745" lon="2.22782">
        <ele>133</ele>
        <time>2012-12-16T14:12:46Z</time>
      </trkpt>
      <trkpt lat="48.7975" lon="2.22776">
        <ele>134</ele>
        <time>2012-12-16T14:12:50Z</time>
      </trkpt>
      <trkpt lat="48.79752" lon="2.2277">
        <ele>139</ele>
        <time>2012-12-16T14:12:54Z</time>
      </trkpt>
      <trkpt lat="48.79753" lon="2.22762">
        <ele>139</ele>
        <time>2012-12-16T14:12:57Z</time>
      </trkpt>
      <trkpt lat="48.79753" lon="2.22754">
        <ele>137</ele>
        <time>2012-12-16T14:13:04Z</time>
      </trkpt>
      <trkpt lat="48.79751" lon="2.22745">
        <ele>137</ele>
        <time>2012-12-16T14:13:09Z</time>
      </trkpt>
      <trkpt lat="48.79751" lon="2.22736">
        <ele>139</ele>
        <time>2012-12-16T14:13:14Z</time>
      </trkpt>
      <trkpt lat="48.79753" lon="2.22729">
        <ele>140</ele>
        <time>2012-12-16T14:13:17Z</time>
      </trkpt>
      <trkpt lat="48.79755" lon="2.22723">
        <ele>140</ele>
        <time>2012-12-16T14:13:22Z</time>
      </trkpt>
      <trkpt lat="48.79755" lon="2.22715">
        <ele>140</ele>
        <time>2012-12-16T14:13:26Z</time>
      </trkpt>
      <trkpt lat="48.79757" lon="2.22707">
        <ele>140</ele>
        <time>2012-12-16T14:13:31Z</time>
      </trkpt>
      <trkpt lat="48.7976" lon="2.22701">
        <ele>140</ele>
        <time>2012-12-16T14:13:34Z</time>
      </trkpt>
      <trkpt lat="48.79761" lon="2.22693">
        <ele>140</ele>
        <time>2012-12-16T14:13:39Z</time>
      </trkpt>
      <trkpt lat="48.79764" lon="2.22686">
        <ele>140</ele>
        <time>2012-12-16T14:13:44Z</time>
      </trkpt>
      <trkpt lat="48.79766" lon="2.22677">
        <ele>139</ele>
        <time>2012-12-16T14:13:47Z</time>
      </trkpt>
      <trkpt lat="48.79768" lon="2.22666">
        <ele>139</ele>
        <time>2012-12-16T14:13:54Z</time>
      </trkpt>
      <trkpt lat="48.79768" lon="2.22658">
        <ele>139</ele>
        <time>2012-12-16T14:13:57Z</time>
      </trkpt>
      <trkpt lat="48.79768" lon="2.2265">
        <ele>140</ele>
        <time>2012-12-16T14:14:02Z</time>
      </trkpt>
      <trkpt lat="48.79767" lon="2.22642">
        <ele>140</ele>
        <time>2012-12-16T14:14:05Z</time>
      </trkpt>
      <trkpt lat="48.79765" lon="2.22634">
        <ele>141</ele>
        <time>2012-12-16T14:14:09Z</time>
      </trkpt>
      <trkpt lat="48.79764" lon="2.2262">
        <ele>141</ele>
        <time>2012-12-16T14:14:17Z</time>
      </trkpt>
      <trkpt lat="48.79765" lon="2.2261">
        <ele>141</ele>
        <time>2012-12-16T14:14:21Z</time>
      </trkpt>
      <trkpt lat="48.79765" lon="2.22601">
        <ele>140</ele>
        <time>2012-12-16T14:14:24Z</time>
      </trkpt>
      <trkpt lat="48.79767" lon="2.22591">
        <ele>140</ele>
        <time>2012-12-16T14:14:29Z</time>
      </trkpt>
      <trkpt lat="48.79768" lon="2.22584">
        <ele>140</ele>
        <time>2012-12-16T14:14:34Z</time>
      </trkpt>
      <trkpt lat="48.7977" lon="2.22577">
        <ele>142</ele>
        <time>2012-12-16T14:14:39Z</time>
      </trkpt>
      <trkpt lat="48.79771" lon="2.22567">
        <ele>142</ele>
        <time>2012-12-16T14:14:44Z</time>
      </trkpt>
      <trkpt lat="48.79771" lon="2.22557">
        <ele>143</ele>
        <time>2012-12-16T14:14:47Z</time>
      </trkpt>
      <trkpt lat="48.79772" lon="2.2255">
        <ele>143</ele>
        <time>2012-12-16T14:14:49Z</time>
      </trkpt>
      <trkpt lat="48.79773" lon="2.22542">
        <ele>143</ele>
        <time>2012-12-16T14:14:52Z</time>
      </trkpt>
      <trkpt lat="48.79773" lon="2.22534">
        <ele>144</ele>
        <time>2012-12-16T14:14:56Z</time>
      </trkpt>
      <trkpt lat="48.79774" lon="2.22527">
        <ele>144</ele>
        <time>2012-12-16T14:14:59Z</time>
      </trkpt>
      <trkpt lat="48.79775" lon="2.22518">
        <ele>144</ele>
        <time>2012-12-16T14:15:04Z</time>
      </trkpt>
      <trkpt lat="48.79775" lon="2.22509">
        <ele>144</ele>
        <time>2012-12-16T14:15:09Z</time>
      </trkpt>
      <trkpt lat="48.79773" lon="2.22501">
        <ele>143</ele>
        <time>2012-12-16T14:15:14Z</time>
      </trkpt>
      <trkpt lat="48.79772" lon="2.22493">
        <ele>146</ele>
        <time>2012-12-16T14:15:17Z</time>
      </trkpt>
      <trkpt lat="48.7977" lon="2.22486">
        <ele>146</ele>
        <time>2012-12-16T14:15:21Z</time>
      </trkpt>
      <trkpt lat="48.79767" lon="2.22481">
        <ele>146</ele>
        <time>2012-12-16T14:15:25Z</time>
      </trkpt>
      <trkpt lat="48.79763" lon="2.22475">
        <ele>146</ele>
        <time>2012-12-16T14:15:29Z</time>
      </trkpt>
      <trkpt lat="48.79763" lon="2.22467">
        <ele>147</ele>
        <time>2012-12-16T14:15:32Z</time>
      </trkpt>
      <trkpt lat="48.79765" lon="2.2246">
        <ele>147</ele>
        <time>2012-12-16T14:15:36Z</time>
      </trkpt>
      <trkpt lat="48.79766" lon="2.22444">
        <ele>148</ele>
        <time>2012-12-16T14:15:44Z</time>
      </trkpt>
      <trkpt lat="48.7977" lon="2.22438">
        <ele>148</ele>
        <time>2012-12-16T14:15:47Z</time>
      </trkpt>
      <trkpt lat="48.7977" lon="2.22429">
        <ele>148</ele>
        <time>2012-12-16T14:15:51Z</time>
      </trkpt>
      <trkpt lat="48.79771" lon="2.2242">
        <ele>148</ele>
        <time>2012-12-16T14:15:55Z</time>
      </trkpt>
      <trkpt lat="48.79773" lon="2.22413">
        <ele>151</ele>
        <time>2012-12-16T14:15:59Z</time>
      </trkpt>
      <trkpt lat="48.79774" lon="2.22405">
        <ele>152</ele>
        <time>2012-12-16T14:16:04Z</time>
      </trkpt>
      <trkpt lat="48.79772" lon="2.22397">
        <ele>152</ele>
        <time>2012-12-16T14:16:07Z</time>
      </trkpt>
      <trkpt lat="48.7977" lon="2.22391">
        <ele>152</ele>
        <time>2012-12-16T14:16:12Z</time>
      </trkpt>
      <trkpt lat="48.79768" lon="2.22385">
        <ele>153</ele>
        <time>2012-12-16T14:16:16Z</time>
      </trkpt>
      <trkpt lat="48.79766" lon="2.22377">
        <ele>153</ele>
        <time>2012-12-16T14:16:19Z</time>
      </trkpt>
      <trkpt lat="48.79765" lon="2.2237">
        <ele>154</ele>
        <time>2012-12-16T14:16:24Z</time>
      </trkpt>
      <trkpt lat="48.79761" lon="2.22363">
        <ele>154</ele>
        <time>2012-12-16T14:16:27Z</time>
      </trkpt>
      <trkpt lat="48.79757" lon="2.22358">
        <ele>154</ele>
        <time>2012-12-16T14:16:30Z</time>
      </trkpt>
      <trkpt lat="48.79753" lon="2.22352">
        <ele>154</ele>
        <time>2012-12-16T14:16:37Z</time>
      </trkpt>
      <trkpt lat="48.79748" lon="2.22347">
        <ele>154</ele>
        <time>2012-12-16T14:16:40Z</time>
      </trkpt>
      <trkpt lat="48.79744" lon="2.2234">
        <ele>154</ele>
        <time>2012-12-16T14:16:44Z</time>
      </trkpt>
      <trkpt lat="48.79742" lon="2.22332">
        <ele>157</ele>
        <time>2012-12-16T14:16:47Z</time>
      </trkpt>
      <trkpt lat="48.7974" lon="2.22324">
        <ele>157</ele>
        <time>2012-12-16T14:16:50Z</time>
      </trkpt>
      <trkpt lat="48.7974" lon="2.22315">
        <ele>158</ele>
        <time>2012-12-16T14:16:55Z</time>
      </trkpt>
      <trkpt lat="48.79739" lon="2.22305">
        <ele>159</ele>
        <time>2012-12-16T14:16:59Z</time>
      </trkpt>
      <trkpt lat="48.79738" lon="2.22298">
        <ele>160</ele>
        <time>2012-12-16T14:17:04Z</time>
      </trkpt>
      <trkpt lat="48.79734" lon="2.22289">
        <ele>160</ele>
        <time>2012-12-16T14:17:09Z</time>
      </trkpt>
      <trkpt lat="48.79735" lon="2.2228">
        <ele>161</ele>
        <time>2012-12-16T14:17:14Z</time>
      </trkpt>
      <trkpt lat="48.79736" lon="2.22269">
        <ele>161</ele>
        <time>2012-12-16T14:17:19Z</time>
      </trkpt>
      <trkpt lat="48.79735" lon="2.22261">
        <ele>161</ele>
        <time>2012-12-16T14:17:24Z</time>
      </trkpt>
      <trkpt lat="48.79732" lon="2.22252">
        <ele>161</ele>
        <time>2012-12-16T14:17:29Z</time>
      </trkpt>
      <trkpt lat="48.7973" lon="2.22245">
        <ele>163</ele>
        <time>2012-12-16T14:17:32Z</time>
      </trkpt>
      <trkpt lat="48.79729" lon="2.22238">
        <ele>163</ele>
        <time>2012-12-16T14:17:36Z</time>
      </trkpt>
      <trkpt lat="48.79728" lon="2.22231">
        <ele>163</ele>
        <time>2012-12-16T14:17:39Z</time>
      </trkpt>
      <trkpt lat="48.79725" lon="2.22225">
        <ele>163</ele>
        <time>2012-12-16T14:17:42Z</time>
      </trkpt>
      <trkpt lat="48.79721" lon="2.22219">
        <ele>163</ele>
        <time>2012-12-16T14:17:46Z</time>
      </trkpt>
      <trkpt lat="48.79719" lon="2.22213">
        <ele>163</ele>
        <time>2012-12-16T14:17:49Z</time>
      </trkpt>
      <trkpt lat="48.79718" lon="2.22202">
        <ele>163</ele>
        <time>2012-12-16T14:17:54Z</time>
      </trkpt>
      <trkpt lat="48.79721" lon="2.22195">
        <ele>163</ele>
        <time>2012-12-16T14:18:04Z</time>
      </trkpt>
      <trkpt lat="48.79726" lon="2.22195">
        <ele>163</ele>
        <time>2012-12-16T14:18:17Z</time>
      </trkpt>
      <trkpt lat="48.79727" lon="2.22194">
        <ele>163</ele>
        <time>2012-12-16T14:22:39Z</time>
      </trkpt>
      <trkpt lat="48.79728" lon="2.22185">
        <ele>163</ele>
        <time>2012-12-16T14:22:44Z</time>
      </trkpt>
      <trkpt lat="48.79728" lon="2.22176">
        <ele>163</ele>
        <time>2012-12-16T14:22:47Z</time>
      </trkpt>
      <trkpt lat="48.79728" lon="2.22166">
        <ele>162</ele>
        <time>2012-12-16T14:22:54Z</time>
      </trkpt>
      <trkpt lat="48.79729" lon="2.22159">
        <ele>162</ele>
        <time>2012-12-16T14:22:57Z</time>
      </trkpt>
      <trkpt lat="48.79731" lon="2.2215">
        <ele>162</ele>
        <time>2012-12-16T14:23:02Z</time>
      </trkpt>
      <trkpt lat="48.79732" lon="2.22142">
        <ele>162</ele>
        <time>2012-12-16T14:23:05Z</time>
      </trkpt>
      <trkpt lat="48.79734" lon="2.22135">
        <ele>162</ele>
        <time>2012-12-16T14:23:09Z</time>
      </trkpt>
      <trkpt lat="48.79736" lon="2.22126">
        <ele>162</ele>
        <time>2012-12-16T14:23:14Z</time>
      </trkpt>
      <trkpt lat="48.79737" lon="2.22117">
        <ele>162</ele>
        <time>2012-12-16T14:23:19Z</time>
      </trkpt>
      <trkpt lat="48.79739" lon="2.2211">
        <ele>161</ele>
        <time>2012-12-16T14:23:22Z</time>
      </trkpt>
      <trkpt lat="48.7974" lon="2.22104">
        <ele>161</ele>
        <time>2012-12-16T14:23:26Z</time>
      </trkpt>
      <trkpt lat="48.79739" lon="2.22096">
        <ele>160</ele>
        <time>2012-12-16T14:23:29Z</time>
      </trkpt>
      <trkpt lat="48.79739" lon="2.22088">
        <ele>159</ele>
        <time>2012-12-16T14:23:34Z</time>
      </trkpt>
      <trkpt lat="48.79741" lon="2.2208">
        <ele>159</ele>
        <time>2012-12-16T14:23:37Z</time>
      </trkpt>
      <trkpt lat="48.79742" lon="2.22072">
        <ele>160</ele>
        <time>2012-12-16T14:23:40Z</time>
      </trkpt>
      <trkpt lat="48.79744" lon="2.22062">
        <ele>161</ele>
        <time>2012-12-16T14:23:44Z</time>
      </trkpt>
      <trkpt lat="48.79745" lon="2.22052">
        <ele>161</ele>
        <time>2012-12-16T14:23:49Z</time>
      </trkpt>
      <trkpt lat="48.79747" lon="2.22045">
        <ele>162</ele>
        <time>2012-12-16T14:23:51Z</time>
      </trkpt>
      <trkpt lat="48.79749" lon="2.22036">
        <ele>162</ele>
        <time>2012-12-16T14:23:54Z</time>
      </trkpt>
      <trkpt lat="48.79752" lon="2.2203">
        <ele>160</ele>
        <time>2012-12-16T14:24:00Z</time>
      </trkpt>
      <trkpt lat="48.79755" lon="2.22022">
        <ele>160</ele>
        <time>2012-12-16T14:24:04Z</time>
      </trkpt>
      <trkpt lat="48.79759" lon="2.22014">
        <ele>160</ele>
        <time>2012-12-16T14:24:07Z</time>
      </trkpt>
      <trkpt lat="48.79763" lon="2.22">
        <ele>161</ele>
        <time>2012-12-16T14:24:16Z</time>
      </trkpt>
      <trkpt lat="48.79765" lon="2.21991">
        <ele>161</ele>
        <time>2012-12-16T14:24:19Z</time>
      </trkpt>
      <trkpt lat="48.79767" lon="2.21984">
        <ele>162</ele>
        <time>2012-12-16T14:24:21Z</time>
      </trkpt>
      <trkpt lat="48.7977" lon="2.21975">
        <ele>162</ele>
        <time>2012-12-16T14:24:24Z</time>
      </trkpt>
      <trkpt lat="48.7977" lon="2.21968">
        <ele>162</ele>
        <time>2012-12-16T14:24:30Z</time>
      </trkpt>
      <trkpt lat="48.79773" lon="2.21962">
        <ele>162</ele>
        <time>2012-12-16T14:24:34Z</time>
      </trkpt>
      <trkpt lat="48.79776" lon="2.21952">
        <ele>163</ele>
        <time>2012-12-16T14:24:37Z</time>
      </trkpt>
      <trkpt lat="48.79779" lon="2.21939">
        <ele>163</ele>
        <time>2012-12-16T14:24:42Z</time>
      </trkpt>
      <trkpt lat="48.79782" lon="2.21931">
        <ele>163</ele>
        <time>2012-12-16T14:24:49Z</time>
      </trkpt>
      <trkpt lat="48.79785" lon="2.21924">
        <ele>163</ele>
        <time>2012-12-16T14:24:52Z</time>
      </trkpt>
      <trkpt lat="48.79788" lon="2.21909">
        <ele>164</ele>
        <time>2012-12-16T14:24:59Z</time>
      </trkpt>
      <trkpt lat="48.79793" lon="2.21901">
        <ele>164</ele>
        <time>2012-12-16T14:25:04Z</time>
      </trkpt>
      <trkpt lat="48.79795" lon="2.21894">
        <ele>164</ele>
        <time>2012-12-16T14:25:09Z</time>
      </trkpt>
      <trkpt lat="48.79799" lon="2.21886">
        <ele>165</ele>
        <time>2012-12-16T14:25:14Z</time>
      </trkpt>
      <trkpt lat="48.79799" lon="2.21874">
        <ele>165</ele>
        <time>2012-12-16T14:25:19Z</time>
      </trkpt>
      <trkpt lat="48.79793" lon="2.21868">
        <ele>165</ele>
        <time>2012-12-16T14:25:24Z</time>
      </trkpt>
      <trkpt lat="48.79789" lon="2.21863">
        <ele>165</ele>
        <time>2012-12-16T14:25:29Z</time>
      </trkpt>
      <trkpt lat="48.79785" lon="2.21858">
        <ele>165</ele>
        <time>2012-12-16T14:25:34Z</time>
      </trkpt>
      <trkpt lat="48.79783" lon="2.2185">
        <ele>165</ele>
        <time>2012-12-16T14:25:37Z</time>
      </trkpt>
      <trkpt lat="48.79787" lon="2.21845">
        <ele>165</ele>
        <time>2012-12-16T14:25:41Z</time>
      </trkpt>
      <trkpt lat="48.79792" lon="2.21841">
        <ele>165</ele>
        <time>2012-12-16T14:25:46Z</time>
      </trkpt>
      <trkpt lat="48.79797" lon="2.21834">
        <ele>165</ele>
        <time>2012-12-16T14:25:49Z</time>
      </trkpt>
      <trkpt lat="48.79799" lon="2.21826">
        <ele>167</ele>
        <time>2012-12-16T14:25:54Z</time>
      </trkpt>
      <trkpt lat="48.79802" lon="2.2182">
        <ele>167</ele>
        <time>2012-12-16T14:25:57Z</time>
      </trkpt>
      <trkpt lat="48.79804" lon="2.21813">
        <ele>167</ele>
        <time>2012-12-16T14:26:02Z</time>
      </trkpt>
      <trkpt lat="48.79806" lon="2.21806">
        <ele>167</ele>
        <time>2012-12-16T14:26:07Z</time>
      </trkpt>
      <trkpt lat="48.79809" lon="2.2179">
        <ele>168</ele>
        <time>2012-12-16T14:26:15Z</time>
      </trkpt>
      <trkpt lat="48.79809" lon="2.21781">
        <ele>168</ele>
        <time>2012-12-16T14:26:19Z</time>
      </trkpt>
      <trkpt lat="48.79808" lon="2.2177">
        <ele>168</ele>
        <time>2012-12-16T14:26:24Z</time>
      </trkpt>
      <trkpt lat="48.7981" lon="2.21761">
        <ele>168</ele>
        <time>2012-12-16T14:26:27Z</time>
      </trkpt>
      <trkpt lat="48.7981" lon="2.21754">
        <ele>168</ele>
        <time>2012-12-16T14:26:30Z</time>
      </trkpt>
      <trkpt lat="48.79811" lon="2.21746">
        <ele>169</ele>
        <time>2012-12-16T14:26:35Z</time>
      </trkpt>
      <trkpt lat="48.7981" lon="2.21735">
        <ele>169</ele>
        <time>2012-12-16T14:26:39Z</time>
      </trkpt>
      <trkpt lat="48.7981" lon="2.21727">
        <ele>169</ele>
        <time>2012-12-16T14:26:42Z</time>
      </trkpt>
      <trkpt lat="48.79813" lon="2.2172">
        <ele>169</ele>
        <time>2012-12-16T14:26:47Z</time>
      </trkpt>
      <trkpt lat="48.79816" lon="2.21713">
        <ele>169</ele>
        <time>2012-12-16T14:26:50Z</time>
      </trkpt>
      <trkpt lat="48.79818" lon="2.21703">
        <ele>169</ele>
        <time>2012-12-16T14:26:54Z</time>
      </trkpt>
      <trkpt lat="48.79819" lon="2.21688">
        <ele>169</ele>
        <time>2012-12-16T14:27:04Z</time>
      </trkpt>
      <trkpt lat="48.79822" lon="2.21681">
        <ele>169</ele>
        <time>2012-12-16T14:27:06Z</time>
      </trkpt>
      <trkpt lat="48.79824" lon="2.21671">
        <ele>169</ele>
        <time>2012-12-16T14:27:09Z</time>
      </trkpt>
      <trkpt lat="48.79823" lon="2.21662">
        <ele>170</ele>
        <time>2012-12-16T14:27:14Z</time>
      </trkpt>
      <trkpt lat="48.79823" lon="2.21655">
        <ele>170</ele>
        <time>2012-12-16T14:27:16Z</time>
      </trkpt>
      <trkpt lat="48.79819" lon="2.21644">
        <ele>171</ele>
        <time>2012-12-16T14:27:19Z</time>
      </trkpt>
      <trkpt lat="48.79821" lon="2.21637">
        <ele>171</ele>
        <time>2012-12-16T14:27:21Z</time>
      </trkpt>
      <trkpt lat="48.79824" lon="2.21632">
        <ele>171</ele>
        <time>2012-12-16T14:27:25Z</time>
      </trkpt>
      <trkpt lat="48.79827" lon="2.21624">
        <ele>171</ele>
        <time>2012-12-16T14:27:29Z</time>
      </trkpt>
      <trkpt lat="48.79829" lon="2.21618">
        <ele>172</ele>
        <time>2012-12-16T14:27:32Z</time>
      </trkpt>
      <trkpt lat="48.79828" lon="2.2161">
        <ele>172</ele>
        <time>2012-12-16T14:27:37Z</time>
      </trkpt>
      <trkpt lat="48.7983" lon="2.216">
        <ele>172</ele>
        <time>2012-12-16T14:27:40Z</time>
      </trkpt>
      <trkpt lat="48.79836" lon="2.21593">
        <ele>172</ele>
        <time>2012-12-16T14:27:44Z</time>
      </trkpt>
      <trkpt lat="48.79838" lon="2.21581">
        <ele>172</ele>
        <time>2012-12-16T14:27:49Z</time>
      </trkpt>
      <trkpt lat="48.7984" lon="2.21574">
        <ele>173</ele>
        <time>2012-12-16T14:27:52Z</time>
      </trkpt>
      <trkpt lat="48.79844" lon="2.21567">
        <ele>173</ele>
        <time>2012-12-16T14:27:57Z</time>
      </trkpt>
      <trkpt lat="48.79846" lon="2.21561">
        <ele>174</ele>
        <time>2012-12-16T14:28:00Z</time>
      </trkpt>
      <trkpt lat="48.79845" lon="2.21551">
        <ele>174</ele>
        <time>2012-12-16T14:28:05Z</time>
      </trkpt>
      <trkpt lat="48.79848" lon="2.21542">
        <ele>175</ele>
        <time>2012-12-16T14:28:09Z</time>
      </trkpt>
      <trkpt lat="48.79851" lon="2.21532">
        <ele>175</ele>
        <time>2012-12-16T14:28:14Z</time>
      </trkpt>
      <trkpt lat="48.79852" lon="2.21525">
        <ele>176</ele>
        <time>2012-12-16T14:28:17Z</time>
      </trkpt>
      <trkpt lat="48.79855" lon="2.21519">
        <ele>176</ele>
        <time>2012-12-16T14:28:22Z</time>
      </trkpt>
      <trkpt lat="48.79858" lon="2.21513">
        <ele>176</ele>
        <time>2012-12-16T14:28:25Z</time>
      </trkpt>
      <trkpt lat="48.79861" lon="2.21508">
        <ele>176</ele>
        <time>2012-12-16T14:28:29Z</time>
      </trkpt>
      <trkpt lat="48.79865" lon="2.21501">
        <ele>176</ele>
        <time>2012-12-16T14:28:32Z</time>
      </trkpt>
      <trkpt lat="48.79865" lon="2.21493">
        <ele>179</ele>
        <time>2012-12-16T14:28:36Z</time>
      </trkpt>
      <trkpt lat="48.79868" lon="2.21483">
        <ele>179</ele>
        <time>2012-12-16T14:28:39Z</time>
      </trkpt>
      <trkpt lat="48.79869" lon="2.21475">
        <ele>179</ele>
        <time>2012-12-16T14:28:44Z</time>
      </trkpt>
      <trkpt lat="48.79868" lon="2.21467">
        <ele>179</ele>
        <time>2012-12-16T14:28:47Z</time>
      </trkpt>
      <trkpt lat="48.79865" lon="2.21456">
        <ele>179</ele>
        <time>2012-12-16T14:28:54Z</time>
      </trkpt>
      <trkpt lat="48.79861" lon="2.21451">
        <ele>179</ele>
        <time>2012-12-16T14:28:56Z</time>
      </trkpt>
      <trkpt lat="48.79856" lon="2.21449">
        <ele>179</ele>
        <time>2012-12-16T14:29:01Z</time>
      </trkpt>
      <trkpt lat="48.7985" lon="2.21442">
        <ele>180</ele>
        <time>2012-12-16T14:29:04Z</time>
      </trkpt>
      <trkpt lat="48.79846" lon="2.21438">
        <ele>180</ele>
        <time>2012-12-16T14:29:06Z</time>
      </trkpt>
      <trkpt lat="48.79842" lon="2.21434">
        <ele>180</ele>
        <time>2012-12-16T14:29:10Z</time>
      </trkpt>
      <trkpt lat="48.79832" lon="2.21426">
        <ele>181</ele>
        <time>2012-12-16T14:29:19Z</time>
      </trkpt>
      <trkpt lat="48.79827" lon="2.21423">
        <ele>181</ele>
        <time>2012-12-16T14:29:24Z</time>
      </trkpt>
      <trkpt lat="48.79823" lon="2.2142">
        <ele>181</ele>
        <time>2012-12-16T14:29:27Z</time>
      </trkpt>
      <trkpt lat="48.79818" lon="2.21417">
        <ele>181</ele>
        <time>2012-12-16T14:29:32Z</time>
      </trkpt>
      <trkpt lat="48.79813" lon="2.21415">
        <ele>182</ele>
        <time>2012-12-16T14:29:36Z</time>
      </trkpt>
      <trkpt lat="48.79808" lon="2.21411">
        <ele>182</ele>
        <time>2012-12-16T14:29:40Z</time>
      </trkpt>
      <trkpt lat="48.79804" lon="2.21405">
        <ele>182</ele>
        <time>2012-12-16T14:29:44Z</time>
      </trkpt>
      <trkpt lat="48.798" lon="2.21398">
        <ele>182</ele>
        <time>2012-12-16T14:29:49Z</time>
      </trkpt>
      <trkpt lat="48.79794" lon="2.21392">
        <ele>182</ele>
        <time>2012-12-16T14:29:54Z</time>
      </trkpt>
      <trkpt lat="48.79789" lon="2.21388">
        <ele>182</ele>
        <time>2012-12-16T14:29:59Z</time>
      </trkpt>
      <trkpt lat="48.79784" lon="2.21384">
        <ele>182</ele>
        <time>2012-12-16T14:30:04Z</time>
      </trkpt>
      <trkpt lat="48.79779" lon="2.21381">
        <ele>182</ele>
        <time>2012-12-16T14:30:09Z</time>
      </trkpt>
      <trkpt lat="48.79775" lon="2.21377">
        <ele>182</ele>
        <time>2012-12-16T14:30:14Z</time>
      </trkpt>
      <trkpt lat="48.7977" lon="2.21371">
        <ele>182</ele>
        <time>2012-12-16T14:30:19Z</time>
      </trkpt>
      <trkpt lat="48.79765" lon="2.21365">
        <ele>182</ele>
        <time>2012-12-16T14:30:24Z</time>
      </trkpt>
      <trkpt lat="48.7976" lon="2.21361">
        <ele>182</ele>
        <time>2012-12-16T14:30:27Z</time>
      </trkpt>
      <trkpt lat="48.79756" lon="2.21357">
        <ele>183</ele>
        <time>2012-12-16T14:30:31Z</time>
      </trkpt>
      <trkpt lat="48.79751" lon="2.21351">
        <ele>183</ele>
        <time>2012-12-16T14:30:34Z</time>
      </trkpt>
      <trkpt lat="48.79747" lon="2.21346">
        <ele>181</ele>
        <time>2012-12-16T14:30:37Z</time>
      </trkpt>
      <trkpt lat="48.79744" lon="2.21341">
        <ele>182</ele>
        <time>2012-12-16T14:30:40Z</time>
      </trkpt>
      <trkpt lat="48.79739" lon="2.21337">
        <ele>181</ele>
        <time>2012-12-16T14:30:44Z</time>
      </trkpt>
      <trkpt lat="48.79736" lon="2.21333">
        <ele>182</ele>
        <time>2012-12-16T14:30:46Z</time>
      </trkpt>
      <trkpt lat="48.79731" lon="2.21328">
        <ele>182</ele>
        <time>2012-12-16T14:30:49Z</time>
      </trkpt>
      <trkpt lat="48.79727" lon="2.21322">
        <ele>182</ele>
        <time>2012-12-16T14:30:55Z</time>
      </trkpt>
      <trkpt lat="48.79722" lon="2.21317">
        <ele>181</ele>
        <time>2012-12-16T14:30:59Z</time>
      </trkpt>
      <trkpt lat="48.79717" lon="2.21312">
        <ele>181</ele>
        <time>2012-12-16T14:31:02Z</time>
      </trkpt>
      <trkpt lat="48.79713" lon="2.21307">
        <ele>181</ele>
        <time>2012-12-16T14:31:06Z</time>
      </trkpt>
      <trkpt lat="48.79709" lon="2.21304">
        <ele>181</ele>
        <time>2012-12-16T14:31:10Z</time>
      </trkpt>
      <trkpt lat="48.79702" lon="2.21297">
        <ele>181</ele>
        <time>2012-12-16T14:31:14Z</time>
      </trkpt>
      <trkpt lat="48.79693" lon="2.21289">
        <ele>181</ele>
        <time>2012-12-16T14:31:22Z</time>
      </trkpt>
      <trkpt lat="48.79689" lon="2.21283">
        <ele>180</ele>
        <time>2012-12-16T14:31:25Z</time>
      </trkpt>
      <trkpt lat="48.79685" lon="2.21277">
        <ele>180</ele>
        <time>2012-12-16T14:31:29Z</time>
      </trkpt>
      <trkpt lat="48.7968" lon="2.21273">
        <ele>180</ele>
        <time>2012-12-16T14:31:34Z</time>
      </trkpt>
      <trkpt lat="48.79676" lon="2.21269">
        <ele>180</ele>
        <time>2012-12-16T14:31:37Z</time>
      </trkpt>
      <trkpt lat="48.79671" lon="2.21264">
        <ele>180</ele>
        <time>2012-12-16T14:31:40Z</time>
      </trkpt>
      <trkpt lat="48.79665" lon="2.21262">
        <ele>179</ele>
        <time>2012-12-16T14:31:44Z</time>
      </trkpt>
      <trkpt lat="48.7966" lon="2.21258">
        <ele>179</ele>
        <time>2012-12-16T14:31:49Z</time>
      </trkpt>
      <trkpt lat="48.79655" lon="2.21255">
        <ele>179</ele>
        <time>2012-12-16T14:31:52Z</time>
      </trkpt>
      <trkpt lat="48.7965" lon="2.21249">
        <ele>178</ele>
        <time>2012-12-16T14:31:56Z</time>
      </trkpt>
      <trkpt lat="48.79647" lon="2.21244">
        <ele>178</ele>
        <time>2012-12-16T14:32:02Z</time>
      </trkpt>
      <trkpt lat="48.79642" lon="2.21245">
        <ele>178</ele>
        <time>2012-12-16T14:32:06Z</time>
      </trkpt>
      <trkpt lat="48.79636" lon="2.21241">
        <ele>178</ele>
        <time>2012-12-16T14:32:10Z</time>
      </trkpt>
      <trkpt lat="48.79634" lon="2.21234">
        <ele>178</ele>
        <time>2012-12-16T14:32:14Z</time>
      </trkpt>
      <trkpt lat="48.79625" lon="2.21228">
        <ele>178</ele>
        <time>2012-12-16T14:32:20Z</time>
      </trkpt>
      <trkpt lat="48.79619" lon="2.21224">
        <ele>178</ele>
        <time>2012-12-16T14:32:24Z</time>
      </trkpt>
      <trkpt lat="48.79614" lon="2.2122">
        <ele>177</ele>
        <time>2012-12-16T14:32:29Z</time>
      </trkpt>
      <trkpt lat="48.7961" lon="2.21215">
        <ele>177</ele>
        <time>2012-12-16T14:32:34Z</time>
      </trkpt>
      <trkpt lat="48.79605" lon="2.2121">
        <ele>177</ele>
        <time>2012-12-16T14:32:37Z</time>
      </trkpt>
      <trkpt lat="48.796" lon="2.21204">
        <ele>177</ele>
        <time>2012-12-16T14:32:44Z</time>
      </trkpt>
      <trkpt lat="48.79595" lon="2.21198">
        <ele>177</ele>
        <time>2012-12-16T14:32:49Z</time>
      </trkpt>
      <trkpt lat="48.7959" lon="2.21194">
        <ele>177</ele>
        <time>2012-12-16T14:32:54Z</time>
      </trkpt>
      <trkpt lat="48.79585" lon="2.21187">
        <ele>176</ele>
        <time>2012-12-16T14:32:59Z</time>
      </trkpt>
      <trkpt lat="48.79581" lon="2.21183">
        <ele>176</ele>
        <time>2012-12-16T14:33:02Z</time>
      </trkpt>
      <trkpt lat="48.79576" lon="2.21178">
        <ele>176</ele>
        <time>2012-12-16T14:33:05Z</time>
      </trkpt>
      <trkpt lat="48.79572" lon="2.21172">
        <ele>176</ele>
        <time>2012-12-16T14:33:09Z</time>
      </trkpt>
      <trkpt lat="48.79566" lon="2.21164">
        <ele>176</ele>
        <time>2012-12-16T14:33:14Z</time>
      </trkpt>
      <trkpt lat="48.79561" lon="2.2116">
        <ele>176</ele>
        <time>2012-12-16T14:33:17Z</time>
      </trkpt>
      <trkpt lat="48.79552" lon="2.21154">
        <ele>176</ele>
        <time>2012-12-16T14:33:24Z</time>
      </trkpt>
      <trkpt lat="48.79547" lon="2.21152">
        <ele>176</ele>
        <time>2012-12-16T14:33:29Z</time>
      </trkpt>
      <trkpt lat="48.79544" lon="2.21145">
        <ele>176</ele>
        <time>2012-12-16T14:33:34Z</time>
      </trkpt>
      <trkpt lat="48.79538" lon="2.21141">
        <ele>176</ele>
        <time>2012-12-16T14:33:37Z</time>
      </trkpt>
      <trkpt lat="48.79535" lon="2.21136">
        <ele>177</ele>
        <time>2012-12-16T14:33:40Z</time>
      </trkpt>
      <trkpt lat="48.79529" lon="2.2113">
        <ele>177</ele>
        <time>2012-12-16T14:33:44Z</time>
      </trkpt>
      <trkpt lat="48.79524" lon="2.21126">
        <ele>177</ele>
        <time>2012-12-16T14:33:49Z</time>
      </trkpt>
      <trkpt lat="48.79519" lon="2.21122">
        <ele>177</ele>
        <time>2012-12-16T14:33:54Z</time>
      </trkpt>
      <trkpt lat="48.79514" lon="2.21115">
        <ele>177</ele>
        <time>2012-12-16T14:33:57Z</time>
      </trkpt>
      <trkpt lat="48.79509" lon="2.21112">
        <ele>177</ele>
        <time>2012-12-16T14:34:02Z</time>
      </trkpt>
      <trkpt lat="48.79505" lon="2.21108">
        <ele>177</ele>
        <time>2012-12-16T14:34:05Z</time>
      </trkpt>
      <trkpt lat="48.79499" lon="2.21101">
        <ele>178</ele>
        <time>2012-12-16T14:34:09Z</time>
      </trkpt>
      <trkpt lat="48.79494" lon="2.21096">
        <ele>178</ele>
        <time>2012-12-16T14:34:14Z</time>
      </trkpt>
      <trkpt lat="48.7949" lon="2.21092">
        <ele>178</ele>
        <time>2012-12-16T14:34:17Z</time>
      </trkpt>
      <trkpt lat="48.79485" lon="2.21087">
        <ele>178</ele>
        <time>2012-12-16T14:34:21Z</time>
      </trkpt>
      <trkpt lat="48.7948" lon="2.21082">
        <ele>178</ele>
        <time>2012-12-16T14:34:25Z</time>
      </trkpt>
      <trkpt lat="48.79474" lon="2.21077">
        <ele>178</ele>
        <time>2012-12-16T14:34:29Z</time>
      </trkpt>
      <trkpt lat="48.7947" lon="2.21074">
        <ele>178</ele>
        <time>2012-12-16T14:34:32Z</time>
      </trkpt>
      <trkpt lat="48.79466" lon="2.21069">
        <ele>178</ele>
        <time>2012-12-16T14:34:37Z</time>
      </trkpt>
      <trkpt lat="48.79462" lon="2.21064">
        <ele>178</ele>
        <time>2012-12-16T14:34:41Z</time>
      </trkpt>
      <trkpt lat="48.79458" lon="2.21059">
        <ele>178</ele>
        <time>2012-12-16T14:34:44Z</time>
      </trkpt>
      <trkpt lat="48.79452" lon="2.21053">
        <ele>178</ele>
        <time>2012-12-16T14:34:49Z</time>
      </trkpt>
      <trkpt lat="48.79448" lon="2.21048">
        <ele>177</ele>
        <time>2012-12-16T14:34:54Z</time>
      </trkpt>
      <trkpt lat="48.79441" lon="2.21046">
        <ele>177</ele>
        <time>2012-12-16T14:34:59Z</time>
      </trkpt>
      <trkpt lat="48.79436" lon="2.21042">
        <ele>177</ele>
        <time>2012-12-16T14:35:02Z</time>
      </trkpt>
      <trkpt lat="48.79433" lon="2.21037">
        <ele>177</ele>
        <time>2012-12-16T14:35:06Z</time>
      </trkpt>
      <trkpt lat="48.79428" lon="2.21035">
        <ele>177</ele>
        <time>2012-12-16T14:35:09Z</time>
      </trkpt>
      <trkpt lat="48.79424" lon="2.21032">
        <ele>177</ele>
        <time>2012-12-16T14:35:12Z</time>
      </trkpt>
      <trkpt lat="48.79418" lon="2.21029">
        <ele>177</ele>
        <time>2012-12-16T14:35:15Z</time>
      </trkpt>
      <trkpt lat="48.79414" lon="2.21023">
        <ele>176</ele>
        <time>2012-12-16T14:35:19Z</time>
      </trkpt>
      <trkpt lat="48.79408" lon="2.21016">
        <ele>176</ele>
        <time>2012-12-16T14:35:24Z</time>
      </trkpt>
      <trkpt lat="48.79398" lon="2.21012">
        <ele>176</ele>
        <time>2012-12-16T14:35:30Z</time>
      </trkpt>
      <trkpt lat="48.79391" lon="2.21006">
        <ele>176</ele>
        <time>2012-12-16T14:35:34Z</time>
      </trkpt>
      <trkpt lat="48.79387" lon="2.21001">
        <ele>176</ele>
        <time>2012-12-16T14:35:36Z</time>
      </trkpt>
      <trkpt lat="48.79384" lon="2.20996">
        <ele>175</ele>
        <time>2012-12-16T14:35:40Z</time>
      </trkpt>
      <trkpt lat="48.79387" lon="2.20989">
        <ele>175</ele>
        <time>2012-12-16T14:35:42Z</time>
      </trkpt>
      <trkpt lat="48.79385" lon="2.20981">
        <ele>175</ele>
        <time>2012-12-16T14:35:50Z</time>
      </trkpt>
      <trkpt lat="48.79384" lon="2.20973">
        <ele>175</ele>
        <time>2012-12-16T14:36:11Z</time>
      </trkpt>
      <trkpt lat="48.79387" lon="2.20966">
        <ele>174</ele>
        <time>2012-12-16T14:36:14Z</time>
      </trkpt>
      <trkpt lat="48.7939" lon="2.20959">
        <ele>174</ele>
        <time>2012-12-16T14:36:19Z</time>
      </trkpt>
      <trkpt lat="48.79393" lon="2.20953">
        <ele>174</ele>
        <time>2012-12-16T14:36:22Z</time>
      </trkpt>
      <trkpt lat="48.79395" lon="2.20947">
        <ele>174</ele>
        <time>2012-12-16T14:36:27Z</time>
      </trkpt>
      <trkpt lat="48.79398" lon="2.2094">
        <ele>174</ele>
        <time>2012-12-16T14:36:30Z</time>
      </trkpt>
      <trkpt lat="48.79402" lon="2.20934">
        <ele>175</ele>
        <time>2012-12-16T14:36:34Z</time>
      </trkpt>
      <trkpt lat="48.79405" lon="2.20927">
        <ele>175</ele>
        <time>2012-12-16T14:36:37Z</time>
      </trkpt>
      <trkpt lat="48.79407" lon="2.2092">
        <ele>175</ele>
        <time>2012-12-16T14:36:40Z</time>
      </trkpt>
      <trkpt lat="48.79409" lon="2.20913">
        <ele>174</ele>
        <time>2012-12-16T14:36:45Z</time>
      </trkpt>
      <trkpt lat="48.79413" lon="2.20902">
        <ele>174</ele>
        <time>2012-12-16T14:36:49Z</time>
      </trkpt>
      <trkpt lat="48.79417" lon="2.20896">
        <ele>173</ele>
        <time>2012-12-16T14:36:54Z</time>
      </trkpt>
      <trkpt lat="48.7942" lon="2.2089">
        <ele>175</ele>
        <time>2012-12-16T14:36:57Z</time>
      </trkpt>
      <trkpt lat="48.79422" lon="2.20884">
        <ele>175</ele>
        <time>2012-12-16T14:37:00Z</time>
      </trkpt>
      <trkpt lat="48.79424" lon="2.20874">
        <ele>174</ele>
        <time>2012-12-16T14:37:05Z</time>
      </trkpt>
      <trkpt lat="48.79426" lon="2.20866">
        <ele>174</ele>
        <time>2012-12-16T14:37:09Z</time>
      </trkpt>
      <trkpt lat="48.79428" lon="2.20856">
        <ele>174</ele>
        <time>2012-12-16T14:37:14Z</time>
      </trkpt>
      <trkpt lat="48.79432" lon="2.20848">
        <ele>173</ele>
        <time>2012-12-16T14:37:17Z</time>
      </trkpt>
      <trkpt lat="48.79435" lon="2.20843">
        <ele>173</ele>
        <time>2012-12-16T14:37:20Z</time>
      </trkpt>
      <trkpt lat="48.7944" lon="2.20838">
        <ele>173</ele>
        <time>2012-12-16T14:37:25Z</time>
      </trkpt>
      <trkpt lat="48.79444" lon="2.20829">
        <ele>171</ele>
        <time>2012-12-16T14:37:29Z</time>
      </trkpt>
      <trkpt lat="48.79445" lon="2.20819">
        <ele>171</ele>
        <time>2012-12-16T14:37:34Z</time>
      </trkpt>
      <trkpt lat="48.79447" lon="2.20812">
        <ele>171</ele>
        <time>2012-12-16T14:37:37Z</time>
      </trkpt>
      <trkpt lat="48.79449" lon="2.20805">
        <ele>171</ele>
        <time>2012-12-16T14:37:41Z</time>
      </trkpt>
      <trkpt lat="48.79452" lon="2.20797">
        <ele>171</ele>
        <time>2012-12-16T14:37:45Z</time>
      </trkpt>
      <trkpt lat="48.79454" lon="2.20791">
        <ele>171</ele>
        <time>2012-12-16T14:37:50Z</time>
      </trkpt>
      <trkpt lat="48.79456" lon="2.20782">
        <ele>170</ele>
        <time>2012-12-16T14:37:54Z</time>
      </trkpt>
      <trkpt lat="48.79457" lon="2.20775">
        <ele>170</ele>
        <time>2012-12-16T14:37:57Z</time>
      </trkpt>
      <trkpt lat="48.79461" lon="2.2077">
        <ele>171</ele>
        <time>2012-12-16T14:38:01Z</time>
      </trkpt>
      <trkpt lat="48.79464" lon="2.20764">
        <ele>171</ele>
        <time>2012-12-16T14:38:04Z</time>
      </trkpt>
      <trkpt lat="48.79467" lon="2.20756">
        <ele>171</ele>
        <time>2012-12-16T14:38:07Z</time>
      </trkpt>
      <trkpt lat="48.79468" lon="2.20749">
        <ele>168</ele>
        <time>2012-12-16T14:38:12Z</time>
      </trkpt>
      <trkpt lat="48.7947" lon="2.20741">
        <ele>168</ele>
        <time>2012-12-16T14:38:16Z</time>
      </trkpt>
      <trkpt lat="48.79472" lon="2.20733">
        <ele>168</ele>
        <time>2012-12-16T14:38:19Z</time>
      </trkpt>
      <trkpt lat="48.79474" lon="2.20726">
        <ele>168</ele>
        <time>2012-12-16T14:38:24Z</time>
      </trkpt>
      <trkpt lat="48.79478" lon="2.20719">
        <ele>168</ele>
        <time>2012-12-16T14:38:29Z</time>
      </trkpt>
      <trkpt lat="48.79481" lon="2.20712">
        <ele>168</ele>
        <time>2012-12-16T14:38:32Z</time>
      </trkpt>
      <trkpt lat="48.79483" lon="2.20705">
        <ele>168</ele>
        <time>2012-12-16T14:38:36Z</time>
      </trkpt>
      <trkpt lat="48.79485" lon="2.20697">
        <ele>168</ele>
        <time>2012-12-16T14:38:39Z</time>
      </trkpt>
      <trkpt lat="48.79485" lon="2.20688">
        <ele>168</ele>
        <time>2012-12-16T14:38:42Z</time>
      </trkpt>
      <trkpt lat="48.79483" lon="2.2068">
        <ele>168</ele>
        <time>2012-12-16T14:38:45Z</time>
      </trkpt>
      <trkpt lat="48.79484" lon="2.20672">
        <ele>169</ele>
        <time>2012-12-16T14:38:50Z</time>
      </trkpt>
      <trkpt lat="48.79486" lon="2.20666">
        <ele>167</ele>
        <time>2012-12-16T14:38:52Z</time>
      </trkpt>
      <trkpt lat="48.79487" lon="2.20658">
        <ele>167</ele>
        <time>2012-12-16T14:38:55Z</time>
      </trkpt>
      <trkpt lat="48.79488" lon="2.20649">
        <ele>166</ele>
        <time>2012-12-16T14:39:00Z</time>
      </trkpt>
      <trkpt lat="48.79491" lon="2.2064">
        <ele>165</ele>
        <time>2012-12-16T14:39:04Z</time>
      </trkpt>
      <trkpt lat="48.79491" lon="2.20626">
        <ele>164</ele>
        <time>2012-12-16T14:39:12Z</time>
      </trkpt>
      <trkpt lat="48.79492" lon="2.20619">
        <ele>164</ele>
        <time>2012-12-16T14:39:14Z</time>
      </trkpt>
      <trkpt lat="48.79492" lon="2.2061">
        <ele>164</ele>
        <time>2012-12-16T14:39:17Z</time>
      </trkpt>
      <trkpt lat="48.79493" lon="2.20602">
        <ele>165</ele>
        <time>2012-12-16T14:39:22Z</time>
      </trkpt>
      <trkpt lat="48.79494" lon="2.20593">
        <ele>166</ele>
        <time>2012-12-16T14:39:26Z</time>
      </trkpt>
      <trkpt lat="48.79495" lon="2.20584">
        <ele>167</ele>
        <time>2012-12-16T14:39:29Z</time>
      </trkpt>
      <trkpt lat="48.79498" lon="2.20574">
        <ele>165</ele>
        <time>2012-12-16T14:39:34Z</time>
      </trkpt>
      <trkpt lat="48.79501" lon="2.20561">
        <ele>169</ele>
        <time>2012-12-16T14:39:39Z</time>
      </trkpt>
      <trkpt lat="48.79505" lon="2.20554">
        <ele>169</ele>
        <time>2012-12-16T14:39:42Z</time>
      </trkpt>
      <trkpt lat="48.79508" lon="2.20549">
        <ele>169</ele>
        <time>2012-12-16T14:39:45Z</time>
      </trkpt>
      <trkpt lat="48.79511" lon="2.20542">
        <ele>169</ele>
        <time>2012-12-16T14:39:50Z</time>
      </trkpt>
      <trkpt lat="48.79514" lon="2.20532">
        <ele>168</ele>
        <time>2012-12-16T14:39:54Z</time>
      </trkpt>
      <trkpt lat="48.79516" lon="2.20524">
        <ele>168</ele>
        <time>2012-12-16T14:39:59Z</time>
      </trkpt>
      <trkpt lat="48.79522" lon="2.20519">
        <ele>168</ele>
        <time>2012-12-16T14:40:04Z</time>
      </trkpt>
      <trkpt lat="48.79527" lon="2.20514">
        <ele>168</ele>
        <time>2012-12-16T14:40:07Z</time>
      </trkpt>
      <trkpt lat="48.7953" lon="2.20509">
        <ele>168</ele>
        <time>2012-12-16T14:40:10Z</time>
      </trkpt>
      <trkpt lat="48.79536" lon="2.20503">
        <ele>169</ele>
        <time>2012-12-16T14:40:14Z</time>
      </trkpt>
      <trkpt lat="48.79541" lon="2.20498">
        <ele>165</ele>
        <time>2012-12-16T14:40:19Z</time>
      </trkpt>
      <trkpt lat="48.79546" lon="2.20496">
        <ele>165</ele>
        <time>2012-12-16T14:40:24Z</time>
      </trkpt>
      <trkpt lat="48.7955" lon="2.20489">
        <ele>166</ele>
        <time>2012-12-16T14:40:27Z</time>
      </trkpt>
      <trkpt lat="48.79553" lon="2.2048">
        <ele>165</ele>
        <time>2012-12-16T14:40:30Z</time>
      </trkpt>
      <trkpt lat="48.79556" lon="2.20472">
        <ele>165</ele>
        <time>2012-12-16T14:40:34Z</time>
      </trkpt>
      <trkpt lat="48.7956" lon="2.20465">
        <ele>165</ele>
        <time>2012-12-16T14:40:37Z</time>
      </trkpt>
      <trkpt lat="48.79564" lon="2.20458">
        <ele>164</ele>
        <time>2012-12-16T14:40:40Z</time>
      </trkpt>
      <trkpt lat="48.79568" lon="2.20453">
        <ele>164</ele>
        <time>2012-12-16T14:40:44Z</time>
      </trkpt>
      <trkpt lat="48.79572" lon="2.20446">
        <ele>164</ele>
        <time>2012-12-16T14:40:47Z</time>
      </trkpt>
      <trkpt lat="48.79576" lon="2.20441">
        <ele>164</ele>
        <time>2012-12-16T14:40:50Z</time>
      </trkpt>
      <trkpt lat="48.79579" lon="2.20436">
        <ele>164</ele>
        <time>2012-12-16T14:40:55Z</time>
      </trkpt>
      <trkpt lat="48.79584" lon="2.20433">
        <ele>165</ele>
        <time>2012-12-16T14:40:59Z</time>
      </trkpt>
      <trkpt lat="48.79589" lon="2.2043">
        <ele>165</ele>
        <time>2012-12-16T14:41:02Z</time>
      </trkpt>
      <trkpt lat="48.79594" lon="2.20431">
        <ele>165</ele>
        <time>2012-12-16T14:41:06Z</time>
      </trkpt>
      <trkpt lat="48.79604" lon="2.20439">
        <ele>166</ele>
        <time>2012-12-16T14:41:14Z</time>
      </trkpt>
      <trkpt lat="48.7961" lon="2.20443">
        <ele>166</ele>
        <time>2012-12-16T14:41:19Z</time>
      </trkpt>
      <trkpt lat="48.79615" lon="2.20448">
        <ele>167</ele>
        <time>2012-12-16T14:41:22Z</time>
      </trkpt>
      <trkpt lat="48.7962" lon="2.20452">
        <ele>167</ele>
        <time>2012-12-16T14:41:26Z</time>
      </trkpt>
      <trkpt lat="48.79629" lon="2.20457">
        <ele>167</ele>
        <time>2012-12-16T14:41:34Z</time>
      </trkpt>
      <trkpt lat="48.79633" lon="2.2046">
        <ele>168</ele>
        <time>2012-12-16T14:41:36Z</time>
      </trkpt>
      <trkpt lat="48.79638" lon="2.20461">
        <ele>168</ele>
        <time>2012-12-16T14:41:39Z</time>
      </trkpt>
      <trkpt lat="48.79644" lon="2.2046">
        <ele>168</ele>
        <time>2012-12-16T14:41:44Z</time>
      </trkpt>
      <trkpt lat="48.79651" lon="2.20457">
        <ele>167</ele>
        <time>2012-12-16T14:41:49Z</time>
      </trkpt>
      <trkpt lat="48.79656" lon="2.20457">
        <ele>167</ele>
        <time>2012-12-16T14:41:52Z</time>
      </trkpt>
      <trkpt lat="48.79662" lon="2.20457">
        <ele>167</ele>
        <time>2012-12-16T14:41:55Z</time>
      </trkpt>
      <trkpt lat="48.79667" lon="2.20456">
        <ele>170</ele>
        <time>2012-12-16T14:41:59Z</time>
      </trkpt>
      <trkpt lat="48.79673" lon="2.20455">
        <ele>170</ele>
        <time>2012-12-16T14:42:02Z</time>
      </trkpt>
      <trkpt lat="48.79678" lon="2.20453">
        <ele>170</ele>
        <time>2012-12-16T14:42:06Z</time>
      </trkpt>
      <trkpt lat="48.79683" lon="2.20452">
        <ele>170</ele>
        <time>2012-12-16T14:42:10Z</time>
      </trkpt>
      <trkpt lat="48.79689" lon="2.20449">
        <ele>170</ele>
        <time>2012-12-16T14:42:14Z</time>
      </trkpt>
      <trkpt lat="48.79694" lon="2.20448">
        <ele>171</ele>
        <time>2012-12-16T14:42:17Z</time>
      </trkpt>
      <trkpt lat="48.79699" lon="2.20447">
        <ele>171</ele>
        <time>2012-12-16T14:42:21Z</time>
      </trkpt>
      <trkpt lat="48.79704" lon="2.20441">
        <ele>171</ele>
        <time>2012-12-16T14:42:29Z</time>
      </trkpt>
      <trkpt lat="48.79708" lon="2.20435">
        <ele>171</ele>
        <time>2012-12-16T14:42:32Z</time>
      </trkpt>
      <trkpt lat="48.79714" lon="2.2043">
        <ele>172</ele>
        <time>2012-12-16T14:42:39Z</time>
      </trkpt>
      <trkpt lat="48.79717" lon="2.20424">
        <ele>172</ele>
        <time>2012-12-16T14:42:42Z</time>
      </trkpt>
      <trkpt lat="48.7972" lon="2.20417">
        <ele>172</ele>
        <time>2012-12-16T14:42:45Z</time>
      </trkpt>
      <trkpt lat="48.79724" lon="2.20412">
        <ele>166</ele>
        <time>2012-12-16T14:42:47Z</time>
      </trkpt>
      <trkpt lat="48.79728" lon="2.20409">
        <ele>167</ele>
        <time>2012-12-16T14:42:50Z</time>
      </trkpt>
      <trkpt lat="48.79732" lon="2.20403">
        <ele>167</ele>
        <time>2012-12-16T14:42:54Z</time>
      </trkpt>
      <trkpt lat="48.79736" lon="2.20396">
        <ele>166</ele>
        <time>2012-12-16T14:42:57Z</time>
      </trkpt>
      <trkpt lat="48.79739" lon="2.2039">
        <ele>166</ele>
        <time>2012-12-16T14:43:02Z</time>
      </trkpt>
      <trkpt lat="48.79743" lon="2.20384">
        <ele>165</ele>
        <time>2012-12-16T14:43:05Z</time>
      </trkpt>
      <trkpt lat="48.79745" lon="2.20378">
        <ele>165</ele>
        <time>2012-12-16T14:43:07Z</time>
      </trkpt>
      <trkpt lat="48.79747" lon="2.20371">
        <ele>164</ele>
        <time>2012-12-16T14:43:12Z</time>
      </trkpt>
      <trkpt lat="48.79749" lon="2.20364">
        <ele>164</ele>
        <time>2012-12-16T14:43:15Z</time>
      </trkpt>
      <trkpt lat="48.79753" lon="2.20357">
        <ele>169</ele>
        <time>2012-12-16T14:43:19Z</time>
      </trkpt>
      <trkpt lat="48.79756" lon="2.2035">
        <ele>168</ele>
        <time>2012-12-16T14:43:24Z</time>
      </trkpt>
      <trkpt lat="48.79758" lon="2.20343">
        <ele>167</ele>
        <time>2012-12-16T14:43:26Z</time>
      </trkpt>
      <trkpt lat="48.7976" lon="2.20335">
        <ele>167</ele>
        <time>2012-12-16T14:43:29Z</time>
      </trkpt>
      <trkpt lat="48.79763" lon="2.20329">
        <ele>164</ele>
        <time>2012-12-16T14:43:35Z</time>
      </trkpt>
      <trkpt lat="48.7977" lon="2.20318">
        <ele>164</ele>
        <time>2012-12-16T14:43:40Z</time>
      </trkpt>
      <trkpt lat="48.79772" lon="2.2031">
        <ele>164</ele>
        <time>2012-12-16T14:43:44Z</time>
      </trkpt>
      <trkpt lat="48.79778" lon="2.20306">
        <ele>164</ele>
        <time>2012-12-16T14:43:49Z</time>
      </trkpt>
      <trkpt lat="48.79782" lon="2.203">
        <ele>164</ele>
        <time>2012-12-16T14:43:52Z</time>
      </trkpt>
      <trkpt lat="48.79786" lon="2.20295">
        <ele>164</ele>
        <time>2012-12-16T14:43:56Z</time>
      </trkpt>
      <trkpt lat="48.79791" lon="2.20292">
        <ele>164</ele>
        <time>2012-12-16T14:44:00Z</time>
      </trkpt>
      <trkpt lat="48.79798" lon="2.20289">
        <ele>164</ele>
        <time>2012-12-16T14:44:04Z</time>
      </trkpt>
      <trkpt lat="48.79803" lon="2.20286">
        <ele>164</ele>
        <time>2012-12-16T14:44:07Z</time>
      </trkpt>
      <trkpt lat="48.79808" lon="2.20282">
        <ele>164</ele>
        <time>2012-12-16T14:44:12Z</time>
      </trkpt>
      <trkpt lat="48.79812" lon="2.20277">
        <ele>164</ele>
        <time>2012-12-16T14:44:15Z</time>
      </trkpt>
      <trkpt lat="48.79817" lon="2.20273">
        <ele>165</ele>
        <time>2012-12-16T14:44:19Z</time>
      </trkpt>
      <trkpt lat="48.79823" lon="2.20271">
        <ele>165</ele>
        <time>2012-12-16T14:44:22Z</time>
      </trkpt>
      <trkpt lat="48.79827" lon="2.20266">
        <ele>165</ele>
        <time>2012-12-16T14:44:26Z</time>
      </trkpt>
      <trkpt lat="48.79833" lon="2.2026">
        <ele>165</ele>
        <time>2012-12-16T14:44:29Z</time>
      </trkpt>
      <trkpt lat="48.79838" lon="2.20259">
        <ele>166</ele>
        <time>2012-12-16T14:44:31Z</time>
      </trkpt>
      <trkpt lat="48.79843" lon="2.20262">
        <ele>167</ele>
        <time>2012-12-16T14:44:34Z</time>
      </trkpt>
      <trkpt lat="48.79848" lon="2.20267">
        <ele>167</ele>
        <time>2012-12-16T14:44:37Z</time>
      </trkpt>
      <trkpt lat="48.79851" lon="2.20273">
        <ele>167</ele>
        <time>2012-12-16T14:44:40Z</time>
      </trkpt>
      <trkpt lat="48.79857" lon="2.20283">
        <ele>167</ele>
        <time>2012-12-16T14:44:44Z</time>
      </trkpt>
      <trkpt lat="48.79859" lon="2.20289">
        <ele>168</ele>
        <time>2012-12-16T14:44:47Z</time>
      </trkpt>
      <trkpt lat="48.7986" lon="2.20297">
        <ele>168</ele>
        <time>2012-12-16T14:44:51Z</time>
      </trkpt>
      <trkpt lat="48.79865" lon="2.20303">
        <ele>168</ele>
        <time>2012-12-16T14:44:54Z</time>
      </trkpt>
      <trkpt lat="48.79867" lon="2.2031">
        <ele>168</ele>
        <time>2012-12-16T14:44:59Z</time>
      </trkpt>
      <trkpt lat="48.7987" lon="2.20317">
        <ele>168</ele>
        <time>2012-12-16T14:45:02Z</time>
      </trkpt>
      <trkpt lat="48.79873" lon="2.20323">
        <ele>169</ele>
        <time>2012-12-16T14:45:05Z</time>
      </trkpt>
      <trkpt lat="48.79876" lon="2.2033">
        <ele>169</ele>
        <time>2012-12-16T14:45:09Z</time>
      </trkpt>
      <trkpt lat="48.79878" lon="2.20338">
        <ele>172</ele>
        <time>2012-12-16T14:45:12Z</time>
      </trkpt>
      <trkpt lat="48.7988" lon="2.20344">
        <ele>172</ele>
        <time>2012-12-16T14:45:17Z</time>
      </trkpt>
      <trkpt lat="48.79883" lon="2.2035">
        <ele>172</ele>
        <time>2012-12-16T14:45:20Z</time>
      </trkpt>
      <trkpt lat="48.79884" lon="2.20357">
        <ele>173</ele>
        <time>2012-12-16T14:45:25Z</time>
      </trkpt>
      <trkpt lat="48.79888" lon="2.20365">
        <ele>173</ele>
        <time>2012-12-16T14:45:29Z</time>
      </trkpt>
      <trkpt lat="48.79892" lon="2.20372">
        <ele>173</ele>
        <time>2012-12-16T14:45:35Z</time>
      </trkpt>
      <trkpt lat="48.79894" lon="2.20378">
        <ele>173</ele>
        <time>2012-12-16T14:45:37Z</time>
      </trkpt>
      <trkpt lat="48.79897" lon="2.20387">
        <ele>173</ele>
        <time>2012-12-16T14:45:40Z</time>
      </trkpt>
      <trkpt lat="48.79899" lon="2.20393">
        <ele>173</ele>
        <time>2012-12-16T14:45:44Z</time>
      </trkpt>
      <trkpt lat="48.79902" lon="2.20402">
        <ele>174</ele>
        <time>2012-12-16T14:45:49Z</time>
      </trkpt>
      <trkpt lat="48.79905" lon="2.2041">
        <ele>174</ele>
        <time>2012-12-16T14:45:55Z</time>
      </trkpt>
      <trkpt lat="48.7991" lon="2.20415">
        <ele>174</ele>
        <time>2012-12-16T14:45:59Z</time>
      </trkpt>
      <trkpt lat="48.79914" lon="2.20418">
        <ele>174</ele>
        <time>2012-12-16T14:46:02Z</time>
      </trkpt>
      <trkpt lat="48.79918" lon="2.20423">
        <ele>174</ele>
        <time>2012-12-16T14:46:06Z</time>
      </trkpt>
      <trkpt lat="48.79922" lon="2.20428">
        <ele>174</ele>
        <time>2012-12-16T14:46:09Z</time>
      </trkpt>
      <trkpt lat="48.79927" lon="2.20432">
        <ele>174</ele>
        <time>2012-12-16T14:46:15Z</time>
      </trkpt>
      <trkpt lat="48.79933" lon="2.20432">
        <ele>174</ele>
        <time>2012-12-16T14:46:19Z</time>
      </trkpt>
      <trkpt lat="48.79938" lon="2.2043">
        <ele>174</ele>
        <time>2012-12-16T14:46:25Z</time>
      </trkpt>
      <trkpt lat="48.79943" lon="2.20431">
        <ele>174</ele>
        <time>2012-12-16T14:46:31Z</time>
      </trkpt>
      <trkpt lat="48.79948" lon="2.20433">
        <ele>174</ele>
        <time>2012-12-16T14:46:35Z</time>
      </trkpt>
      <trkpt lat="48.79954" lon="2.20438">
        <ele>174</ele>
        <time>2012-12-16T14:46:39Z</time>
      </trkpt>
      <trkpt lat="48.79959" lon="2.2044">
        <ele>174</ele>
        <time>2012-12-16T14:46:44Z</time>
      </trkpt>
      <trkpt lat="48.79964" lon="2.20443">
        <ele>174</ele>
        <time>2012-12-16T14:46:50Z</time>
      </trkpt>
      <trkpt lat="48.79967" lon="2.20451">
        <ele>174</ele>
        <time>2012-12-16T14:46:54Z</time>
      </trkpt>
      <trkpt lat="48.79969" lon="2.20461">
        <ele>174</ele>
        <time>2012-12-16T14:46:59Z</time>
      </trkpt>
      <trkpt lat="48.79972" lon="2.20468">
        <ele>175</ele>
        <time>2012-12-16T14:47:02Z</time>
      </trkpt>
      <trkpt lat="48.79971" lon="2.20475">
        <ele>175</ele>
        <time>2012-12-16T14:47:07Z</time>
      </trkpt>
      <trkpt lat="48.79973" lon="2.20469">
        <ele>175</ele>
        <time>2012-12-16T14:47:54Z</time>
      </trkpt>
      <trkpt lat="48.79974" lon="2.20459">
        <ele>174</ele>
        <time>2012-12-16T14:47:59Z</time>
      </trkpt>
      <trkpt lat="48.79973" lon="2.2045">
        <ele>174</ele>
        <time>2012-12-16T14:48:04Z</time>
      </trkpt>
      <trkpt lat="48.79977" lon="2.20443">
        <ele>173</ele>
        <time>2012-12-16T14:49:56Z</time>
      </trkpt>
      <trkpt lat="48.79979" lon="2.2045">
        <ele>174</ele>
        <time>2012-12-16T14:50:40Z</time>
      </trkpt>
      <trkpt lat="48.79976" lon="2.20456">
        <ele>174</ele>
        <time>2012-12-16T14:50:57Z</time>
      </trkpt>
      <trkpt lat="48.79975" lon="2.20448">
        <ele>174</ele>
        <time>2012-12-16T14:51:34Z</time>
      </trkpt>
      <trkpt lat="48.7998" lon="2.20448">
        <ele>173</ele>
        <time>2012-12-16T14:51:41Z</time>
      </trkpt>
      <trkpt lat="48.79985" lon="2.20448">
        <ele>173</ele>
        <time>2012-12-16T14:51:45Z</time>
      </trkpt>
      <trkpt lat="48.79984" lon="2.20441">
        <ele>173</ele>
        <time>2012-12-16T14:52:24Z</time>
      </trkpt>
      <trkpt lat="48.79988" lon="2.20445">
        <ele>173</ele>
        <time>2012-12-16T14:53:16Z</time>
      </trkpt>
      <trkpt lat="48.79998" lon="2.20441">
        <ele>173</ele>
        <time>2012-12-16T14:53:42Z</time>
      </trkpt>
      <trkpt lat="48.80003" lon="2.20444">
        <ele>172</ele>
        <time>2012-12-16T14:53:46Z</time>
      </trkpt>
      <trkpt lat="48.80007" lon="2.2044">
        <ele>172</ele>
        <time>2012-12-16T14:53:50Z</time>
      </trkpt>
      <trkpt lat="48.80012" lon="2.20438">
        <ele>172</ele>
        <time>2012-12-16T14:53:55Z</time>
      </trkpt>
      <trkpt lat="48.80019" lon="2.20438">
        <ele>172</ele>
        <time>2012-12-16T14:53:59Z</time>
      </trkpt>
      <trkpt lat="48.80025" lon="2.2044">
        <ele>173</ele>
        <time>2012-12-16T14:54:02Z</time>
      </trkpt>
      <trkpt lat="48.8003" lon="2.2044">
        <ele>173</ele>
        <time>2012-12-16T14:54:06Z</time>
      </trkpt>
      <trkpt lat="48.80035" lon="2.20441">
        <ele>173</ele>
        <time>2012-12-16T14:54:12Z</time>
      </trkpt>
      <trkpt lat="48.80041" lon="2.20443">
        <ele>173</ele>
        <time>2012-12-16T14:54:15Z</time>
      </trkpt>
      <trkpt lat="48.80048" lon="2.20444">
        <ele>173</ele>
        <time>2012-12-16T14:54:19Z</time>
      </trkpt>
      <trkpt lat="48.80057" lon="2.20437">
        <ele>173</ele>
        <time>2012-12-16T14:54:29Z</time>
      </trkpt>
      <trkpt lat="48.80064" lon="2.20436">
        <ele>173</ele>
        <time>2012-12-16T14:54:34Z</time>
      </trkpt>
      <trkpt lat="48.80069" lon="2.20431">
        <ele>173</ele>
        <time>2012-12-16T14:54:39Z</time>
      </trkpt>
      <trkpt lat="48.80075" lon="2.2043">
        <ele>172</ele>
        <time>2012-12-16T14:54:44Z</time>
      </trkpt>
      <trkpt lat="48.80081" lon="2.20426">
        <ele>172</ele>
        <time>2012-12-16T14:54:49Z</time>
      </trkpt>
      <trkpt lat="48.80089" lon="2.20431">
        <ele>174</ele>
        <time>2012-12-16T14:54:56Z</time>
      </trkpt>
      <trkpt lat="48.80085" lon="2.20433">
        <ele>175</ele>
        <time>2012-12-16T14:55:01Z</time>
      </trkpt>
      <trkpt lat="48.80087" lon="2.20426">
        <ele>173</ele>
        <time>2012-12-16T14:55:29Z</time>
      </trkpt>
      <trkpt lat="48.80088" lon="2.20419">
        <ele>172</ele>
        <time>2012-12-16T14:55:36Z</time>
      </trkpt>
      <trkpt lat="48.80087" lon="2.2041">
        <ele>171</ele>
        <time>2012-12-16T14:55:40Z</time>
      </trkpt>
      <trkpt lat="48.80088" lon="2.20402">
        <ele>171</ele>
        <time>2012-12-16T14:55:44Z</time>
      </trkpt>
      <trkpt lat="48.8009" lon="2.20393">
        <ele>171</ele>
        <time>2012-12-16T14:55:47Z</time>
      </trkpt>
      <trkpt lat="48.80092" lon="2.20386">
        <ele>171</ele>
        <time>2012-12-16T14:55:50Z</time>
      </trkpt>
      <trkpt lat="48.80095" lon="2.20378">
        <ele>171</ele>
        <time>2012-12-16T14:55:54Z</time>
      </trkpt>
      <trkpt lat="48.80097" lon="2.20372">
        <ele>171</ele>
        <time>2012-12-16T14:55:57Z</time>
      </trkpt>
      <trkpt lat="48.80098" lon="2.20364">
        <ele>170</ele>
        <time>2012-12-16T14:56:01Z</time>
      </trkpt>
      <trkpt lat="48.801" lon="2.20357">
        <ele>170</ele>
        <time>2012-12-16T14:56:06Z</time>
      </trkpt>
      <trkpt lat="48.80102" lon="2.20349">
        <ele>169</ele>
        <time>2012-12-16T14:56:11Z</time>
      </trkpt>
      <trkpt lat="48.80103" lon="2.20342">
        <ele>169</ele>
        <time>2012-12-16T14:56:14Z</time>
      </trkpt>
      <trkpt lat="48.80106" lon="2.20335">
        <ele>169</ele>
        <time>2012-12-16T14:56:19Z</time>
      </trkpt>
      <trkpt lat="48.80106" lon="2.20325">
        <ele>166</ele>
        <time>2012-12-16T14:56:24Z</time>
      </trkpt>
      <trkpt lat="48.8011" lon="2.20317">
        <ele>166</ele>
        <time>2012-12-16T14:56:29Z</time>
      </trkpt>
      <trkpt lat="48.80112" lon="2.20308">
        <ele>166</ele>
        <time>2012-12-16T14:56:34Z</time>
      </trkpt>
      <trkpt lat="48.80117" lon="2.20304">
        <ele>167</ele>
        <time>2012-12-16T14:56:39Z</time>
      </trkpt>
      <trkpt lat="48.80122" lon="2.20304">
        <ele>167</ele>
        <time>2012-12-16T14:56:42Z</time>
      </trkpt>
      <trkpt lat="48.80127" lon="2.20305">
        <ele>168</ele>
        <time>2012-12-16T14:56:45Z</time>
      </trkpt>
      <trkpt lat="48.80133" lon="2.20309">
        <ele>168</ele>
        <time>2012-12-16T14:56:49Z</time>
      </trkpt>
      <trkpt lat="48.80137" lon="2.20313">
        <ele>169</ele>
        <time>2012-12-16T14:56:52Z</time>
      </trkpt>
      <trkpt lat="48.80142" lon="2.20316">
        <ele>169</ele>
        <time>2012-12-16T14:56:55Z</time>
      </trkpt>
      <trkpt lat="48.80148" lon="2.20315">
        <ele>170</ele>
        <time>2012-12-16T14:57:00Z</time>
      </trkpt>
      <trkpt lat="48.80153" lon="2.20315">
        <ele>170</ele>
        <time>2012-12-16T14:57:04Z</time>
      </trkpt>
      <trkpt lat="48.80158" lon="2.20318">
        <ele>171</ele>
        <time>2012-12-16T14:57:06Z</time>
      </trkpt>
      <trkpt lat="48.80164" lon="2.20323">
        <ele>172</ele>
        <time>2012-12-16T14:57:09Z</time>
      </trkpt>
      <trkpt lat="48.80168" lon="2.20328">
        <ele>175</ele>
        <time>2012-12-16T14:57:12Z</time>
      </trkpt>
      <trkpt lat="48.80172" lon="2.20332">
        <ele>175</ele>
        <time>2012-12-16T14:57:14Z</time>
      </trkpt>
      <trkpt lat="48.80175" lon="2.20339">
        <ele>175</ele>
        <time>2012-12-16T14:57:19Z</time>
      </trkpt>
      <trkpt lat="48.80182" lon="2.20352">
        <ele>176</ele>
        <time>2012-12-16T14:57:29Z</time>
      </trkpt>
      <trkpt lat="48.80185" lon="2.20359">
        <ele>176</ele>
        <time>2012-12-16T14:57:34Z</time>
      </trkpt>
      <trkpt lat="48.8019" lon="2.20365">
        <ele>176</ele>
        <time>2012-12-16T14:57:36Z</time>
      </trkpt>
      <trkpt lat="48.80194" lon="2.20371">
        <ele>176</ele>
        <time>2012-12-16T14:57:40Z</time>
      </trkpt>
      <trkpt lat="48.80198" lon="2.20379">
        <ele>176</ele>
        <time>2012-12-16T14:57:44Z</time>
      </trkpt>
      <trkpt lat="48.80201" lon="2.20385">
        <ele>176</ele>
        <time>2012-12-16T14:57:49Z</time>
      </trkpt>
      <trkpt lat="48.80211" lon="2.20381">
        <ele>176</ele>
        <time>2012-12-16T14:57:59Z</time>
      </trkpt>
      <trkpt lat="48.80216" lon="2.20378">
        <ele>176</ele>
        <time>2012-12-16T14:58:02Z</time>
      </trkpt>
      <trkpt lat="48.80221" lon="2.20377">
        <ele>176</ele>
        <time>2012-12-16T14:58:06Z</time>
      </trkpt>
      <trkpt lat="48.80225" lon="2.20374">
        <ele>176</ele>
        <time>2012-12-16T14:58:09Z</time>
      </trkpt>
      <trkpt lat="48.80228" lon="2.20368">
        <ele>176</ele>
        <time>2012-12-16T14:58:12Z</time>
      </trkpt>
      <trkpt lat="48.80234" lon="2.20365">
        <ele>176</ele>
        <time>2012-12-16T14:58:16Z</time>
      </trkpt>
      <trkpt lat="48.80239" lon="2.20365">
        <ele>176</ele>
        <time>2012-12-16T14:58:19Z</time>
      </trkpt>
      <trkpt lat="48.80248" lon="2.20368">
        <ele>176</ele>
        <time>2012-12-16T14:58:25Z</time>
      </trkpt>
      <trkpt lat="48.80253" lon="2.20372">
        <ele>175</ele>
        <time>2012-12-16T14:58:29Z</time>
      </trkpt>
      <trkpt lat="48.80259" lon="2.20374">
        <ele>175</ele>
        <time>2012-12-16T14:58:34Z</time>
      </trkpt>
      <trkpt lat="48.80265" lon="2.20377">
        <ele>175</ele>
        <time>2012-12-16T14:58:37Z</time>
      </trkpt>
      <trkpt lat="48.8027" lon="2.20382">
        <ele>175</ele>
        <time>2012-12-16T14:58:41Z</time>
      </trkpt>
      <trkpt lat="48.80275" lon="2.2039">
        <ele>174</ele>
        <time>2012-12-16T14:58:44Z</time>
      </trkpt>
      <trkpt lat="48.80278" lon="2.20395">
        <ele>174</ele>
        <time>2012-12-16T14:58:49Z</time>
      </trkpt>
      <trkpt lat="48.80283" lon="2.20399">
        <ele>174</ele>
        <time>2012-12-16T14:58:55Z</time>
      </trkpt>
      <trkpt lat="48.80286" lon="2.20404">
        <ele>174</ele>
        <time>2012-12-16T14:59:04Z</time>
      </trkpt>
      <trkpt lat="48.8029" lon="2.20409">
        <ele>174</ele>
        <time>2012-12-16T14:59:10Z</time>
      </trkpt>
      <trkpt lat="48.80294" lon="2.20413">
        <ele>174</ele>
        <time>2012-12-16T14:59:14Z</time>
      </trkpt>
      <trkpt lat="48.80298" lon="2.20422">
        <ele>175</ele>
        <time>2012-12-16T14:59:19Z</time>
      </trkpt>
      <trkpt lat="48.80304" lon="2.20428">
        <ele>175</ele>
        <time>2012-12-16T14:59:24Z</time>
      </trkpt>
      <trkpt lat="48.8031" lon="2.20429">
        <ele>175</ele>
        <time>2012-12-16T14:59:29Z</time>
      </trkpt>
      <trkpt lat="48.80315" lon="2.20425">
        <ele>175</ele>
        <time>2012-12-16T14:59:34Z</time>
      </trkpt>
      <trkpt lat="48.8032" lon="2.20424">
        <ele>175</ele>
        <time>2012-12-16T14:59:40Z</time>
      </trkpt>
      <trkpt lat="48.80325" lon="2.20423">
        <ele>175</ele>
        <time>2012-12-16T14:59:45Z</time>
      </trkpt>
      <trkpt lat="48.80331" lon="2.20427">
        <ele>175</ele>
        <time>2012-12-16T14:59:49Z</time>
      </trkpt>
      <trkpt lat="48.80336" lon="2.20429">
        <ele>174</ele>
        <time>2012-12-16T14:59:52Z</time>
      </trkpt>
      <trkpt lat="48.80341" lon="2.2043">
        <ele>174</ele>
        <time>2012-12-16T14:59:57Z</time>
      </trkpt>
      <trkpt lat="48.80347" lon="2.2043">
        <ele>174</ele>
        <time>2012-12-16T15:00:02Z</time>
      </trkpt>
      <trkpt lat="48.80352" lon="2.20431">
        <ele>173</ele>
        <time>2012-12-16T15:00:06Z</time>
      </trkpt>
      <trkpt lat="48.80357" lon="2.20432">
        <ele>173</ele>
        <time>2012-12-16T15:00:11Z</time>
      </trkpt>
      <trkpt lat="48.80362" lon="2.20431">
        <ele>173</ele>
        <time>2012-12-16T15:00:16Z</time>
      </trkpt>
      <trkpt lat="48.80369" lon="2.2043">
        <ele>173</ele>
        <time>2012-12-16T15:00:19Z</time>
      </trkpt>
      <trkpt lat="48.80376" lon="2.2043">
        <ele>173</ele>
        <time>2012-12-16T15:00:24Z</time>
      </trkpt>
      <trkpt lat="48.80383" lon="2.20432">
        <ele>172</ele>
        <time>2012-12-16T15:00:27Z</time>
      </trkpt>
      <trkpt lat="48.80387" lon="2.20434">
        <ele>172</ele>
        <time>2012-12-16T15:00:30Z</time>
      </trkpt>
      <trkpt lat="48.80392" lon="2.20442">
        <ele>172</ele>
        <time>2012-12-16T15:00:34Z</time>
      </trkpt>
      <trkpt lat="48.80396" lon="2.20446">
        <ele>172</ele>
        <time>2012-12-16T15:00:39Z</time>
      </trkpt>
      <trkpt lat="48.80401" lon="2.20449">
        <ele>172</ele>
        <time>2012-12-16T15:00:44Z</time>
      </trkpt>
      <trkpt lat="48.80406" lon="2.2045">
        <ele>172</ele>
        <time>2012-12-16T15:00:50Z</time>
      </trkpt>
      <trkpt lat="48.80412" lon="2.20451">
        <ele>172</ele>
        <time>2012-12-16T15:00:54Z</time>
      </trkpt>
      <trkpt lat="48.80418" lon="2.20454">
        <ele>171</ele>
        <time>2012-12-16T15:00:59Z</time>
      </trkpt>
      <trkpt lat="48.80423" lon="2.20454">
        <ele>171</ele>
        <time>2012-12-16T15:01:04Z</time>
      </trkpt>
      <trkpt lat="48.80428" lon="2.20453">
        <ele>171</ele>
        <time>2012-12-16T15:01:07Z</time>
      </trkpt>
      <trkpt lat="48.80434" lon="2.20454">
        <ele>171</ele>
        <time>2012-12-16T15:01:10Z</time>
      </trkpt>
      <trkpt lat="48.8044" lon="2.20458">
        <ele>171</ele>
        <time>2012-12-16T15:01:14Z</time>
      </trkpt>
      <trkpt lat="48.80444" lon="2.20455">
        <ele>171</ele>
        <time>2012-12-16T15:01:19Z</time>
      </trkpt>
      <trkpt lat="48.80451" lon="2.20454">
        <ele>171</ele>
        <time>2012-12-16T15:01:24Z</time>
      </trkpt>
      <trkpt lat="48.80456" lon="2.20452">
        <ele>171</ele>
        <time>2012-12-16T15:01:30Z</time>
      </trkpt>
      <trkpt lat="48.8046" lon="2.20446">
        <ele>171</ele>
        <time>2012-12-16T15:01:35Z</time>
      </trkpt>
      <trkpt lat="48.80465" lon="2.20439">
        <ele>171</ele>
        <time>2012-12-16T15:01:39Z</time>
      </trkpt>
      <trkpt lat="48.8047" lon="2.20434">
        <ele>171</ele>
        <time>2012-12-16T15:01:44Z</time>
      </trkpt>
      <trkpt lat="48.80475" lon="2.20433">
        <ele>171</ele>
        <time>2012-12-16T15:01:47Z</time>
      </trkpt>
      <trkpt lat="48.80481" lon="2.20433">
        <ele>171</ele>
        <time>2012-12-16T15:01:49Z</time>
      </trkpt>
      <trkpt lat="48.80488" lon="2.20433">
        <ele>171</ele>
        <time>2012-12-16T15:01:54Z</time>
      </trkpt>
      <trkpt lat="48.80493" lon="2.20426">
        <ele>171</ele>
        <time>2012-12-16T15:01:59Z</time>
      </trkpt>
      <trkpt lat="48.80497" lon="2.20421">
        <ele>170</ele>
        <time>2012-12-16T15:02:04Z</time>
      </trkpt>
      <trkpt lat="48.80503" lon="2.2042">
        <ele>170</ele>
        <time>2012-12-16T15:02:09Z</time>
      </trkpt>
      <trkpt lat="48.80508" lon="2.20421">
        <ele>170</ele>
        <time>2012-12-16T15:02:14Z</time>
      </trkpt>
      <trkpt lat="48.80511" lon="2.20415">
        <ele>166</ele>
        <time>2012-12-16T15:02:24Z</time>
      </trkpt>
      <trkpt lat="48.8051" lon="2.20408">
        <ele>166</ele>
        <time>2012-12-16T15:02:30Z</time>
      </trkpt>
      <trkpt lat="48.80514" lon="2.20407">
        <ele>165</ele>
        <time>2012-12-16T15:02:42Z</time>
      </trkpt>
      <trkpt lat="48.80519" lon="2.20403">
        <ele>164</ele>
        <time>2012-12-16T15:02:45Z</time>
      </trkpt>
      <trkpt lat="48.80525" lon="2.204">
        <ele>163</ele>
        <time>2012-12-16T15:02:49Z</time>
      </trkpt>
      <trkpt lat="48.8053" lon="2.20399">
        <ele>163</ele>
        <time>2012-12-16T15:02:52Z</time>
      </trkpt>
      <trkpt lat="48.80535" lon="2.20398">
        <ele>162</ele>
        <time>2012-12-16T15:02:55Z</time>
      </trkpt>
      <trkpt lat="48.8054" lon="2.20399">
        <ele>162</ele>
        <time>2012-12-16T15:02:59Z</time>
      </trkpt>
      <trkpt lat="48.80545" lon="2.20403">
        <ele>162</ele>
        <time>2012-12-16T15:03:02Z</time>
      </trkpt>
      <trkpt lat="48.8055" lon="2.20409">
        <ele>162</ele>
        <time>2012-12-16T15:03:06Z</time>
      </trkpt>
      <trkpt lat="48.80556" lon="2.20419">
        <ele>167</ele>
        <time>2012-12-16T15:03:16Z</time>
      </trkpt>
      <trkpt lat="48.8056" lon="2.20424">
        <ele>167</ele>
        <time>2012-12-16T15:03:22Z</time>
      </trkpt>
      <trkpt lat="48.80564" lon="2.20429">
        <ele>167</ele>
        <time>2012-12-16T15:03:27Z</time>
      </trkpt>
      <trkpt lat="48.80567" lon="2.20434">
        <ele>167</ele>
        <time>2012-12-16T15:03:30Z</time>
      </trkpt>
      <trkpt lat="48.80571" lon="2.20438">
        <ele>167</ele>
        <time>2012-12-16T15:03:34Z</time>
      </trkpt>
      <trkpt lat="48.80577" lon="2.20444">
        <ele>167</ele>
        <time>2012-12-16T15:03:39Z</time>
      </trkpt>
      <trkpt lat="48.80576" lon="2.20437">
        <ele>167</ele>
        <time>2012-12-16T15:03:46Z</time>
      </trkpt>
      <trkpt lat="48.80572" lon="2.20432">
        <ele>166</ele>
        <time>2012-12-16T15:03:50Z</time>
      </trkpt>
      <trkpt lat="48.80567" lon="2.20425">
        <ele>166</ele>
        <time>2012-12-16T15:03:54Z</time>
      </trkpt>
      <trkpt lat="48.80562" lon="2.20419">
        <ele>166</ele>
        <time>2012-12-16T15:03:59Z</time>
      </trkpt>
      <trkpt lat="48.80558" lon="2.20412">
        <ele>162</ele>
        <time>2012-12-16T15:04:04Z</time>
      </trkpt>
      <trkpt lat="48.80555" lon="2.20405">
        <ele>161</ele>
        <time>2012-12-16T15:04:07Z</time>
      </trkpt>
      <trkpt lat="48.80552" lon="2.20397">
        <ele>161</ele>
        <time>2012-12-16T15:04:09Z</time>
      </trkpt>
      <trkpt lat="48.80547" lon="2.20392">
        <ele>161</ele>
        <time>2012-12-16T15:04:14Z</time>
      </trkpt>
      <trkpt lat="48.80543" lon="2.20385">
        <ele>161</ele>
        <time>2012-12-16T15:04:19Z</time>
      </trkpt>
      <trkpt lat="48.8054" lon="2.20379">
        <ele>161</ele>
        <time>2012-12-16T15:04:22Z</time>
      </trkpt>
      <trkpt lat="48.80536" lon="2.20375">
        <ele>160</ele>
        <time>2012-12-16T15:04:26Z</time>
      </trkpt>
      <trkpt lat="48.80534" lon="2.20369">
        <ele>160</ele>
        <time>2012-12-16T15:04:31Z</time>
      </trkpt>
      <trkpt lat="48.80531" lon="2.20364">
        <ele>160</ele>
        <time>2012-12-16T15:04:34Z</time>
      </trkpt>
      <trkpt lat="48.80527" lon="2.20358">
        <ele>159</ele>
        <time>2012-12-16T15:04:39Z</time>
      </trkpt>
      <trkpt lat="48.80523" lon="2.20354">
        <ele>159</ele>
        <time>2012-12-16T15:04:42Z</time>
      </trkpt>
      <trkpt lat="48.8052" lon="2.20348">
        <ele>159</ele>
        <time>2012-12-16T15:04:45Z</time>
      </trkpt>
      <trkpt lat="48.80516" lon="2.20339">
        <ele>158</ele>
        <time>2012-12-16T15:04:49Z</time>
      </trkpt>
      <trkpt lat="48.80512" lon="2.20332">
        <ele>154</ele>
        <time>2012-12-16T15:04:54Z</time>
      </trkpt>
      <trkpt lat="48.80509" lon="2.20324">
        <ele>153</ele>
        <time>2012-12-16T15:04:57Z</time>
      </trkpt>
      <trkpt lat="48.80506" lon="2.20318">
        <ele>153</ele>
        <time>2012-12-16T15:05:02Z</time>
      </trkpt>
      <trkpt lat="48.80503" lon="2.20312">
        <ele>152</ele>
        <time>2012-12-16T15:05:07Z</time>
      </trkpt>
      <trkpt lat="48.80499" lon="2.20306">
        <ele>154</ele>
        <time>2012-12-16T15:05:12Z</time>
      </trkpt>
      <trkpt lat="48.80496" lon="2.20299">
        <ele>154</ele>
        <time>2012-12-16T15:05:15Z</time>
      </trkpt>
      <trkpt lat="48.8049" lon="2.20291">
        <ele>153</ele>
        <time>2012-12-16T15:05:19Z</time>
      </trkpt>
      <trkpt lat="48.80486" lon="2.20283">
        <ele>153</ele>
        <time>2012-12-16T15:05:24Z</time>
      </trkpt>
      <trkpt lat="48.80481" lon="2.20271">
        <ele>152</ele>
        <time>2012-12-16T15:05:31Z</time>
      </trkpt>
      <trkpt lat="48.80477" lon="2.20266">
        <ele>152</ele>
        <time>2012-12-16T15:05:35Z</time>
      </trkpt>
      <trkpt lat="48.80473" lon="2.20262">
        <ele>152</ele>
        <time>2012-12-16T15:05:40Z</time>
      </trkpt>
      <trkpt lat="48.80469" lon="2.20258">
        <ele>152</ele>
        <time>2012-12-16T15:05:44Z</time>
      </trkpt>
      <trkpt lat="48.80465" lon="2.20249">
        <ele>150</ele>
        <time>2012-12-16T15:05:49Z</time>
      </trkpt>
      <trkpt lat="48.80462" lon="2.2024">
        <ele>150</ele>
        <time>2012-12-16T15:05:54Z</time>
      </trkpt>
      <trkpt lat="48.80456" lon="2.20231">
        <ele>151</ele>
        <time>2012-12-16T15:06:01Z</time>
      </trkpt>
      <trkpt lat="48.80454" lon="2.20222">
        <ele>151</ele>
        <time>2012-12-16T15:06:04Z</time>
      </trkpt>
      <trkpt lat="48.80453" lon="2.20215">
        <ele>151</ele>
        <time>2012-12-16T15:06:07Z</time>
      </trkpt>
      <trkpt lat="48.80455" lon="2.20207">
        <ele>151</ele>
        <time>2012-12-16T15:06:10Z</time>
      </trkpt>
      <trkpt lat="48.8046" lon="2.202">
        <ele>150</ele>
        <time>2012-12-16T15:06:14Z</time>
      </trkpt>
      <trkpt lat="48.80466" lon="2.20195">
        <ele>150</ele>
        <time>2012-12-16T15:06:19Z</time>
      </trkpt>
      <trkpt lat="48.80471" lon="2.20189">
        <ele>149</ele>
        <time>2012-12-16T15:06:24Z</time>
      </trkpt>
      <trkpt lat="48.80475" lon="2.20183">
        <ele>149</ele>
        <time>2012-12-16T15:06:27Z</time>
      </trkpt>
      <trkpt lat="48.80479" lon="2.20178">
        <ele>148</ele>
        <time>2012-12-16T15:06:31Z</time>
      </trkpt>
      <trkpt lat="48.80484" lon="2.20177">
        <ele>148</ele>
        <time>2012-12-16T15:06:35Z</time>
      </trkpt>
      <trkpt lat="48.80487" lon="2.20172">
        <ele>147</ele>
        <time>2012-12-16T15:06:40Z</time>
      </trkpt>
      <trkpt lat="48.80493" lon="2.20167">
        <ele>146</ele>
        <time>2012-12-16T15:06:44Z</time>
      </trkpt>
      <trkpt lat="48.80496" lon="2.20158">
        <ele>146</ele>
        <time>2012-12-16T15:06:49Z</time>
      </trkpt>
      <trkpt lat="48.80497" lon="2.20149">
        <ele>146</ele>
        <time>2012-12-16T15:06:52Z</time>
      </trkpt>
      <trkpt lat="48.80502" lon="2.20144">
        <ele>142</ele>
        <time>2012-12-16T15:06:59Z</time>
      </trkpt>
      <trkpt lat="48.80507" lon="2.20137">
        <ele>142</ele>
        <time>2012-12-16T15:07:04Z</time>
      </trkpt>
      <trkpt lat="48.80511" lon="2.20131">
        <ele>142</ele>
        <time>2012-12-16T15:07:07Z</time>
      </trkpt>
      <trkpt lat="48.80517" lon="2.20133">
        <ele>142</ele>
        <time>2012-12-16T15:07:09Z</time>
      </trkpt>
      <trkpt lat="48.80523" lon="2.20132">
        <ele>142</ele>
        <time>2012-12-16T15:07:12Z</time>
      </trkpt>
      <trkpt lat="48.80527" lon="2.20128">
        <ele>141</ele>
        <time>2012-12-16T15:07:15Z</time>
      </trkpt>
      <trkpt lat="48.80531" lon="2.20122">
        <ele>141</ele>
        <time>2012-12-16T15:07:19Z</time>
      </trkpt>
      <trkpt lat="48.80534" lon="2.20113">
        <ele>141</ele>
        <time>2012-12-16T15:07:24Z</time>
      </trkpt>
      <trkpt lat="48.80536" lon="2.20107">
        <ele>141</ele>
        <time>2012-12-16T15:07:27Z</time>
      </trkpt>
      <trkpt lat="48.80539" lon="2.20101">
        <ele>141</ele>
        <time>2012-12-16T15:07:31Z</time>
      </trkpt>
      <trkpt lat="48.80545" lon="2.20096">
        <ele>141</ele>
        <time>2012-12-16T15:07:34Z</time>
      </trkpt>
      <trkpt lat="48.80549" lon="2.20092">
        <ele>140</ele>
        <time>2012-12-16T15:07:39Z</time>
      </trkpt>
      <trkpt lat="48.80554" lon="2.20083">
        <ele>140</ele>
        <time>2012-12-16T15:07:44Z</time>
      </trkpt>
      <trkpt lat="48.80557" lon="2.20077">
        <ele>139</ele>
        <time>2012-12-16T15:07:49Z</time>
      </trkpt>
      <trkpt lat="48.80563" lon="2.20069">
        <ele>139</ele>
        <time>2012-12-16T15:07:54Z</time>
      </trkpt>
      <trkpt lat="48.80567" lon="2.20067">
        <ele>139</ele>
        <time>2012-12-16T15:07:57Z</time>
      </trkpt>
      <trkpt lat="48.80571" lon="2.20063">
        <ele>139</ele>
        <time>2012-12-16T15:08:00Z</time>
      </trkpt>
      <trkpt lat="48.80576" lon="2.20058">
        <ele>139</ele>
        <time>2012-12-16T15:08:04Z</time>
      </trkpt>
      <trkpt lat="48.80579" lon="2.2005">
        <ele>139</ele>
        <time>2012-12-16T15:08:09Z</time>
      </trkpt>
      <trkpt lat="48.80584" lon="2.20045">
        <ele>138</ele>
        <time>2012-12-16T15:08:12Z</time>
      </trkpt>
      <trkpt lat="48.80589" lon="2.20035">
        <ele>137</ele>
        <time>2012-12-16T15:08:19Z</time>
      </trkpt>
      <trkpt lat="48.80592" lon="2.20029">
        <ele>137</ele>
        <time>2012-12-16T15:08:22Z</time>
      </trkpt>
      <trkpt lat="48.80594" lon="2.20023">
        <ele>137</ele>
        <time>2012-12-16T15:08:26Z</time>
      </trkpt>
      <trkpt lat="48.806" lon="2.20028">
        <ele>137</ele>
        <time>2012-12-16T15:08:31Z</time>
      </trkpt>
      <trkpt lat="48.80603" lon="2.20033">
        <ele>137</ele>
        <time>2012-12-16T15:08:34Z</time>
      </trkpt>
      <trkpt lat="48.80607" lon="2.20022">
        <ele>137</ele>
        <time>2012-12-16T15:08:51Z</time>
      </trkpt>
      <trkpt lat="48.80613" lon="2.20018">
        <ele>137</ele>
        <time>2012-12-16T15:08:54Z</time>
      </trkpt>
      <trkpt lat="48.80621" lon="2.20015">
        <ele>137</ele>
        <time>2012-12-16T15:08:59Z</time>
      </trkpt>
      <trkpt lat="48.80624" lon="2.20009">
        <ele>137</ele>
        <time>2012-12-16T15:09:02Z</time>
      </trkpt>
      <trkpt lat="48.80626" lon="2.20001">
        <ele>137</ele>
        <time>2012-12-16T15:09:07Z</time>
      </trkpt>
      <trkpt lat="48.80629" lon="2.19994">
        <ele>135</ele>
        <time>2012-12-16T15:09:10Z</time>
      </trkpt>
      <trkpt lat="48.80635" lon="2.19989">
        <ele>134</ele>
        <time>2012-12-16T15:09:14Z</time>
      </trkpt>
      <trkpt lat="48.80639" lon="2.19983">
        <ele>134</ele>
        <time>2012-12-16T15:09:19Z</time>
      </trkpt>
      <trkpt lat="48.80643" lon="2.19975">
        <ele>134</ele>
        <time>2012-12-16T15:09:24Z</time>
      </trkpt>
      <trkpt lat="48.80647" lon="2.1997">
        <ele>134</ele>
        <time>2012-12-16T15:09:29Z</time>
      </trkpt>
      <trkpt lat="48.80652" lon="2.19967">
        <ele>134</ele>
        <time>2012-12-16T15:09:32Z</time>
      </trkpt>
      <trkpt lat="48.80656" lon="2.19962">
        <ele>134</ele>
        <time>2012-12-16T15:09:35Z</time>
      </trkpt>
      <trkpt lat="48.80659" lon="2.19955">
        <ele>133</ele>
        <time>2012-12-16T15:09:40Z</time>
      </trkpt>
      <trkpt lat="48.80665" lon="2.19948">
        <ele>133</ele>
        <time>2012-12-16T15:09:44Z</time>
      </trkpt>
      <trkpt lat="48.80669" lon="2.19943">
        <ele>131</ele>
        <time>2012-12-16T15:09:47Z</time>
      </trkpt>
      <trkpt lat="48.80674" lon="2.19941">
        <ele>131</ele>
        <time>2012-12-16T15:09:50Z</time>
      </trkpt>
      <trkpt lat="48.8068" lon="2.19937">
        <ele>131</ele>
        <time>2012-12-16T15:09:54Z</time>
      </trkpt>
      <trkpt lat="48.80683" lon="2.19929">
        <ele>131</ele>
        <time>2012-12-16T15:09:59Z</time>
      </trkpt>
      <trkpt lat="48.80685" lon="2.19917">
        <ele>130</ele>
        <time>2012-12-16T15:10:04Z</time>
      </trkpt>
      <trkpt lat="48.80689" lon="2.19912">
        <ele>129</ele>
        <time>2012-12-16T15:10:07Z</time>
      </trkpt>
      <trkpt lat="48.80693" lon="2.19906">
        <ele>129</ele>
        <time>2012-12-16T15:10:11Z</time>
      </trkpt>
      <trkpt lat="48.80696" lon="2.19899">
        <ele>129</ele>
        <time>2012-12-16T15:10:14Z</time>
      </trkpt>
      <trkpt lat="48.807" lon="2.19892">
        <ele>129</ele>
        <time>2012-12-16T15:10:19Z</time>
      </trkpt>
      <trkpt lat="48.80701" lon="2.19885">
        <ele>129</ele>
        <time>2012-12-16T15:10:21Z</time>
      </trkpt>
      <trkpt lat="48.80701" lon="2.19878">
        <ele>128</ele>
        <time>2012-12-16T15:10:24Z</time>
      </trkpt>
      <trkpt lat="48.80704" lon="2.19869">
        <ele>128</ele>
        <time>2012-12-16T15:10:29Z</time>
      </trkpt>
      <trkpt lat="48.80705" lon="2.19862">
        <ele>128</ele>
        <time>2012-12-16T15:10:34Z</time>
      </trkpt>
      <trkpt lat="48.80706" lon="2.19855">
        <ele>128</ele>
        <time>2012-12-16T15:10:37Z</time>
      </trkpt>
      <trkpt lat="48.80707" lon="2.19846">
        <ele>128</ele>
        <time>2012-12-16T15:10:40Z</time>
      </trkpt>
      <trkpt lat="48.8071" lon="2.19838">
        <ele>128</ele>
        <time>2012-12-16T15:10:46Z</time>
      </trkpt>
      <trkpt lat="48.80711" lon="2.19831">
        <ele>127</ele>
        <time>2012-12-16T15:10:50Z</time>
      </trkpt>
      <trkpt lat="48.80711" lon="2.19822">
        <ele>127</ele>
        <time>2012-12-16T15:10:54Z</time>
      </trkpt>
      <trkpt lat="48.8071" lon="2.19814">
        <ele>127</ele>
        <time>2012-12-16T15:10:57Z</time>
      </trkpt>
      <trkpt lat="48.80713" lon="2.19806">
        <ele>126</ele>
        <time>2012-12-16T15:11:01Z</time>
      </trkpt>
      <trkpt lat="48.80714" lon="2.19797">
        <ele>126</ele>
        <time>2012-12-16T15:11:04Z</time>
      </trkpt>
      <trkpt lat="48.80717" lon="2.1979">
        <ele>126</ele>
        <time>2012-12-16T15:11:09Z</time>
      </trkpt>
      <trkpt lat="48.80719" lon="2.19782">
        <ele>126</ele>
        <time>2012-12-16T15:11:12Z</time>
      </trkpt>
      <trkpt lat="48.80722" lon="2.19772">
        <ele>126</ele>
        <time>2012-12-16T15:11:19Z</time>
      </trkpt>
      <trkpt lat="48.80723" lon="2.19764">
        <ele>126</ele>
        <time>2012-12-16T15:11:22Z</time>
      </trkpt>
      <trkpt lat="48.80722" lon="2.19755">
        <ele>126</ele>
        <time>2012-12-16T15:11:26Z</time>
      </trkpt>
      <trkpt lat="48.80724" lon="2.19747">
        <ele>126</ele>
        <time>2012-12-16T15:11:29Z</time>
      </trkpt>
      <trkpt lat="48.80729" lon="2.19739">
        <ele>126</ele>
        <time>2012-12-16T15:11:34Z</time>
      </trkpt>
      <trkpt lat="48.80735" lon="2.19728">
        <ele>126</ele>
        <time>2012-12-16T15:11:41Z</time>
      </trkpt>
      <trkpt lat="48.80737" lon="2.19721">
        <ele>126</ele>
        <time>2012-12-16T15:11:45Z</time>
      </trkpt>
      <trkpt lat="48.80739" lon="2.19713">
        <ele>126</ele>
        <time>2012-12-16T15:11:51Z</time>
      </trkpt>
      <trkpt lat="48.8074" lon="2.19706">
        <ele>126</ele>
        <time>2012-12-16T15:11:55Z</time>
      </trkpt>
      <trkpt lat="48.80743" lon="2.19699">
        <ele>126</ele>
        <time>2012-12-16T15:11:59Z</time>
      </trkpt>
      <trkpt lat="48.80748" lon="2.19694">
        <ele>126</ele>
        <time>2012-12-16T15:12:02Z</time>
      </trkpt>
      <trkpt lat="48.80753" lon="2.1969">
        <ele>123</ele>
        <time>2012-12-16T15:12:06Z</time>
      </trkpt>
      <trkpt lat="48.80757" lon="2.19686">
        <ele>123</ele>
        <time>2012-12-16T15:12:09Z</time>
      </trkpt>
      <trkpt lat="48.80761" lon="2.19681">
        <ele>123</ele>
        <time>2012-12-16T15:12:14Z</time>
      </trkpt>
      <trkpt lat="48.80766" lon="2.19675">
        <ele>123</ele>
        <time>2012-12-16T15:12:19Z</time>
      </trkpt>
      <trkpt lat="48.80772" lon="2.1967">
        <ele>123</ele>
        <time>2012-12-16T15:12:24Z</time>
      </trkpt>
      <trkpt lat="48.80776" lon="2.19665">
        <ele>122</ele>
        <time>2012-12-16T15:12:27Z</time>
      </trkpt>
      <trkpt lat="48.8078" lon="2.19659">
        <ele>122</ele>
        <time>2012-12-16T15:12:31Z</time>
      </trkpt>
      <trkpt lat="48.80784" lon="2.19653">
        <ele>122</ele>
        <time>2012-12-16T15:12:34Z</time>
      </trkpt>
      <trkpt lat="48.80788" lon="2.19648">
        <ele>121</ele>
        <time>2012-12-16T15:12:37Z</time>
      </trkpt>
      <trkpt lat="48.80792" lon="2.19644">
        <ele>121</ele>
        <time>2012-12-16T15:12:41Z</time>
      </trkpt>
      <trkpt lat="48.80796" lon="2.1964">
        <ele>121</ele>
        <time>2012-12-16T15:12:44Z</time>
      </trkpt>
      <trkpt lat="48.80798" lon="2.19631">
        <ele>121</ele>
        <time>2012-12-16T15:12:49Z</time>
      </trkpt>
      <trkpt lat="48.80799" lon="2.19623">
        <ele>121</ele>
        <time>2012-12-16T15:12:52Z</time>
      </trkpt>
      <trkpt lat="48.80804" lon="2.19619">
        <ele>120</ele>
        <time>2012-12-16T15:13:04Z</time>
      </trkpt>
      <trkpt lat="48.8081" lon="2.1962">
        <ele>120</ele>
        <time>2012-12-16T15:13:20Z</time>
      </trkpt>
      <trkpt lat="48.80814" lon="2.19613">
        <ele>120</ele>
        <time>2012-12-16T15:13:24Z</time>
      </trkpt>
      <trkpt lat="48.80819" lon="2.19605">
        <ele>119</ele>
        <time>2012-12-16T15:13:29Z</time>
      </trkpt>
      <trkpt lat="48.80823" lon="2.19591">
        <ele>118</ele>
        <time>2012-12-16T15:13:36Z</time>
      </trkpt>
      <trkpt lat="48.80827" lon="2.19587">
        <ele>117</ele>
        <time>2012-12-16T15:13:41Z</time>
      </trkpt>
      <trkpt lat="48.80831" lon="2.19581">
        <ele>117</ele>
        <time>2012-12-16T15:13:45Z</time>
      </trkpt>
      <trkpt lat="48.80836" lon="2.19579">
        <ele>115</ele>
        <time>2012-12-16T15:13:49Z</time>
      </trkpt>
      <trkpt lat="48.80841" lon="2.19577">
        <ele>114</ele>
        <time>2012-12-16T15:13:52Z</time>
      </trkpt>
      <trkpt lat="48.8084" lon="2.19585">
        <ele>116</ele>
        <time>2012-12-16T15:15:42Z</time>
      </trkpt>
      <trkpt lat="48.80836" lon="2.1959">
        <ele>116</ele>
        <time>2012-12-16T15:15:45Z</time>
      </trkpt>
      <trkpt lat="48.80841" lon="2.19583">
        <ele>115</ele>
        <time>2012-12-16T15:15:54Z</time>
      </trkpt>
      <trkpt lat="48.80843" lon="2.1959">
        <ele>116</ele>
        <time>2012-12-16T15:16:11Z</time>
      </trkpt>
      <trkpt lat="48.80842" lon="2.19577">
        <ele>114</ele>
        <time>2012-12-16T15:16:49Z</time>
      </trkpt>
      <trkpt lat="48.80842" lon="2.19568">
        <ele>114</ele>
        <time>2012-12-16T15:16:54Z</time>
      </trkpt>
      <trkpt lat="48.80843" lon="2.19562">
        <ele>113</ele>
        <time>2012-12-16T15:17:11Z</time>
      </trkpt>
      <trkpt lat="48.80849" lon="2.19559">
        <ele>113</ele>
        <time>2012-12-16T15:17:17Z</time>
      </trkpt>
      <trkpt lat="48.80854" lon="2.19558">
        <ele>112</ele>
        <time>2012-12-16T15:17:21Z</time>
      </trkpt>
      <trkpt lat="48.80857" lon="2.19565">
        <ele>113</ele>
        <time>2012-12-16T15:17:25Z</time>
      </trkpt>
      <trkpt lat="48.80859" lon="2.19571">
        <ele>113</ele>
        <time>2012-12-16T15:17:31Z</time>
      </trkpt>
      <trkpt lat="48.80864" lon="2.19571">
        <ele>112</ele>
        <time>2012-12-16T15:17:36Z</time>
      </trkpt>
      <trkpt lat="48.8087" lon="2.19571">
        <ele>112</ele>
        <time>2012-12-16T15:17:41Z</time>
      </trkpt>
      <trkpt lat="48.80875" lon="2.1958">
        <ele>112</ele>
        <time>2012-12-16T15:17:49Z</time>
      </trkpt>
      <trkpt lat="48.80878" lon="2.19586">
        <ele>115</ele>
        <time>2012-12-16T15:17:52Z</time>
      </trkpt>
      <trkpt lat="48.8088" lon="2.19593">
        <ele>115</ele>
        <time>2012-12-16T15:17:56Z</time>
      </trkpt>
      <trkpt lat="48.80883" lon="2.19602">
        <ele>115</ele>
        <time>2012-12-16T15:18:09Z</time>
      </trkpt>
      <trkpt lat="48.80888" lon="2.19605">
        <ele>115</ele>
        <time>2012-12-16T15:18:12Z</time>
      </trkpt>
      <trkpt lat="48.80886" lon="2.19614">
        <ele>115</ele>
        <time>2012-12-16T15:18:24Z</time>
      </trkpt>
      <trkpt lat="48.8089" lon="2.1962">
        <ele>115</ele>
        <time>2012-12-16T15:18:30Z</time>
      </trkpt>
      <trkpt lat="48.80891" lon="2.19632">
        <ele>116</ele>
        <time>2012-12-16T15:18:34Z</time>
      </trkpt>
      <trkpt lat="48.80891" lon="2.1964">
        <ele>116</ele>
        <time>2012-12-16T15:18:36Z</time>
      </trkpt>
      <trkpt lat="48.80889" lon="2.19651">
        <ele>117</ele>
        <time>2012-12-16T15:18:39Z</time>
      </trkpt>
      <trkpt lat="48.80884" lon="2.19655">
        <ele>117</ele>
        <time>2012-12-16T15:18:42Z</time>
      </trkpt>
      <trkpt lat="48.80881" lon="2.19664">
        <ele>117</ele>
        <time>2012-12-16T15:18:57Z</time>
      </trkpt>
      <trkpt lat="48.80884" lon="2.19671">
        <ele>120</ele>
        <time>2012-12-16T15:19:02Z</time>
      </trkpt>
      <trkpt lat="48.80885" lon="2.19679">
        <ele>120</ele>
        <time>2012-12-16T15:19:06Z</time>
      </trkpt>
      <trkpt lat="48.80888" lon="2.19685">
        <ele>120</ele>
        <time>2012-12-16T15:19:12Z</time>
      </trkpt>
      <trkpt lat="48.80887" lon="2.19692">
        <ele>120</ele>
        <time>2012-12-16T15:19:20Z</time>
      </trkpt>
      <trkpt lat="48.80892" lon="2.19703">
        <ele>121</ele>
        <time>2012-12-16T15:19:29Z</time>
      </trkpt>
      <trkpt lat="48.80896" lon="2.1971">
        <ele>121</ele>
        <time>2012-12-16T15:19:34Z</time>
      </trkpt>
      <trkpt lat="48.80897" lon="2.19718">
        <ele>122</ele>
        <time>2012-12-16T15:19:39Z</time>
      </trkpt>
      <trkpt lat="48.80901" lon="2.19723">
        <ele>122</ele>
        <time>2012-12-16T15:19:44Z</time>
      </trkpt>
      <trkpt lat="48.80907" lon="2.19726">
        <ele>123</ele>
        <time>2012-12-16T15:19:49Z</time>
      </trkpt>
      <trkpt lat="48.80912" lon="2.19734">
        <ele>124</ele>
        <time>2012-12-16T15:19:54Z</time>
      </trkpt>
      <trkpt lat="48.80912" lon="2.19742">
        <ele>125</ele>
        <time>2012-12-16T15:19:59Z</time>
      </trkpt>
      <trkpt lat="48.80912" lon="2.19751">
        <ele>127</ele>
        <time>2012-12-16T15:20:04Z</time>
      </trkpt>
      <trkpt lat="48.80915" lon="2.19757">
        <ele>127</ele>
        <time>2012-12-16T15:20:10Z</time>
      </trkpt>
      <trkpt lat="48.8092" lon="2.19758">
        <ele>130</ele>
        <time>2012-12-16T15:20:15Z</time>
      </trkpt>
      <trkpt lat="48.80928" lon="2.19766">
        <ele>132</ele>
        <time>2012-12-16T15:20:25Z</time>
      </trkpt>
      <trkpt lat="48.80933" lon="2.19773">
        <ele>134</ele>
        <time>2012-12-16T15:20:29Z</time>
      </trkpt>
      <trkpt lat="48.80936" lon="2.19777">
        <ele>134</ele>
        <time>2012-12-16T15:20:34Z</time>
      </trkpt>
      <trkpt lat="48.80941" lon="2.19781">
        <ele>135</ele>
        <time>2012-12-16T15:20:39Z</time>
      </trkpt>
      <trkpt lat="48.80946" lon="2.19783">
        <ele>135</ele>
        <time>2012-12-16T15:20:45Z</time>
      </trkpt>
      <trkpt lat="48.80951" lon="2.1979">
        <ele>136</ele>
        <time>2012-12-16T15:20:49Z</time>
      </trkpt>
      <trkpt lat="48.80953" lon="2.19801">
        <ele>137</ele>
        <time>2012-12-16T15:20:54Z</time>
      </trkpt>
      <trkpt lat="48.80956" lon="2.19808">
        <ele>137</ele>
        <time>2012-12-16T15:20:57Z</time>
      </trkpt>
      <trkpt lat="48.80954" lon="2.19816">
        <ele>138</ele>
        <time>2012-12-16T15:21:02Z</time>
      </trkpt>
      <trkpt lat="48.80953" lon="2.19824">
        <ele>138</ele>
        <time>2012-12-16T15:21:07Z</time>
      </trkpt>
      <trkpt lat="48.8095" lon="2.19832">
        <ele>138</ele>
        <time>2012-12-16T15:21:14Z</time>
      </trkpt>
      <trkpt lat="48.80944" lon="2.19845">
        <ele>143</ele>
        <time>2012-12-16T15:21:21Z</time>
      </trkpt>
      <trkpt lat="48.80941" lon="2.19851">
        <ele>143</ele>
        <time>2012-12-16T15:21:25Z</time>
      </trkpt>
      <trkpt lat="48.80938" lon="2.19861">
        <ele>143</ele>
        <time>2012-12-16T15:21:29Z</time>
      </trkpt>
      <trkpt lat="48.80933" lon="2.19866">
        <ele>143</ele>
        <time>2012-12-16T15:21:34Z</time>
      </trkpt>
      <trkpt lat="48.80924" lon="2.19875">
        <ele>143</ele>
        <time>2012-12-16T15:21:40Z</time>
      </trkpt>
      <trkpt lat="48.80925" lon="2.19883">
        <ele>144</ele>
        <time>2012-12-16T15:21:46Z</time>
      </trkpt>
      <trkpt lat="48.80928" lon="2.19888">
        <ele>144</ele>
        <time>2012-12-16T15:21:50Z</time>
      </trkpt>
      <trkpt lat="48.8093" lon="2.19894">
        <ele>144</ele>
        <time>2012-12-16T15:21:56Z</time>
      </trkpt>
      <trkpt lat="48.80934" lon="2.199">
        <ele>145</ele>
        <time>2012-12-16T15:22:02Z</time>
      </trkpt>
      <trkpt lat="48.80933" lon="2.19907">
        <ele>145</ele>
        <time>2012-12-16T15:22:06Z</time>
      </trkpt>
      <trkpt lat="48.80929" lon="2.19913">
        <ele>144</ele>
        <time>2012-12-16T15:22:10Z</time>
      </trkpt>
      <trkpt lat="48.8093" lon="2.19922">
        <ele>147</ele>
        <time>2012-12-16T15:22:15Z</time>
      </trkpt>
      <trkpt lat="48.80933" lon="2.19929">
        <ele>149</ele>
        <time>2012-12-16T15:22:19Z</time>
      </trkpt>
      <trkpt lat="48.80936" lon="2.19935">
        <ele>150</ele>
        <time>2012-12-16T15:22:22Z</time>
      </trkpt>
      <trkpt lat="48.80936" lon="2.19949">
        <ele>151</ele>
        <time>2012-12-16T15:22:31Z</time>
      </trkpt>
      <trkpt lat="48.80935" lon="2.19957">
        <ele>151</ele>
        <time>2012-12-16T15:22:35Z</time>
      </trkpt>
      <trkpt lat="48.80931" lon="2.19963">
        <ele>151</ele>
        <time>2012-12-16T15:22:39Z</time>
      </trkpt>
      <trkpt lat="48.80928" lon="2.1997">
        <ele>151</ele>
        <time>2012-12-16T15:22:44Z</time>
      </trkpt>
      <trkpt lat="48.80926" lon="2.19977">
        <ele>151</ele>
        <time>2012-12-16T15:22:50Z</time>
      </trkpt>
      <trkpt lat="48.80929" lon="2.19982">
        <ele>152</ele>
        <time>2012-12-16T15:22:55Z</time>
      </trkpt>
      <trkpt lat="48.80934" lon="2.19981">
        <ele>152</ele>
        <time>2012-12-16T15:23:01Z</time>
      </trkpt>
      <trkpt lat="48.80944" lon="2.19982">
        <ele>153</ele>
        <time>2012-12-16T15:23:09Z</time>
      </trkpt>
      <trkpt lat="48.80949" lon="2.19985">
        <ele>153</ele>
        <time>2012-12-16T15:23:14Z</time>
      </trkpt>
      <trkpt lat="48.80954" lon="2.19985">
        <ele>154</ele>
        <time>2012-12-16T15:23:20Z</time>
      </trkpt>
      <trkpt lat="48.80959" lon="2.19984">
        <ele>154</ele>
        <time>2012-12-16T15:23:27Z</time>
      </trkpt>
      <trkpt lat="48.80964" lon="2.19989">
        <ele>155</ele>
        <time>2012-12-16T15:23:30Z</time>
      </trkpt>
      <trkpt lat="48.80968" lon="2.19991">
        <ele>155</ele>
        <time>2012-12-16T15:23:34Z</time>
      </trkpt>
      <trkpt lat="48.80971" lon="2.19998">
        <ele>156</ele>
        <time>2012-12-16T15:23:39Z</time>
      </trkpt>
      <trkpt lat="48.80976" lon="2.20003">
        <ele>160</ele>
        <time>2012-12-16T15:23:42Z</time>
      </trkpt>
      <trkpt lat="48.80981" lon="2.20005">
        <ele>161</ele>
        <time>2012-12-16T15:23:46Z</time>
      </trkpt>
      <trkpt lat="48.80985" lon="2.20008">
        <ele>161</ele>
        <time>2012-12-16T15:23:50Z</time>
      </trkpt>
      <trkpt lat="48.8099" lon="2.20008">
        <ele>161</ele>
        <time>2012-12-16T15:23:54Z</time>
      </trkpt>
      <trkpt lat="48.80994" lon="2.20011">
        <ele>162</ele>
        <time>2012-12-16T15:23:59Z</time>
      </trkpt>
      <trkpt lat="48.81" lon="2.20012">
        <ele>165</ele>
        <time>2012-12-16T15:24:05Z</time>
      </trkpt>
      <trkpt lat="48.81006" lon="2.20016">
        <ele>165</ele>
        <time>2012-12-16T15:24:09Z</time>
      </trkpt>
      <trkpt lat="48.8101" lon="2.20022">
        <ele>166</ele>
        <time>2012-12-16T15:24:12Z</time>
      </trkpt>
      <trkpt lat="48.81013" lon="2.20026">
        <ele>166</ele>
        <time>2012-12-16T15:24:17Z</time>
      </trkpt>
      <trkpt lat="48.81018" lon="2.20028">
        <ele>167</ele>
        <time>2012-12-16T15:24:21Z</time>
      </trkpt>
      <trkpt lat="48.81024" lon="2.20027">
        <ele>167</ele>
        <time>2012-12-16T15:24:26Z</time>
      </trkpt>
      <trkpt lat="48.81028" lon="2.2003">
        <ele>167</ele>
        <time>2012-12-16T15:24:44Z</time>
      </trkpt>
      <trkpt lat="48.8103" lon="2.20037">
        <ele>167</ele>
        <time>2012-12-16T15:25:36Z</time>
      </trkpt>
      <trkpt lat="48.81028" lon="2.20045">
        <ele>167</ele>
        <time>2012-12-16T15:26:37Z</time>
      </trkpt>
      <trkpt lat="48.81025" lon="2.20037">
        <ele>167</ele>
        <time>2012-12-16T15:29:57Z</time>
      </trkpt>
      <trkpt lat="48.81021" lon="2.20034">
        <ele>167</ele>
        <time>2012-12-16T15:30:54Z</time>
      </trkpt>
      <trkpt lat="48.81026" lon="2.20036">
        <ele>167</ele>
        <time>2012-12-16T15:31:06Z</time>
      </trkpt>
      <trkpt lat="48.81031" lon="2.20035">
        <ele>167</ele>
        <time>2012-12-16T15:31:09Z</time>
      </trkpt>
      <trkpt lat="48.81036" lon="2.2004">
        <ele>168</ele>
        <time>2012-12-16T15:31:14Z</time>
      </trkpt>
      <trkpt lat="48.81042" lon="2.20044">
        <ele>168</ele>
        <time>2012-12-16T15:31:24Z</time>
      </trkpt>
      <trkpt lat="48.81047" lon="2.20047">
        <ele>168</ele>
        <time>2012-12-16T15:31:30Z</time>
      </trkpt>
      <trkpt lat="48.81052" lon="2.20049">
        <ele>168</ele>
        <time>2012-12-16T15:31:34Z</time>
      </trkpt>
      <trkpt lat="48.81059" lon="2.20052">
        <ele>168</ele>
        <time>2012-12-16T15:31:39Z</time>
      </trkpt>
      <trkpt lat="48.81063" lon="2.20054">
        <ele>168</ele>
        <time>2012-12-16T15:31:42Z</time>
      </trkpt>
      <trkpt lat="48.81069" lon="2.20055">
        <ele>169</ele>
        <time>2012-12-16T15:31:47Z</time>
      </trkpt>
      <trkpt lat="48.81073" lon="2.20057">
        <ele>169</ele>
        <time>2012-12-16T15:31:50Z</time>
      </trkpt>
      <trkpt lat="48.81078" lon="2.20056">
        <ele>169</ele>
        <time>2012-12-16T15:31:54Z</time>
      </trkpt>
      <trkpt lat="48.81085" lon="2.20058">
        <ele>170</ele>
        <time>2012-12-16T15:31:59Z</time>
      </trkpt>
      <trkpt lat="48.8109" lon="2.20059">
        <ele>170</ele>
        <time>2012-12-16T15:32:02Z</time>
      </trkpt>
      <trkpt lat="48.81096" lon="2.20061">
        <ele>170</ele>
        <time>2012-12-16T15:32:07Z</time>
      </trkpt>
      <trkpt lat="48.811" lon="2.20063">
        <ele>170</ele>
        <time>2012-12-16T15:32:10Z</time>
      </trkpt>
      <trkpt lat="48.81105" lon="2.20065">
        <ele>170</ele>
        <time>2012-12-16T15:32:16Z</time>
      </trkpt>
      <trkpt lat="48.8111" lon="2.20069">
        <ele>170</ele>
        <time>2012-12-16T15:32:19Z</time>
      </trkpt>
      <trkpt lat="48.81117" lon="2.20071">
        <ele>170</ele>
        <time>2012-12-16T15:32:24Z</time>
      </trkpt>
      <trkpt lat="48.81124" lon="2.20073">
        <ele>170</ele>
        <time>2012-12-16T15:32:29Z</time>
      </trkpt>
      <trkpt lat="48.81131" lon="2.20076">
        <ele>170</ele>
        <time>2012-12-16T15:32:34Z</time>
      </trkpt>
      <trkpt lat="48.81136" lon="2.20075">
        <ele>170</ele>
        <time>2012-12-16T15:32:37Z</time>
      </trkpt>
      <trkpt lat="48.81145" lon="2.20079">
        <ele>170</ele>
        <time>2012-12-16T15:32:45Z</time>
      </trkpt>
      <trkpt lat="48.81156" lon="2.20082">
        <ele>170</ele>
        <time>2012-12-16T15:32:52Z</time>
      </trkpt>
      <trkpt lat="48.81161" lon="2.20084">
        <ele>170</ele>
        <time>2012-12-16T15:32:55Z</time>
      </trkpt>
      <trkpt lat="48.81165" lon="2.20087">
        <ele>170</ele>
        <time>2012-12-16T15:33:00Z</time>
      </trkpt>
      <trkpt lat="48.81172" lon="2.20089">
        <ele>169</ele>
        <time>2012-12-16T15:33:04Z</time>
      </trkpt>
      <trkpt lat="48.81178" lon="2.2009">
        <ele>168</ele>
        <time>2012-12-16T15:33:07Z</time>
      </trkpt>
      <trkpt lat="48.81182" lon="2.20091">
        <ele>167</ele>
        <time>2012-12-16T15:33:11Z</time>
      </trkpt>
      <trkpt lat="48.81194" lon="2.20093">
        <ele>166</ele>
        <time>2012-12-16T15:33:19Z</time>
      </trkpt>
      <trkpt lat="48.81199" lon="2.20095">
        <ele>166</ele>
        <time>2012-12-16T15:33:24Z</time>
      </trkpt>
      <trkpt lat="48.81207" lon="2.20099">
        <ele>165</ele>
        <time>2012-12-16T15:33:29Z</time>
      </trkpt>
      <trkpt lat="48.81213" lon="2.20103">
        <ele>165</ele>
        <time>2012-12-16T15:33:32Z</time>
      </trkpt>
      <trkpt lat="48.81218" lon="2.20103">
        <ele>164</ele>
        <time>2012-12-16T15:33:36Z</time>
      </trkpt>
      <trkpt lat="48.81223" lon="2.20107">
        <ele>164</ele>
        <time>2012-12-16T15:33:40Z</time>
      </trkpt>
      <trkpt lat="48.81228" lon="2.2011">
        <ele>164</ele>
        <time>2012-12-16T15:33:44Z</time>
      </trkpt>
      <trkpt lat="48.81233" lon="2.20117">
        <ele>164</ele>
        <time>2012-12-16T15:33:49Z</time>
      </trkpt>
      <trkpt lat="48.81236" lon="2.20125">
        <ele>164</ele>
        <time>2012-12-16T15:33:52Z</time>
      </trkpt>
      <trkpt lat="48.81237" lon="2.20132">
        <ele>164</ele>
        <time>2012-12-16T15:33:55Z</time>
      </trkpt>
      <trkpt lat="48.8124" lon="2.2014">
        <ele>164</ele>
        <time>2012-12-16T15:33:59Z</time>
      </trkpt>
      <trkpt lat="48.81244" lon="2.20154">
        <ele>164</ele>
        <time>2012-12-16T15:34:06Z</time>
      </trkpt>
      <trkpt lat="48.81245" lon="2.20163">
        <ele>163</ele>
        <time>2012-12-16T15:34:09Z</time>
      </trkpt>
      <trkpt lat="48.8125" lon="2.2017">
        <ele>164</ele>
        <time>2012-12-16T15:34:14Z</time>
      </trkpt>
      <trkpt lat="48.81252" lon="2.20178">
        <ele>163</ele>
        <time>2012-12-16T15:34:17Z</time>
      </trkpt>
      <trkpt lat="48.81254" lon="2.20184">
        <ele>164</ele>
        <time>2012-12-16T15:34:22Z</time>
      </trkpt>
      <trkpt lat="48.81257" lon="2.20192">
        <ele>164</ele>
        <time>2012-12-16T15:34:25Z</time>
      </trkpt>
      <trkpt lat="48.8126" lon="2.20198">
        <ele>164</ele>
        <time>2012-12-16T15:34:29Z</time>
      </trkpt>
      <trkpt lat="48.81263" lon="2.20205">
        <ele>164</ele>
        <time>2012-12-16T15:34:32Z</time>
      </trkpt>
      <trkpt lat="48.81264" lon="2.20213">
        <ele>165</ele>
        <time>2012-12-16T15:34:36Z</time>
      </trkpt>
      <trkpt lat="48.81268" lon="2.20225">
        <ele>165</ele>
        <time>2012-12-16T15:34:45Z</time>
      </trkpt>
      <trkpt lat="48.8127" lon="2.20233">
        <ele>165</ele>
        <time>2012-12-16T15:34:49Z</time>
      </trkpt>
      <trkpt lat="48.81272" lon="2.20241">
        <ele>166</ele>
        <time>2012-12-16T15:34:52Z</time>
      </trkpt>
      <trkpt lat="48.81273" lon="2.20249">
        <ele>166</ele>
        <time>2012-12-16T15:34:55Z</time>
      </trkpt>
      <trkpt lat="48.81273" lon="2.20257">
        <ele>168</ele>
        <time>2012-12-16T15:35:00Z</time>
      </trkpt>
      <trkpt lat="48.81277" lon="2.20267">
        <ele>168</ele>
        <time>2012-12-16T15:35:04Z</time>
      </trkpt>
      <trkpt lat="48.81278" lon="2.20273">
        <ele>168</ele>
        <time>2012-12-16T15:35:07Z</time>
      </trkpt>
      <trkpt lat="48.81281" lon="2.20281">
        <ele>168</ele>
        <time>2012-12-16T15:35:12Z</time>
      </trkpt>
      <trkpt lat="48.81283" lon="2.20288">
        <ele>168</ele>
        <time>2012-12-16T15:35:15Z</time>
      </trkpt>
      <trkpt lat="48.81287" lon="2.20296">
        <ele>168</ele>
        <time>2012-12-16T15:35:19Z</time>
      </trkpt>
      <trkpt lat="48.8129" lon="2.20306">
        <ele>168</ele>
        <time>2012-12-16T15:35:24Z</time>
      </trkpt>
      <trkpt lat="48.81292" lon="2.20313">
        <ele>167</ele>
        <time>2012-12-16T15:35:27Z</time>
      </trkpt>
      <trkpt lat="48.81295" lon="2.20326">
        <ele>167</ele>
        <time>2012-12-16T15:35:35Z</time>
      </trkpt>
      <trkpt lat="48.813" lon="2.20338">
        <ele>168</ele>
        <time>2012-12-16T15:35:39Z</time>
      </trkpt>
      <trkpt lat="48.81303" lon="2.20346">
        <ele>168</ele>
        <time>2012-12-16T15:35:44Z</time>
      </trkpt>
      <trkpt lat="48.81307" lon="2.20357">
        <ele>168</ele>
        <time>2012-12-16T15:35:49Z</time>
      </trkpt>
      <trkpt lat="48.81309" lon="2.20364">
        <ele>168</ele>
        <time>2012-12-16T15:35:54Z</time>
      </trkpt>
      <trkpt lat="48.81312" lon="2.20375">
        <ele>168</ele>
        <time>2012-12-16T15:35:59Z</time>
      </trkpt>
      <trkpt lat="48.81314" lon="2.20386">
        <ele>169</ele>
        <time>2012-12-16T15:36:04Z</time>
      </trkpt>
      <trkpt lat="48.81315" lon="2.20392">
        <ele>169</ele>
        <time>2012-12-16T15:36:07Z</time>
      </trkpt>
      <trkpt lat="48.81319" lon="2.20401">
        <ele>169</ele>
        <time>2012-12-16T15:36:10Z</time>
      </trkpt>
      <trkpt lat="48.81321" lon="2.20407">
        <ele>169</ele>
        <time>2012-12-16T15:36:15Z</time>
      </trkpt>
      <trkpt lat="48.81324" lon="2.20417">
        <ele>169</ele>
        <time>2012-12-16T15:36:19Z</time>
      </trkpt>
      <trkpt lat="48.81325" lon="2.20426">
        <ele>170</ele>
        <time>2012-12-16T15:36:24Z</time>
      </trkpt>
      <trkpt lat="48.81327" lon="2.20435">
        <ele>170</ele>
        <time>2012-12-16T15:36:29Z</time>
      </trkpt>
      <trkpt lat="48.81329" lon="2.20443">
        <ele>170</ele>
        <time>2012-12-16T15:36:32Z</time>
      </trkpt>
      <trkpt lat="48.81332" lon="2.20449">
        <ele>171</ele>
        <time>2012-12-16T15:36:37Z</time>
      </trkpt>
      <trkpt lat="48.81335" lon="2.20457">
        <ele>169</ele>
        <time>2012-12-16T15:36:40Z</time>
      </trkpt>
      <trkpt lat="48.81338" lon="2.20466">
        <ele>169</ele>
        <time>2012-12-16T15:36:44Z</time>
      </trkpt>
      <trkpt lat="48.81341" lon="2.20476">
        <ele>170</ele>
        <time>2012-12-16T15:36:49Z</time>
      </trkpt>
      <trkpt lat="48.81343" lon="2.20482">
        <ele>170</ele>
        <time>2012-12-16T15:36:51Z</time>
      </trkpt>
      <trkpt lat="48.81344" lon="2.2049">
        <ele>170</ele>
        <time>2012-12-16T15:36:54Z</time>
      </trkpt>
      <trkpt lat="48.81349" lon="2.20502">
        <ele>171</ele>
        <time>2012-12-16T15:37:02Z</time>
      </trkpt>
      <trkpt lat="48.81351" lon="2.20509">
        <ele>171</ele>
        <time>2012-12-16T15:37:06Z</time>
      </trkpt>
      <trkpt lat="48.81352" lon="2.20518">
        <ele>171</ele>
        <time>2012-12-16T15:37:10Z</time>
      </trkpt>
      <trkpt lat="48.81354" lon="2.20527">
        <ele>171</ele>
        <time>2012-12-16T15:37:14Z</time>
      </trkpt>
      <trkpt lat="48.81356" lon="2.20533">
        <ele>171</ele>
        <time>2012-12-16T15:37:19Z</time>
      </trkpt>
      <trkpt lat="48.81358" lon="2.2054">
        <ele>171</ele>
        <time>2012-12-16T15:37:22Z</time>
      </trkpt>
      <trkpt lat="48.81358" lon="2.20548">
        <ele>171</ele>
        <time>2012-12-16T15:37:25Z</time>
      </trkpt>
      <trkpt lat="48.81361" lon="2.20555">
        <ele>171</ele>
        <time>2012-12-16T15:37:29Z</time>
      </trkpt>
      <trkpt lat="48.81364" lon="2.20563">
        <ele>171</ele>
        <time>2012-12-16T15:37:32Z</time>
      </trkpt>
      <trkpt lat="48.81367" lon="2.20568">
        <ele>171</ele>
        <time>2012-12-16T15:37:36Z</time>
      </trkpt>
      <trkpt lat="48.8137" lon="2.20576">
        <ele>170</ele>
        <time>2012-12-16T15:37:39Z</time>
      </trkpt>
      <trkpt lat="48.81372" lon="2.20591">
        <ele>169</ele>
        <time>2012-12-16T15:37:44Z</time>
      </trkpt>
      <trkpt lat="48.81374" lon="2.20601">
        <ele>169</ele>
        <time>2012-12-16T15:37:49Z</time>
      </trkpt>
      <trkpt lat="48.81378" lon="2.20609">
        <ele>169</ele>
        <time>2012-12-16T15:37:54Z</time>
      </trkpt>
      <trkpt lat="48.81381" lon="2.20619">
        <ele>169</ele>
        <time>2012-12-16T15:37:59Z</time>
      </trkpt>
      <trkpt lat="48.81384" lon="2.20625">
        <ele>168</ele>
        <time>2012-12-16T15:38:02Z</time>
      </trkpt>
      <trkpt lat="48.81385" lon="2.20632">
        <ele>168</ele>
        <time>2012-12-16T15:38:07Z</time>
      </trkpt>
      <trkpt lat="48.81381" lon="2.20637">
        <ele>168</ele>
        <time>2012-12-16T15:38:09Z</time>
      </trkpt>
      <trkpt lat="48.81378" lon="2.20643">
        <ele>168</ele>
        <time>2012-12-16T15:38:11Z</time>
      </trkpt>
      <trkpt lat="48.81375" lon="2.2065">
        <ele>168</ele>
        <time>2012-12-16T15:38:14Z</time>
      </trkpt>
      <trkpt lat="48.81378" lon="2.20659">
        <ele>168</ele>
        <time>2012-12-16T15:38:24Z</time>
      </trkpt>
      <trkpt lat="48.81384" lon="2.20656">
        <ele>168</ele>
        <time>2012-12-16T15:38:29Z</time>
      </trkpt>
      <trkpt lat="48.81387" lon="2.2066">
        <ele>168</ele>
        <time>2012-12-16T15:38:32Z</time>
      </trkpt>
      <trkpt lat="48.81393" lon="2.20661">
        <ele>167</ele>
        <time>2012-12-16T15:38:36Z</time>
      </trkpt>
      <trkpt lat="48.81398" lon="2.20665">
        <ele>167</ele>
        <time>2012-12-16T15:38:39Z</time>
      </trkpt>
      <trkpt lat="48.81401" lon="2.20672">
        <ele>165</ele>
        <time>2012-12-16T15:38:42Z</time>
      </trkpt>
      <trkpt lat="48.81404" lon="2.20679">
        <ele>165</ele>
        <time>2012-12-16T15:38:49Z</time>
      </trkpt>
      <trkpt lat="48.81408" lon="2.20683">
        <ele>165</ele>
        <time>2012-12-16T15:38:55Z</time>
      </trkpt>
      <trkpt lat="48.81412" lon="2.20694">
        <ele>165</ele>
        <time>2012-12-16T15:38:59Z</time>
      </trkpt>
      <trkpt lat="48.81414" lon="2.20703">
        <ele>165</ele>
        <time>2012-12-16T15:39:04Z</time>
      </trkpt>
      <trkpt lat="48.81417" lon="2.20711">
        <ele>165</ele>
        <time>2012-12-16T15:39:07Z</time>
      </trkpt>
      <trkpt lat="48.81421" lon="2.20713">
        <ele>165</ele>
        <time>2012-12-16T15:39:11Z</time>
      </trkpt>
      <trkpt lat="48.81426" lon="2.20714">
        <ele>165</ele>
        <time>2012-12-16T15:39:15Z</time>
      </trkpt>
      <trkpt lat="48.81431" lon="2.20712">
        <ele>165</ele>
        <time>2012-12-16T15:39:19Z</time>
      </trkpt>
      <trkpt lat="48.81436" lon="2.20713">
        <ele>165</ele>
        <time>2012-12-16T15:39:24Z</time>
      </trkpt>
      <trkpt lat="48.81441" lon="2.20714">
        <ele>165</ele>
        <time>2012-12-16T15:39:27Z</time>
      </trkpt>
      <trkpt lat="48.81447" lon="2.20714">
        <ele>165</ele>
        <time>2012-12-16T15:39:31Z</time>
      </trkpt>
      <trkpt lat="48.81453" lon="2.20718">
        <ele>165</ele>
        <time>2012-12-16T15:39:34Z</time>
      </trkpt>
      <trkpt lat="48.81456" lon="2.20722">
        <ele>165</ele>
        <time>2012-12-16T15:39:36Z</time>
      </trkpt>
      <trkpt lat="48.81461" lon="2.20726">
        <ele>165</ele>
        <time>2012-12-16T15:39:41Z</time>
      </trkpt>
      <trkpt lat="48.81465" lon="2.20732">
        <ele>164</ele>
        <time>2012-12-16T15:39:44Z</time>
      </trkpt>
      <trkpt lat="48.81469" lon="2.20737">
        <ele>164</ele>
        <time>2012-12-16T15:39:49Z</time>
      </trkpt>
      <trkpt lat="48.81472" lon="2.20742">
        <ele>164</ele>
        <time>2012-12-16T15:39:52Z</time>
      </trkpt>
      <trkpt lat="48.81476" lon="2.20747">
        <ele>164</ele>
        <time>2012-12-16T15:39:55Z</time>
      </trkpt>
      <trkpt lat="48.81481" lon="2.20753">
        <ele>163</ele>
        <time>2012-12-16T15:40:01Z</time>
      </trkpt>
      <trkpt lat="48.81486" lon="2.20759">
        <ele>164</ele>
        <time>2012-12-16T15:40:04Z</time>
      </trkpt>
      <trkpt lat="48.81489" lon="2.20764">
        <ele>163</ele>
        <time>2012-12-16T15:40:06Z</time>
      </trkpt>
      <trkpt lat="48.81492" lon="2.2077">
        <ele>163</ele>
        <time>2012-12-16T15:40:10Z</time>
      </trkpt>
      <trkpt lat="48.81495" lon="2.20778">
        <ele>163</ele>
        <time>2012-12-16T15:40:14Z</time>
      </trkpt>
      <trkpt lat="48.81496" lon="2.20785">
        <ele>163</ele>
        <time>2012-12-16T15:40:20Z</time>
      </trkpt>
      <trkpt lat="48.81498" lon="2.20792">
        <ele>163</ele>
        <time>2012-12-16T15:40:24Z</time>
      </trkpt>
      <trkpt lat="48.81502" lon="2.20802">
        <ele>161</ele>
        <time>2012-12-16T15:40:29Z</time>
      </trkpt>
      <trkpt lat="48.81504" lon="2.20811">
        <ele>161</ele>
        <time>2012-12-16T15:40:32Z</time>
      </trkpt>
      <trkpt lat="48.81507" lon="2.20818">
        <ele>162</ele>
        <time>2012-12-16T15:40:37Z</time>
      </trkpt>
      <trkpt lat="48.81509" lon="2.20825">
        <ele>162</ele>
        <time>2012-12-16T15:40:41Z</time>
      </trkpt>
      <trkpt lat="48.8151" lon="2.20832">
        <ele>162</ele>
        <time>2012-12-16T15:40:45Z</time>
      </trkpt>
      <trkpt lat="48.81513" lon="2.20839">
        <ele>161</ele>
        <time>2012-12-16T15:40:49Z</time>
      </trkpt>
      <trkpt lat="48.81517" lon="2.20846">
        <ele>161</ele>
        <time>2012-12-16T15:40:54Z</time>
      </trkpt>
      <trkpt lat="48.81521" lon="2.20853">
        <ele>160</ele>
        <time>2012-12-16T15:40:57Z</time>
      </trkpt>
      <trkpt lat="48.81523" lon="2.20859">
        <ele>160</ele>
        <time>2012-12-16T15:41:01Z</time>
      </trkpt>
      <trkpt lat="48.81527" lon="2.20864">
        <ele>160</ele>
        <time>2012-12-16T15:41:04Z</time>
      </trkpt>
      <trkpt lat="48.81531" lon="2.20871">
        <ele>160</ele>
        <time>2012-12-16T15:41:09Z</time>
      </trkpt>
      <trkpt lat="48.81534" lon="2.20877">
        <ele>160</ele>
        <time>2012-12-16T15:41:12Z</time>
      </trkpt>
      <trkpt lat="48.81537" lon="2.20884">
        <ele>159</ele>
        <time>2012-12-16T15:41:19Z</time>
      </trkpt>
      <trkpt lat="48.81542" lon="2.20885">
        <ele>159</ele>
        <time>2012-12-16T15:41:25Z</time>
      </trkpt>
      <trkpt lat="48.81547" lon="2.20886">
        <ele>159</ele>
        <time>2012-12-16T15:41:31Z</time>
      </trkpt>
      <trkpt lat="48.81551" lon="2.20893">
        <ele>159</ele>
        <time>2012-12-16T15:41:35Z</time>
      </trkpt>
      <trkpt lat="48.81556" lon="2.20899">
        <ele>158</ele>
        <time>2012-12-16T15:41:37Z</time>
      </trkpt>
      <trkpt lat="48.81561" lon="2.20902">
        <ele>158</ele>
        <time>2012-12-16T15:41:39Z</time>
      </trkpt>
      <trkpt lat="48.81565" lon="2.20909">
        <ele>157</ele>
        <time>2012-12-16T15:41:44Z</time>
      </trkpt>
      <trkpt lat="48.81569" lon="2.20916">
        <ele>156</ele>
        <time>2012-12-16T15:41:50Z</time>
      </trkpt>
      <trkpt lat="48.81572" lon="2.20923">
        <ele>156</ele>
        <time>2012-12-16T15:41:54Z</time>
      </trkpt>
      <trkpt lat="48.81576" lon="2.20928">
        <ele>156</ele>
        <time>2012-12-16T15:41:59Z</time>
      </trkpt>
      <trkpt lat="48.8158" lon="2.20934">
        <ele>156</ele>
        <time>2012-12-16T15:42:02Z</time>
      </trkpt>
      <trkpt lat="48.81584" lon="2.2094">
        <ele>152</ele>
        <time>2012-12-16T15:42:06Z</time>
      </trkpt>
      <trkpt lat="48.81588" lon="2.20946">
        <ele>152</ele>
        <time>2012-12-16T15:42:09Z</time>
      </trkpt>
      <trkpt lat="48.81595" lon="2.20954">
        <ele>152</ele>
        <time>2012-12-16T15:42:16Z</time>
      </trkpt>
      <trkpt lat="48.81599" lon="2.20958">
        <ele>152</ele>
        <time>2012-12-16T15:42:20Z</time>
      </trkpt>
      <trkpt lat="48.81604" lon="2.2096">
        <ele>151</ele>
        <time>2012-12-16T15:42:24Z</time>
      </trkpt>
      <trkpt lat="48.81606" lon="2.2097">
        <ele>152</ele>
        <time>2012-12-16T15:42:29Z</time>
      </trkpt>
      <trkpt lat="48.81608" lon="2.20977">
        <ele>152</ele>
        <time>2012-12-16T15:42:32Z</time>
      </trkpt>
      <trkpt lat="48.81613" lon="2.20975">
        <ele>151</ele>
        <time>2012-12-16T15:42:37Z</time>
      </trkpt>
      <trkpt lat="48.81618" lon="2.20977">
        <ele>151</ele>
        <time>2012-12-16T15:42:41Z</time>
      </trkpt>
      <trkpt lat="48.81624" lon="2.20981">
        <ele>151</ele>
        <time>2012-12-16T15:42:46Z</time>
      </trkpt>
      <trkpt lat="48.81629" lon="2.20985">
        <ele>151</ele>
        <time>2012-12-16T15:42:49Z</time>
      </trkpt>
      <trkpt lat="48.81635" lon="2.20987">
        <ele>150</ele>
        <time>2012-12-16T15:42:54Z</time>
      </trkpt>
      <trkpt lat="48.81641" lon="2.2099">
        <ele>150</ele>
        <time>2012-12-16T15:42:59Z</time>
      </trkpt>
      <trkpt lat="48.81646" lon="2.20991">
        <ele>150</ele>
        <time>2012-12-16T15:43:02Z</time>
      </trkpt>
      <trkpt lat="48.8165" lon="2.20986">
        <ele>150</ele>
        <time>2012-12-16T15:43:06Z</time>
      </trkpt>
      <trkpt lat="48.81653" lon="2.20981">
        <ele>150</ele>
        <time>2012-12-16T15:43:10Z</time>
      </trkpt>
      <trkpt lat="48.81656" lon="2.20974">
        <ele>150</ele>
        <time>2012-12-16T15:43:14Z</time>
      </trkpt>
      <trkpt lat="48.8166" lon="2.20978">
        <ele>150</ele>
        <time>2012-12-16T15:43:20Z</time>
      </trkpt>
      <trkpt lat="48.8166" lon="2.20985">
        <ele>150</ele>
        <time>2012-12-16T15:43:25Z</time>
      </trkpt>
      <trkpt lat="48.81662" lon="2.20993">
        <ele>149</ele>
        <time>2012-12-16T15:43:29Z</time>
      </trkpt>
      <trkpt lat="48.81664" lon="2.21003">
        <ele>150</ele>
        <time>2012-12-16T15:43:34Z</time>
      </trkpt>
      <trkpt lat="48.81659" lon="2.21006">
        <ele>151</ele>
        <time>2012-12-16T15:45:02Z</time>
      </trkpt>
      <trkpt lat="48.81659" lon="2.21013">
        <ele>151</ele>
        <time>2012-12-16T15:45:45Z</time>
      </trkpt>
      <trkpt lat="48.81663" lon="2.21017">
        <ele>152</ele>
        <time>2012-12-16T15:45:54Z</time>
      </trkpt>
      <trkpt lat="48.81661" lon="2.21025">
        <ele>152</ele>
        <time>2012-12-16T15:46:00Z</time>
      </trkpt>
      <trkpt lat="48.81662" lon="2.21034">
        <ele>153</ele>
        <time>2012-12-16T15:46:05Z</time>
      </trkpt>
      <trkpt lat="48.81663" lon="2.21043">
        <ele>153</ele>
        <time>2012-12-16T15:46:10Z</time>
      </trkpt>
      <trkpt lat="48.81664" lon="2.21049">
        <ele>154</ele>
        <time>2012-12-16T15:46:14Z</time>
      </trkpt>
      <trkpt lat="48.81663" lon="2.21059">
        <ele>154</ele>
        <time>2012-12-16T15:46:19Z</time>
      </trkpt>
      <trkpt lat="48.81664" lon="2.21069">
        <ele>154</ele>
        <time>2012-12-16T15:46:24Z</time>
      </trkpt>
      <trkpt lat="48.81664" lon="2.21077">
        <ele>154</ele>
        <time>2012-12-16T15:46:27Z</time>
      </trkpt>
      <trkpt lat="48.81665" lon="2.21086">
        <ele>154</ele>
        <time>2012-12-16T15:46:31Z</time>
      </trkpt>
      <trkpt lat="48.81665" lon="2.21094">
        <ele>155</ele>
        <time>2012-12-16T15:46:34Z</time>
      </trkpt>
      <trkpt lat="48.81666" lon="2.21101">
        <ele>155</ele>
        <time>2012-12-16T15:46:39Z</time>
      </trkpt>
      <trkpt lat="48.81665" lon="2.21116">
        <ele>156</ele>
        <time>2012-12-16T15:46:49Z</time>
      </trkpt>
      <trkpt lat="48.81664" lon="2.21123">
        <ele>156</ele>
        <time>2012-12-16T15:46:54Z</time>
      </trkpt>
      <trkpt lat="48.81664" lon="2.21132">
        <ele>155</ele>
        <time>2012-12-16T15:46:59Z</time>
      </trkpt>
      <trkpt lat="48.81666" lon="2.21141">
        <ele>155</ele>
        <time>2012-12-16T15:47:04Z</time>
      </trkpt>
      <trkpt lat="48.81667" lon="2.21152">
        <ele>154</ele>
        <time>2012-12-16T15:47:09Z</time>
      </trkpt>
      <trkpt lat="48.81667" lon="2.2116">
        <ele>150</ele>
        <time>2012-12-16T15:47:14Z</time>
      </trkpt>
      <trkpt lat="48.81667" lon="2.21169">
        <ele>151</ele>
        <time>2012-12-16T15:47:19Z</time>
      </trkpt>
      <trkpt lat="48.81667" lon="2.21179">
        <ele>153</ele>
        <time>2012-12-16T15:47:24Z</time>
      </trkpt>
      <trkpt lat="48.81665" lon="2.21193">
        <ele>154</ele>
        <time>2012-12-16T15:47:30Z</time>
      </trkpt>
      <trkpt lat="48.81664" lon="2.212">
        <ele>154</ele>
        <time>2012-12-16T15:47:34Z</time>
      </trkpt>
      <trkpt lat="48.81664" lon="2.21209">
        <ele>154</ele>
        <time>2012-12-16T15:47:39Z</time>
      </trkpt>
      <trkpt lat="48.81665" lon="2.21219">
        <ele>153</ele>
        <time>2012-12-16T15:47:44Z</time>
      </trkpt>
      <trkpt lat="48.81666" lon="2.21227">
        <ele>152</ele>
        <time>2012-12-16T15:47:47Z</time>
      </trkpt>
      <trkpt lat="48.81666" lon="2.21234">
        <ele>151</ele>
        <time>2012-12-16T15:47:50Z</time>
      </trkpt>
      <trkpt lat="48.81665" lon="2.21242">
        <ele>149</ele>
        <time>2012-12-16T15:47:55Z</time>
      </trkpt>
      <trkpt lat="48.81667" lon="2.21249">
        <ele>147</ele>
        <time>2012-12-16T15:48:00Z</time>
      </trkpt>
      <trkpt lat="48.81668" lon="2.21258">
        <ele>143</ele>
        <time>2012-12-16T15:48:04Z</time>
      </trkpt>
      <trkpt lat="48.81667" lon="2.21267">
        <ele>149</ele>
        <time>2012-12-16T15:48:07Z</time>
      </trkpt>
      <trkpt lat="48.81665" lon="2.21274">
        <ele>149</ele>
        <time>2012-12-16T15:48:09Z</time>
      </trkpt>
      <trkpt lat="48.81667" lon="2.21287">
        <ele>149</ele>
        <time>2012-12-16T15:48:21Z</time>
      </trkpt>
      <trkpt lat="48.81664" lon="2.21292">
        <ele>149</ele>
        <time>2012-12-16T15:48:27Z</time>
      </trkpt>
      <trkpt lat="48.81663" lon="2.21306">
        <ele>148</ele>
        <time>2012-12-16T15:48:36Z</time>
      </trkpt>
      <trkpt lat="48.81663" lon="2.21315">
        <ele>146</ele>
        <time>2012-12-16T15:48:41Z</time>
      </trkpt>
      <trkpt lat="48.81664" lon="2.21323">
        <ele>145</ele>
        <time>2012-12-16T15:48:45Z</time>
      </trkpt>
      <trkpt lat="48.81666" lon="2.2133">
        <ele>143</ele>
        <time>2012-12-16T15:48:49Z</time>
      </trkpt>
      <trkpt lat="48.81666" lon="2.21338">
        <ele>142</ele>
        <time>2012-12-16T15:48:54Z</time>
      </trkpt>
      <trkpt lat="48.81666" lon="2.21346">
        <ele>144</ele>
        <time>2012-12-16T15:49:15Z</time>
      </trkpt>
      <trkpt lat="48.81664" lon="2.21356">
        <ele>146</ele>
        <time>2012-12-16T15:49:19Z</time>
      </trkpt>
      <trkpt lat="48.81664" lon="2.21365">
        <ele>146</ele>
        <time>2012-12-16T15:49:22Z</time>
      </trkpt>
      <trkpt lat="48.81664" lon="2.21373">
        <ele>147</ele>
        <time>2012-12-16T15:49:27Z</time>
      </trkpt>
      <trkpt lat="48.81664" lon="2.21382">
        <ele>147</ele>
        <time>2012-12-16T15:49:31Z</time>
      </trkpt>
      <trkpt lat="48.81664" lon="2.21389">
        <ele>147</ele>
        <time>2012-12-16T15:49:34Z</time>
      </trkpt>
      <trkpt lat="48.81664" lon="2.21398">
        <ele>147</ele>
        <time>2012-12-16T15:49:39Z</time>
      </trkpt>
      <trkpt lat="48.81663" lon="2.21406">
        <ele>147</ele>
        <time>2012-12-16T15:49:44Z</time>
      </trkpt>
      <trkpt lat="48.81666" lon="2.21421">
        <ele>146</ele>
        <time>2012-12-16T15:49:54Z</time>
      </trkpt>
      <trkpt lat="48.81665" lon="2.21427">
        <ele>147</ele>
        <time>2012-12-16T15:49:59Z</time>
      </trkpt>
      <trkpt lat="48.81665" lon="2.21434">
        <ele>147</ele>
        <time>2012-12-16T15:50:04Z</time>
      </trkpt>
      <trkpt lat="48.81664" lon="2.21442">
        <ele>147</ele>
        <time>2012-12-16T15:50:09Z</time>
      </trkpt>
      <trkpt lat="48.81664" lon="2.21452">
        <ele>147</ele>
        <time>2012-12-16T15:50:14Z</time>
      </trkpt>
      <trkpt lat="48.81667" lon="2.21459">
        <ele>147</ele>
        <time>2012-12-16T15:50:17Z</time>
      </trkpt>
      <trkpt lat="48.81666" lon="2.21466">
        <ele>147</ele>
        <time>2012-12-16T15:50:22Z</time>
      </trkpt>
      <trkpt lat="48.81666" lon="2.21475">
        <ele>147</ele>
        <time>2012-12-16T15:50:27Z</time>
      </trkpt>
      <trkpt lat="48.81666" lon="2.21489">
        <ele>146</ele>
        <time>2012-12-16T15:50:34Z</time>
      </trkpt>
      <trkpt lat="48.81666" lon="2.21497">
        <ele>145</ele>
        <time>2012-12-16T15:50:39Z</time>
      </trkpt>
      <trkpt lat="48.81667" lon="2.21504">
        <ele>144</ele>
        <time>2012-12-16T15:50:44Z</time>
      </trkpt>
      <trkpt lat="48.81668" lon="2.21512">
        <ele>143</ele>
        <time>2012-12-16T15:50:49Z</time>
      </trkpt>
      <trkpt lat="48.81672" lon="2.21516">
        <ele>142</ele>
        <time>2012-12-16T15:51:00Z</time>
      </trkpt>
      <trkpt lat="48.81673" lon="2.21524">
        <ele>141</ele>
        <time>2012-12-16T15:51:10Z</time>
      </trkpt>
      <trkpt lat="48.81678" lon="2.21528">
        <ele>141</ele>
        <time>2012-12-16T15:51:15Z</time>
      </trkpt>
      <trkpt lat="48.81683" lon="2.21526">
        <ele>141</ele>
        <time>2012-12-16T15:51:20Z</time>
      </trkpt>
      <trkpt lat="48.8169" lon="2.21528">
        <ele>140</ele>
        <time>2012-12-16T15:51:24Z</time>
      </trkpt>
      <trkpt lat="48.8169" lon="2.21535">
        <ele>140</ele>
        <time>2012-12-16T15:51:32Z</time>
      </trkpt>
      <trkpt lat="48.81687" lon="2.21541">
        <ele>140</ele>
        <time>2012-12-16T15:51:36Z</time>
      </trkpt>
      <trkpt lat="48.81684" lon="2.21547">
        <ele>140</ele>
        <time>2012-12-16T15:51:40Z</time>
      </trkpt>
      <trkpt lat="48.81681" lon="2.21554">
        <ele>141</ele>
        <time>2012-12-16T15:51:46Z</time>
      </trkpt>
      <trkpt lat="48.81679" lon="2.21562">
        <ele>141</ele>
        <time>2012-12-16T15:51:50Z</time>
      </trkpt>
      <trkpt lat="48.81676" lon="2.21568">
        <ele>142</ele>
        <time>2012-12-16T15:51:54Z</time>
      </trkpt>
      <trkpt lat="48.81674" lon="2.21574">
        <ele>143</ele>
        <time>2012-12-16T15:53:44Z</time>
      </trkpt>
      <trkpt lat="48.81673" lon="2.21581">
        <ele>144</ele>
        <time>2012-12-16T15:53:54Z</time>
      </trkpt>
      <trkpt lat="48.8167" lon="2.2159">
        <ele>144</ele>
        <time>2012-12-16T15:53:59Z</time>
      </trkpt>
      <trkpt lat="48.81664" lon="2.21603">
        <ele>147</ele>
        <time>2012-12-16T15:54:06Z</time>
      </trkpt>
      <trkpt lat="48.81662" lon="2.2161">
        <ele>147</ele>
        <time>2012-12-16T15:54:10Z</time>
      </trkpt>
      <trkpt lat="48.81663" lon="2.21617">
        <ele>148</ele>
        <time>2012-12-16T15:54:17Z</time>
      </trkpt>
      <trkpt lat="48.81663" lon="2.21624">
        <ele>148</ele>
        <time>2012-12-16T15:54:22Z</time>
      </trkpt>
      <trkpt lat="48.81663" lon="2.21632">
        <ele>148</ele>
        <time>2012-12-16T15:54:26Z</time>
      </trkpt>
      <trkpt lat="48.81662" lon="2.2164">
        <ele>148</ele>
        <time>2012-12-16T15:54:31Z</time>
      </trkpt>
      <trkpt lat="48.81662" lon="2.21648">
        <ele>148</ele>
        <time>2012-12-16T15:54:36Z</time>
      </trkpt>
      <trkpt lat="48.81664" lon="2.21655">
        <ele>148</ele>
        <time>2012-12-16T15:54:40Z</time>
      </trkpt>
      <trkpt lat="48.81665" lon="2.21663">
        <ele>147</ele>
        <time>2012-12-16T15:54:45Z</time>
      </trkpt>
      <trkpt lat="48.81664" lon="2.21669">
        <ele>147</ele>
        <time>2012-12-16T15:54:49Z</time>
      </trkpt>
      <trkpt lat="48.81663" lon="2.21677">
        <ele>148</ele>
        <time>2012-12-16T15:54:54Z</time>
      </trkpt>
      <trkpt lat="48.81663" lon="2.21685">
        <ele>148</ele>
        <time>2012-12-16T15:54:59Z</time>
      </trkpt>
      <trkpt lat="48.81663" lon="2.21693">
        <ele>149</ele>
        <time>2012-12-16T15:55:04Z</time>
      </trkpt>
      <trkpt lat="48.81662" lon="2.21702">
        <ele>149</ele>
        <time>2012-12-16T15:55:09Z</time>
      </trkpt>
      <trkpt lat="48.8166" lon="2.2171">
        <ele>149</ele>
        <time>2012-12-16T15:55:19Z</time>
      </trkpt>
      <trkpt lat="48.81664" lon="2.21715">
        <ele>149</ele>
        <time>2012-12-16T15:55:25Z</time>
      </trkpt>
      <trkpt lat="48.81665" lon="2.21723">
        <ele>149</ele>
        <time>2012-12-16T15:55:32Z</time>
      </trkpt>
      <trkpt lat="48.81665" lon="2.2173">
        <ele>148</ele>
        <time>2012-12-16T15:55:36Z</time>
      </trkpt>
      <trkpt lat="48.81665" lon="2.21744">
        <ele>148</ele>
        <time>2012-12-16T15:55:46Z</time>
      </trkpt>
      <trkpt lat="48.8166" lon="2.21749">
        <ele>148</ele>
        <time>2012-12-16T15:55:51Z</time>
      </trkpt>
      <trkpt lat="48.8165" lon="2.21751">
        <ele>148</ele>
        <time>2012-12-16T15:55:59Z</time>
      </trkpt>
      <trkpt lat="48.81643" lon="2.21752">
        <ele>148</ele>
        <time>2012-12-16T15:56:04Z</time>
      </trkpt>
      <trkpt lat="48.81636" lon="2.21754">
        <ele>148</ele>
        <time>2012-12-16T15:56:09Z</time>
      </trkpt>
      <trkpt lat="48.81631" lon="2.21753">
        <ele>148</ele>
        <time>2012-12-16T15:56:12Z</time>
      </trkpt>
      <trkpt lat="48.81622" lon="2.21758">
        <ele>149</ele>
        <time>2012-12-16T15:56:20Z</time>
      </trkpt>
      <trkpt lat="48.81616" lon="2.21758">
        <ele>149</ele>
        <time>2012-12-16T15:56:24Z</time>
      </trkpt>
      <trkpt lat="48.81607" lon="2.21761">
        <ele>149</ele>
        <time>2012-12-16T15:56:29Z</time>
      </trkpt>
      <trkpt lat="48.81603" lon="2.21762">
        <ele>150</ele>
        <time>2012-12-16T15:56:32Z</time>
      </trkpt>
      <trkpt lat="48.81598" lon="2.21762">
        <ele>150</ele>
        <time>2012-12-16T15:56:36Z</time>
      </trkpt>
      <trkpt lat="48.81593" lon="2.21761">
        <ele>151</ele>
        <time>2012-12-16T15:56:40Z</time>
      </trkpt>
      <trkpt lat="48.81588" lon="2.21761">
        <ele>151</ele>
        <time>2012-12-16T15:56:44Z</time>
      </trkpt>
      <trkpt lat="48.81583" lon="2.21762">
        <ele>152</ele>
        <time>2012-12-16T15:56:49Z</time>
      </trkpt>
      <trkpt lat="48.81577" lon="2.21764">
        <ele>151</ele>
        <time>2012-12-16T15:56:54Z</time>
      </trkpt>
      <trkpt lat="48.81572" lon="2.21766">
        <ele>151</ele>
        <time>2012-12-16T15:57:00Z</time>
      </trkpt>
      <trkpt lat="48.81567" lon="2.21766">
        <ele>151</ele>
        <time>2012-12-16T15:57:04Z</time>
      </trkpt>
      <trkpt lat="48.81561" lon="2.21767">
        <ele>151</ele>
        <time>2012-12-16T15:57:07Z</time>
      </trkpt>
      <trkpt lat="48.81556" lon="2.21766">
        <ele>150</ele>
        <time>2012-12-16T15:57:12Z</time>
      </trkpt>
      <trkpt lat="48.81551" lon="2.21763">
        <ele>150</ele>
        <time>2012-12-16T15:57:19Z</time>
      </trkpt>
      <trkpt lat="48.81546" lon="2.21768">
        <ele>150</ele>
        <time>2012-12-16T15:57:26Z</time>
      </trkpt>
      <trkpt lat="48.81548" lon="2.21777">
        <ele>150</ele>
        <time>2012-12-16T15:57:31Z</time>
      </trkpt>
      <trkpt lat="48.81546" lon="2.21791">
        <ele>150</ele>
        <time>2012-12-16T15:57:40Z</time>
      </trkpt>
      <trkpt lat="48.81547" lon="2.21799">
        <ele>149</ele>
        <time>2012-12-16T15:57:45Z</time>
      </trkpt>
      <trkpt lat="48.81546" lon="2.21806">
        <ele>149</ele>
        <time>2012-12-16T15:57:51Z</time>
      </trkpt>
      <trkpt lat="48.81546" lon="2.21815">
        <ele>149</ele>
        <time>2012-12-16T15:57:55Z</time>
      </trkpt>
      <trkpt lat="48.81548" lon="2.21823">
        <ele>149</ele>
        <time>2012-12-16T15:57:59Z</time>
      </trkpt>
      <trkpt lat="48.81544" lon="2.21829">
        <ele>149</ele>
        <time>2012-12-16T15:58:02Z</time>
      </trkpt>
      <trkpt lat="48.8154" lon="2.21835">
        <ele>146</ele>
        <time>2012-12-16T15:58:05Z</time>
      </trkpt>
      <trkpt lat="48.81533" lon="2.21844">
        <ele>146</ele>
        <time>2012-12-16T15:58:12Z</time>
      </trkpt>
      <trkpt lat="48.81529" lon="2.21847">
        <ele>146</ele>
        <time>2012-12-16T15:58:16Z</time>
      </trkpt>
      <trkpt lat="48.81522" lon="2.21847">
        <ele>146</ele>
        <time>2012-12-16T15:58:24Z</time>
      </trkpt>
      <trkpt lat="48.81515" lon="2.21848">
        <ele>146</ele>
        <time>2012-12-16T15:58:29Z</time>
      </trkpt>
      <trkpt lat="48.8151" lon="2.21845">
        <ele>147</ele>
        <time>2012-12-16T15:58:34Z</time>
      </trkpt>
      <trkpt lat="48.81505" lon="2.21842">
        <ele>147</ele>
        <time>2012-12-16T15:58:41Z</time>
      </trkpt>
      <trkpt lat="48.815" lon="2.21841">
        <ele>148</ele>
        <time>2012-12-16T15:58:46Z</time>
      </trkpt>
      <trkpt lat="48.81495" lon="2.21841">
        <ele>148</ele>
        <time>2012-12-16T15:58:50Z</time>
      </trkpt>
      <trkpt lat="48.81491" lon="2.21843">
        <ele>148</ele>
        <time>2012-12-16T15:58:56Z</time>
      </trkpt>
      <trkpt lat="48.81487" lon="2.21848">
        <ele>148</ele>
        <time>2012-12-16T15:59:00Z</time>
      </trkpt>
      <trkpt lat="48.81484" lon="2.21854">
        <ele>148</ele>
        <time>2012-12-16T15:59:04Z</time>
      </trkpt>
      <trkpt lat="48.8148" lon="2.21863">
        <ele>147</ele>
        <time>2012-12-16T15:59:09Z</time>
      </trkpt>
      <trkpt lat="48.81476" lon="2.21869">
        <ele>147</ele>
        <time>2012-12-16T15:59:14Z</time>
      </trkpt>
      <trkpt lat="48.81475" lon="2.21877">
        <ele>147</ele>
        <time>2012-12-16T15:59:21Z</time>
      </trkpt>
      <trkpt lat="48.81477" lon="2.21884">
        <ele>147</ele>
        <time>2012-12-16T15:59:34Z</time>
      </trkpt>
      <trkpt lat="48.81479" lon="2.21891">
        <ele>146</ele>
        <time>2012-12-16T15:59:39Z</time>
      </trkpt>
      <trkpt lat="48.81479" lon="2.21899">
        <ele>146</ele>
        <time>2012-12-16T15:59:44Z</time>
      </trkpt>
      <trkpt lat="48.81477" lon="2.21905">
        <ele>146</ele>
        <time>2012-12-16T15:59:50Z</time>
      </trkpt>
      <trkpt lat="48.81476" lon="2.21918">
        <ele>143</ele>
        <time>2012-12-16T16:00:06Z</time>
      </trkpt>
      <trkpt lat="48.81472" lon="2.21915">
        <ele>146</ele>
        <time>2012-12-16T16:00:17Z</time>
      </trkpt>
      <trkpt lat="48.81467" lon="2.21913">
        <ele>146</ele>
        <time>2012-12-16T16:00:29Z</time>
      </trkpt>
      <trkpt lat="48.81462" lon="2.21916">
        <ele>147</ele>
        <time>2012-12-16T16:00:44Z</time>
      </trkpt>
      <trkpt lat="48.81458" lon="2.21916">
        <ele>147</ele>
        <time>2012-12-16T16:00:55Z</time>
      </trkpt>
      <trkpt lat="48.81462" lon="2.21919">
        <ele>143</ele>
        <time>2012-12-16T16:00:59Z</time>
      </trkpt>
      <trkpt lat="48.81465" lon="2.21923">
        <ele>143</ele>
        <time>2012-12-16T16:01:05Z</time>
      </trkpt>
      <trkpt lat="48.81468" lon="2.21929">
        <ele>143</ele>
        <time>2012-12-16T16:01:14Z</time>
      </trkpt>
      <trkpt lat="48.81471" lon="2.21935">
        <ele>142</ele>
        <time>2012-12-16T16:01:22Z</time>
      </trkpt>
      <trkpt lat="48.81473" lon="2.21941">
        <ele>142</ele>
        <time>2012-12-16T16:01:29Z</time>
      </trkpt>
      <trkpt lat="48.81474" lon="2.21949">
        <ele>142</ele>
        <time>2012-12-16T16:01:39Z</time>
      </trkpt>
      <trkpt lat="48.81479" lon="2.21951">
        <ele>142</ele>
        <time>2012-12-16T16:01:49Z</time>
      </trkpt>
      <trkpt lat="48.81484" lon="2.21952">
        <ele>142</ele>
        <time>2012-12-16T16:01:55Z</time>
      </trkpt>
      <trkpt lat="48.81489" lon="2.21952">
        <ele>141</ele>
        <time>2012-12-16T16:02:05Z</time>
      </trkpt>
      <trkpt lat="48.81493" lon="2.21963">
        <ele>141</ele>
        <time>2012-12-16T16:02:36Z</time>
      </trkpt>
      <trkpt lat="48.81491" lon="2.21969">
        <ele>140</ele>
        <time>2012-12-16T16:02:41Z</time>
      </trkpt>
      <trkpt lat="48.81488" lon="2.21976">
        <ele>140</ele>
        <time>2012-12-16T16:02:46Z</time>
      </trkpt>
      <trkpt lat="48.8149" lon="2.21983">
        <ele>139</ele>
        <time>2012-12-16T16:02:50Z</time>
      </trkpt>
      <trkpt lat="48.81494" lon="2.21989">
        <ele>138</ele>
        <time>2012-12-16T16:02:54Z</time>
      </trkpt>
      <trkpt lat="48.81498" lon="2.21994">
        <ele>136</ele>
        <time>2012-12-16T16:02:59Z</time>
      </trkpt>
      <trkpt lat="48.81502" lon="2.22003">
        <ele>134</ele>
        <time>2012-12-16T16:03:04Z</time>
      </trkpt>
      <trkpt lat="48.81505" lon="2.22009">
        <ele>134</ele>
        <time>2012-12-16T16:03:07Z</time>
      </trkpt>
      <trkpt lat="48.81507" lon="2.22014">
        <ele>133</ele>
        <time>2012-12-16T16:03:11Z</time>
      </trkpt>
      <trkpt lat="48.81512" lon="2.2202">
        <ele>132</ele>
        <time>2012-12-16T16:03:15Z</time>
      </trkpt>
      <trkpt lat="48.81516" lon="2.22025">
        <ele>132</ele>
        <time>2012-12-16T16:03:22Z</time>
      </trkpt>
      <trkpt lat="48.81517" lon="2.22031">
        <ele>132</ele>
        <time>2012-12-16T16:03:27Z</time>
      </trkpt>
      <trkpt lat="48.81519" lon="2.22038">
        <ele>131</ele>
        <time>2012-12-16T16:03:31Z</time>
      </trkpt>
      <trkpt lat="48.81519" lon="2.22047">
        <ele>131</ele>
        <time>2012-12-16T16:03:36Z</time>
      </trkpt>
      <trkpt lat="48.81519" lon="2.22054">
        <ele>130</ele>
        <time>2012-12-16T16:03:39Z</time>
      </trkpt>
      <trkpt lat="48.81522" lon="2.22061">
        <ele>130</ele>
        <time>2012-12-16T16:03:42Z</time>
      </trkpt>
      <trkpt lat="48.81525" lon="2.22074">
        <ele>130</ele>
        <time>2012-12-16T16:03:49Z</time>
      </trkpt>
      <trkpt lat="48.81525" lon="2.22084">
        <ele>127</ele>
        <time>2012-12-16T16:03:54Z</time>
      </trkpt>
      <trkpt lat="48.81526" lon="2.22098">
        <ele>127</ele>
        <time>2012-12-16T16:04:01Z</time>
      </trkpt>
      <trkpt lat="48.81528" lon="2.22106">
        <ele>127</ele>
        <time>2012-12-16T16:04:05Z</time>
      </trkpt>
      <trkpt lat="48.81531" lon="2.22111">
        <ele>127</ele>
        <time>2012-12-16T16:04:09Z</time>
      </trkpt>
      <trkpt lat="48.81533" lon="2.22119">
        <ele>127</ele>
        <time>2012-12-16T16:04:12Z</time>
      </trkpt>
      <trkpt lat="48.81533" lon="2.22127">
        <ele>127</ele>
        <time>2012-12-16T16:04:15Z</time>
      </trkpt>
      <trkpt lat="48.81534" lon="2.22135">
        <ele>126</ele>
        <time>2012-12-16T16:04:21Z</time>
      </trkpt>
      <trkpt lat="48.81533" lon="2.22143">
        <ele>126</ele>
        <time>2012-12-16T16:04:26Z</time>
      </trkpt>
      <trkpt lat="48.81533" lon="2.22151">
        <ele>126</ele>
        <time>2012-12-16T16:04:29Z</time>
      </trkpt>
      <trkpt lat="48.81533" lon="2.22162">
        <ele>126</ele>
        <time>2012-12-16T16:04:34Z</time>
      </trkpt>
      <trkpt lat="48.81533" lon="2.22171">
        <ele>126</ele>
        <time>2012-12-16T16:04:39Z</time>
      </trkpt>
      <trkpt lat="48.8153" lon="2.22178">
        <ele>126</ele>
        <time>2012-12-16T16:04:44Z</time>
      </trkpt>
      <trkpt lat="48.81529" lon="2.22186">
        <ele>126</ele>
        <time>2012-12-16T16:04:49Z</time>
      </trkpt>
      <trkpt lat="48.81526" lon="2.22196">
        <ele>127</ele>
        <time>2012-12-16T16:04:54Z</time>
      </trkpt>
      <trkpt lat="48.81525" lon="2.22205">
        <ele>127</ele>
        <time>2012-12-16T16:05:04Z</time>
      </trkpt>
      <trkpt lat="48.81527" lon="2.22214">
        <ele>127</ele>
        <time>2012-12-16T16:05:09Z</time>
      </trkpt>
      <trkpt lat="48.81526" lon="2.22222">
        <ele>127</ele>
        <time>2012-12-16T16:05:14Z</time>
      </trkpt>
      <trkpt lat="48.81526" lon="2.22233">
        <ele>127</ele>
        <time>2012-12-16T16:05:19Z</time>
      </trkpt>
      <trkpt lat="48.81527" lon="2.22241">
        <ele>127</ele>
        <time>2012-12-16T16:05:24Z</time>
      </trkpt>
      <trkpt lat="48.81527" lon="2.22251">
        <ele>128</ele>
        <time>2012-12-16T16:05:29Z</time>
      </trkpt>
      <trkpt lat="48.81527" lon="2.22261">
        <ele>127</ele>
        <time>2012-12-16T16:05:34Z</time>
      </trkpt>
      <trkpt lat="48.81528" lon="2.22269">
        <ele>127</ele>
        <time>2012-12-16T16:05:39Z</time>
      </trkpt>
      <trkpt lat="48.81528" lon="2.22278">
        <ele>127</ele>
        <time>2012-12-16T16:05:42Z</time>
      </trkpt>
      <trkpt lat="48.81528" lon="2.22286">
        <ele>127</ele>
        <time>2012-12-16T16:05:46Z</time>
      </trkpt>
      <trkpt lat="48.8153" lon="2.22296">
        <ele>127</ele>
        <time>2012-12-16T16:05:50Z</time>
      </trkpt>
      <trkpt lat="48.81532" lon="2.22305">
        <ele>127</ele>
        <time>2012-12-16T16:05:54Z</time>
      </trkpt>
      <trkpt lat="48.81533" lon="2.22315">
        <ele>127</ele>
        <time>2012-12-16T16:05:59Z</time>
      </trkpt>
      <trkpt lat="48.81533" lon="2.22323">
        <ele>127</ele>
        <time>2012-12-16T16:06:02Z</time>
      </trkpt>
      <trkpt lat="48.81533" lon="2.2233">
        <ele>127</ele>
        <time>2012-12-16T16:06:06Z</time>
      </trkpt>
      <trkpt lat="48.81533" lon="2.22338">
        <ele>126</ele>
        <time>2012-12-16T16:06:09Z</time>
      </trkpt>
      <trkpt lat="48.81536" lon="2.22347">
        <ele>125</ele>
        <time>2012-12-16T16:06:14Z</time>
      </trkpt>
      <trkpt lat="48.81537" lon="2.22356">
        <ele>125</ele>
        <time>2012-12-16T16:06:17Z</time>
      </trkpt>
      <trkpt lat="48.8154" lon="2.22362">
        <ele>125</ele>
        <time>2012-12-16T16:06:20Z</time>
      </trkpt>
      <trkpt lat="48.81541" lon="2.22371">
        <ele>124</ele>
        <time>2012-12-16T16:06:25Z</time>
      </trkpt>
      <trkpt lat="48.81544" lon="2.22381">
        <ele>124</ele>
        <time>2012-12-16T16:06:29Z</time>
      </trkpt>
      <trkpt lat="48.81545" lon="2.2239">
        <ele>124</ele>
        <time>2012-12-16T16:06:34Z</time>
      </trkpt>
      <trkpt lat="48.81547" lon="2.22397">
        <ele>123</ele>
        <time>2012-12-16T16:06:37Z</time>
      </trkpt>
      <trkpt lat="48.8155" lon="2.22411">
        <ele>123</ele>
        <time>2012-12-16T16:06:44Z</time>
      </trkpt>
      <trkpt lat="48.81553" lon="2.22418">
        <ele>121</ele>
        <time>2012-12-16T16:06:47Z</time>
      </trkpt>
      <trkpt lat="48.81556" lon="2.22425">
        <ele>121</ele>
        <time>2012-12-16T16:06:52Z</time>
      </trkpt>
      <trkpt lat="48.81558" lon="2.22432">
        <ele>121</ele>
        <time>2012-12-16T16:06:55Z</time>
      </trkpt>
      <trkpt lat="48.81561" lon="2.22439">
        <ele>121</ele>
        <time>2012-12-16T16:06:59Z</time>
      </trkpt>
      <trkpt lat="48.81564" lon="2.22447">
        <ele>120</ele>
        <time>2012-12-16T16:07:04Z</time>
      </trkpt>
      <trkpt lat="48.81567" lon="2.22455">
        <ele>120</ele>
        <time>2012-12-16T16:07:09Z</time>
      </trkpt>
      <trkpt lat="48.8157" lon="2.22464">
        <ele>120</ele>
        <time>2012-12-16T16:07:14Z</time>
      </trkpt>
      <trkpt lat="48.81572" lon="2.2247">
        <ele>120</ele>
        <time>2012-12-16T16:07:19Z</time>
      </trkpt>
      <trkpt lat="48.81575" lon="2.22476">
        <ele>119</ele>
        <time>2012-12-16T16:07:22Z</time>
      </trkpt>
      <trkpt lat="48.81578" lon="2.22482">
        <ele>119</ele>
        <time>2012-12-16T16:07:26Z</time>
      </trkpt>
      <trkpt lat="48.8158" lon="2.22488">
        <ele>118</ele>
        <time>2012-12-16T16:07:30Z</time>
      </trkpt>
      <trkpt lat="48.81581" lon="2.22496">
        <ele>117</ele>
        <time>2012-12-16T16:07:35Z</time>
      </trkpt>
      <trkpt lat="48.81585" lon="2.22502">
        <ele>116</ele>
        <time>2012-12-16T16:07:39Z</time>
      </trkpt>
      <trkpt lat="48.8159" lon="2.2251">
        <ele>115</ele>
        <time>2012-12-16T16:07:44Z</time>
      </trkpt>
      <trkpt lat="48.81596" lon="2.22515">
        <ele>115</ele>
        <time>2012-12-16T16:07:49Z</time>
      </trkpt>
      <trkpt lat="48.81598" lon="2.22521">
        <ele>114</ele>
        <time>2012-12-16T16:07:52Z</time>
      </trkpt>
      <trkpt lat="48.81599" lon="2.2253">
        <ele>114</ele>
        <time>2012-12-16T16:07:56Z</time>
      </trkpt>
      <trkpt lat="48.816" lon="2.22538">
        <ele>114</ele>
        <time>2012-12-16T16:07:59Z</time>
      </trkpt>
      <trkpt lat="48.816" lon="2.22545">
        <ele>114</ele>
        <time>2012-12-16T16:08:01Z</time>
      </trkpt>
      <trkpt lat="48.816" lon="2.22553">
        <ele>114</ele>
        <time>2012-12-16T16:08:05Z</time>
      </trkpt>
      <trkpt lat="48.81601" lon="2.22563">
        <ele>114</ele>
        <time>2012-12-16T16:08:09Z</time>
      </trkpt>
      <trkpt lat="48.81609" lon="2.22573">
        <ele>114</ele>
        <time>2012-12-16T16:08:17Z</time>
      </trkpt>
      <trkpt lat="48.81614" lon="2.22579">
        <ele>114</ele>
        <time>2012-12-16T16:08:20Z</time>
      </trkpt>
      <trkpt lat="48.81617" lon="2.22584">
        <ele>113</ele>
        <time>2012-12-16T16:08:24Z</time>
      </trkpt>
      <trkpt lat="48.81622" lon="2.22591">
        <ele>113</ele>
        <time>2012-12-16T16:08:29Z</time>
      </trkpt>
      <trkpt lat="48.81624" lon="2.22601">
        <ele>113</ele>
        <time>2012-12-16T16:08:34Z</time>
      </trkpt>
      <trkpt lat="48.81628" lon="2.22606">
        <ele>113</ele>
        <time>2012-12-16T16:08:39Z</time>
      </trkpt>
      <trkpt lat="48.81631" lon="2.22616">
        <ele>112</ele>
        <time>2012-12-16T16:08:44Z</time>
      </trkpt>
      <trkpt lat="48.81634" lon="2.22628">
        <ele>112</ele>
        <time>2012-12-16T16:08:49Z</time>
      </trkpt>
      <trkpt lat="48.81639" lon="2.22631">
        <ele>112</ele>
        <time>2012-12-16T16:08:54Z</time>
      </trkpt>
      <trkpt lat="48.81643" lon="2.22637">
        <ele>112</ele>
        <time>2012-12-16T16:08:57Z</time>
      </trkpt>
      <trkpt lat="48.81645" lon="2.22645">
        <ele>111</ele>
        <time>2012-12-16T16:09:02Z</time>
      </trkpt>
      <trkpt lat="48.81646" lon="2.22654">
        <ele>111</ele>
        <time>2012-12-16T16:09:06Z</time>
      </trkpt>
      <trkpt lat="48.81649" lon="2.22664">
        <ele>110</ele>
        <time>2012-12-16T16:09:09Z</time>
      </trkpt>
      <trkpt lat="48.81649" lon="2.22672">
        <ele>111</ele>
        <time>2012-12-16T16:09:12Z</time>
      </trkpt>
      <trkpt lat="48.81649" lon="2.2268">
        <ele>111</ele>
        <time>2012-12-16T16:09:16Z</time>
      </trkpt>
      <trkpt lat="48.81652" lon="2.22688">
        <ele>111</ele>
        <time>2012-12-16T16:09:19Z</time>
      </trkpt>
      <trkpt lat="48.81654" lon="2.22694">
        <ele>111</ele>
        <time>2012-12-16T16:09:22Z</time>
      </trkpt>
      <trkpt lat="48.81658" lon="2.22701">
        <ele>111</ele>
        <time>2012-12-16T16:09:27Z</time>
      </trkpt>
      <trkpt lat="48.81661" lon="2.22707">
        <ele>111</ele>
        <time>2012-12-16T16:09:30Z</time>
      </trkpt>
      <trkpt lat="48.81665" lon="2.22713">
        <ele>111</ele>
        <time>2012-12-16T16:09:35Z</time>
      </trkpt>
      <trkpt lat="48.8167" lon="2.2272">
        <ele>106</ele>
        <time>2012-12-16T16:09:39Z</time>
      </trkpt>
      <trkpt lat="48.81673" lon="2.22727">
        <ele>107</ele>
        <time>2012-12-16T16:09:44Z</time>
      </trkpt>
      <trkpt lat="48.81673" lon="2.22736">
        <ele>107</ele>
        <time>2012-12-16T16:09:47Z</time>
      </trkpt>
      <trkpt lat="48.81676" lon="2.22743">
        <ele>107</ele>
        <time>2012-12-16T16:09:50Z</time>
      </trkpt>
      <trkpt lat="48.8168" lon="2.22746">
        <ele>107</ele>
        <time>2012-12-16T16:10:09Z</time>
      </trkpt>
      <trkpt lat="48.81684" lon="2.22749">
        <ele>107</ele>
        <time>2012-12-16T16:10:14Z</time>
      </trkpt>
      <trkpt lat="48.81687" lon="2.22755">
        <ele>108</ele>
        <time>2012-12-16T16:10:19Z</time>
      </trkpt>
      <trkpt lat="48.81689" lon="2.22762">
        <ele>108</ele>
        <time>2012-12-16T16:10:24Z</time>
      </trkpt>
      <trkpt lat="48.81693" lon="2.22769">
        <ele>108</ele>
        <time>2012-12-16T16:10:30Z</time>
      </trkpt>
      <trkpt lat="48.81698" lon="2.22779">
        <ele>108</ele>
        <time>2012-12-16T16:10:34Z</time>
      </trkpt>
      <trkpt lat="48.81701" lon="2.22786">
        <ele>108</ele>
        <time>2012-12-16T16:10:39Z</time>
      </trkpt>
      <trkpt lat="48.81706" lon="2.22793">
        <ele>108</ele>
        <time>2012-12-16T16:10:44Z</time>
      </trkpt>
      <trkpt lat="48.8171" lon="2.22803">
        <ele>108</ele>
        <time>2012-12-16T16:10:49Z</time>
      </trkpt>
      <trkpt lat="48.81713" lon="2.22811">
        <ele>108</ele>
        <time>2012-12-16T16:10:54Z</time>
      </trkpt>
      <trkpt lat="48.81716" lon="2.22819">
        <ele>108</ele>
        <time>2012-12-16T16:10:59Z</time>
      </trkpt>
      <trkpt lat="48.8172" lon="2.22828">
        <ele>107</ele>
        <time>2012-12-16T16:11:04Z</time>
      </trkpt>
      <trkpt lat="48.81723" lon="2.22836">
        <ele>108</ele>
        <time>2012-12-16T16:11:09Z</time>
      </trkpt>
      <trkpt lat="48.81726" lon="2.22845">
        <ele>108</ele>
        <time>2012-12-16T16:11:14Z</time>
      </trkpt>
      <trkpt lat="48.81731" lon="2.22853">
        <ele>108</ele>
        <time>2012-12-16T16:11:19Z</time>
      </trkpt>
      <trkpt lat="48.81734" lon="2.22861">
        <ele>108</ele>
        <time>2012-12-16T16:11:24Z</time>
      </trkpt>
      <trkpt lat="48.81738" lon="2.2287">
        <ele>108</ele>
        <time>2012-12-16T16:11:29Z</time>
      </trkpt>
      <trkpt lat="48.8174" lon="2.22879">
        <ele>108</ele>
        <time>2012-12-16T16:11:34Z</time>
      </trkpt>
      <trkpt lat="48.81742" lon="2.22889">
        <ele>108</ele>
        <time>2012-12-16T16:11:39Z</time>
      </trkpt>
      <trkpt lat="48.81744" lon="2.22897">
        <ele>108</ele>
        <time>2012-12-16T16:11:45Z</time>
      </trkpt>
      <trkpt lat="48.81746" lon="2.22904">
        <ele>107</ele>
        <time>2012-12-16T16:11:49Z</time>
      </trkpt>
      <trkpt lat="48.81748" lon="2.22915">
        <ele>106</ele>
        <time>2012-12-16T16:11:54Z</time>
      </trkpt>
      <trkpt lat="48.81748" lon="2.22924">
        <ele>107</ele>
        <time>2012-12-16T16:11:59Z</time>
      </trkpt>
      <trkpt lat="48.81749" lon="2.22939">
        <ele>107</ele>
        <time>2012-12-16T16:12:06Z</time>
      </trkpt>
      <trkpt lat="48.81753" lon="2.22947">
        <ele>104</ele>
        <time>2012-12-16T16:12:11Z</time>
      </trkpt>
      <trkpt lat="48.81758" lon="2.22949">
        <ele>104</ele>
        <time>2012-12-16T16:12:14Z</time>
      </trkpt>
      <trkpt lat="48.81762" lon="2.22953">
        <ele>103</ele>
        <time>2012-12-16T16:12:21Z</time>
      </trkpt>
      <trkpt lat="48.8177" lon="2.22962">
        <ele>103</ele>
        <time>2012-12-16T16:12:30Z</time>
      </trkpt>
      <trkpt lat="48.81775" lon="2.22965">
        <ele>103</ele>
        <time>2012-12-16T16:12:34Z</time>
      </trkpt>
      <trkpt lat="48.81779" lon="2.22971">
        <ele>103</ele>
        <time>2012-12-16T16:12:44Z</time>
      </trkpt>
      <trkpt lat="48.81784" lon="2.22972">
        <ele>103</ele>
        <time>2012-12-16T16:13:14Z</time>
      </trkpt>
      <trkpt lat="48.81787" lon="2.22976">
        <ele>102</ele>
        <time>2012-12-16T16:13:17Z</time>
      </trkpt>
      <trkpt lat="48.81792" lon="2.22982">
        <ele>102</ele>
        <time>2012-12-16T16:13:21Z</time>
      </trkpt>
      <trkpt lat="48.81797" lon="2.22995">
        <ele>102</ele>
        <time>2012-12-16T16:13:29Z</time>
      </trkpt>
      <trkpt lat="48.81802" lon="2.23007">
        <ele>100</ele>
        <time>2012-12-16T16:13:37Z</time>
      </trkpt>
      <trkpt lat="48.81802" lon="2.23015">
        <ele>100</ele>
        <time>2012-12-16T16:13:41Z</time>
      </trkpt>
      <trkpt lat="48.81802" lon="2.23022">
        <ele>100</ele>
        <time>2012-12-16T16:13:44Z</time>
      </trkpt>
      <trkpt lat="48.81807" lon="2.23028">
        <ele>100</ele>
        <time>2012-12-16T16:13:49Z</time>
      </trkpt>
      <trkpt lat="48.81811" lon="2.23036">
        <ele>100</ele>
        <time>2012-12-16T16:13:54Z</time>
      </trkpt>
      <trkpt lat="48.81814" lon="2.23043">
        <ele>99</ele>
        <time>2012-12-16T16:13:57Z</time>
      </trkpt>
      <trkpt lat="48.81821" lon="2.23053">
        <ele>99</ele>
        <time>2012-12-16T16:14:04Z</time>
      </trkpt>
      <trkpt lat="48.81826" lon="2.23058">
        <ele>99</ele>
        <time>2012-12-16T16:14:09Z</time>
      </trkpt>
      <trkpt lat="48.81828" lon="2.23065">
        <ele>98</ele>
        <time>2012-12-16T16:14:12Z</time>
      </trkpt>
      <trkpt lat="48.81833" lon="2.23069">
        <ele>98</ele>
        <time>2012-12-16T16:14:16Z</time>
      </trkpt>
      <trkpt lat="48.81835" lon="2.23076">
        <ele>96</ele>
        <time>2012-12-16T16:14:19Z</time>
      </trkpt>
      <trkpt lat="48.81838" lon="2.23082">
        <ele>96</ele>
        <time>2012-12-16T16:14:24Z</time>
      </trkpt>
      <trkpt lat="48.81842" lon="2.23088">
        <ele>96</ele>
        <time>2012-12-16T16:14:27Z</time>
      </trkpt>
      <trkpt lat="48.81845" lon="2.23093">
        <ele>95</ele>
        <time>2012-12-16T16:14:32Z</time>
      </trkpt>
      <trkpt lat="48.8185" lon="2.23107">
        <ele>95</ele>
        <time>2012-12-16T16:14:40Z</time>
      </trkpt>
      <trkpt lat="48.81853" lon="2.23114">
        <ele>95</ele>
        <time>2012-12-16T16:14:44Z</time>
      </trkpt>
      <trkpt lat="48.81856" lon="2.23119">
        <ele>95</ele>
        <time>2012-12-16T16:14:49Z</time>
      </trkpt>
      <trkpt lat="48.8186" lon="2.23124">
        <ele>95</ele>
        <time>2012-12-16T16:14:54Z</time>
      </trkpt>
      <trkpt lat="48.81863" lon="2.23128">
        <ele>95</ele>
        <time>2012-12-16T16:14:59Z</time>
      </trkpt>
      <trkpt lat="48.81866" lon="2.23136">
        <ele>95</ele>
        <time>2012-12-16T16:15:04Z</time>
      </trkpt>
      <trkpt lat="48.81871" lon="2.23144">
        <ele>94</ele>
        <time>2012-12-16T16:15:09Z</time>
      </trkpt>
      <trkpt lat="48.81876" lon="2.2315">
        <ele>94</ele>
        <time>2012-12-16T16:15:12Z</time>
      </trkpt>
      <trkpt lat="48.81878" lon="2.23157">
        <ele>94</ele>
        <time>2012-12-16T16:15:15Z</time>
      </trkpt>
      <trkpt lat="48.81881" lon="2.23164">
        <ele>94</ele>
        <time>2012-12-16T16:15:19Z</time>
      </trkpt>
      <trkpt lat="48.81884" lon="2.2317">
        <ele>93</ele>
        <time>2012-12-16T16:15:24Z</time>
      </trkpt>
      <trkpt lat="48.81887" lon="2.23176">
        <ele>93</ele>
        <time>2012-12-16T16:15:27Z</time>
      </trkpt>
      <trkpt lat="48.81889" lon="2.23183">
        <ele>93</ele>
        <time>2012-12-16T16:15:32Z</time>
      </trkpt>
      <trkpt lat="48.81894" lon="2.23197">
        <ele>93</ele>
        <time>2012-12-16T16:15:40Z</time>
      </trkpt>
      <trkpt lat="48.81895" lon="2.23206">
        <ele>92</ele>
        <time>2012-12-16T16:15:44Z</time>
      </trkpt>
      <trkpt lat="48.81898" lon="2.23214">
        <ele>92</ele>
        <time>2012-12-16T16:15:49Z</time>
      </trkpt>
      <trkpt lat="48.81899" lon="2.23225">
        <ele>92</ele>
        <time>2012-12-16T16:15:54Z</time>
      </trkpt>
      <trkpt lat="48.81899" lon="2.23237">
        <ele>92</ele>
        <time>2012-12-16T16:15:59Z</time>
      </trkpt>
      <trkpt lat="48.81899" lon="2.23246">
        <ele>92</ele>
        <time>2012-12-16T16:16:04Z</time>
      </trkpt>
      <trkpt lat="48.81902" lon="2.23257">
        <ele>90</ele>
        <time>2012-12-16T16:16:09Z</time>
      </trkpt>
      <trkpt lat="48.81904" lon="2.23265">
        <ele>90</ele>
        <time>2012-12-16T16:16:14Z</time>
      </trkpt>
      <trkpt lat="48.81904" lon="2.23274">
        <ele>90</ele>
        <time>2012-12-16T16:16:19Z</time>
      </trkpt>
      <trkpt lat="48.81902" lon="2.23282">
        <ele>89</ele>
        <time>2012-12-16T16:16:24Z</time>
      </trkpt>
      <trkpt lat="48.81904" lon="2.2329">
        <ele>89</ele>
        <time>2012-12-16T16:16:27Z</time>
      </trkpt>
      <trkpt lat="48.81906" lon="2.23298">
        <ele>89</ele>
        <time>2012-12-16T16:16:32Z</time>
      </trkpt>
      <trkpt lat="48.81906" lon="2.23306">
        <ele>88</ele>
        <time>2012-12-16T16:16:35Z</time>
      </trkpt>
      <trkpt lat="48.81905" lon="2.23315">
        <ele>88</ele>
        <time>2012-12-16T16:16:39Z</time>
      </trkpt>
      <trkpt lat="48.81904" lon="2.23329">
        <ele>87</ele>
        <time>2012-12-16T16:16:45Z</time>
      </trkpt>
      <trkpt lat="48.81903" lon="2.23338">
        <ele>85</ele>
        <time>2012-12-16T16:16:49Z</time>
      </trkpt>
      <trkpt lat="48.81904" lon="2.23347">
        <ele>85</ele>
        <time>2012-12-16T16:16:52Z</time>
      </trkpt>
      <trkpt lat="48.81906" lon="2.23358">
        <ele>85</ele>
        <time>2012-12-16T16:16:59Z</time>
      </trkpt>
      <trkpt lat="48.81905" lon="2.23365">
        <ele>84</ele>
        <time>2012-12-16T16:17:05Z</time>
      </trkpt>
      <trkpt lat="48.81905" lon="2.23375">
        <ele>84</ele>
        <time>2012-12-16T16:17:09Z</time>
      </trkpt>
      <trkpt lat="48.81905" lon="2.23381">
        <ele>83</ele>
        <time>2012-12-16T16:17:14Z</time>
      </trkpt>
      <trkpt lat="48.81903" lon="2.23388">
        <ele>83</ele>
        <time>2012-12-16T16:17:17Z</time>
      </trkpt>
      <trkpt lat="48.81902" lon="2.23395">
        <ele>82</ele>
        <time>2012-12-16T16:17:21Z</time>
      </trkpt>
      <trkpt lat="48.819" lon="2.23403">
        <ele>82</ele>
        <time>2012-12-16T16:17:25Z</time>
      </trkpt>
      <trkpt lat="48.81898" lon="2.23412">
        <ele>81</ele>
        <time>2012-12-16T16:17:29Z</time>
      </trkpt>
      <trkpt lat="48.81896" lon="2.23419">
        <ele>79</ele>
        <time>2012-12-16T16:17:32Z</time>
      </trkpt>
      <trkpt lat="48.81895" lon="2.23426">
        <ele>79</ele>
        <time>2012-12-16T16:17:36Z</time>
      </trkpt>
      <trkpt lat="48.81892" lon="2.23433">
        <ele>79</ele>
        <time>2012-12-16T16:17:41Z</time>
      </trkpt>
      <trkpt lat="48.81891" lon="2.23442">
        <ele>79</ele>
        <time>2012-12-16T16:17:44Z</time>
      </trkpt>
      <trkpt lat="48.81892" lon="2.23452">
        <ele>79</ele>
        <time>2012-12-16T16:17:49Z</time>
      </trkpt>
      <trkpt lat="48.81897" lon="2.2346">
        <ele>78</ele>
        <time>2012-12-16T16:17:54Z</time>
      </trkpt>
      <trkpt lat="48.81902" lon="2.23463">
        <ele>77</ele>
        <time>2012-12-16T16:18:06Z</time>
      </trkpt>
      <trkpt lat="48.81907" lon="2.23458">
        <ele>77</ele>
        <time>2012-12-16T16:18:10Z</time>
      </trkpt>
      <trkpt lat="48.81911" lon="2.23451">
        <ele>78</ele>
        <time>2012-12-16T16:18:15Z</time>
      </trkpt>
      <trkpt lat="48.81916" lon="2.23446">
        <ele>78</ele>
        <time>2012-12-16T16:18:19Z</time>
      </trkpt>
      <trkpt lat="48.81919" lon="2.23441">
        <ele>67</ele>
        <time>2012-12-16T16:18:24Z</time>
      </trkpt>
      <trkpt lat="48.81923" lon="2.23434">
        <ele>68</ele>
        <time>2012-12-16T16:18:29Z</time>
      </trkpt>
      <trkpt lat="48.81928" lon="2.23427">
        <ele>69</ele>
        <time>2012-12-16T16:18:34Z</time>
      </trkpt>
      <trkpt lat="48.81933" lon="2.23421">
        <ele>68</ele>
        <time>2012-12-16T16:18:39Z</time>
      </trkpt>
      <trkpt lat="48.81938" lon="2.23418">
        <ele>67</ele>
        <time>2012-12-16T16:18:42Z</time>
      </trkpt>
      <trkpt lat="48.81942" lon="2.23414">
        <ele>72</ele>
        <time>2012-12-16T16:18:46Z</time>
      </trkpt>
      <trkpt lat="48.81945" lon="2.23408">
        <ele>71</ele>
        <time>2012-12-16T16:18:50Z</time>
      </trkpt>
      <trkpt lat="48.8195" lon="2.23403">
        <ele>70</ele>
        <time>2012-12-16T16:18:55Z</time>
      </trkpt>
      <trkpt lat="48.81954" lon="2.23399">
        <ele>70</ele>
        <time>2012-12-16T16:18:59Z</time>
      </trkpt>
      <trkpt lat="48.8196" lon="2.23394">
        <ele>69</ele>
        <time>2012-12-16T16:19:04Z</time>
      </trkpt>
      <trkpt lat="48.81965" lon="2.2339">
        <ele>69</ele>
        <time>2012-12-16T16:19:09Z</time>
      </trkpt>
      <trkpt lat="48.81971" lon="2.23387">
        <ele>68</ele>
        <time>2012-12-16T16:19:14Z</time>
      </trkpt>
      <trkpt lat="48.81976" lon="2.23381">
        <ele>68</ele>
        <time>2012-12-16T16:19:19Z</time>
      </trkpt>
      <trkpt lat="48.81983" lon="2.23375">
        <ele>68</ele>
        <time>2012-12-16T16:19:24Z</time>
      </trkpt>
      <trkpt lat="48.81987" lon="2.23372">
        <ele>68</ele>
        <time>2012-12-16T16:19:27Z</time>
      </trkpt>
      <trkpt lat="48.81992" lon="2.23368">
        <ele>68</ele>
        <time>2012-12-16T16:19:31Z</time>
      </trkpt>
      <trkpt lat="48.81997" lon="2.23363">
        <ele>68</ele>
        <time>2012-12-16T16:19:35Z</time>
      </trkpt>
      <trkpt lat="48.82002" lon="2.23359">
        <ele>57</ele>
        <time>2012-12-16T16:19:39Z</time>
      </trkpt>
      <trkpt lat="48.82007" lon="2.23355">
        <ele>58</ele>
        <time>2012-12-16T16:19:44Z</time>
      </trkpt>
      <trkpt lat="48.82013" lon="2.23349">
        <ele>58</ele>
        <time>2012-12-16T16:19:49Z</time>
      </trkpt>
      <trkpt lat="48.82018" lon="2.23346">
        <ele>58</ele>
        <time>2012-12-16T16:19:54Z</time>
      </trkpt>
      <trkpt lat="48.82022" lon="2.2334">
        <ele>57</ele>
        <time>2012-12-16T16:19:59Z</time>
      </trkpt>
      <trkpt lat="48.82027" lon="2.23336">
        <ele>56</ele>
        <time>2012-12-16T16:20:04Z</time>
      </trkpt>
      <trkpt lat="48.82032" lon="2.23329">
        <ele>62</ele>
        <time>2012-12-16T16:20:09Z</time>
      </trkpt>
      <trkpt lat="48.82038" lon="2.23324">
        <ele>61</ele>
        <time>2012-12-16T16:20:14Z</time>
      </trkpt>
      <trkpt lat="48.82047" lon="2.23316">
        <ele>60</ele>
        <time>2012-12-16T16:20:21Z</time>
      </trkpt>
      <trkpt lat="48.8205" lon="2.23311">
        <ele>60</ele>
        <time>2012-12-16T16:20:25Z</time>
      </trkpt>
      <trkpt lat="48.82056" lon="2.23308">
        <ele>59</ele>
        <time>2012-12-16T16:20:29Z</time>
      </trkpt>
      <trkpt lat="48.82062" lon="2.23305">
        <ele>58</ele>
        <time>2012-12-16T16:20:34Z</time>
      </trkpt>
      <trkpt lat="48.82067" lon="2.23301">
        <ele>58</ele>
        <time>2012-12-16T16:20:39Z</time>
      </trkpt>
      <trkpt lat="48.82075" lon="2.233">
        <ele>57</ele>
        <time>2012-12-16T16:20:44Z</time>
      </trkpt>
      <trkpt lat="48.82082" lon="2.23294">
        <ele>57</ele>
        <time>2012-12-16T16:20:55Z</time>
      </trkpt>
      <trkpt lat="48.82088" lon="2.23291">
        <ele>45</ele>
        <time>2012-12-16T16:20:59Z</time>
      </trkpt>
      <trkpt lat="48.82093" lon="2.2329">
        <ele>45</ele>
        <time>2012-12-16T16:21:02Z</time>
      </trkpt>
      <trkpt lat="48.82099" lon="2.23293">
        <ele>44</ele>
        <time>2012-12-16T16:21:05Z</time>
      </trkpt>
      <trkpt lat="48.82103" lon="2.23296">
        <ele>44</ele>
        <time>2012-12-16T16:21:07Z</time>
      </trkpt>
      <trkpt lat="48.82108" lon="2.23295">
        <ele>44</ele>
        <time>2012-12-16T16:21:12Z</time>
      </trkpt>
      <trkpt lat="48.82116" lon="2.23287">
        <ele>44</ele>
        <time>2012-12-16T16:21:19Z</time>
      </trkpt>
      <trkpt lat="48.82121" lon="2.23281">
        <ele>43</ele>
        <time>2012-12-16T16:21:24Z</time>
      </trkpt>
      <trkpt lat="48.82125" lon="2.23279">
        <ele>43</ele>
        <time>2012-12-16T16:21:27Z</time>
      </trkpt>
      <trkpt lat="48.82129" lon="2.23274">
        <ele>43</ele>
        <time>2012-12-16T16:21:30Z</time>
      </trkpt>
      <trkpt lat="48.82131" lon="2.23267">
        <ele>43</ele>
        <time>2012-12-16T16:21:35Z</time>
      </trkpt>
      <trkpt lat="48.82136" lon="2.23261">
        <ele>43</ele>
        <time>2012-12-16T16:21:39Z</time>
      </trkpt>
      <trkpt lat="48.82139" lon="2.23254">
        <ele>42</ele>
        <time>2012-12-16T16:21:45Z</time>
      </trkpt>
      <trkpt lat="48.82145" lon="2.23253">
        <ele>41</ele>
        <time>2012-12-16T16:21:49Z</time>
      </trkpt>
      <trkpt lat="48.82151" lon="2.23252">
        <ele>41</ele>
        <time>2012-12-16T16:21:54Z</time>
      </trkpt>
      <trkpt lat="48.82157" lon="2.23248">
        <ele>43</ele>
        <time>2012-12-16T16:21:59Z</time>
      </trkpt>
      <trkpt lat="48.82161" lon="2.23244">
        <ele>42</ele>
        <time>2012-12-16T16:22:01Z</time>
      </trkpt>
      <trkpt lat="48.82169" lon="2.23242">
        <ele>38</ele>
        <time>2012-12-16T16:22:04Z</time>
      </trkpt>
      <trkpt lat="48.82175" lon="2.23241">
        <ele>38</ele>
        <time>2012-12-16T16:22:09Z</time>
      </trkpt>
      <trkpt lat="48.82179" lon="2.23235">
        <ele>38</ele>
        <time>2012-12-16T16:22:14Z</time>
      </trkpt>
      <trkpt lat="48.82184" lon="2.23229">
        <ele>38</ele>
        <time>2012-12-16T16:22:19Z</time>
      </trkpt>
      <trkpt lat="48.8219" lon="2.23226">
        <ele>38</ele>
        <time>2012-12-16T16:22:24Z</time>
      </trkpt>
      <trkpt lat="48.82197" lon="2.23222">
        <ele>38</ele>
        <time>2012-12-16T16:22:29Z</time>
      </trkpt>
      <trkpt lat="48.82199" lon="2.23216">
        <ele>38</ele>
        <time>2012-12-16T16:22:34Z</time>
      </trkpt>
      <trkpt lat="48.82205" lon="2.23215">
        <ele>37</ele>
        <time>2012-12-16T16:22:37Z</time>
      </trkpt>
      <trkpt lat="48.82209" lon="2.23213">
        <ele>37</ele>
        <time>2012-12-16T16:22:40Z</time>
      </trkpt>
      <trkpt lat="48.82211" lon="2.23204">
        <ele>38</ele>
        <time>2012-12-16T16:22:44Z</time>
      </trkpt>
      <trkpt lat="48.8221" lon="2.23196">
        <ele>38</ele>
        <time>2012-12-16T16:22:47Z</time>
      </trkpt>
      <trkpt lat="48.82208" lon="2.23187">
        <ele>38</ele>
        <time>2012-12-16T16:22:51Z</time>
      </trkpt>
      <trkpt lat="48.82203" lon="2.23175">
        <ele>40</ele>
        <time>2012-12-16T16:23:09Z</time>
      </trkpt>
      <trkpt lat="48.822" lon="2.23173">
        <ele>40</ele>
        <time>2012-12-16T16:23:17Z</time>
      </trkpt>
    </trkseg>
  </trk>
</gpx>